<?xml version="1.0" encoding="UTF-8" standalone="no" ?>
<gpx xmlns="http://www.topografix.com/GPX/1/1" xmlns:xsi="http://www.w3.org/2001/XMLSchema-instance" xsi:schemaLocation="http://www.topografix.com/GPX/1/1 http://www.topografix.com/GPX/1/1/gpx.xsd" version="1.1" creator="VisuGPX - https://www.visugpx.com">
  <metadata>
    <name>VTT, 39.03 km le 13_08_2021 Bgs Plaimpied St just</name>
  </metadata>
  <trk>
    <name><![CDATA[VTT, 39.03 km le 13_08_2021 on AllTrails]]></name>
    <trkseg>
      <trkpt lat="47.06733" lon="2.40697">
        <ele>149</ele>
        <time>2021-08-13T12:40:40Z</time>
      </trkpt>
      <trkpt lat="47.06733" lon="2.40696">
        <ele>149</ele>
        <time>2021-08-13T12:40:40Z</time>
      </trkpt>
      <trkpt lat="47.06733" lon="2.40695">
        <ele>149</ele>
        <time>2021-08-13T12:40:40Z</time>
      </trkpt>
      <trkpt lat="47.06732" lon="2.40693">
        <ele>149</ele>
        <time>2021-08-13T12:40:40Z</time>
      </trkpt>
      <trkpt lat="47.06732" lon="2.40691">
        <ele>149</ele>
        <time>2021-08-13T12:40:40Z</time>
      </trkpt>
      <trkpt lat="47.06732" lon="2.40689">
        <ele>149</ele>
        <time>2021-08-13T12:40:40Z</time>
      </trkpt>
      <trkpt lat="47.06732" lon="2.40688">
        <ele>149</ele>
        <time>2021-08-13T12:40:40Z</time>
      </trkpt>
      <trkpt lat="47.06732" lon="2.40687">
        <ele>149</ele>
        <time>2021-08-13T12:40:40Z</time>
      </trkpt>
      <trkpt lat="47.06732" lon="2.40686">
        <ele>149</ele>
        <time>2021-08-13T12:40:40Z</time>
      </trkpt>
      <trkpt lat="47.06732" lon="2.40686">
        <ele>149</ele>
        <time>2021-08-13T12:40:40Z</time>
      </trkpt>
      <trkpt lat="47.06732" lon="2.40686">
        <ele>149</ele>
        <time>2021-08-13T12:40:40Z</time>
      </trkpt>
      <trkpt lat="47.06732" lon="2.40686">
        <ele>149</ele>
        <time>2021-08-13T12:40:40Z</time>
      </trkpt>
      <trkpt lat="47.06732" lon="2.40686">
        <ele>149</ele>
        <time>2021-08-13T12:40:40Z</time>
      </trkpt>
      <trkpt lat="47.06733" lon="2.40686">
        <ele>149</ele>
        <time>2021-08-13T12:40:40Z</time>
      </trkpt>
      <trkpt lat="47.06733" lon="2.40685">
        <ele>149</ele>
        <time>2021-08-13T12:40:40Z</time>
      </trkpt>
      <trkpt lat="47.06733" lon="2.40685">
        <ele>149</ele>
        <time>2021-08-13T12:40:40Z</time>
      </trkpt>
      <trkpt lat="47.06732" lon="2.40685">
        <ele>149</ele>
        <time>2021-08-13T12:40:40Z</time>
      </trkpt>
      <trkpt lat="47.06732" lon="2.40685">
        <ele>149</ele>
        <time>2021-08-13T12:40:40Z</time>
      </trkpt>
      <trkpt lat="47.06732" lon="2.40685">
        <ele>149</ele>
        <time>2021-08-13T12:40:40Z</time>
      </trkpt>
      <trkpt lat="47.06732" lon="2.40685">
        <ele>149</ele>
        <time>2021-08-13T12:40:40Z</time>
      </trkpt>
      <trkpt lat="47.06732" lon="2.40685">
        <ele>149</ele>
        <time>2021-08-13T12:40:40Z</time>
      </trkpt>
      <trkpt lat="47.06732" lon="2.40684">
        <ele>149</ele>
        <time>2021-08-13T12:40:40Z</time>
      </trkpt>
      <trkpt lat="47.06731" lon="2.40683">
        <ele>149</ele>
        <time>2021-08-13T12:40:40Z</time>
      </trkpt>
      <trkpt lat="47.06731" lon="2.40684">
        <ele>149</ele>
        <time>2021-08-13T12:40:40Z</time>
      </trkpt>
      <trkpt lat="47.06731" lon="2.40684">
        <ele>149</ele>
        <time>2021-08-13T12:40:40Z</time>
      </trkpt>
      <trkpt lat="47.06731" lon="2.40684">
        <ele>149</ele>
        <time>2021-08-13T12:40:40Z</time>
      </trkpt>
      <trkpt lat="47.06731" lon="2.40683">
        <ele>149</ele>
        <time>2021-08-13T12:40:40Z</time>
      </trkpt>
      <trkpt lat="47.0673" lon="2.40682">
        <ele>149</ele>
        <time>2021-08-13T12:40:40Z</time>
      </trkpt>
      <trkpt lat="47.06731" lon="2.4068">
        <ele>149</ele>
        <time>2021-08-13T12:40:40Z</time>
      </trkpt>
      <trkpt lat="47.06731" lon="2.40678">
        <ele>149</ele>
        <time>2021-08-13T12:40:40Z</time>
      </trkpt>
      <trkpt lat="47.06731" lon="2.40676">
        <ele>149</ele>
        <time>2021-08-13T12:40:40Z</time>
      </trkpt>
      <trkpt lat="47.06732" lon="2.40674">
        <ele>149</ele>
        <time>2021-08-13T12:40:40Z</time>
      </trkpt>
      <trkpt lat="47.06735" lon="2.40673">
        <ele>149</ele>
        <time>2021-08-13T12:40:40Z</time>
      </trkpt>
      <trkpt lat="47.06738" lon="2.40673">
        <ele>149</ele>
        <time>2021-08-13T12:40:40Z</time>
      </trkpt>
      <trkpt lat="47.06742" lon="2.40673">
        <ele>149</ele>
        <time>2021-08-13T12:40:40Z</time>
      </trkpt>
      <trkpt lat="47.06747" lon="2.40673">
        <ele>149</ele>
        <time>2021-08-13T12:40:40Z</time>
      </trkpt>
      <trkpt lat="47.06771" lon="2.40663">
        <ele>149</ele>
        <time>2021-08-13T12:40:40Z</time>
      </trkpt>
      <trkpt lat="47.06797" lon="2.4065">
        <ele>149</ele>
        <time>2021-08-13T12:40:40Z</time>
      </trkpt>
      <trkpt lat="47.06809" lon="2.40644">
        <ele>148</ele>
        <time>2021-08-13T12:40:40Z</time>
      </trkpt>
      <trkpt lat="47.06815" lon="2.40641">
        <ele>148</ele>
        <time>2021-08-13T12:40:40Z</time>
      </trkpt>
      <trkpt lat="47.06821" lon="2.40638">
        <ele>147</ele>
        <time>2021-08-13T12:40:40Z</time>
      </trkpt>
      <trkpt lat="47.06827" lon="2.40634">
        <ele>147</ele>
        <time>2021-08-13T12:40:40Z</time>
      </trkpt>
      <trkpt lat="47.06833" lon="2.40631">
        <ele>146</ele>
        <time>2021-08-13T12:40:40Z</time>
      </trkpt>
      <trkpt lat="47.06839" lon="2.40629">
        <ele>146</ele>
        <time>2021-08-13T12:40:40Z</time>
      </trkpt>
      <trkpt lat="47.06845" lon="2.40626">
        <ele>146</ele>
        <time>2021-08-13T12:40:40Z</time>
      </trkpt>
      <trkpt lat="47.06851" lon="2.40623">
        <ele>146</ele>
        <time>2021-08-13T12:40:40Z</time>
      </trkpt>
      <trkpt lat="47.06857" lon="2.4062">
        <ele>146</ele>
        <time>2021-08-13T12:40:40Z</time>
      </trkpt>
      <trkpt lat="47.06862" lon="2.40617">
        <ele>146</ele>
        <time>2021-08-13T12:40:40Z</time>
      </trkpt>
      <trkpt lat="47.06866" lon="2.40615">
        <ele>146</ele>
        <time>2021-08-13T12:40:40Z</time>
      </trkpt>
      <trkpt lat="47.06869" lon="2.40612">
        <ele>146</ele>
        <time>2021-08-13T12:40:40Z</time>
      </trkpt>
      <trkpt lat="47.0687" lon="2.40606">
        <ele>146</ele>
        <time>2021-08-13T12:40:40Z</time>
      </trkpt>
      <trkpt lat="47.0687" lon="2.406">
        <ele>146</ele>
        <time>2021-08-13T12:40:40Z</time>
      </trkpt>
      <trkpt lat="47.0687" lon="2.40593">
        <ele>146</ele>
        <time>2021-08-13T12:40:40Z</time>
      </trkpt>
      <trkpt lat="47.06887" lon="2.40571">
        <ele>146</ele>
        <time>2021-08-13T12:40:40Z</time>
      </trkpt>
      <trkpt lat="47.06913" lon="2.40562">
        <ele>145</ele>
        <time>2021-08-13T12:40:40Z</time>
      </trkpt>
      <trkpt lat="47.0694" lon="2.40552">
        <ele>144</ele>
        <time>2021-08-13T12:40:40Z</time>
      </trkpt>
      <trkpt lat="47.06968" lon="2.40544">
        <ele>142</ele>
        <time>2021-08-13T12:40:40Z</time>
      </trkpt>
      <trkpt lat="47.06998" lon="2.40535">
        <ele>142</ele>
        <time>2021-08-13T12:40:40Z</time>
      </trkpt>
      <trkpt lat="47.07019" lon="2.40519">
        <ele>142</ele>
        <time>2021-08-13T12:40:40Z</time>
      </trkpt>
      <trkpt lat="47.07021" lon="2.4051">
        <ele>142</ele>
        <time>2021-08-13T12:40:40Z</time>
      </trkpt>
      <trkpt lat="47.07015" lon="2.40466">
        <ele>142</ele>
        <time>2021-08-13T12:40:40Z</time>
      </trkpt>
      <trkpt lat="47.07004" lon="2.40419">
        <ele>143</ele>
        <time>2021-08-13T12:40:40Z</time>
      </trkpt>
      <trkpt lat="47.06984" lon="2.40379">
        <ele>142</ele>
        <time>2021-08-13T12:40:40Z</time>
      </trkpt>
      <trkpt lat="47.0696" lon="2.40343">
        <ele>141</ele>
        <time>2021-08-13T12:40:40Z</time>
      </trkpt>
      <trkpt lat="47.06948" lon="2.403">
        <ele>140</ele>
        <time>2021-08-13T12:40:40Z</time>
      </trkpt>
      <trkpt lat="47.06965" lon="2.40282">
        <ele>142</ele>
        <time>2021-08-13T12:40:40Z</time>
      </trkpt>
      <trkpt lat="47.0697" lon="2.4028">
        <ele>142</ele>
        <time>2021-08-13T12:40:40Z</time>
      </trkpt>
      <trkpt lat="47.06995" lon="2.40267">
        <ele>143</ele>
        <time>2021-08-13T12:40:40Z</time>
      </trkpt>
      <trkpt lat="47.07021" lon="2.40251">
        <ele>144</ele>
        <time>2021-08-13T12:40:40Z</time>
      </trkpt>
      <trkpt lat="47.07048" lon="2.40236">
        <ele>146</ele>
        <time>2021-08-13T12:40:40Z</time>
      </trkpt>
      <trkpt lat="47.07074" lon="2.40223">
        <ele>148</ele>
        <time>2021-08-13T12:40:40Z</time>
      </trkpt>
      <trkpt lat="47.07089" lon="2.40207">
        <ele>148</ele>
        <time>2021-08-13T12:40:40Z</time>
      </trkpt>
      <trkpt lat="47.07082" lon="2.40186">
        <ele>147</ele>
        <time>2021-08-13T12:40:40Z</time>
      </trkpt>
      <trkpt lat="47.0708" lon="2.40181">
        <ele>147</ele>
        <time>2021-08-13T12:40:40Z</time>
      </trkpt>
      <trkpt lat="47.07071" lon="2.40148">
        <ele>146</ele>
        <time>2021-08-13T12:40:40Z</time>
      </trkpt>
      <trkpt lat="47.07062" lon="2.40107">
        <ele>143</ele>
        <time>2021-08-13T12:40:40Z</time>
      </trkpt>
      <trkpt lat="47.07052" lon="2.40062">
        <ele>140</ele>
        <time>2021-08-13T12:40:40Z</time>
      </trkpt>
      <trkpt lat="47.07045" lon="2.40018">
        <ele>137</ele>
        <time>2021-08-13T12:40:40Z</time>
      </trkpt>
      <trkpt lat="47.07049" lon="2.39976">
        <ele>135</ele>
        <time>2021-08-13T12:40:40Z</time>
      </trkpt>
      <trkpt lat="47.07058" lon="2.3994">
        <ele>135</ele>
        <time>2021-08-13T12:40:40Z</time>
      </trkpt>
      <trkpt lat="47.0706" lon="2.39932">
        <ele>135</ele>
        <time>2021-08-13T12:40:40Z</time>
      </trkpt>
      <trkpt lat="47.07065" lon="2.39901">
        <ele>135</ele>
        <time>2021-08-13T12:40:40Z</time>
      </trkpt>
      <trkpt lat="47.07044" lon="2.39891">
        <ele>135</ele>
        <time>2021-08-13T12:40:40Z</time>
      </trkpt>
      <trkpt lat="47.07018" lon="2.39887">
        <ele>135</ele>
        <time>2021-08-13T12:40:40Z</time>
      </trkpt>
      <trkpt lat="47.06988" lon="2.39882">
        <ele>135</ele>
        <time>2021-08-13T12:40:40Z</time>
      </trkpt>
      <trkpt lat="47.06956" lon="2.39882">
        <ele>134</ele>
        <time>2021-08-13T12:40:40Z</time>
      </trkpt>
      <trkpt lat="47.06928" lon="2.39881">
        <ele>133</ele>
        <time>2021-08-13T12:40:40Z</time>
      </trkpt>
      <trkpt lat="47.06921" lon="2.39881">
        <ele>133</ele>
        <time>2021-08-13T12:40:40Z</time>
      </trkpt>
      <trkpt lat="47.069" lon="2.39882">
        <ele>133</ele>
        <time>2021-08-13T12:40:40Z</time>
      </trkpt>
      <trkpt lat="47.06893" lon="2.39884">
        <ele>132</ele>
        <time>2021-08-13T12:40:40Z</time>
      </trkpt>
      <trkpt lat="47.06886" lon="2.39885">
        <ele>132</ele>
        <time>2021-08-13T12:40:40Z</time>
      </trkpt>
      <trkpt lat="47.06879" lon="2.39885">
        <ele>132</ele>
        <time>2021-08-13T12:40:40Z</time>
      </trkpt>
      <trkpt lat="47.06872" lon="2.39886">
        <ele>132</ele>
        <time>2021-08-13T12:40:40Z</time>
      </trkpt>
      <trkpt lat="47.06865" lon="2.39888">
        <ele>132</ele>
        <time>2021-08-13T12:40:40Z</time>
      </trkpt>
      <trkpt lat="47.06858" lon="2.39889">
        <ele>131</ele>
        <time>2021-08-13T12:40:40Z</time>
      </trkpt>
      <trkpt lat="47.06851" lon="2.3989">
        <ele>131</ele>
        <time>2021-08-13T12:40:40Z</time>
      </trkpt>
      <trkpt lat="47.06843" lon="2.39891">
        <ele>130</ele>
        <time>2021-08-13T12:40:40Z</time>
      </trkpt>
      <trkpt lat="47.06836" lon="2.39892">
        <ele>130</ele>
        <time>2021-08-13T12:40:40Z</time>
      </trkpt>
      <trkpt lat="47.06829" lon="2.39893">
        <ele>130</ele>
        <time>2021-08-13T12:40:40Z</time>
      </trkpt>
      <trkpt lat="47.06821" lon="2.39893">
        <ele>130</ele>
        <time>2021-08-13T12:40:40Z</time>
      </trkpt>
      <trkpt lat="47.06814" lon="2.39893">
        <ele>130</ele>
        <time>2021-08-13T12:40:40Z</time>
      </trkpt>
      <trkpt lat="47.06806" lon="2.39895">
        <ele>130</ele>
        <time>2021-08-13T12:40:40Z</time>
      </trkpt>
      <trkpt lat="47.06799" lon="2.39896">
        <ele>130</ele>
        <time>2021-08-13T12:40:40Z</time>
      </trkpt>
      <trkpt lat="47.06792" lon="2.39896">
        <ele>130</ele>
        <time>2021-08-13T12:40:40Z</time>
      </trkpt>
      <trkpt lat="47.06785" lon="2.39897">
        <ele>130</ele>
        <time>2021-08-13T12:40:40Z</time>
      </trkpt>
      <trkpt lat="47.06778" lon="2.39898">
        <ele>130</ele>
        <time>2021-08-13T12:40:40Z</time>
      </trkpt>
      <trkpt lat="47.06771" lon="2.39899">
        <ele>130</ele>
        <time>2021-08-13T12:40:40Z</time>
      </trkpt>
      <trkpt lat="47.06764" lon="2.39898">
        <ele>130</ele>
        <time>2021-08-13T12:40:40Z</time>
      </trkpt>
      <trkpt lat="47.06758" lon="2.39896">
        <ele>129</ele>
        <time>2021-08-13T12:40:40Z</time>
      </trkpt>
      <trkpt lat="47.06751" lon="2.39895">
        <ele>129</ele>
        <time>2021-08-13T12:40:40Z</time>
      </trkpt>
      <trkpt lat="47.06744" lon="2.39894">
        <ele>129</ele>
        <time>2021-08-13T12:40:40Z</time>
      </trkpt>
      <trkpt lat="47.06738" lon="2.39893">
        <ele>129</ele>
        <time>2021-08-13T12:40:40Z</time>
      </trkpt>
      <trkpt lat="47.06732" lon="2.39892">
        <ele>129</ele>
        <time>2021-08-13T12:40:40Z</time>
      </trkpt>
      <trkpt lat="47.06725" lon="2.39892">
        <ele>129</ele>
        <time>2021-08-13T12:40:40Z</time>
      </trkpt>
      <trkpt lat="47.06719" lon="2.39892">
        <ele>129</ele>
        <time>2021-08-13T12:40:40Z</time>
      </trkpt>
      <trkpt lat="47.06713" lon="2.39892">
        <ele>129</ele>
        <time>2021-08-13T12:40:40Z</time>
      </trkpt>
      <trkpt lat="47.06707" lon="2.39893">
        <ele>130</ele>
        <time>2021-08-13T12:40:40Z</time>
      </trkpt>
      <trkpt lat="47.067" lon="2.39893">
        <ele>130</ele>
        <time>2021-08-13T12:40:40Z</time>
      </trkpt>
      <trkpt lat="47.06694" lon="2.39894">
        <ele>131</ele>
        <time>2021-08-13T12:40:40Z</time>
      </trkpt>
      <trkpt lat="47.06688" lon="2.39896">
        <ele>131</ele>
        <time>2021-08-13T12:40:40Z</time>
      </trkpt>
      <trkpt lat="47.06682" lon="2.39898">
        <ele>131</ele>
        <time>2021-08-13T12:40:40Z</time>
      </trkpt>
      <trkpt lat="47.06677" lon="2.399">
        <ele>130</ele>
        <time>2021-08-13T12:40:40Z</time>
      </trkpt>
      <trkpt lat="47.06671" lon="2.39903">
        <ele>130</ele>
        <time>2021-08-13T12:40:40Z</time>
      </trkpt>
      <trkpt lat="47.06666" lon="2.39905">
        <ele>130</ele>
        <time>2021-08-13T12:40:40Z</time>
      </trkpt>
      <trkpt lat="47.0666" lon="2.39907">
        <ele>130</ele>
        <time>2021-08-13T12:40:40Z</time>
      </trkpt>
      <trkpt lat="47.06654" lon="2.3991">
        <ele>130</ele>
        <time>2021-08-13T12:40:40Z</time>
      </trkpt>
      <trkpt lat="47.06648" lon="2.39913">
        <ele>130</ele>
        <time>2021-08-13T12:40:40Z</time>
      </trkpt>
      <trkpt lat="47.06642" lon="2.39915">
        <ele>130</ele>
        <time>2021-08-13T12:40:40Z</time>
      </trkpt>
      <trkpt lat="47.06636" lon="2.39917">
        <ele>130</ele>
        <time>2021-08-13T12:40:40Z</time>
      </trkpt>
      <trkpt lat="47.0663" lon="2.3992">
        <ele>130</ele>
        <time>2021-08-13T12:40:40Z</time>
      </trkpt>
      <trkpt lat="47.06624" lon="2.39923">
        <ele>130</ele>
        <time>2021-08-13T12:40:40Z</time>
      </trkpt>
      <trkpt lat="47.06618" lon="2.39925">
        <ele>131</ele>
        <time>2021-08-13T12:40:40Z</time>
      </trkpt>
      <trkpt lat="47.06612" lon="2.39928">
        <ele>131</ele>
        <time>2021-08-13T12:40:40Z</time>
      </trkpt>
      <trkpt lat="47.06606" lon="2.39931">
        <ele>131</ele>
        <time>2021-08-13T12:40:40Z</time>
      </trkpt>
      <trkpt lat="47.066" lon="2.39932">
        <ele>132</ele>
        <time>2021-08-13T12:40:40Z</time>
      </trkpt>
      <trkpt lat="47.06594" lon="2.39932">
        <ele>132</ele>
        <time>2021-08-13T12:40:40Z</time>
      </trkpt>
      <trkpt lat="47.06588" lon="2.39933">
        <ele>132</ele>
        <time>2021-08-13T12:40:40Z</time>
      </trkpt>
      <trkpt lat="47.06582" lon="2.39933">
        <ele>133</ele>
        <time>2021-08-13T12:40:40Z</time>
      </trkpt>
      <trkpt lat="47.06575" lon="2.39934">
        <ele>133</ele>
        <time>2021-08-13T12:40:40Z</time>
      </trkpt>
      <trkpt lat="47.06569" lon="2.39935">
        <ele>133</ele>
        <time>2021-08-13T12:40:40Z</time>
      </trkpt>
      <trkpt lat="47.06563" lon="2.39936">
        <ele>133</ele>
        <time>2021-08-13T12:40:40Z</time>
      </trkpt>
      <trkpt lat="47.06557" lon="2.39937">
        <ele>133</ele>
        <time>2021-08-13T12:40:40Z</time>
      </trkpt>
      <trkpt lat="47.06551" lon="2.39938">
        <ele>133</ele>
        <time>2021-08-13T12:40:40Z</time>
      </trkpt>
      <trkpt lat="47.06545" lon="2.39939">
        <ele>133</ele>
        <time>2021-08-13T12:40:40Z</time>
      </trkpt>
      <trkpt lat="47.06538" lon="2.39941">
        <ele>133</ele>
        <time>2021-08-13T12:40:40Z</time>
      </trkpt>
      <trkpt lat="47.06532" lon="2.39941">
        <ele>133</ele>
        <time>2021-08-13T12:40:40Z</time>
      </trkpt>
      <trkpt lat="47.06525" lon="2.39942">
        <ele>133</ele>
        <time>2021-08-13T12:40:40Z</time>
      </trkpt>
      <trkpt lat="47.06519" lon="2.39942">
        <ele>134</ele>
        <time>2021-08-13T12:40:40Z</time>
      </trkpt>
      <trkpt lat="47.06513" lon="2.39943">
        <ele>134</ele>
        <time>2021-08-13T12:40:40Z</time>
      </trkpt>
      <trkpt lat="47.0648" lon="2.39947">
        <ele>134</ele>
        <time>2021-08-13T12:40:40Z</time>
      </trkpt>
      <trkpt lat="47.06447" lon="2.39956">
        <ele>132</ele>
        <time>2021-08-13T12:40:40Z</time>
      </trkpt>
      <trkpt lat="47.06413" lon="2.39971">
        <ele>130</ele>
        <time>2021-08-13T12:40:40Z</time>
      </trkpt>
      <trkpt lat="47.06378" lon="2.3999">
        <ele>131</ele>
        <time>2021-08-13T12:40:40Z</time>
      </trkpt>
      <trkpt lat="47.06345" lon="2.40006">
        <ele>131</ele>
        <time>2021-08-13T12:40:40Z</time>
      </trkpt>
      <trkpt lat="47.06321" lon="2.40006">
        <ele>131</ele>
        <time>2021-08-13T12:40:40Z</time>
      </trkpt>
      <trkpt lat="47.06318" lon="2.39997">
        <ele>130</ele>
        <time>2021-08-13T12:40:40Z</time>
      </trkpt>
      <trkpt lat="47.06311" lon="2.39964">
        <ele>129</ele>
        <time>2021-08-13T12:40:40Z</time>
      </trkpt>
      <trkpt lat="47.06309" lon="2.39952">
        <ele>129</ele>
        <time>2021-08-13T12:40:40Z</time>
      </trkpt>
      <trkpt lat="47.06311" lon="2.39944">
        <ele>129</ele>
        <time>2021-08-13T12:40:40Z</time>
      </trkpt>
      <trkpt lat="47.06318" lon="2.39927">
        <ele>129</ele>
        <time>2021-08-13T12:40:40Z</time>
      </trkpt>
      <trkpt lat="47.06314" lon="2.39912">
        <ele>129</ele>
        <time>2021-08-13T12:40:40Z</time>
      </trkpt>
      <trkpt lat="47.06316" lon="2.39896">
        <ele>129</ele>
        <time>2021-08-13T12:40:40Z</time>
      </trkpt>
      <trkpt lat="47.06316" lon="2.39891">
        <ele>129</ele>
        <time>2021-08-13T12:40:40Z</time>
      </trkpt>
      <trkpt lat="47.06314" lon="2.39871">
        <ele>130</ele>
        <time>2021-08-13T12:40:40Z</time>
      </trkpt>
      <trkpt lat="47.06314" lon="2.39866">
        <ele>130</ele>
        <time>2021-08-13T12:40:40Z</time>
      </trkpt>
      <trkpt lat="47.06313" lon="2.39862">
        <ele>130</ele>
        <time>2021-08-13T12:40:40Z</time>
      </trkpt>
      <trkpt lat="47.06312" lon="2.39857">
        <ele>130</ele>
        <time>2021-08-13T12:40:40Z</time>
      </trkpt>
      <trkpt lat="47.06309" lon="2.39854">
        <ele>130</ele>
        <time>2021-08-13T12:40:40Z</time>
      </trkpt>
      <trkpt lat="47.06306" lon="2.39852">
        <ele>130</ele>
        <time>2021-08-13T12:40:40Z</time>
      </trkpt>
      <trkpt lat="47.06302" lon="2.39849">
        <ele>130</ele>
        <time>2021-08-13T12:40:40Z</time>
      </trkpt>
      <trkpt lat="47.06299" lon="2.39847">
        <ele>130</ele>
        <time>2021-08-13T12:40:40Z</time>
      </trkpt>
      <trkpt lat="47.0628" lon="2.39832">
        <ele>131</ele>
        <time>2021-08-13T12:40:40Z</time>
      </trkpt>
      <trkpt lat="47.06263" lon="2.39802">
        <ele>130</ele>
        <time>2021-08-13T12:40:40Z</time>
      </trkpt>
      <trkpt lat="47.06243" lon="2.3976">
        <ele>127</ele>
        <time>2021-08-13T12:40:40Z</time>
      </trkpt>
      <trkpt lat="47.06227" lon="2.39708">
        <ele>125</ele>
        <time>2021-08-13T12:40:40Z</time>
      </trkpt>
      <trkpt lat="47.06219" lon="2.39663">
        <ele>126</ele>
        <time>2021-08-13T12:40:40Z</time>
      </trkpt>
      <trkpt lat="47.06199" lon="2.39643">
        <ele>126</ele>
        <time>2021-08-13T12:40:40Z</time>
      </trkpt>
      <trkpt lat="47.06193" lon="2.39646">
        <ele>127</ele>
        <time>2021-08-13T12:40:40Z</time>
      </trkpt>
      <trkpt lat="47.06181" lon="2.39651">
        <ele>127</ele>
        <time>2021-08-13T12:40:40Z</time>
      </trkpt>
      <trkpt lat="47.06175" lon="2.39654">
        <ele>126</ele>
        <time>2021-08-13T12:40:40Z</time>
      </trkpt>
      <trkpt lat="47.06168" lon="2.39656">
        <ele>126</ele>
        <time>2021-08-13T12:40:40Z</time>
      </trkpt>
      <trkpt lat="47.06162" lon="2.39658">
        <ele>126</ele>
        <time>2021-08-13T12:40:40Z</time>
      </trkpt>
      <trkpt lat="47.06156" lon="2.39661">
        <ele>126</ele>
        <time>2021-08-13T12:40:40Z</time>
      </trkpt>
      <trkpt lat="47.0615" lon="2.39664">
        <ele>126</ele>
        <time>2021-08-13T12:40:40Z</time>
      </trkpt>
      <trkpt lat="47.06138" lon="2.39668">
        <ele>126</ele>
        <time>2021-08-13T12:40:40Z</time>
      </trkpt>
      <trkpt lat="47.06132" lon="2.3967">
        <ele>126</ele>
        <time>2021-08-13T12:40:40Z</time>
      </trkpt>
      <trkpt lat="47.06126" lon="2.39672">
        <ele>127</ele>
        <time>2021-08-13T12:40:40Z</time>
      </trkpt>
      <trkpt lat="47.0612" lon="2.39675">
        <ele>128</ele>
        <time>2021-08-13T12:40:40Z</time>
      </trkpt>
      <trkpt lat="47.06113" lon="2.39678">
        <ele>129</ele>
        <time>2021-08-13T12:40:40Z</time>
      </trkpt>
      <trkpt lat="47.06107" lon="2.39681">
        <ele>129</ele>
        <time>2021-08-13T12:40:40Z</time>
      </trkpt>
      <trkpt lat="47.06101" lon="2.39683">
        <ele>129</ele>
        <time>2021-08-13T12:40:40Z</time>
      </trkpt>
      <trkpt lat="47.06095" lon="2.39685">
        <ele>129</ele>
        <time>2021-08-13T12:40:40Z</time>
      </trkpt>
      <trkpt lat="47.06088" lon="2.39687">
        <ele>129</ele>
        <time>2021-08-13T12:40:40Z</time>
      </trkpt>
      <trkpt lat="47.06082" lon="2.39689">
        <ele>129</ele>
        <time>2021-08-13T12:40:40Z</time>
      </trkpt>
      <trkpt lat="47.06076" lon="2.39692">
        <ele>128</ele>
        <time>2021-08-13T12:40:40Z</time>
      </trkpt>
      <trkpt lat="47.06064" lon="2.39698">
        <ele>127</ele>
        <time>2021-08-13T12:40:40Z</time>
      </trkpt>
      <trkpt lat="47.06057" lon="2.39701">
        <ele>126</ele>
        <time>2021-08-13T12:40:40Z</time>
      </trkpt>
      <trkpt lat="47.06051" lon="2.39703">
        <ele>126</ele>
        <time>2021-08-13T12:40:40Z</time>
      </trkpt>
      <trkpt lat="47.06045" lon="2.39705">
        <ele>126</ele>
        <time>2021-08-13T12:40:40Z</time>
      </trkpt>
      <trkpt lat="47.06038" lon="2.39707">
        <ele>126</ele>
        <time>2021-08-13T12:40:40Z</time>
      </trkpt>
      <trkpt lat="47.06032" lon="2.39708">
        <ele>126</ele>
        <time>2021-08-13T12:40:40Z</time>
      </trkpt>
      <trkpt lat="47.06025" lon="2.39709">
        <ele>126</ele>
        <time>2021-08-13T12:40:40Z</time>
      </trkpt>
      <trkpt lat="47.06018" lon="2.39707">
        <ele>126</ele>
        <time>2021-08-13T12:40:40Z</time>
      </trkpt>
      <trkpt lat="47.06012" lon="2.39703">
        <ele>126</ele>
        <time>2021-08-13T12:40:40Z</time>
      </trkpt>
      <trkpt lat="47.06005" lon="2.397">
        <ele>126</ele>
        <time>2021-08-13T12:40:40Z</time>
      </trkpt>
      <trkpt lat="47.05999" lon="2.39695">
        <ele>126</ele>
        <time>2021-08-13T12:40:40Z</time>
      </trkpt>
      <trkpt lat="47.05986" lon="2.39687">
        <ele>126</ele>
        <time>2021-08-13T12:40:40Z</time>
      </trkpt>
      <trkpt lat="47.0598" lon="2.39683">
        <ele>126</ele>
        <time>2021-08-13T12:40:40Z</time>
      </trkpt>
      <trkpt lat="47.05974" lon="2.39678">
        <ele>126</ele>
        <time>2021-08-13T12:40:40Z</time>
      </trkpt>
      <trkpt lat="47.05969" lon="2.39674">
        <ele>126</ele>
        <time>2021-08-13T12:40:40Z</time>
      </trkpt>
      <trkpt lat="47.05962" lon="2.39669">
        <ele>126</ele>
        <time>2021-08-13T12:40:40Z</time>
      </trkpt>
      <trkpt lat="47.05957" lon="2.39663">
        <ele>126</ele>
        <time>2021-08-13T12:40:40Z</time>
      </trkpt>
      <trkpt lat="47.05951" lon="2.39658">
        <ele>126</ele>
        <time>2021-08-13T12:40:40Z</time>
      </trkpt>
      <trkpt lat="47.05945" lon="2.39654">
        <ele>126</ele>
        <time>2021-08-13T12:40:40Z</time>
      </trkpt>
      <trkpt lat="47.05939" lon="2.39648">
        <ele>127</ele>
        <time>2021-08-13T12:40:40Z</time>
      </trkpt>
      <trkpt lat="47.05934" lon="2.39642">
        <ele>127</ele>
        <time>2021-08-13T12:40:40Z</time>
      </trkpt>
      <trkpt lat="47.05929" lon="2.39634">
        <ele>127</ele>
        <time>2021-08-13T12:40:40Z</time>
      </trkpt>
      <trkpt lat="47.05924" lon="2.39626">
        <ele>127</ele>
        <time>2021-08-13T12:40:40Z</time>
      </trkpt>
      <trkpt lat="47.05919" lon="2.39617">
        <ele>127</ele>
        <time>2021-08-13T12:40:40Z</time>
      </trkpt>
      <trkpt lat="47.05915" lon="2.39609">
        <ele>126</ele>
        <time>2021-08-13T12:40:40Z</time>
      </trkpt>
      <trkpt lat="47.0591" lon="2.39601">
        <ele>126</ele>
        <time>2021-08-13T12:40:40Z</time>
      </trkpt>
      <trkpt lat="47.05905" lon="2.39594">
        <ele>125</ele>
        <time>2021-08-13T12:40:40Z</time>
      </trkpt>
      <trkpt lat="47.059" lon="2.39587">
        <ele>125</ele>
        <time>2021-08-13T12:40:40Z</time>
      </trkpt>
      <trkpt lat="47.05894" lon="2.39581">
        <ele>124</ele>
        <time>2021-08-13T12:40:40Z</time>
      </trkpt>
      <trkpt lat="47.05888" lon="2.39576">
        <ele>124</ele>
        <time>2021-08-13T12:40:40Z</time>
      </trkpt>
      <trkpt lat="47.05881" lon="2.39571">
        <ele>124</ele>
        <time>2021-08-13T12:40:40Z</time>
      </trkpt>
      <trkpt lat="47.05875" lon="2.39567">
        <ele>124</ele>
        <time>2021-08-13T12:40:40Z</time>
      </trkpt>
      <trkpt lat="47.05869" lon="2.39563">
        <ele>124</ele>
        <time>2021-08-13T12:40:40Z</time>
      </trkpt>
      <trkpt lat="47.05863" lon="2.39561">
        <ele>124</ele>
        <time>2021-08-13T12:40:40Z</time>
      </trkpt>
      <trkpt lat="47.05856" lon="2.39559">
        <ele>125</ele>
        <time>2021-08-13T12:40:40Z</time>
      </trkpt>
      <trkpt lat="47.0585" lon="2.39557">
        <ele>126</ele>
        <time>2021-08-13T12:40:40Z</time>
      </trkpt>
      <trkpt lat="47.05843" lon="2.39555">
        <ele>127</ele>
        <time>2021-08-13T12:40:40Z</time>
      </trkpt>
      <trkpt lat="47.05836" lon="2.39554">
        <ele>128</ele>
        <time>2021-08-13T12:40:40Z</time>
      </trkpt>
      <trkpt lat="47.05829" lon="2.39553">
        <ele>129</ele>
        <time>2021-08-13T12:40:40Z</time>
      </trkpt>
      <trkpt lat="47.05823" lon="2.39552">
        <ele>129</ele>
        <time>2021-08-13T12:40:40Z</time>
      </trkpt>
      <trkpt lat="47.05817" lon="2.39551">
        <ele>130</ele>
        <time>2021-08-13T12:40:40Z</time>
      </trkpt>
      <trkpt lat="47.05787" lon="2.39554">
        <ele>130</ele>
        <time>2021-08-13T12:40:40Z</time>
      </trkpt>
      <trkpt lat="47.05758" lon="2.39559">
        <ele>131</ele>
        <time>2021-08-13T12:40:40Z</time>
      </trkpt>
      <trkpt lat="47.05731" lon="2.39567">
        <ele>132</ele>
        <time>2021-08-13T12:40:40Z</time>
      </trkpt>
      <trkpt lat="47.05709" lon="2.39581">
        <ele>133</ele>
        <time>2021-08-13T12:40:40Z</time>
      </trkpt>
      <trkpt lat="47.05687" lon="2.39586">
        <ele>133</ele>
        <time>2021-08-13T12:40:40Z</time>
      </trkpt>
      <trkpt lat="47.05667" lon="2.396">
        <ele>132</ele>
        <time>2021-08-13T12:40:40Z</time>
      </trkpt>
      <trkpt lat="47.05663" lon="2.39604">
        <ele>132</ele>
        <time>2021-08-13T12:40:40Z</time>
      </trkpt>
      <trkpt lat="47.05632" lon="2.39621">
        <ele>132</ele>
        <time>2021-08-13T12:40:40Z</time>
      </trkpt>
      <trkpt lat="47.05601" lon="2.39627">
        <ele>134</ele>
        <time>2021-08-13T12:40:40Z</time>
      </trkpt>
      <trkpt lat="47.05568" lon="2.39628">
        <ele>135</ele>
        <time>2021-08-13T12:40:40Z</time>
      </trkpt>
      <trkpt lat="47.05533" lon="2.39631">
        <ele>129</ele>
        <time>2021-08-13T12:40:40Z</time>
      </trkpt>
      <trkpt lat="47.05501" lon="2.39654">
        <ele>127</ele>
        <time>2021-08-13T12:40:40Z</time>
      </trkpt>
      <trkpt lat="47.0547" lon="2.39666">
        <ele>126</ele>
        <time>2021-08-13T12:40:40Z</time>
      </trkpt>
      <trkpt lat="47.05462" lon="2.39669">
        <ele>126</ele>
        <time>2021-08-13T12:40:40Z</time>
      </trkpt>
      <trkpt lat="47.05454" lon="2.39672">
        <ele>127</ele>
        <time>2021-08-13T12:40:40Z</time>
      </trkpt>
      <trkpt lat="47.05447" lon="2.39676">
        <ele>127</ele>
        <time>2021-08-13T12:40:40Z</time>
      </trkpt>
      <trkpt lat="47.0544" lon="2.39682">
        <ele>127</ele>
        <time>2021-08-13T12:40:40Z</time>
      </trkpt>
      <trkpt lat="47.05433" lon="2.39687">
        <ele>126</ele>
        <time>2021-08-13T12:40:40Z</time>
      </trkpt>
      <trkpt lat="47.05427" lon="2.39694">
        <ele>126</ele>
        <time>2021-08-13T12:40:40Z</time>
      </trkpt>
      <trkpt lat="47.05421" lon="2.39701">
        <ele>126</ele>
        <time>2021-08-13T12:40:40Z</time>
      </trkpt>
      <trkpt lat="47.05416" lon="2.39709">
        <ele>126</ele>
        <time>2021-08-13T12:40:40Z</time>
      </trkpt>
      <trkpt lat="47.0541" lon="2.39717">
        <ele>126</ele>
        <time>2021-08-13T12:40:40Z</time>
      </trkpt>
      <trkpt lat="47.05406" lon="2.39726">
        <ele>126</ele>
        <time>2021-08-13T12:40:40Z</time>
      </trkpt>
      <trkpt lat="47.05402" lon="2.39735">
        <ele>126</ele>
        <time>2021-08-13T12:40:40Z</time>
      </trkpt>
      <trkpt lat="47.05398" lon="2.39745">
        <ele>126</ele>
        <time>2021-08-13T12:40:40Z</time>
      </trkpt>
      <trkpt lat="47.05396" lon="2.39756">
        <ele>126</ele>
        <time>2021-08-13T12:40:40Z</time>
      </trkpt>
      <trkpt lat="47.05393" lon="2.39766">
        <ele>126</ele>
        <time>2021-08-13T12:40:40Z</time>
      </trkpt>
      <trkpt lat="47.05391" lon="2.39777">
        <ele>126</ele>
        <time>2021-08-13T12:40:40Z</time>
      </trkpt>
      <trkpt lat="47.05388" lon="2.39787">
        <ele>126</ele>
        <time>2021-08-13T12:40:40Z</time>
      </trkpt>
      <trkpt lat="47.05384" lon="2.39797">
        <ele>126</ele>
        <time>2021-08-13T12:40:40Z</time>
      </trkpt>
      <trkpt lat="47.0538" lon="2.39805">
        <ele>126</ele>
        <time>2021-08-13T12:40:40Z</time>
      </trkpt>
      <trkpt lat="47.05374" lon="2.39813">
        <ele>126</ele>
        <time>2021-08-13T12:40:40Z</time>
      </trkpt>
      <trkpt lat="47.05368" lon="2.39817">
        <ele>126</ele>
        <time>2021-08-13T12:40:40Z</time>
      </trkpt>
      <trkpt lat="47.0536" lon="2.3982">
        <ele>126</ele>
        <time>2021-08-13T12:40:40Z</time>
      </trkpt>
      <trkpt lat="47.05353" lon="2.39822">
        <ele>126</ele>
        <time>2021-08-13T12:40:40Z</time>
      </trkpt>
      <trkpt lat="47.05346" lon="2.39825">
        <ele>126</ele>
        <time>2021-08-13T12:40:40Z</time>
      </trkpt>
      <trkpt lat="47.05339" lon="2.39828">
        <ele>126</ele>
        <time>2021-08-13T12:40:40Z</time>
      </trkpt>
      <trkpt lat="47.05332" lon="2.39829">
        <ele>126</ele>
        <time>2021-08-13T12:40:40Z</time>
      </trkpt>
      <trkpt lat="47.05325" lon="2.39831">
        <ele>126</ele>
        <time>2021-08-13T12:40:40Z</time>
      </trkpt>
      <trkpt lat="47.05318" lon="2.39832">
        <ele>126</ele>
        <time>2021-08-13T12:40:40Z</time>
      </trkpt>
      <trkpt lat="47.05311" lon="2.39833">
        <ele>126</ele>
        <time>2021-08-13T12:40:40Z</time>
      </trkpt>
      <trkpt lat="47.05304" lon="2.39835">
        <ele>126</ele>
        <time>2021-08-13T12:40:40Z</time>
      </trkpt>
      <trkpt lat="47.05296" lon="2.39836">
        <ele>126</ele>
        <time>2021-08-13T12:40:40Z</time>
      </trkpt>
      <trkpt lat="47.05289" lon="2.39838">
        <ele>126</ele>
        <time>2021-08-13T12:40:40Z</time>
      </trkpt>
      <trkpt lat="47.05282" lon="2.3984">
        <ele>126</ele>
        <time>2021-08-13T12:40:40Z</time>
      </trkpt>
      <trkpt lat="47.05275" lon="2.39842">
        <ele>126</ele>
        <time>2021-08-13T12:40:40Z</time>
      </trkpt>
      <trkpt lat="47.05268" lon="2.39844">
        <ele>126</ele>
        <time>2021-08-13T12:40:40Z</time>
      </trkpt>
      <trkpt lat="47.05261" lon="2.39847">
        <ele>126</ele>
        <time>2021-08-13T12:40:40Z</time>
      </trkpt>
      <trkpt lat="47.05254" lon="2.3985">
        <ele>126</ele>
        <time>2021-08-13T12:40:40Z</time>
      </trkpt>
      <trkpt lat="47.05247" lon="2.39853">
        <ele>126</ele>
        <time>2021-08-13T12:40:40Z</time>
      </trkpt>
      <trkpt lat="47.05212" lon="2.39862">
        <ele>126</ele>
        <time>2021-08-13T12:40:40Z</time>
      </trkpt>
      <trkpt lat="47.05175" lon="2.39873">
        <ele>127</ele>
        <time>2021-08-13T12:40:40Z</time>
      </trkpt>
      <trkpt lat="47.05142" lon="2.39895">
        <ele>131</ele>
        <time>2021-08-13T12:40:40Z</time>
      </trkpt>
      <trkpt lat="47.05108" lon="2.39909">
        <ele>131</ele>
        <time>2021-08-13T12:40:40Z</time>
      </trkpt>
      <trkpt lat="47.05079" lon="2.3992">
        <ele>130</ele>
        <time>2021-08-13T12:40:40Z</time>
      </trkpt>
      <trkpt lat="47.05052" lon="2.39929">
        <ele>129</ele>
        <time>2021-08-13T12:40:40Z</time>
      </trkpt>
      <trkpt lat="47.05046" lon="2.39932">
        <ele>129</ele>
        <time>2021-08-13T12:40:40Z</time>
      </trkpt>
      <trkpt lat="47.05015" lon="2.39953">
        <ele>128</ele>
        <time>2021-08-13T12:40:40Z</time>
      </trkpt>
      <trkpt lat="47.04984" lon="2.39981">
        <ele>129</ele>
        <time>2021-08-13T12:40:40Z</time>
      </trkpt>
      <trkpt lat="47.04951" lon="2.39999">
        <ele>129</ele>
        <time>2021-08-13T12:40:40Z</time>
      </trkpt>
      <trkpt lat="47.04917" lon="2.39997">
        <ele>127</ele>
        <time>2021-08-13T12:40:40Z</time>
      </trkpt>
      <trkpt lat="47.04885" lon="2.39982">
        <ele>127</ele>
        <time>2021-08-13T12:40:40Z</time>
      </trkpt>
      <trkpt lat="47.04864" lon="2.40004">
        <ele>127</ele>
        <time>2021-08-13T12:40:40Z</time>
      </trkpt>
      <trkpt lat="47.04859" lon="2.40011">
        <ele>128</ele>
        <time>2021-08-13T12:40:40Z</time>
      </trkpt>
      <trkpt lat="47.04835" lon="2.40045">
        <ele>128</ele>
        <time>2021-08-13T12:40:40Z</time>
      </trkpt>
      <trkpt lat="47.04808" lon="2.40078">
        <ele>131</ele>
        <time>2021-08-13T12:40:40Z</time>
      </trkpt>
      <trkpt lat="47.04784" lon="2.40111">
        <ele>133</ele>
        <time>2021-08-13T12:40:40Z</time>
      </trkpt>
      <trkpt lat="47.04758" lon="2.40142">
        <ele>131</ele>
        <time>2021-08-13T12:40:40Z</time>
      </trkpt>
      <trkpt lat="47.04734" lon="2.40177">
        <ele>130</ele>
        <time>2021-08-13T12:40:40Z</time>
      </trkpt>
      <trkpt lat="47.04715" lon="2.40204">
        <ele>130</ele>
        <time>2021-08-13T12:40:40Z</time>
      </trkpt>
      <trkpt lat="47.04709" lon="2.40209">
        <ele>130</ele>
        <time>2021-08-13T12:40:40Z</time>
      </trkpt>
      <trkpt lat="47.047" lon="2.40225">
        <ele>130</ele>
        <time>2021-08-13T12:40:40Z</time>
      </trkpt>
      <trkpt lat="47.04695" lon="2.40232">
        <ele>129</ele>
        <time>2021-08-13T12:40:40Z</time>
      </trkpt>
      <trkpt lat="47.04691" lon="2.40239">
        <ele>129</ele>
        <time>2021-08-13T12:40:40Z</time>
      </trkpt>
      <trkpt lat="47.04686" lon="2.40246">
        <ele>129</ele>
        <time>2021-08-13T12:40:40Z</time>
      </trkpt>
      <trkpt lat="47.0468" lon="2.40253">
        <ele>129</ele>
        <time>2021-08-13T12:40:40Z</time>
      </trkpt>
      <trkpt lat="47.04675" lon="2.40258">
        <ele>128</ele>
        <time>2021-08-13T12:40:40Z</time>
      </trkpt>
      <trkpt lat="47.04669" lon="2.40264">
        <ele>128</ele>
        <time>2021-08-13T12:40:40Z</time>
      </trkpt>
      <trkpt lat="47.04663" lon="2.4027">
        <ele>127</ele>
        <time>2021-08-13T12:40:40Z</time>
      </trkpt>
      <trkpt lat="47.04656" lon="2.40273">
        <ele>127</ele>
        <time>2021-08-13T12:40:40Z</time>
      </trkpt>
      <trkpt lat="47.0465" lon="2.40275">
        <ele>126</ele>
        <time>2021-08-13T12:40:40Z</time>
      </trkpt>
      <trkpt lat="47.04615" lon="2.4028">
        <ele>129</ele>
        <time>2021-08-13T12:40:40Z</time>
      </trkpt>
      <trkpt lat="47.04583" lon="2.40289">
        <ele>128</ele>
        <time>2021-08-13T12:40:40Z</time>
      </trkpt>
      <trkpt lat="47.04549" lon="2.40287">
        <ele>126</ele>
        <time>2021-08-13T12:40:40Z</time>
      </trkpt>
      <trkpt lat="47.04515" lon="2.4028">
        <ele>126</ele>
        <time>2021-08-13T12:40:40Z</time>
      </trkpt>
      <trkpt lat="47.04486" lon="2.40255">
        <ele>131</ele>
        <time>2021-08-13T12:40:40Z</time>
      </trkpt>
      <trkpt lat="47.04465" lon="2.40234">
        <ele>133</ele>
        <time>2021-08-13T12:40:40Z</time>
      </trkpt>
      <trkpt lat="47.0446" lon="2.40228">
        <ele>133</ele>
        <time>2021-08-13T12:40:40Z</time>
      </trkpt>
      <trkpt lat="47.04424" lon="2.40224">
        <ele>133</ele>
        <time>2021-08-13T12:40:40Z</time>
      </trkpt>
      <trkpt lat="47.04393" lon="2.40248">
        <ele>126</ele>
        <time>2021-08-13T12:40:40Z</time>
      </trkpt>
      <trkpt lat="47.04365" lon="2.40273">
        <ele>126</ele>
        <time>2021-08-13T12:40:40Z</time>
      </trkpt>
      <trkpt lat="47.04337" lon="2.403">
        <ele>126</ele>
        <time>2021-08-13T12:40:40Z</time>
      </trkpt>
      <trkpt lat="47.04308" lon="2.40327">
        <ele>127</ele>
        <time>2021-08-13T12:40:40Z</time>
      </trkpt>
      <trkpt lat="47.04285" lon="2.4035">
        <ele>128</ele>
        <time>2021-08-13T12:40:40Z</time>
      </trkpt>
      <trkpt lat="47.04279" lon="2.40355">
        <ele>128</ele>
        <time>2021-08-13T12:40:40Z</time>
      </trkpt>
      <trkpt lat="47.04252" lon="2.40375">
        <ele>130</ele>
        <time>2021-08-13T12:40:40Z</time>
      </trkpt>
      <trkpt lat="47.04231" lon="2.40387">
        <ele>130</ele>
        <time>2021-08-13T12:40:40Z</time>
      </trkpt>
      <trkpt lat="47.04226" lon="2.4042">
        <ele>129</ele>
        <time>2021-08-13T12:40:40Z</time>
      </trkpt>
      <trkpt lat="47.04216" lon="2.40459">
        <ele>128</ele>
        <time>2021-08-13T12:40:40Z</time>
      </trkpt>
      <trkpt lat="47.04211" lon="2.40506">
        <ele>127</ele>
        <time>2021-08-13T12:40:40Z</time>
      </trkpt>
      <trkpt lat="47.04208" lon="2.40544">
        <ele>126</ele>
        <time>2021-08-13T12:40:40Z</time>
      </trkpt>
      <trkpt lat="47.04207" lon="2.40553">
        <ele>126</ele>
        <time>2021-08-13T12:40:40Z</time>
      </trkpt>
      <trkpt lat="47.04204" lon="2.406">
        <ele>126</ele>
        <time>2021-08-13T12:40:40Z</time>
      </trkpt>
      <trkpt lat="47.0421" lon="2.40647">
        <ele>126</ele>
        <time>2021-08-13T12:40:40Z</time>
      </trkpt>
      <trkpt lat="47.04236" lon="2.40675">
        <ele>126</ele>
        <time>2021-08-13T12:40:40Z</time>
      </trkpt>
      <trkpt lat="47.04265" lon="2.407">
        <ele>126</ele>
        <time>2021-08-13T12:40:40Z</time>
      </trkpt>
      <trkpt lat="47.04293" lon="2.40726">
        <ele>126</ele>
        <time>2021-08-13T12:40:40Z</time>
      </trkpt>
      <trkpt lat="47.04312" lon="2.40743">
        <ele>130</ele>
        <time>2021-08-13T12:40:40Z</time>
      </trkpt>
      <trkpt lat="47.04317" lon="2.40745">
        <ele>130</ele>
        <time>2021-08-13T12:40:40Z</time>
      </trkpt>
      <trkpt lat="47.04344" lon="2.40745">
        <ele>130</ele>
        <time>2021-08-13T12:40:40Z</time>
      </trkpt>
      <trkpt lat="47.04375" lon="2.40741">
        <ele>129</ele>
        <time>2021-08-13T12:40:40Z</time>
      </trkpt>
      <trkpt lat="47.04402" lon="2.40722">
        <ele>129</ele>
        <time>2021-08-13T12:40:40Z</time>
      </trkpt>
      <trkpt lat="47.04427" lon="2.40698">
        <ele>128</ele>
        <time>2021-08-13T12:40:40Z</time>
      </trkpt>
      <trkpt lat="47.04453" lon="2.40675">
        <ele>129</ele>
        <time>2021-08-13T12:40:40Z</time>
      </trkpt>
      <trkpt lat="47.04474" lon="2.4068">
        <ele>134</ele>
        <time>2021-08-13T12:40:40Z</time>
      </trkpt>
      <trkpt lat="47.04477" lon="2.40689">
        <ele>134</ele>
        <time>2021-08-13T12:40:40Z</time>
      </trkpt>
      <trkpt lat="47.0449" lon="2.40712">
        <ele>134</ele>
        <time>2021-08-13T12:40:40Z</time>
      </trkpt>
      <trkpt lat="47.04493" lon="2.40718">
        <ele>134</ele>
        <time>2021-08-13T12:40:40Z</time>
      </trkpt>
      <trkpt lat="47.04496" lon="2.40724">
        <ele>135</ele>
        <time>2021-08-13T12:40:40Z</time>
      </trkpt>
      <trkpt lat="47.045" lon="2.40731">
        <ele>135</ele>
        <time>2021-08-13T12:40:40Z</time>
      </trkpt>
      <trkpt lat="47.04505" lon="2.40739">
        <ele>135</ele>
        <time>2021-08-13T12:40:40Z</time>
      </trkpt>
      <trkpt lat="47.04508" lon="2.40745">
        <ele>135</ele>
        <time>2021-08-13T12:40:40Z</time>
      </trkpt>
      <trkpt lat="47.04511" lon="2.40754">
        <ele>135</ele>
        <time>2021-08-13T12:40:40Z</time>
      </trkpt>
      <trkpt lat="47.04515" lon="2.40762">
        <ele>134</ele>
        <time>2021-08-13T12:40:40Z</time>
      </trkpt>
      <trkpt lat="47.04518" lon="2.40768">
        <ele>134</ele>
        <time>2021-08-13T12:40:40Z</time>
      </trkpt>
      <trkpt lat="47.04519" lon="2.40774">
        <ele>134</ele>
        <time>2021-08-13T12:40:40Z</time>
      </trkpt>
      <trkpt lat="47.04521" lon="2.4078">
        <ele>134</ele>
        <time>2021-08-13T12:40:40Z</time>
      </trkpt>
      <trkpt lat="47.04526" lon="2.40787">
        <ele>134</ele>
        <time>2021-08-13T12:40:40Z</time>
      </trkpt>
      <trkpt lat="47.0453" lon="2.40793">
        <ele>133</ele>
        <time>2021-08-13T12:40:40Z</time>
      </trkpt>
      <trkpt lat="47.04533" lon="2.408">
        <ele>132</ele>
        <time>2021-08-13T12:40:40Z</time>
      </trkpt>
      <trkpt lat="47.04538" lon="2.4081">
        <ele>130</ele>
        <time>2021-08-13T12:40:40Z</time>
      </trkpt>
      <trkpt lat="47.04543" lon="2.40819">
        <ele>129</ele>
        <time>2021-08-13T12:40:40Z</time>
      </trkpt>
      <trkpt lat="47.04547" lon="2.40827">
        <ele>128</ele>
        <time>2021-08-13T12:40:40Z</time>
      </trkpt>
      <trkpt lat="47.04551" lon="2.40835">
        <ele>127</ele>
        <time>2021-08-13T12:40:40Z</time>
      </trkpt>
      <trkpt lat="47.04554" lon="2.40843">
        <ele>128</ele>
        <time>2021-08-13T12:40:40Z</time>
      </trkpt>
      <trkpt lat="47.04555" lon="2.40852">
        <ele>130</ele>
        <time>2021-08-13T12:40:40Z</time>
      </trkpt>
      <trkpt lat="47.04556" lon="2.40861">
        <ele>131</ele>
        <time>2021-08-13T12:40:40Z</time>
      </trkpt>
      <trkpt lat="47.04554" lon="2.40871">
        <ele>132</ele>
        <time>2021-08-13T12:40:40Z</time>
      </trkpt>
      <trkpt lat="47.04553" lon="2.4088">
        <ele>132</ele>
        <time>2021-08-13T12:40:40Z</time>
      </trkpt>
      <trkpt lat="47.0455" lon="2.40889">
        <ele>132</ele>
        <time>2021-08-13T12:40:40Z</time>
      </trkpt>
      <trkpt lat="47.04548" lon="2.40896">
        <ele>132</ele>
        <time>2021-08-13T12:40:40Z</time>
      </trkpt>
      <trkpt lat="47.04545" lon="2.40904">
        <ele>132</ele>
        <time>2021-08-13T12:40:40Z</time>
      </trkpt>
      <trkpt lat="47.04542" lon="2.40912">
        <ele>132</ele>
        <time>2021-08-13T12:40:40Z</time>
      </trkpt>
      <trkpt lat="47.04539" lon="2.4092">
        <ele>132</ele>
        <time>2021-08-13T12:40:40Z</time>
      </trkpt>
      <trkpt lat="47.04536" lon="2.40928">
        <ele>132</ele>
        <time>2021-08-13T12:40:40Z</time>
      </trkpt>
      <trkpt lat="47.04534" lon="2.40935">
        <ele>132</ele>
        <time>2021-08-13T12:40:40Z</time>
      </trkpt>
      <trkpt lat="47.04531" lon="2.40943">
        <ele>132</ele>
        <time>2021-08-13T12:40:40Z</time>
      </trkpt>
      <trkpt lat="47.04529" lon="2.40952">
        <ele>132</ele>
        <time>2021-08-13T12:40:40Z</time>
      </trkpt>
      <trkpt lat="47.04528" lon="2.4096">
        <ele>132</ele>
        <time>2021-08-13T12:40:40Z</time>
      </trkpt>
      <trkpt lat="47.04526" lon="2.40968">
        <ele>132</ele>
        <time>2021-08-13T12:40:40Z</time>
      </trkpt>
      <trkpt lat="47.04524" lon="2.40976">
        <ele>132</ele>
        <time>2021-08-13T12:40:40Z</time>
      </trkpt>
      <trkpt lat="47.04522" lon="2.40986">
        <ele>131</ele>
        <time>2021-08-13T12:40:40Z</time>
      </trkpt>
      <trkpt lat="47.0452" lon="2.40995">
        <ele>131</ele>
        <time>2021-08-13T12:40:40Z</time>
      </trkpt>
      <trkpt lat="47.04517" lon="2.41004">
        <ele>131</ele>
        <time>2021-08-13T12:40:40Z</time>
      </trkpt>
      <trkpt lat="47.04514" lon="2.41012">
        <ele>131</ele>
        <time>2021-08-13T12:40:40Z</time>
      </trkpt>
      <trkpt lat="47.0451" lon="2.41018">
        <ele>131</ele>
        <time>2021-08-13T12:40:40Z</time>
      </trkpt>
      <trkpt lat="47.04506" lon="2.41023">
        <ele>131</ele>
        <time>2021-08-13T12:40:40Z</time>
      </trkpt>
      <trkpt lat="47.04503" lon="2.41028">
        <ele>131</ele>
        <time>2021-08-13T12:40:40Z</time>
      </trkpt>
      <trkpt lat="47.04499" lon="2.41033">
        <ele>131</ele>
        <time>2021-08-13T12:40:40Z</time>
      </trkpt>
      <trkpt lat="47.04498" lon="2.41035">
        <ele>131</ele>
        <time>2021-08-13T12:40:40Z</time>
      </trkpt>
      <trkpt lat="47.04495" lon="2.4104">
        <ele>131</ele>
        <time>2021-08-13T12:40:40Z</time>
      </trkpt>
      <trkpt lat="47.04495" lon="2.41044">
        <ele>131</ele>
        <time>2021-08-13T12:40:40Z</time>
      </trkpt>
      <trkpt lat="47.04495" lon="2.41047">
        <ele>131</ele>
        <time>2021-08-13T12:40:40Z</time>
      </trkpt>
      <trkpt lat="47.04496" lon="2.4105">
        <ele>131</ele>
        <time>2021-08-13T12:40:40Z</time>
      </trkpt>
      <trkpt lat="47.04496" lon="2.41053">
        <ele>131</ele>
        <time>2021-08-13T12:40:40Z</time>
      </trkpt>
      <trkpt lat="47.04495" lon="2.41055">
        <ele>131</ele>
        <time>2021-08-13T12:40:40Z</time>
      </trkpt>
      <trkpt lat="47.04495" lon="2.41056">
        <ele>131</ele>
        <time>2021-08-13T12:40:40Z</time>
      </trkpt>
      <trkpt lat="47.04495" lon="2.41056">
        <ele>131</ele>
        <time>2021-08-13T12:40:40Z</time>
      </trkpt>
      <trkpt lat="47.04495" lon="2.41057">
        <ele>131</ele>
        <time>2021-08-13T12:40:40Z</time>
      </trkpt>
      <trkpt lat="47.04495" lon="2.41057">
        <ele>131</ele>
        <time>2021-08-13T12:40:40Z</time>
      </trkpt>
      <trkpt lat="47.04495" lon="2.41057">
        <ele>131</ele>
        <time>2021-08-13T12:40:40Z</time>
      </trkpt>
      <trkpt lat="47.04495" lon="2.41057">
        <ele>131</ele>
        <time>2021-08-13T12:40:40Z</time>
      </trkpt>
      <trkpt lat="47.04496" lon="2.41057">
        <ele>131</ele>
        <time>2021-08-13T12:40:40Z</time>
      </trkpt>
      <trkpt lat="47.04496" lon="2.41058">
        <ele>131</ele>
        <time>2021-08-13T12:40:40Z</time>
      </trkpt>
      <trkpt lat="47.04496" lon="2.41058">
        <ele>131</ele>
        <time>2021-08-13T12:40:40Z</time>
      </trkpt>
      <trkpt lat="47.04497" lon="2.41058">
        <ele>131</ele>
        <time>2021-08-13T12:40:40Z</time>
      </trkpt>
      <trkpt lat="47.04497" lon="2.41059">
        <ele>131</ele>
        <time>2021-08-13T12:40:40Z</time>
      </trkpt>
      <trkpt lat="47.04497" lon="2.41059">
        <ele>131</ele>
        <time>2021-08-13T12:40:40Z</time>
      </trkpt>
      <trkpt lat="47.04498" lon="2.41059">
        <ele>131</ele>
        <time>2021-08-13T12:40:40Z</time>
      </trkpt>
      <trkpt lat="47.04498" lon="2.41058">
        <ele>131</ele>
        <time>2021-08-13T12:40:40Z</time>
      </trkpt>
      <trkpt lat="47.04498" lon="2.41058">
        <ele>131</ele>
        <time>2021-08-13T12:40:40Z</time>
      </trkpt>
      <trkpt lat="47.04498" lon="2.41058">
        <ele>131</ele>
        <time>2021-08-13T12:40:40Z</time>
      </trkpt>
      <trkpt lat="47.04498" lon="2.41058">
        <ele>131</ele>
        <time>2021-08-13T12:40:40Z</time>
      </trkpt>
      <trkpt lat="47.04498" lon="2.41058">
        <ele>131</ele>
        <time>2021-08-13T12:40:40Z</time>
      </trkpt>
      <trkpt lat="47.04498" lon="2.41058">
        <ele>131</ele>
        <time>2021-08-13T12:40:40Z</time>
      </trkpt>
      <trkpt lat="47.04498" lon="2.41058">
        <ele>131</ele>
        <time>2021-08-13T12:40:40Z</time>
      </trkpt>
      <trkpt lat="47.04498" lon="2.41058">
        <ele>131</ele>
        <time>2021-08-13T12:40:40Z</time>
      </trkpt>
      <trkpt lat="47.04498" lon="2.41057">
        <ele>131</ele>
        <time>2021-08-13T12:40:40Z</time>
      </trkpt>
      <trkpt lat="47.04498" lon="2.41057">
        <ele>131</ele>
        <time>2021-08-13T12:40:40Z</time>
      </trkpt>
      <trkpt lat="47.04498" lon="2.41057">
        <ele>131</ele>
        <time>2021-08-13T12:40:40Z</time>
      </trkpt>
      <trkpt lat="47.04498" lon="2.41057">
        <ele>131</ele>
        <time>2021-08-13T12:40:40Z</time>
      </trkpt>
      <trkpt lat="47.04498" lon="2.41056">
        <ele>131</ele>
        <time>2021-08-13T12:40:40Z</time>
      </trkpt>
      <trkpt lat="47.04497" lon="2.41058">
        <ele>131</ele>
        <time>2021-08-13T12:40:40Z</time>
      </trkpt>
      <trkpt lat="47.04497" lon="2.41059">
        <ele>131</ele>
        <time>2021-08-13T12:40:40Z</time>
      </trkpt>
      <trkpt lat="47.04497" lon="2.41061">
        <ele>131</ele>
        <time>2021-08-13T12:40:40Z</time>
      </trkpt>
      <trkpt lat="47.04496" lon="2.41064">
        <ele>131</ele>
        <time>2021-08-13T12:40:40Z</time>
      </trkpt>
      <trkpt lat="47.04495" lon="2.41069">
        <ele>131</ele>
        <time>2021-08-13T12:40:40Z</time>
      </trkpt>
      <trkpt lat="47.04494" lon="2.41074">
        <ele>131</ele>
        <time>2021-08-13T12:40:40Z</time>
      </trkpt>
      <trkpt lat="47.04493" lon="2.4108">
        <ele>131</ele>
        <time>2021-08-13T12:40:40Z</time>
      </trkpt>
      <trkpt lat="47.04491" lon="2.41087">
        <ele>132</ele>
        <time>2021-08-13T12:40:40Z</time>
      </trkpt>
      <trkpt lat="47.04489" lon="2.41094">
        <ele>132</ele>
        <time>2021-08-13T12:40:40Z</time>
      </trkpt>
      <trkpt lat="47.04487" lon="2.41102">
        <ele>132</ele>
        <time>2021-08-13T12:40:40Z</time>
      </trkpt>
      <trkpt lat="47.04485" lon="2.41108">
        <ele>132</ele>
        <time>2021-08-13T12:40:40Z</time>
      </trkpt>
      <trkpt lat="47.04485" lon="2.41114">
        <ele>132</ele>
        <time>2021-08-13T12:40:40Z</time>
      </trkpt>
      <trkpt lat="47.04483" lon="2.41122">
        <ele>132</ele>
        <time>2021-08-13T12:40:40Z</time>
      </trkpt>
      <trkpt lat="47.04482" lon="2.41127">
        <ele>132</ele>
        <time>2021-08-13T12:40:40Z</time>
      </trkpt>
      <trkpt lat="47.0448" lon="2.41135">
        <ele>132</ele>
        <time>2021-08-13T12:40:40Z</time>
      </trkpt>
      <trkpt lat="47.04478" lon="2.41144">
        <ele>133</ele>
        <time>2021-08-13T12:40:40Z</time>
      </trkpt>
      <trkpt lat="47.04477" lon="2.41154">
        <ele>133</ele>
        <time>2021-08-13T12:40:40Z</time>
      </trkpt>
      <trkpt lat="47.04478" lon="2.41163">
        <ele>133</ele>
        <time>2021-08-13T12:40:40Z</time>
      </trkpt>
      <trkpt lat="47.04479" lon="2.41171">
        <ele>132</ele>
        <time>2021-08-13T12:40:40Z</time>
      </trkpt>
      <trkpt lat="47.04479" lon="2.41181">
        <ele>132</ele>
        <time>2021-08-13T12:40:40Z</time>
      </trkpt>
      <trkpt lat="47.04476" lon="2.41189">
        <ele>132</ele>
        <time>2021-08-13T12:40:40Z</time>
      </trkpt>
      <trkpt lat="47.04474" lon="2.41198">
        <ele>132</ele>
        <time>2021-08-13T12:40:40Z</time>
      </trkpt>
      <trkpt lat="47.04472" lon="2.41207">
        <ele>131</ele>
        <time>2021-08-13T12:40:40Z</time>
      </trkpt>
      <trkpt lat="47.0447" lon="2.41217">
        <ele>131</ele>
        <time>2021-08-13T12:40:40Z</time>
      </trkpt>
      <trkpt lat="47.04468" lon="2.41226">
        <ele>131</ele>
        <time>2021-08-13T12:40:40Z</time>
      </trkpt>
      <trkpt lat="47.04467" lon="2.41234">
        <ele>131</ele>
        <time>2021-08-13T12:40:40Z</time>
      </trkpt>
      <trkpt lat="47.04465" lon="2.41242">
        <ele>131</ele>
        <time>2021-08-13T12:40:40Z</time>
      </trkpt>
      <trkpt lat="47.04463" lon="2.4125">
        <ele>131</ele>
        <time>2021-08-13T12:40:40Z</time>
      </trkpt>
      <trkpt lat="47.0446" lon="2.41259">
        <ele>131</ele>
        <time>2021-08-13T12:40:40Z</time>
      </trkpt>
      <trkpt lat="47.04458" lon="2.41267">
        <ele>132</ele>
        <time>2021-08-13T12:40:40Z</time>
      </trkpt>
      <trkpt lat="47.04456" lon="2.41276">
        <ele>132</ele>
        <time>2021-08-13T12:40:40Z</time>
      </trkpt>
      <trkpt lat="47.04453" lon="2.41286">
        <ele>132</ele>
        <time>2021-08-13T12:40:40Z</time>
      </trkpt>
      <trkpt lat="47.04452" lon="2.41293">
        <ele>132</ele>
        <time>2021-08-13T12:40:40Z</time>
      </trkpt>
      <trkpt lat="47.0445" lon="2.41302">
        <ele>133</ele>
        <time>2021-08-13T12:40:40Z</time>
      </trkpt>
      <trkpt lat="47.04448" lon="2.41311">
        <ele>133</ele>
        <time>2021-08-13T12:40:40Z</time>
      </trkpt>
      <trkpt lat="47.04445" lon="2.41321">
        <ele>133</ele>
        <time>2021-08-13T12:40:40Z</time>
      </trkpt>
      <trkpt lat="47.04443" lon="2.4133">
        <ele>132</ele>
        <time>2021-08-13T12:40:40Z</time>
      </trkpt>
      <trkpt lat="47.04441" lon="2.41341">
        <ele>132</ele>
        <time>2021-08-13T12:40:40Z</time>
      </trkpt>
      <trkpt lat="47.04438" lon="2.4135">
        <ele>132</ele>
        <time>2021-08-13T12:40:40Z</time>
      </trkpt>
      <trkpt lat="47.04436" lon="2.4136">
        <ele>132</ele>
        <time>2021-08-13T12:40:40Z</time>
      </trkpt>
      <trkpt lat="47.04435" lon="2.41367">
        <ele>132</ele>
        <time>2021-08-13T12:40:40Z</time>
      </trkpt>
      <trkpt lat="47.04433" lon="2.41376">
        <ele>132</ele>
        <time>2021-08-13T12:40:40Z</time>
      </trkpt>
      <trkpt lat="47.04431" lon="2.41385">
        <ele>132</ele>
        <time>2021-08-13T12:40:40Z</time>
      </trkpt>
      <trkpt lat="47.04429" lon="2.41396">
        <ele>132</ele>
        <time>2021-08-13T12:40:40Z</time>
      </trkpt>
      <trkpt lat="47.04426" lon="2.41405">
        <ele>132</ele>
        <time>2021-08-13T12:40:40Z</time>
      </trkpt>
      <trkpt lat="47.04426" lon="2.41414">
        <ele>132</ele>
        <time>2021-08-13T12:40:40Z</time>
      </trkpt>
      <trkpt lat="47.04424" lon="2.41424">
        <ele>132</ele>
        <time>2021-08-13T12:40:40Z</time>
      </trkpt>
      <trkpt lat="47.04422" lon="2.41433">
        <ele>132</ele>
        <time>2021-08-13T12:40:40Z</time>
      </trkpt>
      <trkpt lat="47.0442" lon="2.4144">
        <ele>132</ele>
        <time>2021-08-13T12:40:40Z</time>
      </trkpt>
      <trkpt lat="47.04418" lon="2.4145">
        <ele>133</ele>
        <time>2021-08-13T12:40:40Z</time>
      </trkpt>
      <trkpt lat="47.04415" lon="2.4146">
        <ele>133</ele>
        <time>2021-08-13T12:40:40Z</time>
      </trkpt>
      <trkpt lat="47.04413" lon="2.41469">
        <ele>133</ele>
        <time>2021-08-13T12:40:40Z</time>
      </trkpt>
      <trkpt lat="47.04411" lon="2.41479">
        <ele>134</ele>
        <time>2021-08-13T12:40:40Z</time>
      </trkpt>
      <trkpt lat="47.04409" lon="2.41489">
        <ele>134</ele>
        <time>2021-08-13T12:40:40Z</time>
      </trkpt>
      <trkpt lat="47.04407" lon="2.41498">
        <ele>135</ele>
        <time>2021-08-13T12:40:40Z</time>
      </trkpt>
      <trkpt lat="47.04406" lon="2.41509">
        <ele>135</ele>
        <time>2021-08-13T12:40:40Z</time>
      </trkpt>
      <trkpt lat="47.04387" lon="2.4154">
        <ele>134</ele>
        <time>2021-08-13T12:40:40Z</time>
      </trkpt>
      <trkpt lat="47.04369" lon="2.41584">
        <ele>134</ele>
        <time>2021-08-13T12:40:40Z</time>
      </trkpt>
      <trkpt lat="47.04357" lon="2.41628">
        <ele>134</ele>
        <time>2021-08-13T12:40:40Z</time>
      </trkpt>
      <trkpt lat="47.04343" lon="2.4167">
        <ele>135</ele>
        <time>2021-08-13T12:40:40Z</time>
      </trkpt>
      <trkpt lat="47.04322" lon="2.41701">
        <ele>136</ele>
        <time>2021-08-13T12:40:40Z</time>
      </trkpt>
      <trkpt lat="47.04307" lon="2.41732">
        <ele>135</ele>
        <time>2021-08-13T12:40:40Z</time>
      </trkpt>
      <trkpt lat="47.04304" lon="2.4174">
        <ele>134</ele>
        <time>2021-08-13T12:40:40Z</time>
      </trkpt>
      <trkpt lat="47.04298" lon="2.41754">
        <ele>134</ele>
        <time>2021-08-13T12:40:40Z</time>
      </trkpt>
      <trkpt lat="47.04295" lon="2.41762">
        <ele>134</ele>
        <time>2021-08-13T12:40:40Z</time>
      </trkpt>
      <trkpt lat="47.04291" lon="2.4177">
        <ele>133</ele>
        <time>2021-08-13T12:40:40Z</time>
      </trkpt>
      <trkpt lat="47.04289" lon="2.41781">
        <ele>133</ele>
        <time>2021-08-13T12:40:40Z</time>
      </trkpt>
      <trkpt lat="47.04289" lon="2.41792">
        <ele>133</ele>
        <time>2021-08-13T12:40:40Z</time>
      </trkpt>
      <trkpt lat="47.04288" lon="2.41801">
        <ele>133</ele>
        <time>2021-08-13T12:40:40Z</time>
      </trkpt>
      <trkpt lat="47.04288" lon="2.41809">
        <ele>133</ele>
        <time>2021-08-13T12:40:40Z</time>
      </trkpt>
      <trkpt lat="47.04287" lon="2.41814">
        <ele>133</ele>
        <time>2021-08-13T12:40:40Z</time>
      </trkpt>
      <trkpt lat="47.04287" lon="2.41821">
        <ele>133</ele>
        <time>2021-08-13T12:40:40Z</time>
      </trkpt>
      <trkpt lat="47.04285" lon="2.41829">
        <ele>133</ele>
        <time>2021-08-13T12:40:40Z</time>
      </trkpt>
      <trkpt lat="47.04284" lon="2.41835">
        <ele>133</ele>
        <time>2021-08-13T12:40:40Z</time>
      </trkpt>
      <trkpt lat="47.04282" lon="2.41841">
        <ele>133</ele>
        <time>2021-08-13T12:40:40Z</time>
      </trkpt>
      <trkpt lat="47.04278" lon="2.41847">
        <ele>133</ele>
        <time>2021-08-13T12:40:40Z</time>
      </trkpt>
      <trkpt lat="47.04272" lon="2.41853">
        <ele>133</ele>
        <time>2021-08-13T12:40:40Z</time>
      </trkpt>
      <trkpt lat="47.04266" lon="2.41855">
        <ele>133</ele>
        <time>2021-08-13T12:40:40Z</time>
      </trkpt>
      <trkpt lat="47.04263" lon="2.41858">
        <ele>133</ele>
        <time>2021-08-13T12:40:40Z</time>
      </trkpt>
      <trkpt lat="47.04257" lon="2.41858">
        <ele>133</ele>
        <time>2021-08-13T12:40:40Z</time>
      </trkpt>
      <trkpt lat="47.04253" lon="2.41864">
        <ele>134</ele>
        <time>2021-08-13T12:40:40Z</time>
      </trkpt>
      <trkpt lat="47.04248" lon="2.4187">
        <ele>134</ele>
        <time>2021-08-13T12:40:40Z</time>
      </trkpt>
      <trkpt lat="47.04245" lon="2.41877">
        <ele>134</ele>
        <time>2021-08-13T12:40:40Z</time>
      </trkpt>
      <trkpt lat="47.04241" lon="2.41884">
        <ele>134</ele>
        <time>2021-08-13T12:40:40Z</time>
      </trkpt>
      <trkpt lat="47.04238" lon="2.41891">
        <ele>134</ele>
        <time>2021-08-13T12:40:40Z</time>
      </trkpt>
      <trkpt lat="47.04235" lon="2.41898">
        <ele>134</ele>
        <time>2021-08-13T12:40:40Z</time>
      </trkpt>
      <trkpt lat="47.04231" lon="2.41906">
        <ele>134</ele>
        <time>2021-08-13T12:40:40Z</time>
      </trkpt>
      <trkpt lat="47.04226" lon="2.41912">
        <ele>134</ele>
        <time>2021-08-13T12:40:40Z</time>
      </trkpt>
      <trkpt lat="47.04223" lon="2.41918">
        <ele>134</ele>
        <time>2021-08-13T12:40:40Z</time>
      </trkpt>
      <trkpt lat="47.04218" lon="2.41926">
        <ele>134</ele>
        <time>2021-08-13T12:40:40Z</time>
      </trkpt>
      <trkpt lat="47.04215" lon="2.41934">
        <ele>134</ele>
        <time>2021-08-13T12:40:40Z</time>
      </trkpt>
      <trkpt lat="47.04212" lon="2.41942">
        <ele>134</ele>
        <time>2021-08-13T12:40:40Z</time>
      </trkpt>
      <trkpt lat="47.04208" lon="2.41948">
        <ele>134</ele>
        <time>2021-08-13T12:40:40Z</time>
      </trkpt>
      <trkpt lat="47.04205" lon="2.41957">
        <ele>134</ele>
        <time>2021-08-13T12:40:40Z</time>
      </trkpt>
      <trkpt lat="47.04202" lon="2.41966">
        <ele>134</ele>
        <time>2021-08-13T12:40:40Z</time>
      </trkpt>
      <trkpt lat="47.04196" lon="2.41974">
        <ele>134</ele>
        <time>2021-08-13T12:40:40Z</time>
      </trkpt>
      <trkpt lat="47.04193" lon="2.41981">
        <ele>134</ele>
        <time>2021-08-13T12:40:40Z</time>
      </trkpt>
      <trkpt lat="47.0419" lon="2.41987">
        <ele>134</ele>
        <time>2021-08-13T12:40:40Z</time>
      </trkpt>
      <trkpt lat="47.04185" lon="2.41993">
        <ele>134</ele>
        <time>2021-08-13T12:40:40Z</time>
      </trkpt>
      <trkpt lat="47.04182" lon="2.42">
        <ele>134</ele>
        <time>2021-08-13T12:40:40Z</time>
      </trkpt>
      <trkpt lat="47.04179" lon="2.42008">
        <ele>134</ele>
        <time>2021-08-13T12:40:40Z</time>
      </trkpt>
      <trkpt lat="47.04175" lon="2.42017">
        <ele>134</ele>
        <time>2021-08-13T12:40:40Z</time>
      </trkpt>
      <trkpt lat="47.0417" lon="2.42025">
        <ele>134</ele>
        <time>2021-08-13T12:40:40Z</time>
      </trkpt>
      <trkpt lat="47.04167" lon="2.42031">
        <ele>134</ele>
        <time>2021-08-13T12:40:40Z</time>
      </trkpt>
      <trkpt lat="47.04163" lon="2.42038">
        <ele>134</ele>
        <time>2021-08-13T12:40:40Z</time>
      </trkpt>
      <trkpt lat="47.04159" lon="2.42047">
        <ele>134</ele>
        <time>2021-08-13T12:40:40Z</time>
      </trkpt>
      <trkpt lat="47.04156" lon="2.42055">
        <ele>134</ele>
        <time>2021-08-13T12:40:40Z</time>
      </trkpt>
      <trkpt lat="47.04153" lon="2.42063">
        <ele>134</ele>
        <time>2021-08-13T12:40:40Z</time>
      </trkpt>
      <trkpt lat="47.04148" lon="2.4207">
        <ele>134</ele>
        <time>2021-08-13T12:40:40Z</time>
      </trkpt>
      <trkpt lat="47.04144" lon="2.42078">
        <ele>134</ele>
        <time>2021-08-13T12:40:40Z</time>
      </trkpt>
      <trkpt lat="47.04141" lon="2.42086">
        <ele>134</ele>
        <time>2021-08-13T12:40:40Z</time>
      </trkpt>
      <trkpt lat="47.04138" lon="2.42096">
        <ele>134</ele>
        <time>2021-08-13T12:40:40Z</time>
      </trkpt>
      <trkpt lat="47.04133" lon="2.42104">
        <ele>134</ele>
        <time>2021-08-13T12:40:40Z</time>
      </trkpt>
      <trkpt lat="47.04129" lon="2.42112">
        <ele>134</ele>
        <time>2021-08-13T12:40:40Z</time>
      </trkpt>
      <trkpt lat="47.04125" lon="2.4212">
        <ele>134</ele>
        <time>2021-08-13T12:40:40Z</time>
      </trkpt>
      <trkpt lat="47.04122" lon="2.42128">
        <ele>134</ele>
        <time>2021-08-13T12:40:40Z</time>
      </trkpt>
      <trkpt lat="47.04119" lon="2.42136">
        <ele>135</ele>
        <time>2021-08-13T12:40:40Z</time>
      </trkpt>
      <trkpt lat="47.04115" lon="2.42143">
        <ele>135</ele>
        <time>2021-08-13T12:40:40Z</time>
      </trkpt>
      <trkpt lat="47.0411" lon="2.4215">
        <ele>135</ele>
        <time>2021-08-13T12:40:40Z</time>
      </trkpt>
      <trkpt lat="47.04107" lon="2.42157">
        <ele>135</ele>
        <time>2021-08-13T12:40:40Z</time>
      </trkpt>
      <trkpt lat="47.04103" lon="2.42165">
        <ele>135</ele>
        <time>2021-08-13T12:40:40Z</time>
      </trkpt>
      <trkpt lat="47.041" lon="2.42173">
        <ele>135</ele>
        <time>2021-08-13T12:40:40Z</time>
      </trkpt>
      <trkpt lat="47.04096" lon="2.42182">
        <ele>135</ele>
        <time>2021-08-13T12:40:40Z</time>
      </trkpt>
      <trkpt lat="47.04093" lon="2.4219">
        <ele>135</ele>
        <time>2021-08-13T12:40:40Z</time>
      </trkpt>
      <trkpt lat="47.04075" lon="2.42229">
        <ele>134</ele>
        <time>2021-08-13T12:40:40Z</time>
      </trkpt>
      <trkpt lat="47.04057" lon="2.4227">
        <ele>132</ele>
        <time>2021-08-13T12:40:40Z</time>
      </trkpt>
      <trkpt lat="47.04037" lon="2.4231">
        <ele>132</ele>
        <time>2021-08-13T12:40:40Z</time>
      </trkpt>
      <trkpt lat="47.04016" lon="2.42359">
        <ele>131</ele>
        <time>2021-08-13T12:40:40Z</time>
      </trkpt>
      <trkpt lat="47.03988" lon="2.42424">
        <ele>130</ele>
        <time>2021-08-13T12:40:40Z</time>
      </trkpt>
      <trkpt lat="47.03975" lon="2.42449">
        <ele>129</ele>
        <time>2021-08-13T12:40:40Z</time>
      </trkpt>
      <trkpt lat="47.03972" lon="2.42458">
        <ele>129</ele>
        <time>2021-08-13T12:40:40Z</time>
      </trkpt>
      <trkpt lat="47.03963" lon="2.42472">
        <ele>129</ele>
        <time>2021-08-13T12:40:40Z</time>
      </trkpt>
      <trkpt lat="47.03959" lon="2.4248">
        <ele>129</ele>
        <time>2021-08-13T12:40:40Z</time>
      </trkpt>
      <trkpt lat="47.03956" lon="2.42487">
        <ele>129</ele>
        <time>2021-08-13T12:40:40Z</time>
      </trkpt>
      <trkpt lat="47.03951" lon="2.42495">
        <ele>129</ele>
        <time>2021-08-13T12:40:40Z</time>
      </trkpt>
      <trkpt lat="47.03944" lon="2.42509">
        <ele>130</ele>
        <time>2021-08-13T12:40:40Z</time>
      </trkpt>
      <trkpt lat="47.03927" lon="2.4255">
        <ele>131</ele>
        <time>2021-08-13T12:40:40Z</time>
      </trkpt>
      <trkpt lat="47.03909" lon="2.4259">
        <ele>133</ele>
        <time>2021-08-13T12:40:40Z</time>
      </trkpt>
      <trkpt lat="47.03899" lon="2.42633">
        <ele>132</ele>
        <time>2021-08-13T12:40:40Z</time>
      </trkpt>
      <trkpt lat="47.03889" lon="2.42687">
        <ele>131</ele>
        <time>2021-08-13T12:40:40Z</time>
      </trkpt>
      <trkpt lat="47.03876" lon="2.42744">
        <ele>132</ele>
        <time>2021-08-13T12:40:40Z</time>
      </trkpt>
      <trkpt lat="47.03866" lon="2.4278">
        <ele>131</ele>
        <time>2021-08-13T12:40:40Z</time>
      </trkpt>
      <trkpt lat="47.03863" lon="2.42788">
        <ele>131</ele>
        <time>2021-08-13T12:40:40Z</time>
      </trkpt>
      <trkpt lat="47.03847" lon="2.42841">
        <ele>131</ele>
        <time>2021-08-13T12:40:40Z</time>
      </trkpt>
      <trkpt lat="47.03833" lon="2.42886">
        <ele>130</ele>
        <time>2021-08-13T12:40:40Z</time>
      </trkpt>
      <trkpt lat="47.03821" lon="2.42929">
        <ele>129</ele>
        <time>2021-08-13T12:40:40Z</time>
      </trkpt>
      <trkpt lat="47.03809" lon="2.42973">
        <ele>129</ele>
        <time>2021-08-13T12:40:40Z</time>
      </trkpt>
      <trkpt lat="47.038" lon="2.43018">
        <ele>130</ele>
        <time>2021-08-13T12:40:40Z</time>
      </trkpt>
      <trkpt lat="47.03783" lon="2.43048">
        <ele>130</ele>
        <time>2021-08-13T12:40:40Z</time>
      </trkpt>
      <trkpt lat="47.03779" lon="2.43053">
        <ele>130</ele>
        <time>2021-08-13T12:40:40Z</time>
      </trkpt>
      <trkpt lat="47.03774" lon="2.43067">
        <ele>131</ele>
        <time>2021-08-13T12:40:40Z</time>
      </trkpt>
      <trkpt lat="47.03771" lon="2.43075">
        <ele>131</ele>
        <time>2021-08-13T12:40:40Z</time>
      </trkpt>
      <trkpt lat="47.03769" lon="2.43083">
        <ele>131</ele>
        <time>2021-08-13T12:40:40Z</time>
      </trkpt>
      <trkpt lat="47.03766" lon="2.4309">
        <ele>131</ele>
        <time>2021-08-13T12:40:40Z</time>
      </trkpt>
      <trkpt lat="47.03763" lon="2.431">
        <ele>131</ele>
        <time>2021-08-13T12:40:40Z</time>
      </trkpt>
      <trkpt lat="47.03758" lon="2.43111">
        <ele>131</ele>
        <time>2021-08-13T12:40:40Z</time>
      </trkpt>
      <trkpt lat="47.03756" lon="2.43124">
        <ele>130</ele>
        <time>2021-08-13T12:40:40Z</time>
      </trkpt>
      <trkpt lat="47.0375" lon="2.43131">
        <ele>130</ele>
        <time>2021-08-13T12:40:40Z</time>
      </trkpt>
      <trkpt lat="47.03748" lon="2.43137">
        <ele>130</ele>
        <time>2021-08-13T12:40:40Z</time>
      </trkpt>
      <trkpt lat="47.03744" lon="2.43147">
        <ele>129</ele>
        <time>2021-08-13T12:40:40Z</time>
      </trkpt>
      <trkpt lat="47.03746" lon="2.43151">
        <ele>129</ele>
        <time>2021-08-13T12:40:40Z</time>
      </trkpt>
      <trkpt lat="47.03743" lon="2.43158">
        <ele>129</ele>
        <time>2021-08-13T12:40:40Z</time>
      </trkpt>
      <trkpt lat="47.03739" lon="2.43174">
        <ele>129</ele>
        <time>2021-08-13T12:40:40Z</time>
      </trkpt>
      <trkpt lat="47.03737" lon="2.43182">
        <ele>129</ele>
        <time>2021-08-13T12:40:40Z</time>
      </trkpt>
      <trkpt lat="47.03735" lon="2.43192">
        <ele>129</ele>
        <time>2021-08-13T12:40:40Z</time>
      </trkpt>
      <trkpt lat="47.03731" lon="2.43202">
        <ele>129</ele>
        <time>2021-08-13T12:40:40Z</time>
      </trkpt>
      <trkpt lat="47.03729" lon="2.4321">
        <ele>129</ele>
        <time>2021-08-13T12:40:40Z</time>
      </trkpt>
      <trkpt lat="47.03727" lon="2.4322">
        <ele>129</ele>
        <time>2021-08-13T12:40:40Z</time>
      </trkpt>
      <trkpt lat="47.03724" lon="2.43229">
        <ele>129</ele>
        <time>2021-08-13T12:40:40Z</time>
      </trkpt>
      <trkpt lat="47.03723" lon="2.43238">
        <ele>129</ele>
        <time>2021-08-13T12:40:40Z</time>
      </trkpt>
      <trkpt lat="47.03721" lon="2.43249">
        <ele>130</ele>
        <time>2021-08-13T12:40:40Z</time>
      </trkpt>
      <trkpt lat="47.03718" lon="2.43256">
        <ele>130</ele>
        <time>2021-08-13T12:40:40Z</time>
      </trkpt>
      <trkpt lat="47.03715" lon="2.43264">
        <ele>130</ele>
        <time>2021-08-13T12:40:40Z</time>
      </trkpt>
      <trkpt lat="47.03713" lon="2.43273">
        <ele>130</ele>
        <time>2021-08-13T12:40:40Z</time>
      </trkpt>
      <trkpt lat="47.0371" lon="2.43282">
        <ele>131</ele>
        <time>2021-08-13T12:40:40Z</time>
      </trkpt>
      <trkpt lat="47.03706" lon="2.4329">
        <ele>131</ele>
        <time>2021-08-13T12:40:40Z</time>
      </trkpt>
      <trkpt lat="47.03704" lon="2.433">
        <ele>131</ele>
        <time>2021-08-13T12:40:40Z</time>
      </trkpt>
      <trkpt lat="47.03701" lon="2.43309">
        <ele>131</ele>
        <time>2021-08-13T12:40:40Z</time>
      </trkpt>
      <trkpt lat="47.03698" lon="2.43318">
        <ele>132</ele>
        <time>2021-08-13T12:40:40Z</time>
      </trkpt>
      <trkpt lat="47.03696" lon="2.43326">
        <ele>132</ele>
        <time>2021-08-13T12:40:40Z</time>
      </trkpt>
      <trkpt lat="47.03694" lon="2.43335">
        <ele>133</ele>
        <time>2021-08-13T12:40:40Z</time>
      </trkpt>
      <trkpt lat="47.03692" lon="2.43347">
        <ele>133</ele>
        <time>2021-08-13T12:40:40Z</time>
      </trkpt>
      <trkpt lat="47.03691" lon="2.43355">
        <ele>133</ele>
        <time>2021-08-13T12:40:40Z</time>
      </trkpt>
      <trkpt lat="47.03689" lon="2.43362">
        <ele>133</ele>
        <time>2021-08-13T12:40:40Z</time>
      </trkpt>
      <trkpt lat="47.03688" lon="2.43371">
        <ele>132</ele>
        <time>2021-08-13T12:40:40Z</time>
      </trkpt>
      <trkpt lat="47.03687" lon="2.4338">
        <ele>132</ele>
        <time>2021-08-13T12:40:40Z</time>
      </trkpt>
      <trkpt lat="47.03688" lon="2.43389">
        <ele>131</ele>
        <time>2021-08-13T12:40:40Z</time>
      </trkpt>
      <trkpt lat="47.03689" lon="2.43399">
        <ele>131</ele>
        <time>2021-08-13T12:40:40Z</time>
      </trkpt>
      <trkpt lat="47.03687" lon="2.43409">
        <ele>131</ele>
        <time>2021-08-13T12:40:40Z</time>
      </trkpt>
      <trkpt lat="47.03685" lon="2.43419">
        <ele>131</ele>
        <time>2021-08-13T12:40:40Z</time>
      </trkpt>
      <trkpt lat="47.03682" lon="2.43428">
        <ele>131</ele>
        <time>2021-08-13T12:40:40Z</time>
      </trkpt>
      <trkpt lat="47.03679" lon="2.43438">
        <ele>132</ele>
        <time>2021-08-13T12:40:40Z</time>
      </trkpt>
      <trkpt lat="47.03676" lon="2.43448">
        <ele>132</ele>
        <time>2021-08-13T12:40:40Z</time>
      </trkpt>
      <trkpt lat="47.03673" lon="2.43458">
        <ele>133</ele>
        <time>2021-08-13T12:40:40Z</time>
      </trkpt>
      <trkpt lat="47.03671" lon="2.43466">
        <ele>133</ele>
        <time>2021-08-13T12:40:40Z</time>
      </trkpt>
      <trkpt lat="47.03668" lon="2.43475">
        <ele>133</ele>
        <time>2021-08-13T12:40:40Z</time>
      </trkpt>
      <trkpt lat="47.03662" lon="2.43481">
        <ele>134</ele>
        <time>2021-08-13T12:40:40Z</time>
      </trkpt>
      <trkpt lat="47.03657" lon="2.43487">
        <ele>134</ele>
        <time>2021-08-13T12:40:40Z</time>
      </trkpt>
      <trkpt lat="47.03652" lon="2.43493">
        <ele>134</ele>
        <time>2021-08-13T12:40:40Z</time>
      </trkpt>
      <trkpt lat="47.03649" lon="2.43501">
        <ele>134</ele>
        <time>2021-08-13T12:40:40Z</time>
      </trkpt>
      <trkpt lat="47.03645" lon="2.43508">
        <ele>135</ele>
        <time>2021-08-13T12:40:40Z</time>
      </trkpt>
      <trkpt lat="47.03645" lon="2.43518">
        <ele>134</ele>
        <time>2021-08-13T12:40:40Z</time>
      </trkpt>
      <trkpt lat="47.03644" lon="2.43527">
        <ele>134</ele>
        <time>2021-08-13T12:40:40Z</time>
      </trkpt>
      <trkpt lat="47.03646" lon="2.43537">
        <ele>134</ele>
        <time>2021-08-13T12:40:40Z</time>
      </trkpt>
      <trkpt lat="47.03647" lon="2.43547">
        <ele>134</ele>
        <time>2021-08-13T12:40:40Z</time>
      </trkpt>
      <trkpt lat="47.03645" lon="2.43558">
        <ele>134</ele>
        <time>2021-08-13T12:40:40Z</time>
      </trkpt>
      <trkpt lat="47.03642" lon="2.43568">
        <ele>134</ele>
        <time>2021-08-13T12:40:40Z</time>
      </trkpt>
      <trkpt lat="47.0364" lon="2.43574">
        <ele>134</ele>
        <time>2021-08-13T12:40:40Z</time>
      </trkpt>
      <trkpt lat="47.03637" lon="2.43582">
        <ele>134</ele>
        <time>2021-08-13T12:40:40Z</time>
      </trkpt>
      <trkpt lat="47.03633" lon="2.43591">
        <ele>134</ele>
        <time>2021-08-13T12:40:40Z</time>
      </trkpt>
      <trkpt lat="47.03623" lon="2.43637">
        <ele>134</ele>
        <time>2021-08-13T12:40:40Z</time>
      </trkpt>
      <trkpt lat="47.0361" lon="2.43682">
        <ele>132</ele>
        <time>2021-08-13T12:40:40Z</time>
      </trkpt>
      <trkpt lat="47.03597" lon="2.43727">
        <ele>131</ele>
        <time>2021-08-13T12:40:40Z</time>
      </trkpt>
      <trkpt lat="47.03583" lon="2.43769">
        <ele>131</ele>
        <time>2021-08-13T12:40:40Z</time>
      </trkpt>
      <trkpt lat="47.03569" lon="2.43813">
        <ele>131</ele>
        <time>2021-08-13T12:40:40Z</time>
      </trkpt>
      <trkpt lat="47.03558" lon="2.43847">
        <ele>131</ele>
        <time>2021-08-13T12:40:40Z</time>
      </trkpt>
      <trkpt lat="47.03556" lon="2.43856">
        <ele>131</ele>
        <time>2021-08-13T12:40:40Z</time>
      </trkpt>
      <trkpt lat="47.03544" lon="2.43899">
        <ele>131</ele>
        <time>2021-08-13T12:40:40Z</time>
      </trkpt>
      <trkpt lat="47.03531" lon="2.43944">
        <ele>131</ele>
        <time>2021-08-13T12:40:40Z</time>
      </trkpt>
      <trkpt lat="47.03524" lon="2.43992">
        <ele>131</ele>
        <time>2021-08-13T12:40:40Z</time>
      </trkpt>
      <trkpt lat="47.03512" lon="2.44038">
        <ele>131</ele>
        <time>2021-08-13T12:40:40Z</time>
      </trkpt>
      <trkpt lat="47.03499" lon="2.44078">
        <ele>131</ele>
        <time>2021-08-13T12:40:40Z</time>
      </trkpt>
      <trkpt lat="47.0349" lon="2.44106">
        <ele>131</ele>
        <time>2021-08-13T12:40:40Z</time>
      </trkpt>
      <trkpt lat="47.03488" lon="2.44113">
        <ele>131</ele>
        <time>2021-08-13T12:40:40Z</time>
      </trkpt>
      <trkpt lat="47.03483" lon="2.44128">
        <ele>131</ele>
        <time>2021-08-13T12:40:40Z</time>
      </trkpt>
      <trkpt lat="47.03481" lon="2.44134">
        <ele>131</ele>
        <time>2021-08-13T12:40:40Z</time>
      </trkpt>
      <trkpt lat="47.03479" lon="2.4414">
        <ele>132</ele>
        <time>2021-08-13T12:40:40Z</time>
      </trkpt>
      <trkpt lat="47.03477" lon="2.44147">
        <ele>132</ele>
        <time>2021-08-13T12:40:40Z</time>
      </trkpt>
      <trkpt lat="47.03475" lon="2.44155">
        <ele>132</ele>
        <time>2021-08-13T12:40:40Z</time>
      </trkpt>
      <trkpt lat="47.03473" lon="2.44162">
        <ele>132</ele>
        <time>2021-08-13T12:40:40Z</time>
      </trkpt>
      <trkpt lat="47.03472" lon="2.4417">
        <ele>132</ele>
        <time>2021-08-13T12:40:40Z</time>
      </trkpt>
      <trkpt lat="47.03469" lon="2.44176">
        <ele>132</ele>
        <time>2021-08-13T12:40:40Z</time>
      </trkpt>
      <trkpt lat="47.03467" lon="2.44184">
        <ele>132</ele>
        <time>2021-08-13T12:40:40Z</time>
      </trkpt>
      <trkpt lat="47.03465" lon="2.44192">
        <ele>132</ele>
        <time>2021-08-13T12:40:40Z</time>
      </trkpt>
      <trkpt lat="47.03463" lon="2.44199">
        <ele>132</ele>
        <time>2021-08-13T12:40:40Z</time>
      </trkpt>
      <trkpt lat="47.0346" lon="2.44206">
        <ele>132</ele>
        <time>2021-08-13T12:40:40Z</time>
      </trkpt>
      <trkpt lat="47.03458" lon="2.44216">
        <ele>132</ele>
        <time>2021-08-13T12:40:40Z</time>
      </trkpt>
      <trkpt lat="47.03456" lon="2.44224">
        <ele>132</ele>
        <time>2021-08-13T12:40:40Z</time>
      </trkpt>
      <trkpt lat="47.03454" lon="2.44233">
        <ele>132</ele>
        <time>2021-08-13T12:40:40Z</time>
      </trkpt>
      <trkpt lat="47.03451" lon="2.44242">
        <ele>132</ele>
        <time>2021-08-13T12:40:40Z</time>
      </trkpt>
      <trkpt lat="47.03449" lon="2.4425">
        <ele>132</ele>
        <time>2021-08-13T12:40:40Z</time>
      </trkpt>
      <trkpt lat="47.03446" lon="2.44259">
        <ele>132</ele>
        <time>2021-08-13T12:40:40Z</time>
      </trkpt>
      <trkpt lat="47.03443" lon="2.44268">
        <ele>132</ele>
        <time>2021-08-13T12:40:40Z</time>
      </trkpt>
      <trkpt lat="47.03442" lon="2.44276">
        <ele>132</ele>
        <time>2021-08-13T12:40:40Z</time>
      </trkpt>
      <trkpt lat="47.0344" lon="2.44285">
        <ele>132</ele>
        <time>2021-08-13T12:40:40Z</time>
      </trkpt>
      <trkpt lat="47.03438" lon="2.44294">
        <ele>132</ele>
        <time>2021-08-13T12:40:40Z</time>
      </trkpt>
      <trkpt lat="47.03435" lon="2.44303">
        <ele>132</ele>
        <time>2021-08-13T12:40:40Z</time>
      </trkpt>
      <trkpt lat="47.03432" lon="2.44311">
        <ele>131</ele>
        <time>2021-08-13T12:40:40Z</time>
      </trkpt>
      <trkpt lat="47.0343" lon="2.44321">
        <ele>131</ele>
        <time>2021-08-13T12:40:40Z</time>
      </trkpt>
      <trkpt lat="47.03428" lon="2.4433">
        <ele>130</ele>
        <time>2021-08-13T12:40:40Z</time>
      </trkpt>
      <trkpt lat="47.03425" lon="2.44338">
        <ele>130</ele>
        <time>2021-08-13T12:40:40Z</time>
      </trkpt>
      <trkpt lat="47.03423" lon="2.44347">
        <ele>130</ele>
        <time>2021-08-13T12:40:40Z</time>
      </trkpt>
      <trkpt lat="47.0342" lon="2.44357">
        <ele>130</ele>
        <time>2021-08-13T12:40:40Z</time>
      </trkpt>
      <trkpt lat="47.03418" lon="2.44366">
        <ele>130</ele>
        <time>2021-08-13T12:40:40Z</time>
      </trkpt>
      <trkpt lat="47.03415" lon="2.44375">
        <ele>131</ele>
        <time>2021-08-13T12:40:40Z</time>
      </trkpt>
      <trkpt lat="47.03412" lon="2.44384">
        <ele>131</ele>
        <time>2021-08-13T12:40:40Z</time>
      </trkpt>
      <trkpt lat="47.03409" lon="2.44393">
        <ele>131</ele>
        <time>2021-08-13T12:40:40Z</time>
      </trkpt>
      <trkpt lat="47.03407" lon="2.44401">
        <ele>131</ele>
        <time>2021-08-13T12:40:40Z</time>
      </trkpt>
      <trkpt lat="47.03404" lon="2.4441">
        <ele>131</ele>
        <time>2021-08-13T12:40:40Z</time>
      </trkpt>
      <trkpt lat="47.03401" lon="2.44418">
        <ele>132</ele>
        <time>2021-08-13T12:40:40Z</time>
      </trkpt>
      <trkpt lat="47.03399" lon="2.44427">
        <ele>132</ele>
        <time>2021-08-13T12:40:40Z</time>
      </trkpt>
      <trkpt lat="47.03397" lon="2.44436">
        <ele>132</ele>
        <time>2021-08-13T12:40:40Z</time>
      </trkpt>
      <trkpt lat="47.03395" lon="2.44445">
        <ele>132</ele>
        <time>2021-08-13T12:40:40Z</time>
      </trkpt>
      <trkpt lat="47.03392" lon="2.44454">
        <ele>132</ele>
        <time>2021-08-13T12:40:40Z</time>
      </trkpt>
      <trkpt lat="47.0339" lon="2.44463">
        <ele>132</ele>
        <time>2021-08-13T12:40:40Z</time>
      </trkpt>
      <trkpt lat="47.03388" lon="2.44472">
        <ele>132</ele>
        <time>2021-08-13T12:40:40Z</time>
      </trkpt>
      <trkpt lat="47.03385" lon="2.44482">
        <ele>132</ele>
        <time>2021-08-13T12:40:40Z</time>
      </trkpt>
      <trkpt lat="47.03383" lon="2.44491">
        <ele>132</ele>
        <time>2021-08-13T12:40:40Z</time>
      </trkpt>
      <trkpt lat="47.0338" lon="2.445">
        <ele>131</ele>
        <time>2021-08-13T12:40:40Z</time>
      </trkpt>
      <trkpt lat="47.03377" lon="2.44509">
        <ele>131</ele>
        <time>2021-08-13T12:40:40Z</time>
      </trkpt>
      <trkpt lat="47.03375" lon="2.44518">
        <ele>131</ele>
        <time>2021-08-13T12:40:40Z</time>
      </trkpt>
      <trkpt lat="47.03372" lon="2.44527">
        <ele>131</ele>
        <time>2021-08-13T12:40:40Z</time>
      </trkpt>
      <trkpt lat="47.03369" lon="2.44536">
        <ele>131</ele>
        <time>2021-08-13T12:40:40Z</time>
      </trkpt>
      <trkpt lat="47.03366" lon="2.44546">
        <ele>131</ele>
        <time>2021-08-13T12:40:40Z</time>
      </trkpt>
      <trkpt lat="47.03364" lon="2.44555">
        <ele>131</ele>
        <time>2021-08-13T12:40:40Z</time>
      </trkpt>
      <trkpt lat="47.03362" lon="2.44564">
        <ele>131</ele>
        <time>2021-08-13T12:40:40Z</time>
      </trkpt>
      <trkpt lat="47.03359" lon="2.44573">
        <ele>131</ele>
        <time>2021-08-13T12:40:40Z</time>
      </trkpt>
      <trkpt lat="47.03356" lon="2.44582">
        <ele>131</ele>
        <time>2021-08-13T12:40:40Z</time>
      </trkpt>
      <trkpt lat="47.03354" lon="2.44591">
        <ele>132</ele>
        <time>2021-08-13T12:40:40Z</time>
      </trkpt>
      <trkpt lat="47.03351" lon="2.446">
        <ele>132</ele>
        <time>2021-08-13T12:40:40Z</time>
      </trkpt>
      <trkpt lat="47.03348" lon="2.44609">
        <ele>132</ele>
        <time>2021-08-13T12:40:40Z</time>
      </trkpt>
      <trkpt lat="47.03345" lon="2.44618">
        <ele>132</ele>
        <time>2021-08-13T12:40:40Z</time>
      </trkpt>
      <trkpt lat="47.03343" lon="2.44626">
        <ele>132</ele>
        <time>2021-08-13T12:40:40Z</time>
      </trkpt>
      <trkpt lat="47.0334" lon="2.44635">
        <ele>132</ele>
        <time>2021-08-13T12:40:40Z</time>
      </trkpt>
      <trkpt lat="47.03337" lon="2.44643">
        <ele>132</ele>
        <time>2021-08-13T12:40:40Z</time>
      </trkpt>
      <trkpt lat="47.03317" lon="2.44684">
        <ele>132</ele>
        <time>2021-08-13T12:40:40Z</time>
      </trkpt>
      <trkpt lat="47.03295" lon="2.44718">
        <ele>132</ele>
        <time>2021-08-13T12:40:40Z</time>
      </trkpt>
      <trkpt lat="47.03269" lon="2.44747">
        <ele>131</ele>
        <time>2021-08-13T12:40:40Z</time>
      </trkpt>
      <trkpt lat="47.03239" lon="2.44769">
        <ele>131</ele>
        <time>2021-08-13T12:40:40Z</time>
      </trkpt>
      <trkpt lat="47.03208" lon="2.44785">
        <ele>132</ele>
        <time>2021-08-13T12:40:40Z</time>
      </trkpt>
      <trkpt lat="47.03182" lon="2.44791">
        <ele>134</ele>
        <time>2021-08-13T12:40:40Z</time>
      </trkpt>
      <trkpt lat="47.03175" lon="2.44792">
        <ele>134</ele>
        <time>2021-08-13T12:40:40Z</time>
      </trkpt>
      <trkpt lat="47.03144" lon="2.44794">
        <ele>135</ele>
        <time>2021-08-13T12:40:40Z</time>
      </trkpt>
      <trkpt lat="47.03113" lon="2.44789">
        <ele>136</ele>
        <time>2021-08-13T12:40:40Z</time>
      </trkpt>
      <trkpt lat="47.03083" lon="2.44777">
        <ele>136</ele>
        <time>2021-08-13T12:40:40Z</time>
      </trkpt>
      <trkpt lat="47.0305" lon="2.44761">
        <ele>133</ele>
        <time>2021-08-13T12:40:40Z</time>
      </trkpt>
      <trkpt lat="47.03018" lon="2.44747">
        <ele>132</ele>
        <time>2021-08-13T12:40:40Z</time>
      </trkpt>
      <trkpt lat="47.02993" lon="2.44736">
        <ele>132</ele>
        <time>2021-08-13T12:40:40Z</time>
      </trkpt>
      <trkpt lat="47.02988" lon="2.44734">
        <ele>132</ele>
        <time>2021-08-13T12:40:40Z</time>
      </trkpt>
      <trkpt lat="47.02959" lon="2.44725">
        <ele>133</ele>
        <time>2021-08-13T12:40:40Z</time>
      </trkpt>
      <trkpt lat="47.02923" lon="2.44706">
        <ele>134</ele>
        <time>2021-08-13T12:40:40Z</time>
      </trkpt>
      <trkpt lat="47.02888" lon="2.44692">
        <ele>135</ele>
        <time>2021-08-13T12:40:40Z</time>
      </trkpt>
      <trkpt lat="47.02859" lon="2.44681">
        <ele>135</ele>
        <time>2021-08-13T12:40:40Z</time>
      </trkpt>
      <trkpt lat="47.02826" lon="2.44665">
        <ele>134</ele>
        <time>2021-08-13T12:40:40Z</time>
      </trkpt>
      <trkpt lat="47.02799" lon="2.44652">
        <ele>134</ele>
        <time>2021-08-13T12:40:40Z</time>
      </trkpt>
      <trkpt lat="47.02792" lon="2.44649">
        <ele>134</ele>
        <time>2021-08-13T12:40:40Z</time>
      </trkpt>
      <trkpt lat="47.02779" lon="2.44644">
        <ele>134</ele>
        <time>2021-08-13T12:40:40Z</time>
      </trkpt>
      <trkpt lat="47.02772" lon="2.4464">
        <ele>134</ele>
        <time>2021-08-13T12:40:40Z</time>
      </trkpt>
      <trkpt lat="47.02765" lon="2.44638">
        <ele>133</ele>
        <time>2021-08-13T12:40:40Z</time>
      </trkpt>
      <trkpt lat="47.02758" lon="2.44634">
        <ele>133</ele>
        <time>2021-08-13T12:40:40Z</time>
      </trkpt>
      <trkpt lat="47.02752" lon="2.44631">
        <ele>133</ele>
        <time>2021-08-13T12:40:40Z</time>
      </trkpt>
      <trkpt lat="47.02745" lon="2.44628">
        <ele>133</ele>
        <time>2021-08-13T12:40:40Z</time>
      </trkpt>
      <trkpt lat="47.02739" lon="2.44626">
        <ele>133</ele>
        <time>2021-08-13T12:40:40Z</time>
      </trkpt>
      <trkpt lat="47.02732" lon="2.44623">
        <ele>133</ele>
        <time>2021-08-13T12:40:40Z</time>
      </trkpt>
      <trkpt lat="47.02726" lon="2.44621">
        <ele>133</ele>
        <time>2021-08-13T12:40:40Z</time>
      </trkpt>
      <trkpt lat="47.02721" lon="2.44618">
        <ele>133</ele>
        <time>2021-08-13T12:40:40Z</time>
      </trkpt>
      <trkpt lat="47.02715" lon="2.44617">
        <ele>133</ele>
        <time>2021-08-13T12:40:40Z</time>
      </trkpt>
      <trkpt lat="47.02709" lon="2.44613">
        <ele>133</ele>
        <time>2021-08-13T12:40:40Z</time>
      </trkpt>
      <trkpt lat="47.02702" lon="2.4461">
        <ele>132</ele>
        <time>2021-08-13T12:40:40Z</time>
      </trkpt>
      <trkpt lat="47.02696" lon="2.44608">
        <ele>132</ele>
        <time>2021-08-13T12:40:40Z</time>
      </trkpt>
      <trkpt lat="47.02689" lon="2.44605">
        <ele>132</ele>
        <time>2021-08-13T12:40:40Z</time>
      </trkpt>
      <trkpt lat="47.02682" lon="2.44602">
        <ele>132</ele>
        <time>2021-08-13T12:40:40Z</time>
      </trkpt>
      <trkpt lat="47.02675" lon="2.44599">
        <ele>132</ele>
        <time>2021-08-13T12:40:40Z</time>
      </trkpt>
      <trkpt lat="47.02668" lon="2.44596">
        <ele>132</ele>
        <time>2021-08-13T12:40:40Z</time>
      </trkpt>
      <trkpt lat="47.02662" lon="2.44594">
        <ele>132</ele>
        <time>2021-08-13T12:40:40Z</time>
      </trkpt>
      <trkpt lat="47.02655" lon="2.44591">
        <ele>132</ele>
        <time>2021-08-13T12:40:40Z</time>
      </trkpt>
      <trkpt lat="47.02649" lon="2.44588">
        <ele>132</ele>
        <time>2021-08-13T12:40:40Z</time>
      </trkpt>
      <trkpt lat="47.02643" lon="2.44586">
        <ele>132</ele>
        <time>2021-08-13T12:40:40Z</time>
      </trkpt>
      <trkpt lat="47.02636" lon="2.44583">
        <ele>133</ele>
        <time>2021-08-13T12:40:40Z</time>
      </trkpt>
      <trkpt lat="47.02629" lon="2.4458">
        <ele>133</ele>
        <time>2021-08-13T12:40:40Z</time>
      </trkpt>
      <trkpt lat="47.02622" lon="2.44577">
        <ele>133</ele>
        <time>2021-08-13T12:40:40Z</time>
      </trkpt>
      <trkpt lat="47.02615" lon="2.44575">
        <ele>133</ele>
        <time>2021-08-13T12:40:40Z</time>
      </trkpt>
      <trkpt lat="47.02609" lon="2.44572">
        <ele>132</ele>
        <time>2021-08-13T12:40:40Z</time>
      </trkpt>
      <trkpt lat="47.02602" lon="2.44569">
        <ele>132</ele>
        <time>2021-08-13T12:40:40Z</time>
      </trkpt>
      <trkpt lat="47.02595" lon="2.44566">
        <ele>132</ele>
        <time>2021-08-13T12:40:40Z</time>
      </trkpt>
      <trkpt lat="47.02589" lon="2.44563">
        <ele>132</ele>
        <time>2021-08-13T12:40:40Z</time>
      </trkpt>
      <trkpt lat="47.02583" lon="2.4456">
        <ele>132</ele>
        <time>2021-08-13T12:40:40Z</time>
      </trkpt>
      <trkpt lat="47.02577" lon="2.44558">
        <ele>132</ele>
        <time>2021-08-13T12:40:40Z</time>
      </trkpt>
      <trkpt lat="47.02571" lon="2.44555">
        <ele>131</ele>
        <time>2021-08-13T12:40:40Z</time>
      </trkpt>
      <trkpt lat="47.02564" lon="2.44553">
        <ele>131</ele>
        <time>2021-08-13T12:40:40Z</time>
      </trkpt>
      <trkpt lat="47.02557" lon="2.4455">
        <ele>131</ele>
        <time>2021-08-13T12:40:40Z</time>
      </trkpt>
      <trkpt lat="47.0255" lon="2.44547">
        <ele>132</ele>
        <time>2021-08-13T12:40:40Z</time>
      </trkpt>
      <trkpt lat="47.02544" lon="2.44545">
        <ele>132</ele>
        <time>2021-08-13T12:40:40Z</time>
      </trkpt>
      <trkpt lat="47.02538" lon="2.44542">
        <ele>132</ele>
        <time>2021-08-13T12:40:40Z</time>
      </trkpt>
      <trkpt lat="47.02531" lon="2.44539">
        <ele>132</ele>
        <time>2021-08-13T12:40:40Z</time>
      </trkpt>
      <trkpt lat="47.02525" lon="2.44535">
        <ele>132</ele>
        <time>2021-08-13T12:40:40Z</time>
      </trkpt>
      <trkpt lat="47.02518" lon="2.44532">
        <ele>132</ele>
        <time>2021-08-13T12:40:40Z</time>
      </trkpt>
      <trkpt lat="47.02512" lon="2.44529">
        <ele>132</ele>
        <time>2021-08-13T12:40:40Z</time>
      </trkpt>
      <trkpt lat="47.02505" lon="2.44527">
        <ele>132</ele>
        <time>2021-08-13T12:40:40Z</time>
      </trkpt>
      <trkpt lat="47.02498" lon="2.44524">
        <ele>131</ele>
        <time>2021-08-13T12:40:40Z</time>
      </trkpt>
      <trkpt lat="47.02492" lon="2.44521">
        <ele>131</ele>
        <time>2021-08-13T12:40:40Z</time>
      </trkpt>
      <trkpt lat="47.02485" lon="2.44519">
        <ele>131</ele>
        <time>2021-08-13T12:40:40Z</time>
      </trkpt>
      <trkpt lat="47.02479" lon="2.44516">
        <ele>131</ele>
        <time>2021-08-13T12:40:40Z</time>
      </trkpt>
      <trkpt lat="47.02472" lon="2.44513">
        <ele>131</ele>
        <time>2021-08-13T12:40:40Z</time>
      </trkpt>
      <trkpt lat="47.02465" lon="2.44511">
        <ele>131</ele>
        <time>2021-08-13T12:40:40Z</time>
      </trkpt>
      <trkpt lat="47.02459" lon="2.44508">
        <ele>132</ele>
        <time>2021-08-13T12:40:40Z</time>
      </trkpt>
      <trkpt lat="47.02452" lon="2.44506">
        <ele>132</ele>
        <time>2021-08-13T12:40:40Z</time>
      </trkpt>
      <trkpt lat="47.02447" lon="2.44503">
        <ele>132</ele>
        <time>2021-08-13T12:40:40Z</time>
      </trkpt>
      <trkpt lat="47.0244" lon="2.445">
        <ele>133</ele>
        <time>2021-08-13T12:40:40Z</time>
      </trkpt>
      <trkpt lat="47.02433" lon="2.44497">
        <ele>133</ele>
        <time>2021-08-13T12:40:40Z</time>
      </trkpt>
      <trkpt lat="47.02427" lon="2.44496">
        <ele>133</ele>
        <time>2021-08-13T12:40:40Z</time>
      </trkpt>
      <trkpt lat="47.02421" lon="2.44492">
        <ele>134</ele>
        <time>2021-08-13T12:40:40Z</time>
      </trkpt>
      <trkpt lat="47.02415" lon="2.44489">
        <ele>134</ele>
        <time>2021-08-13T12:40:40Z</time>
      </trkpt>
      <trkpt lat="47.02409" lon="2.44487">
        <ele>134</ele>
        <time>2021-08-13T12:40:40Z</time>
      </trkpt>
      <trkpt lat="47.02403" lon="2.44484">
        <ele>134</ele>
        <time>2021-08-13T12:40:40Z</time>
      </trkpt>
      <trkpt lat="47.02397" lon="2.44482">
        <ele>134</ele>
        <time>2021-08-13T12:40:40Z</time>
      </trkpt>
      <trkpt lat="47.0239" lon="2.44479">
        <ele>134</ele>
        <time>2021-08-13T12:40:40Z</time>
      </trkpt>
      <trkpt lat="47.02358" lon="2.44465">
        <ele>135</ele>
        <time>2021-08-13T12:40:40Z</time>
      </trkpt>
      <trkpt lat="47.02324" lon="2.44449">
        <ele>137</ele>
        <time>2021-08-13T12:40:40Z</time>
      </trkpt>
      <trkpt lat="47.02294" lon="2.44441">
        <ele>137</ele>
        <time>2021-08-13T12:40:40Z</time>
      </trkpt>
      <trkpt lat="47.0226" lon="2.44443">
        <ele>136</ele>
        <time>2021-08-13T12:40:40Z</time>
      </trkpt>
      <trkpt lat="47.02229" lon="2.44448">
        <ele>133</ele>
        <time>2021-08-13T12:40:40Z</time>
      </trkpt>
      <trkpt lat="47.0221" lon="2.44454">
        <ele>133</ele>
        <time>2021-08-13T12:40:40Z</time>
      </trkpt>
      <trkpt lat="47.02203" lon="2.44456">
        <ele>132</ele>
        <time>2021-08-13T12:40:40Z</time>
      </trkpt>
      <trkpt lat="47.02198" lon="2.4446">
        <ele>132</ele>
        <time>2021-08-13T12:40:40Z</time>
      </trkpt>
      <trkpt lat="47.02192" lon="2.44464">
        <ele>132</ele>
        <time>2021-08-13T12:40:40Z</time>
      </trkpt>
      <trkpt lat="47.02186" lon="2.44469">
        <ele>132</ele>
        <time>2021-08-13T12:40:40Z</time>
      </trkpt>
      <trkpt lat="47.0218" lon="2.44472">
        <ele>132</ele>
        <time>2021-08-13T12:40:40Z</time>
      </trkpt>
      <trkpt lat="47.02175" lon="2.44476">
        <ele>132</ele>
        <time>2021-08-13T12:40:40Z</time>
      </trkpt>
      <trkpt lat="47.0217" lon="2.44479">
        <ele>132</ele>
        <time>2021-08-13T12:40:40Z</time>
      </trkpt>
      <trkpt lat="47.02165" lon="2.44482">
        <ele>132</ele>
        <time>2021-08-13T12:40:40Z</time>
      </trkpt>
      <trkpt lat="47.02161" lon="2.44484">
        <ele>132</ele>
        <time>2021-08-13T12:40:40Z</time>
      </trkpt>
      <trkpt lat="47.0216" lon="2.44484">
        <ele>132</ele>
        <time>2021-08-13T12:40:40Z</time>
      </trkpt>
      <trkpt lat="47.0216" lon="2.44484">
        <ele>132</ele>
        <time>2021-08-13T12:40:40Z</time>
      </trkpt>
      <trkpt lat="47.0216" lon="2.44484">
        <ele>132</ele>
        <time>2021-08-13T12:40:40Z</time>
      </trkpt>
      <trkpt lat="47.0216" lon="2.44484">
        <ele>132</ele>
        <time>2021-08-13T12:40:40Z</time>
      </trkpt>
      <trkpt lat="47.0216" lon="2.44484">
        <ele>133</ele>
        <time>2021-08-13T12:40:40Z</time>
      </trkpt>
      <trkpt lat="47.0216" lon="2.44484">
        <ele>133</ele>
        <time>2021-08-13T12:40:40Z</time>
      </trkpt>
      <trkpt lat="47.0216" lon="2.44484">
        <ele>133</ele>
        <time>2021-08-13T12:40:40Z</time>
      </trkpt>
      <trkpt lat="47.0216" lon="2.44484">
        <ele>132</ele>
        <time>2021-08-13T12:40:40Z</time>
      </trkpt>
      <trkpt lat="47.0216" lon="2.44484">
        <ele>132</ele>
        <time>2021-08-13T12:40:40Z</time>
      </trkpt>
      <trkpt lat="47.0216" lon="2.44484">
        <ele>132</ele>
        <time>2021-08-13T12:40:40Z</time>
      </trkpt>
      <trkpt lat="47.0216" lon="2.44483">
        <ele>132</ele>
        <time>2021-08-13T12:40:40Z</time>
      </trkpt>
      <trkpt lat="47.0216" lon="2.44483">
        <ele>132</ele>
        <time>2021-08-13T12:40:40Z</time>
      </trkpt>
      <trkpt lat="47.0216" lon="2.44484">
        <ele>132</ele>
        <time>2021-08-13T12:40:40Z</time>
      </trkpt>
      <trkpt lat="47.0216" lon="2.44484">
        <ele>132</ele>
        <time>2021-08-13T12:40:40Z</time>
      </trkpt>
      <trkpt lat="47.02161" lon="2.44486">
        <ele>133</ele>
        <time>2021-08-13T12:40:40Z</time>
      </trkpt>
      <trkpt lat="47.02161" lon="2.44486">
        <ele>133</ele>
        <time>2021-08-13T12:40:40Z</time>
      </trkpt>
      <trkpt lat="47.02161" lon="2.44485">
        <ele>133</ele>
        <time>2021-08-13T12:40:40Z</time>
      </trkpt>
      <trkpt lat="47.02161" lon="2.44484">
        <ele>132</ele>
        <time>2021-08-13T12:40:40Z</time>
      </trkpt>
      <trkpt lat="47.02161" lon="2.44485">
        <ele>133</ele>
        <time>2021-08-13T12:40:40Z</time>
      </trkpt>
      <trkpt lat="47.02161" lon="2.44485">
        <ele>133</ele>
        <time>2021-08-13T12:40:40Z</time>
      </trkpt>
      <trkpt lat="47.02161" lon="2.44485">
        <ele>133</ele>
        <time>2021-08-13T12:40:40Z</time>
      </trkpt>
      <trkpt lat="47.02159" lon="2.44485">
        <ele>133</ele>
        <time>2021-08-13T12:40:40Z</time>
      </trkpt>
      <trkpt lat="47.02157" lon="2.44486">
        <ele>133</ele>
        <time>2021-08-13T12:40:40Z</time>
      </trkpt>
      <trkpt lat="47.02155" lon="2.44486">
        <ele>133</ele>
        <time>2021-08-13T12:40:40Z</time>
      </trkpt>
      <trkpt lat="47.02151" lon="2.44487">
        <ele>133</ele>
        <time>2021-08-13T12:40:40Z</time>
      </trkpt>
      <trkpt lat="47.02131" lon="2.44498">
        <ele>133</ele>
        <time>2021-08-13T12:40:40Z</time>
      </trkpt>
      <trkpt lat="47.02106" lon="2.44518">
        <ele>133</ele>
        <time>2021-08-13T12:40:40Z</time>
      </trkpt>
      <trkpt lat="47.02076" lon="2.44538">
        <ele>133</ele>
        <time>2021-08-13T12:40:40Z</time>
      </trkpt>
      <trkpt lat="47.02047" lon="2.4456">
        <ele>134</ele>
        <time>2021-08-13T12:40:40Z</time>
      </trkpt>
      <trkpt lat="47.02042" lon="2.44564">
        <ele>134</ele>
        <time>2021-08-13T12:40:40Z</time>
      </trkpt>
      <trkpt lat="47.02036" lon="2.44568">
        <ele>134</ele>
        <time>2021-08-13T12:40:40Z</time>
      </trkpt>
      <trkpt lat="47.02031" lon="2.44572">
        <ele>135</ele>
        <time>2021-08-13T12:40:40Z</time>
      </trkpt>
      <trkpt lat="47.02024" lon="2.44575">
        <ele>135</ele>
        <time>2021-08-13T12:40:40Z</time>
      </trkpt>
      <trkpt lat="47.02018" lon="2.4458">
        <ele>135</ele>
        <time>2021-08-13T12:40:40Z</time>
      </trkpt>
      <trkpt lat="47.02012" lon="2.44584">
        <ele>135</ele>
        <time>2021-08-13T12:40:40Z</time>
      </trkpt>
      <trkpt lat="47.02006" lon="2.44588">
        <ele>135</ele>
        <time>2021-08-13T12:40:40Z</time>
      </trkpt>
      <trkpt lat="47.01976" lon="2.44609">
        <ele>134</ele>
        <time>2021-08-13T12:40:40Z</time>
      </trkpt>
      <trkpt lat="47.01944" lon="2.44632">
        <ele>133</ele>
        <time>2021-08-13T12:40:40Z</time>
      </trkpt>
      <trkpt lat="47.01914" lon="2.44661">
        <ele>133</ele>
        <time>2021-08-13T12:40:40Z</time>
      </trkpt>
      <trkpt lat="47.01889" lon="2.44697">
        <ele>135</ele>
        <time>2021-08-13T12:40:40Z</time>
      </trkpt>
      <trkpt lat="47.01865" lon="2.44734">
        <ele>135</ele>
        <time>2021-08-13T12:40:40Z</time>
      </trkpt>
      <trkpt lat="47.01843" lon="2.44759">
        <ele>135</ele>
        <time>2021-08-13T12:40:40Z</time>
      </trkpt>
      <trkpt lat="47.01838" lon="2.44766">
        <ele>135</ele>
        <time>2021-08-13T12:40:40Z</time>
      </trkpt>
      <trkpt lat="47.01812" lon="2.44801">
        <ele>135</ele>
        <time>2021-08-13T12:40:40Z</time>
      </trkpt>
      <trkpt lat="47.01789" lon="2.44832">
        <ele>134</ele>
        <time>2021-08-13T12:40:40Z</time>
      </trkpt>
      <trkpt lat="47.01768" lon="2.4486">
        <ele>134</ele>
        <time>2021-08-13T12:40:40Z</time>
      </trkpt>
      <trkpt lat="47.01746" lon="2.44891">
        <ele>135</ele>
        <time>2021-08-13T12:40:40Z</time>
      </trkpt>
      <trkpt lat="47.01722" lon="2.44924">
        <ele>134</ele>
        <time>2021-08-13T12:40:40Z</time>
      </trkpt>
      <trkpt lat="47.01704" lon="2.4495">
        <ele>134</ele>
        <time>2021-08-13T12:40:40Z</time>
      </trkpt>
      <trkpt lat="47.01699" lon="2.44956">
        <ele>134</ele>
        <time>2021-08-13T12:40:40Z</time>
      </trkpt>
      <trkpt lat="47.01674" lon="2.44989">
        <ele>134</ele>
        <time>2021-08-13T12:40:40Z</time>
      </trkpt>
      <trkpt lat="47.01652" lon="2.45024">
        <ele>134</ele>
        <time>2021-08-13T12:40:40Z</time>
      </trkpt>
      <trkpt lat="47.01631" lon="2.45062">
        <ele>134</ele>
        <time>2021-08-13T12:40:40Z</time>
      </trkpt>
      <trkpt lat="47.01613" lon="2.45102">
        <ele>134</ele>
        <time>2021-08-13T12:40:40Z</time>
      </trkpt>
      <trkpt lat="47.01595" lon="2.45144">
        <ele>134</ele>
        <time>2021-08-13T12:40:40Z</time>
      </trkpt>
      <trkpt lat="47.01582" lon="2.45178">
        <ele>134</ele>
        <time>2021-08-13T12:40:40Z</time>
      </trkpt>
      <trkpt lat="47.01579" lon="2.45187">
        <ele>134</ele>
        <time>2021-08-13T12:40:40Z</time>
      </trkpt>
      <trkpt lat="47.01564" lon="2.45231">
        <ele>134</ele>
        <time>2021-08-13T12:40:40Z</time>
      </trkpt>
      <trkpt lat="47.01552" lon="2.45277">
        <ele>135</ele>
        <time>2021-08-13T12:40:40Z</time>
      </trkpt>
      <trkpt lat="47.0154" lon="2.45324">
        <ele>136</ele>
        <time>2021-08-13T12:40:40Z</time>
      </trkpt>
      <trkpt lat="47.01534" lon="2.45371">
        <ele>137</ele>
        <time>2021-08-13T12:40:40Z</time>
      </trkpt>
      <trkpt lat="47.01526" lon="2.45419">
        <ele>138</ele>
        <time>2021-08-13T12:40:40Z</time>
      </trkpt>
      <trkpt lat="47.01522" lon="2.45457">
        <ele>137</ele>
        <time>2021-08-13T12:40:40Z</time>
      </trkpt>
      <trkpt lat="47.01522" lon="2.45468">
        <ele>137</ele>
        <time>2021-08-13T12:40:40Z</time>
      </trkpt>
      <trkpt lat="47.01514" lon="2.45517">
        <ele>137</ele>
        <time>2021-08-13T12:40:40Z</time>
      </trkpt>
      <trkpt lat="47.01506" lon="2.45565">
        <ele>137</ele>
        <time>2021-08-13T12:40:40Z</time>
      </trkpt>
      <trkpt lat="47.01501" lon="2.45612">
        <ele>138</ele>
        <time>2021-08-13T12:40:40Z</time>
      </trkpt>
      <trkpt lat="47.01495" lon="2.45651">
        <ele>138</ele>
        <time>2021-08-13T12:40:40Z</time>
      </trkpt>
      <trkpt lat="47.01484" lon="2.45663">
        <ele>138</ele>
        <time>2021-08-13T12:40:40Z</time>
      </trkpt>
      <trkpt lat="47.01479" lon="2.4568">
        <ele>138</ele>
        <time>2021-08-13T12:40:40Z</time>
      </trkpt>
      <trkpt lat="47.01479" lon="2.45685">
        <ele>138</ele>
        <time>2021-08-13T12:40:40Z</time>
      </trkpt>
      <trkpt lat="47.01477" lon="2.45696">
        <ele>139</ele>
        <time>2021-08-13T12:40:40Z</time>
      </trkpt>
      <trkpt lat="47.01476" lon="2.45701">
        <ele>139</ele>
        <time>2021-08-13T12:40:40Z</time>
      </trkpt>
      <trkpt lat="47.01475" lon="2.45707">
        <ele>139</ele>
        <time>2021-08-13T12:40:40Z</time>
      </trkpt>
      <trkpt lat="47.01473" lon="2.45712">
        <ele>139</ele>
        <time>2021-08-13T12:40:40Z</time>
      </trkpt>
      <trkpt lat="47.01472" lon="2.45718">
        <ele>139</ele>
        <time>2021-08-13T12:40:40Z</time>
      </trkpt>
      <trkpt lat="47.01471" lon="2.45725">
        <ele>139</ele>
        <time>2021-08-13T12:40:40Z</time>
      </trkpt>
      <trkpt lat="47.0147" lon="2.45732">
        <ele>139</ele>
        <time>2021-08-13T12:40:40Z</time>
      </trkpt>
      <trkpt lat="47.01469" lon="2.45739">
        <ele>139</ele>
        <time>2021-08-13T12:40:40Z</time>
      </trkpt>
      <trkpt lat="47.01468" lon="2.45746">
        <ele>138</ele>
        <time>2021-08-13T12:40:40Z</time>
      </trkpt>
      <trkpt lat="47.01466" lon="2.45754">
        <ele>138</ele>
        <time>2021-08-13T12:40:40Z</time>
      </trkpt>
      <trkpt lat="47.01465" lon="2.45761">
        <ele>138</ele>
        <time>2021-08-13T12:40:40Z</time>
      </trkpt>
      <trkpt lat="47.01463" lon="2.4577">
        <ele>137</ele>
        <time>2021-08-13T12:40:40Z</time>
      </trkpt>
      <trkpt lat="47.01461" lon="2.45778">
        <ele>137</ele>
        <time>2021-08-13T12:40:40Z</time>
      </trkpt>
      <trkpt lat="47.0146" lon="2.45786">
        <ele>137</ele>
        <time>2021-08-13T12:40:40Z</time>
      </trkpt>
      <trkpt lat="47.01458" lon="2.45794">
        <ele>137</ele>
        <time>2021-08-13T12:40:40Z</time>
      </trkpt>
      <trkpt lat="47.01455" lon="2.45802">
        <ele>137</ele>
        <time>2021-08-13T12:40:40Z</time>
      </trkpt>
      <trkpt lat="47.01454" lon="2.4581">
        <ele>137</ele>
        <time>2021-08-13T12:40:40Z</time>
      </trkpt>
      <trkpt lat="47.01452" lon="2.45819">
        <ele>137</ele>
        <time>2021-08-13T12:40:40Z</time>
      </trkpt>
      <trkpt lat="47.0145" lon="2.45827">
        <ele>137</ele>
        <time>2021-08-13T12:40:40Z</time>
      </trkpt>
      <trkpt lat="47.01448" lon="2.45835">
        <ele>137</ele>
        <time>2021-08-13T12:40:40Z</time>
      </trkpt>
      <trkpt lat="47.01445" lon="2.45843">
        <ele>136</ele>
        <time>2021-08-13T12:40:40Z</time>
      </trkpt>
      <trkpt lat="47.01441" lon="2.4585">
        <ele>136</ele>
        <time>2021-08-13T12:40:40Z</time>
      </trkpt>
      <trkpt lat="47.01438" lon="2.45856">
        <ele>136</ele>
        <time>2021-08-13T12:40:40Z</time>
      </trkpt>
      <trkpt lat="47.01435" lon="2.45864">
        <ele>136</ele>
        <time>2021-08-13T12:40:40Z</time>
      </trkpt>
      <trkpt lat="47.01431" lon="2.45872">
        <ele>136</ele>
        <time>2021-08-13T12:40:40Z</time>
      </trkpt>
      <trkpt lat="47.01427" lon="2.45878">
        <ele>136</ele>
        <time>2021-08-13T12:40:40Z</time>
      </trkpt>
      <trkpt lat="47.01422" lon="2.45886">
        <ele>136</ele>
        <time>2021-08-13T12:40:40Z</time>
      </trkpt>
      <trkpt lat="47.01417" lon="2.45894">
        <ele>136</ele>
        <time>2021-08-13T12:40:40Z</time>
      </trkpt>
      <trkpt lat="47.01412" lon="2.45902">
        <ele>136</ele>
        <time>2021-08-13T12:40:40Z</time>
      </trkpt>
      <trkpt lat="47.01409" lon="2.45908">
        <ele>136</ele>
        <time>2021-08-13T12:40:40Z</time>
      </trkpt>
      <trkpt lat="47.01382" lon="2.45934">
        <ele>137</ele>
        <time>2021-08-13T12:40:40Z</time>
      </trkpt>
      <trkpt lat="47.01352" lon="2.45957">
        <ele>137</ele>
        <time>2021-08-13T12:40:40Z</time>
      </trkpt>
      <trkpt lat="47.0132" lon="2.45976">
        <ele>137</ele>
        <time>2021-08-13T12:40:40Z</time>
      </trkpt>
      <trkpt lat="47.01289" lon="2.45997">
        <ele>137</ele>
        <time>2021-08-13T12:40:40Z</time>
      </trkpt>
      <trkpt lat="47.01283" lon="2.46001">
        <ele>137</ele>
        <time>2021-08-13T12:40:40Z</time>
      </trkpt>
      <trkpt lat="47.01278" lon="2.46005">
        <ele>138</ele>
        <time>2021-08-13T12:40:40Z</time>
      </trkpt>
      <trkpt lat="47.01272" lon="2.46008">
        <ele>138</ele>
        <time>2021-08-13T12:40:40Z</time>
      </trkpt>
      <trkpt lat="47.01266" lon="2.46012">
        <ele>138</ele>
        <time>2021-08-13T12:40:40Z</time>
      </trkpt>
      <trkpt lat="47.0126" lon="2.46015">
        <ele>138</ele>
        <time>2021-08-13T12:40:40Z</time>
      </trkpt>
      <trkpt lat="47.01254" lon="2.46018">
        <ele>138</ele>
        <time>2021-08-13T12:40:40Z</time>
      </trkpt>
      <trkpt lat="47.01222" lon="2.46036">
        <ele>138</ele>
        <time>2021-08-13T12:40:40Z</time>
      </trkpt>
      <trkpt lat="47.0119" lon="2.46049">
        <ele>138</ele>
        <time>2021-08-13T12:40:40Z</time>
      </trkpt>
      <trkpt lat="47.01153" lon="2.4605">
        <ele>139</ele>
        <time>2021-08-13T12:40:40Z</time>
      </trkpt>
      <trkpt lat="47.01119" lon="2.46042">
        <ele>138</ele>
        <time>2021-08-13T12:40:40Z</time>
      </trkpt>
      <trkpt lat="47.01072" lon="2.46015">
        <ele>137</ele>
        <time>2021-08-13T12:40:40Z</time>
      </trkpt>
      <trkpt lat="47.01033" lon="2.4599">
        <ele>139</ele>
        <time>2021-08-13T12:40:40Z</time>
      </trkpt>
      <trkpt lat="47.0102" lon="2.45982">
        <ele>141</ele>
        <time>2021-08-13T12:40:40Z</time>
      </trkpt>
      <trkpt lat="47.00977" lon="2.45951">
        <ele>141</ele>
        <time>2021-08-13T12:40:40Z</time>
      </trkpt>
      <trkpt lat="47.00945" lon="2.45929">
        <ele>139</ele>
        <time>2021-08-13T12:40:40Z</time>
      </trkpt>
      <trkpt lat="47.00908" lon="2.45906">
        <ele>140</ele>
        <time>2021-08-13T12:40:40Z</time>
      </trkpt>
      <trkpt lat="47.0087" lon="2.4588">
        <ele>142</ele>
        <time>2021-08-13T12:40:40Z</time>
      </trkpt>
      <trkpt lat="47.00832" lon="2.45854">
        <ele>145</ele>
        <time>2021-08-13T12:40:40Z</time>
      </trkpt>
      <trkpt lat="47.00807" lon="2.45837">
        <ele>141</ele>
        <time>2021-08-13T12:40:40Z</time>
      </trkpt>
      <trkpt lat="47.00795" lon="2.45828">
        <ele>140</ele>
        <time>2021-08-13T12:40:40Z</time>
      </trkpt>
      <trkpt lat="47.00788" lon="2.45823">
        <ele>140</ele>
        <time>2021-08-13T12:40:40Z</time>
      </trkpt>
      <trkpt lat="47.00782" lon="2.45819">
        <ele>140</ele>
        <time>2021-08-13T12:40:40Z</time>
      </trkpt>
      <trkpt lat="47.00775" lon="2.45814">
        <ele>139</ele>
        <time>2021-08-13T12:40:40Z</time>
      </trkpt>
      <trkpt lat="47.00769" lon="2.4581">
        <ele>139</ele>
        <time>2021-08-13T12:40:40Z</time>
      </trkpt>
      <trkpt lat="47.00763" lon="2.45806">
        <ele>139</ele>
        <time>2021-08-13T12:40:40Z</time>
      </trkpt>
      <trkpt lat="47.00757" lon="2.45802">
        <ele>138</ele>
        <time>2021-08-13T12:40:40Z</time>
      </trkpt>
      <trkpt lat="47.00751" lon="2.45798">
        <ele>138</ele>
        <time>2021-08-13T12:40:40Z</time>
      </trkpt>
      <trkpt lat="47.00744" lon="2.45793">
        <ele>137</ele>
        <time>2021-08-13T12:40:40Z</time>
      </trkpt>
      <trkpt lat="47.00739" lon="2.45787">
        <ele>136</ele>
        <time>2021-08-13T12:40:40Z</time>
      </trkpt>
      <trkpt lat="47.00732" lon="2.45783">
        <ele>135</ele>
        <time>2021-08-13T12:40:40Z</time>
      </trkpt>
      <trkpt lat="47.00726" lon="2.45779">
        <ele>135</ele>
        <time>2021-08-13T12:40:40Z</time>
      </trkpt>
      <trkpt lat="47.00719" lon="2.45776">
        <ele>135</ele>
        <time>2021-08-13T12:40:40Z</time>
      </trkpt>
      <trkpt lat="47.00712" lon="2.45771">
        <ele>135</ele>
        <time>2021-08-13T12:40:40Z</time>
      </trkpt>
      <trkpt lat="47.00706" lon="2.45767">
        <ele>136</ele>
        <time>2021-08-13T12:40:40Z</time>
      </trkpt>
      <trkpt lat="47.00699" lon="2.45762">
        <ele>137</ele>
        <time>2021-08-13T12:40:40Z</time>
      </trkpt>
      <trkpt lat="47.00686" lon="2.45753">
        <ele>137</ele>
        <time>2021-08-13T12:40:40Z</time>
      </trkpt>
      <trkpt lat="47.00679" lon="2.45749">
        <ele>138</ele>
        <time>2021-08-13T12:40:40Z</time>
      </trkpt>
      <trkpt lat="47.00673" lon="2.45744">
        <ele>138</ele>
        <time>2021-08-13T12:40:40Z</time>
      </trkpt>
      <trkpt lat="47.00666" lon="2.4574">
        <ele>138</ele>
        <time>2021-08-13T12:40:40Z</time>
      </trkpt>
      <trkpt lat="47.0066" lon="2.45736">
        <ele>138</ele>
        <time>2021-08-13T12:40:40Z</time>
      </trkpt>
      <trkpt lat="47.00647" lon="2.45727">
        <ele>139</ele>
        <time>2021-08-13T12:40:40Z</time>
      </trkpt>
      <trkpt lat="47.0064" lon="2.45723">
        <ele>139</ele>
        <time>2021-08-13T12:40:40Z</time>
      </trkpt>
      <trkpt lat="47.00634" lon="2.45719">
        <ele>139</ele>
        <time>2021-08-13T12:40:40Z</time>
      </trkpt>
      <trkpt lat="47.00627" lon="2.45716">
        <ele>139</ele>
        <time>2021-08-13T12:40:40Z</time>
      </trkpt>
      <trkpt lat="47.00621" lon="2.45711">
        <ele>139</ele>
        <time>2021-08-13T12:40:40Z</time>
      </trkpt>
      <trkpt lat="47.00615" lon="2.45707">
        <ele>139</ele>
        <time>2021-08-13T12:40:40Z</time>
      </trkpt>
      <trkpt lat="47.00608" lon="2.45702">
        <ele>139</ele>
        <time>2021-08-13T12:40:40Z</time>
      </trkpt>
      <trkpt lat="47.00602" lon="2.45697">
        <ele>139</ele>
        <time>2021-08-13T12:40:40Z</time>
      </trkpt>
      <trkpt lat="47.00596" lon="2.45693">
        <ele>139</ele>
        <time>2021-08-13T12:40:40Z</time>
      </trkpt>
      <trkpt lat="47.0059" lon="2.4569">
        <ele>139</ele>
        <time>2021-08-13T12:40:40Z</time>
      </trkpt>
      <trkpt lat="47.00584" lon="2.45686">
        <ele>139</ele>
        <time>2021-08-13T12:40:40Z</time>
      </trkpt>
      <trkpt lat="47.00577" lon="2.45682">
        <ele>139</ele>
        <time>2021-08-13T12:40:40Z</time>
      </trkpt>
      <trkpt lat="47.00571" lon="2.45677">
        <ele>139</ele>
        <time>2021-08-13T12:40:40Z</time>
      </trkpt>
      <trkpt lat="47.00566" lon="2.45673">
        <ele>138</ele>
        <time>2021-08-13T12:40:40Z</time>
      </trkpt>
      <trkpt lat="47.00559" lon="2.45671">
        <ele>139</ele>
        <time>2021-08-13T12:40:40Z</time>
      </trkpt>
      <trkpt lat="47.00553" lon="2.45667">
        <ele>139</ele>
        <time>2021-08-13T12:40:40Z</time>
      </trkpt>
      <trkpt lat="47.00548" lon="2.45663">
        <ele>139</ele>
        <time>2021-08-13T12:40:40Z</time>
      </trkpt>
      <trkpt lat="47.00541" lon="2.45659">
        <ele>139</ele>
        <time>2021-08-13T12:40:40Z</time>
      </trkpt>
      <trkpt lat="47.00535" lon="2.45655">
        <ele>139</ele>
        <time>2021-08-13T12:40:40Z</time>
      </trkpt>
      <trkpt lat="47.00529" lon="2.45651">
        <ele>139</ele>
        <time>2021-08-13T12:40:40Z</time>
      </trkpt>
      <trkpt lat="47.00523" lon="2.45646">
        <ele>139</ele>
        <time>2021-08-13T12:40:40Z</time>
      </trkpt>
      <trkpt lat="47.00517" lon="2.45642">
        <ele>139</ele>
        <time>2021-08-13T12:40:40Z</time>
      </trkpt>
      <trkpt lat="47.00511" lon="2.45638">
        <ele>140</ele>
        <time>2021-08-13T12:40:40Z</time>
      </trkpt>
      <trkpt lat="47.00505" lon="2.45634">
        <ele>140</ele>
        <time>2021-08-13T12:40:40Z</time>
      </trkpt>
      <trkpt lat="47.00498" lon="2.4563">
        <ele>140</ele>
        <time>2021-08-13T12:40:40Z</time>
      </trkpt>
      <trkpt lat="47.00492" lon="2.45626">
        <ele>140</ele>
        <time>2021-08-13T12:40:40Z</time>
      </trkpt>
      <trkpt lat="47.00486" lon="2.45622">
        <ele>140</ele>
        <time>2021-08-13T12:40:40Z</time>
      </trkpt>
      <trkpt lat="47.0048" lon="2.45619">
        <ele>140</ele>
        <time>2021-08-13T12:40:40Z</time>
      </trkpt>
      <trkpt lat="47.00474" lon="2.45614">
        <ele>141</ele>
        <time>2021-08-13T12:40:40Z</time>
      </trkpt>
      <trkpt lat="47.00468" lon="2.45611">
        <ele>141</ele>
        <time>2021-08-13T12:40:40Z</time>
      </trkpt>
      <trkpt lat="47.00461" lon="2.45607">
        <ele>140</ele>
        <time>2021-08-13T12:40:40Z</time>
      </trkpt>
      <trkpt lat="47.00455" lon="2.45602">
        <ele>140</ele>
        <time>2021-08-13T12:40:40Z</time>
      </trkpt>
      <trkpt lat="47.00449" lon="2.45598">
        <ele>140</ele>
        <time>2021-08-13T12:40:40Z</time>
      </trkpt>
      <trkpt lat="47.00442" lon="2.45593">
        <ele>140</ele>
        <time>2021-08-13T12:40:40Z</time>
      </trkpt>
      <trkpt lat="47.00436" lon="2.45588">
        <ele>140</ele>
        <time>2021-08-13T12:40:40Z</time>
      </trkpt>
      <trkpt lat="47.00429" lon="2.45583">
        <ele>140</ele>
        <time>2021-08-13T12:40:40Z</time>
      </trkpt>
      <trkpt lat="47.00423" lon="2.4558">
        <ele>140</ele>
        <time>2021-08-13T12:40:40Z</time>
      </trkpt>
      <trkpt lat="47.00417" lon="2.45576">
        <ele>140</ele>
        <time>2021-08-13T12:40:40Z</time>
      </trkpt>
      <trkpt lat="47.00411" lon="2.45572">
        <ele>139</ele>
        <time>2021-08-13T12:40:40Z</time>
      </trkpt>
      <trkpt lat="47.00381" lon="2.45551">
        <ele>139</ele>
        <time>2021-08-13T12:40:40Z</time>
      </trkpt>
      <trkpt lat="47.00349" lon="2.45533">
        <ele>138</ele>
        <time>2021-08-13T12:40:40Z</time>
      </trkpt>
      <trkpt lat="47.00318" lon="2.45514">
        <ele>137</ele>
        <time>2021-08-13T12:40:40Z</time>
      </trkpt>
      <trkpt lat="47.00285" lon="2.455">
        <ele>135</ele>
        <time>2021-08-13T12:40:40Z</time>
      </trkpt>
      <trkpt lat="47.00252" lon="2.45496">
        <ele>137</ele>
        <time>2021-08-13T12:40:40Z</time>
      </trkpt>
      <trkpt lat="47.00227" lon="2.45498">
        <ele>139</ele>
        <time>2021-08-13T12:40:40Z</time>
      </trkpt>
      <trkpt lat="47.00221" lon="2.455">
        <ele>139</ele>
        <time>2021-08-13T12:40:40Z</time>
      </trkpt>
      <trkpt lat="47.00188" lon="2.45508">
        <ele>140</ele>
        <time>2021-08-13T12:40:40Z</time>
      </trkpt>
      <trkpt lat="47.00158" lon="2.45523">
        <ele>141</ele>
        <time>2021-08-13T12:40:40Z</time>
      </trkpt>
      <trkpt lat="47.00129" lon="2.45544">
        <ele>141</ele>
        <time>2021-08-13T12:40:40Z</time>
      </trkpt>
      <trkpt lat="47.00103" lon="2.45565">
        <ele>142</ele>
        <time>2021-08-13T12:40:40Z</time>
      </trkpt>
      <trkpt lat="47.0008" lon="2.45583">
        <ele>143</ele>
        <time>2021-08-13T12:40:40Z</time>
      </trkpt>
      <trkpt lat="47.00061" lon="2.45599">
        <ele>144</ele>
        <time>2021-08-13T12:40:40Z</time>
      </trkpt>
      <trkpt lat="47.00055" lon="2.45603">
        <ele>144</ele>
        <time>2021-08-13T12:40:40Z</time>
      </trkpt>
      <trkpt lat="47.00035" lon="2.45617">
        <ele>143</ele>
        <time>2021-08-13T12:40:40Z</time>
      </trkpt>
      <trkpt lat="47.00029" lon="2.45621">
        <ele>142</ele>
        <time>2021-08-13T12:40:40Z</time>
      </trkpt>
      <trkpt lat="47.00027" lon="2.45621">
        <ele>142</ele>
        <time>2021-08-13T12:40:40Z</time>
      </trkpt>
      <trkpt lat="47.00025" lon="2.45622">
        <ele>142</ele>
        <time>2021-08-13T12:40:40Z</time>
      </trkpt>
      <trkpt lat="47.00024" lon="2.45622">
        <ele>142</ele>
        <time>2021-08-13T12:40:40Z</time>
      </trkpt>
      <trkpt lat="47.00024" lon="2.45622">
        <ele>142</ele>
        <time>2021-08-13T12:40:40Z</time>
      </trkpt>
      <trkpt lat="47.00024" lon="2.45622">
        <ele>142</ele>
        <time>2021-08-13T12:40:40Z</time>
      </trkpt>
      <trkpt lat="47.00024" lon="2.45621">
        <ele>142</ele>
        <time>2021-08-13T12:40:40Z</time>
      </trkpt>
      <trkpt lat="47.00024" lon="2.45621">
        <ele>142</ele>
        <time>2021-08-13T12:40:40Z</time>
      </trkpt>
      <trkpt lat="47.00025" lon="2.45621">
        <ele>142</ele>
        <time>2021-08-13T12:40:40Z</time>
      </trkpt>
      <trkpt lat="47.00024" lon="2.4562">
        <ele>142</ele>
        <time>2021-08-13T12:40:40Z</time>
      </trkpt>
      <trkpt lat="47.00024" lon="2.45619">
        <ele>142</ele>
        <time>2021-08-13T12:40:40Z</time>
      </trkpt>
      <trkpt lat="47.00023" lon="2.45619">
        <ele>142</ele>
        <time>2021-08-13T12:40:40Z</time>
      </trkpt>
      <trkpt lat="47.00023" lon="2.45619">
        <ele>142</ele>
        <time>2021-08-13T12:40:40Z</time>
      </trkpt>
      <trkpt lat="47.00023" lon="2.45619">
        <ele>142</ele>
        <time>2021-08-13T12:40:40Z</time>
      </trkpt>
      <trkpt lat="47.00023" lon="2.45619">
        <ele>142</ele>
        <time>2021-08-13T12:40:40Z</time>
      </trkpt>
      <trkpt lat="47.00023" lon="2.45618">
        <ele>141</ele>
        <time>2021-08-13T12:40:40Z</time>
      </trkpt>
      <trkpt lat="47.00023" lon="2.45618">
        <ele>141</ele>
        <time>2021-08-13T12:40:40Z</time>
      </trkpt>
      <trkpt lat="47.00023" lon="2.45619">
        <ele>142</ele>
        <time>2021-08-13T12:40:40Z</time>
      </trkpt>
      <trkpt lat="47.00022" lon="2.45619">
        <ele>141</ele>
        <time>2021-08-13T12:40:40Z</time>
      </trkpt>
      <trkpt lat="47.00021" lon="2.45618">
        <ele>141</ele>
        <time>2021-08-13T12:40:40Z</time>
      </trkpt>
      <trkpt lat="47.0002" lon="2.45616">
        <ele>141</ele>
        <time>2021-08-13T12:40:40Z</time>
      </trkpt>
      <trkpt lat="47.0002" lon="2.45616">
        <ele>141</ele>
        <time>2021-08-13T12:40:40Z</time>
      </trkpt>
      <trkpt lat="47.0002" lon="2.45616">
        <ele>141</ele>
        <time>2021-08-13T12:40:40Z</time>
      </trkpt>
      <trkpt lat="47.0002" lon="2.45615">
        <ele>141</ele>
        <time>2021-08-13T12:40:40Z</time>
      </trkpt>
      <trkpt lat="47.00021" lon="2.45615">
        <ele>141</ele>
        <time>2021-08-13T12:40:40Z</time>
      </trkpt>
      <trkpt lat="47.00021" lon="2.45616">
        <ele>141</ele>
        <time>2021-08-13T12:40:40Z</time>
      </trkpt>
      <trkpt lat="47.00021" lon="2.45616">
        <ele>141</ele>
        <time>2021-08-13T12:40:40Z</time>
      </trkpt>
      <trkpt lat="47.00022" lon="2.45617">
        <ele>141</ele>
        <time>2021-08-13T12:40:40Z</time>
      </trkpt>
      <trkpt lat="47.00022" lon="2.45616">
        <ele>141</ele>
        <time>2021-08-13T12:40:40Z</time>
      </trkpt>
      <trkpt lat="47.00022" lon="2.45616">
        <ele>141</ele>
        <time>2021-08-13T12:40:40Z</time>
      </trkpt>
      <trkpt lat="47.00022" lon="2.45616">
        <ele>141</ele>
        <time>2021-08-13T12:40:40Z</time>
      </trkpt>
      <trkpt lat="47.00022" lon="2.45616">
        <ele>141</ele>
        <time>2021-08-13T12:40:40Z</time>
      </trkpt>
      <trkpt lat="47.00021" lon="2.45616">
        <ele>141</ele>
        <time>2021-08-13T12:40:40Z</time>
      </trkpt>
      <trkpt lat="47.00021" lon="2.45616">
        <ele>141</ele>
        <time>2021-08-13T12:40:40Z</time>
      </trkpt>
      <trkpt lat="47.00022" lon="2.45615">
        <ele>141</ele>
        <time>2021-08-13T12:40:40Z</time>
      </trkpt>
      <trkpt lat="47.00018" lon="2.45618">
        <ele>141</ele>
        <time>2021-08-13T12:40:40Z</time>
      </trkpt>
      <trkpt lat="47.0001" lon="2.45596">
        <ele>139</ele>
        <time>2021-08-13T12:40:40Z</time>
      </trkpt>
      <trkpt lat="46.99993" lon="2.45568">
        <ele>139</ele>
        <time>2021-08-13T12:40:40Z</time>
      </trkpt>
      <trkpt lat="46.99963" lon="2.4557">
        <ele>140</ele>
        <time>2021-08-13T12:40:40Z</time>
      </trkpt>
      <trkpt lat="46.99939" lon="2.45572">
        <ele>142</ele>
        <time>2021-08-13T12:40:40Z</time>
      </trkpt>
      <trkpt lat="46.99934" lon="2.45572">
        <ele>142</ele>
        <time>2021-08-13T12:40:40Z</time>
      </trkpt>
      <trkpt lat="46.99908" lon="2.45577">
        <ele>143</ele>
        <time>2021-08-13T12:40:40Z</time>
      </trkpt>
      <trkpt lat="46.99882" lon="2.45575">
        <ele>143</ele>
        <time>2021-08-13T12:40:40Z</time>
      </trkpt>
      <trkpt lat="46.99868" lon="2.45541">
        <ele>146</ele>
        <time>2021-08-13T12:40:40Z</time>
      </trkpt>
      <trkpt lat="46.99866" lon="2.455">
        <ele>147</ele>
        <time>2021-08-13T12:40:40Z</time>
      </trkpt>
      <trkpt lat="46.99862" lon="2.4546">
        <ele>149</ele>
        <time>2021-08-13T12:40:40Z</time>
      </trkpt>
      <trkpt lat="46.99859" lon="2.45435">
        <ele>151</ele>
        <time>2021-08-13T12:40:40Z</time>
      </trkpt>
      <trkpt lat="46.99859" lon="2.45431">
        <ele>151</ele>
        <time>2021-08-13T12:40:40Z</time>
      </trkpt>
      <trkpt lat="46.99839" lon="2.45423">
        <ele>151</ele>
        <time>2021-08-13T12:40:40Z</time>
      </trkpt>
      <trkpt lat="46.99811" lon="2.45423">
        <ele>153</ele>
        <time>2021-08-13T12:40:40Z</time>
      </trkpt>
      <trkpt lat="46.99784" lon="2.45415">
        <ele>154</ele>
        <time>2021-08-13T12:40:40Z</time>
      </trkpt>
      <trkpt lat="46.99756" lon="2.45417">
        <ele>154</ele>
        <time>2021-08-13T12:40:40Z</time>
      </trkpt>
      <trkpt lat="46.99728" lon="2.45432">
        <ele>155</ele>
        <time>2021-08-13T12:40:40Z</time>
      </trkpt>
      <trkpt lat="46.99707" lon="2.45445">
        <ele>156</ele>
        <time>2021-08-13T12:40:40Z</time>
      </trkpt>
      <trkpt lat="46.99701" lon="2.45448">
        <ele>156</ele>
        <time>2021-08-13T12:40:40Z</time>
      </trkpt>
      <trkpt lat="46.99672" lon="2.45463">
        <ele>156</ele>
        <time>2021-08-13T12:40:40Z</time>
      </trkpt>
      <trkpt lat="46.99645" lon="2.45479">
        <ele>156</ele>
        <time>2021-08-13T12:40:40Z</time>
      </trkpt>
      <trkpt lat="46.99618" lon="2.45495">
        <ele>156</ele>
        <time>2021-08-13T12:40:40Z</time>
      </trkpt>
      <trkpt lat="46.99591" lon="2.45511">
        <ele>157</ele>
        <time>2021-08-13T12:40:40Z</time>
      </trkpt>
      <trkpt lat="46.99563" lon="2.45527">
        <ele>158</ele>
        <time>2021-08-13T12:40:40Z</time>
      </trkpt>
      <trkpt lat="46.9954" lon="2.45542">
        <ele>158</ele>
        <time>2021-08-13T12:40:40Z</time>
      </trkpt>
      <trkpt lat="46.99534" lon="2.45547">
        <ele>158</ele>
        <time>2021-08-13T12:40:40Z</time>
      </trkpt>
      <trkpt lat="46.99506" lon="2.45572">
        <ele>158</ele>
        <time>2021-08-13T12:40:40Z</time>
      </trkpt>
      <trkpt lat="46.99477" lon="2.45599">
        <ele>157</ele>
        <time>2021-08-13T12:40:40Z</time>
      </trkpt>
      <trkpt lat="46.99446" lon="2.45626">
        <ele>156</ele>
        <time>2021-08-13T12:40:40Z</time>
      </trkpt>
      <trkpt lat="46.99417" lon="2.45657">
        <ele>155</ele>
        <time>2021-08-13T12:40:40Z</time>
      </trkpt>
      <trkpt lat="46.9939" lon="2.45678">
        <ele>154</ele>
        <time>2021-08-13T12:40:40Z</time>
      </trkpt>
      <trkpt lat="46.99372" lon="2.45698">
        <ele>153</ele>
        <time>2021-08-13T12:40:40Z</time>
      </trkpt>
      <trkpt lat="46.9937" lon="2.45706">
        <ele>153</ele>
        <time>2021-08-13T12:40:40Z</time>
      </trkpt>
      <trkpt lat="46.9935" lon="2.45742">
        <ele>153</ele>
        <time>2021-08-13T12:40:40Z</time>
      </trkpt>
      <trkpt lat="46.9933" lon="2.45776">
        <ele>155</ele>
        <time>2021-08-13T12:40:40Z</time>
      </trkpt>
      <trkpt lat="46.9931" lon="2.45807">
        <ele>154</ele>
        <time>2021-08-13T12:40:40Z</time>
      </trkpt>
      <trkpt lat="46.99288" lon="2.4584">
        <ele>154</ele>
        <time>2021-08-13T12:40:40Z</time>
      </trkpt>
      <trkpt lat="46.99266" lon="2.45875">
        <ele>154</ele>
        <time>2021-08-13T12:40:40Z</time>
      </trkpt>
      <trkpt lat="46.99248" lon="2.45903">
        <ele>155</ele>
        <time>2021-08-13T12:40:40Z</time>
      </trkpt>
      <trkpt lat="46.99244" lon="2.45909">
        <ele>155</ele>
        <time>2021-08-13T12:40:40Z</time>
      </trkpt>
      <trkpt lat="46.99239" lon="2.45917">
        <ele>155</ele>
        <time>2021-08-13T12:40:40Z</time>
      </trkpt>
      <trkpt lat="46.99235" lon="2.45924">
        <ele>155</ele>
        <time>2021-08-13T12:40:40Z</time>
      </trkpt>
      <trkpt lat="46.99231" lon="2.4593">
        <ele>155</ele>
        <time>2021-08-13T12:40:40Z</time>
      </trkpt>
      <trkpt lat="46.99226" lon="2.45937">
        <ele>155</ele>
        <time>2021-08-13T12:40:40Z</time>
      </trkpt>
      <trkpt lat="46.99222" lon="2.45944">
        <ele>156</ele>
        <time>2021-08-13T12:40:40Z</time>
      </trkpt>
      <trkpt lat="46.99218" lon="2.45951">
        <ele>156</ele>
        <time>2021-08-13T12:40:40Z</time>
      </trkpt>
      <trkpt lat="46.99214" lon="2.45958">
        <ele>156</ele>
        <time>2021-08-13T12:40:40Z</time>
      </trkpt>
      <trkpt lat="46.9921" lon="2.45965">
        <ele>156</ele>
        <time>2021-08-13T12:40:40Z</time>
      </trkpt>
      <trkpt lat="46.99205" lon="2.45972">
        <ele>156</ele>
        <time>2021-08-13T12:40:40Z</time>
      </trkpt>
      <trkpt lat="46.99201" lon="2.45978">
        <ele>156</ele>
        <time>2021-08-13T12:40:40Z</time>
      </trkpt>
      <trkpt lat="46.99196" lon="2.45985">
        <ele>156</ele>
        <time>2021-08-13T12:40:40Z</time>
      </trkpt>
      <trkpt lat="46.99192" lon="2.45991">
        <ele>157</ele>
        <time>2021-08-13T12:40:40Z</time>
      </trkpt>
      <trkpt lat="46.99187" lon="2.45998">
        <ele>157</ele>
        <time>2021-08-13T12:40:40Z</time>
      </trkpt>
      <trkpt lat="46.99184" lon="2.46004">
        <ele>156</ele>
        <time>2021-08-13T12:40:40Z</time>
      </trkpt>
      <trkpt lat="46.99179" lon="2.46012">
        <ele>156</ele>
        <time>2021-08-13T12:40:40Z</time>
      </trkpt>
      <trkpt lat="46.99175" lon="2.46019">
        <ele>156</ele>
        <time>2021-08-13T12:40:40Z</time>
      </trkpt>
      <trkpt lat="46.99171" lon="2.46026">
        <ele>156</ele>
        <time>2021-08-13T12:40:40Z</time>
      </trkpt>
      <trkpt lat="46.99167" lon="2.46033">
        <ele>156</ele>
        <time>2021-08-13T12:40:40Z</time>
      </trkpt>
      <trkpt lat="46.99162" lon="2.4604">
        <ele>156</ele>
        <time>2021-08-13T12:40:40Z</time>
      </trkpt>
      <trkpt lat="46.99158" lon="2.46047">
        <ele>156</ele>
        <time>2021-08-13T12:40:40Z</time>
      </trkpt>
      <trkpt lat="46.99153" lon="2.46054">
        <ele>156</ele>
        <time>2021-08-13T12:40:40Z</time>
      </trkpt>
      <trkpt lat="46.99149" lon="2.46061">
        <ele>156</ele>
        <time>2021-08-13T12:40:40Z</time>
      </trkpt>
      <trkpt lat="46.99145" lon="2.46068">
        <ele>156</ele>
        <time>2021-08-13T12:40:40Z</time>
      </trkpt>
      <trkpt lat="46.99141" lon="2.46074">
        <ele>156</ele>
        <time>2021-08-13T12:40:40Z</time>
      </trkpt>
      <trkpt lat="46.99136" lon="2.46081">
        <ele>156</ele>
        <time>2021-08-13T12:40:40Z</time>
      </trkpt>
      <trkpt lat="46.99132" lon="2.46088">
        <ele>156</ele>
        <time>2021-08-13T12:40:40Z</time>
      </trkpt>
      <trkpt lat="46.99127" lon="2.46095">
        <ele>156</ele>
        <time>2021-08-13T12:40:40Z</time>
      </trkpt>
      <trkpt lat="46.99124" lon="2.46102">
        <ele>156</ele>
        <time>2021-08-13T12:40:40Z</time>
      </trkpt>
      <trkpt lat="46.99119" lon="2.4611">
        <ele>156</ele>
        <time>2021-08-13T12:40:40Z</time>
      </trkpt>
      <trkpt lat="46.99115" lon="2.46117">
        <ele>156</ele>
        <time>2021-08-13T12:40:40Z</time>
      </trkpt>
      <trkpt lat="46.9911" lon="2.46124">
        <ele>156</ele>
        <time>2021-08-13T12:40:40Z</time>
      </trkpt>
      <trkpt lat="46.99106" lon="2.46132">
        <ele>156</ele>
        <time>2021-08-13T12:40:40Z</time>
      </trkpt>
      <trkpt lat="46.99102" lon="2.46139">
        <ele>156</ele>
        <time>2021-08-13T12:40:40Z</time>
      </trkpt>
      <trkpt lat="46.99098" lon="2.46146">
        <ele>156</ele>
        <time>2021-08-13T12:40:40Z</time>
      </trkpt>
      <trkpt lat="46.99093" lon="2.46153">
        <ele>156</ele>
        <time>2021-08-13T12:40:40Z</time>
      </trkpt>
      <trkpt lat="46.99089" lon="2.4616">
        <ele>156</ele>
        <time>2021-08-13T12:40:40Z</time>
      </trkpt>
      <trkpt lat="46.99085" lon="2.46167">
        <ele>156</ele>
        <time>2021-08-13T12:40:40Z</time>
      </trkpt>
      <trkpt lat="46.9908" lon="2.46174">
        <ele>155</ele>
        <time>2021-08-13T12:40:40Z</time>
      </trkpt>
      <trkpt lat="46.99076" lon="2.46181">
        <ele>155</ele>
        <time>2021-08-13T12:40:40Z</time>
      </trkpt>
      <trkpt lat="46.99072" lon="2.46188">
        <ele>155</ele>
        <time>2021-08-13T12:40:40Z</time>
      </trkpt>
      <trkpt lat="46.99067" lon="2.46195">
        <ele>155</ele>
        <time>2021-08-13T12:40:40Z</time>
      </trkpt>
      <trkpt lat="46.99063" lon="2.46202">
        <ele>154</ele>
        <time>2021-08-13T12:40:40Z</time>
      </trkpt>
      <trkpt lat="46.99058" lon="2.4621">
        <ele>154</ele>
        <time>2021-08-13T12:40:40Z</time>
      </trkpt>
      <trkpt lat="46.99054" lon="2.46217">
        <ele>154</ele>
        <time>2021-08-13T12:40:40Z</time>
      </trkpt>
      <trkpt lat="46.9905" lon="2.46223">
        <ele>154</ele>
        <time>2021-08-13T12:40:40Z</time>
      </trkpt>
      <trkpt lat="46.99045" lon="2.46231">
        <ele>154</ele>
        <time>2021-08-13T12:40:40Z</time>
      </trkpt>
      <trkpt lat="46.99041" lon="2.46238">
        <ele>154</ele>
        <time>2021-08-13T12:40:40Z</time>
      </trkpt>
      <trkpt lat="46.99036" lon="2.46246">
        <ele>154</ele>
        <time>2021-08-13T12:40:40Z</time>
      </trkpt>
      <trkpt lat="46.99031" lon="2.46253">
        <ele>154</ele>
        <time>2021-08-13T12:40:40Z</time>
      </trkpt>
      <trkpt lat="46.99027" lon="2.46261">
        <ele>155</ele>
        <time>2021-08-13T12:40:40Z</time>
      </trkpt>
      <trkpt lat="46.99022" lon="2.46268">
        <ele>155</ele>
        <time>2021-08-13T12:40:40Z</time>
      </trkpt>
      <trkpt lat="46.99017" lon="2.46276">
        <ele>155</ele>
        <time>2021-08-13T12:40:40Z</time>
      </trkpt>
      <trkpt lat="46.99012" lon="2.46284">
        <ele>154</ele>
        <time>2021-08-13T12:40:40Z</time>
      </trkpt>
      <trkpt lat="46.99008" lon="2.46292">
        <ele>154</ele>
        <time>2021-08-13T12:40:40Z</time>
      </trkpt>
      <trkpt lat="46.99003" lon="2.46299">
        <ele>154</ele>
        <time>2021-08-13T12:40:40Z</time>
      </trkpt>
      <trkpt lat="46.98998" lon="2.46307">
        <ele>153</ele>
        <time>2021-08-13T12:40:40Z</time>
      </trkpt>
      <trkpt lat="46.98993" lon="2.46315">
        <ele>153</ele>
        <time>2021-08-13T12:40:40Z</time>
      </trkpt>
      <trkpt lat="46.98989" lon="2.46323">
        <ele>153</ele>
        <time>2021-08-13T12:40:40Z</time>
      </trkpt>
      <trkpt lat="46.98984" lon="2.46331">
        <ele>152</ele>
        <time>2021-08-13T12:40:40Z</time>
      </trkpt>
      <trkpt lat="46.98979" lon="2.46339">
        <ele>152</ele>
        <time>2021-08-13T12:40:40Z</time>
      </trkpt>
      <trkpt lat="46.98975" lon="2.46347">
        <ele>152</ele>
        <time>2021-08-13T12:40:40Z</time>
      </trkpt>
      <trkpt lat="46.98949" lon="2.46388">
        <ele>152</ele>
        <time>2021-08-13T12:40:40Z</time>
      </trkpt>
      <trkpt lat="46.98925" lon="2.46427">
        <ele>152</ele>
        <time>2021-08-13T12:40:40Z</time>
      </trkpt>
      <trkpt lat="46.98901" lon="2.46466">
        <ele>152</ele>
        <time>2021-08-13T12:40:40Z</time>
      </trkpt>
      <trkpt lat="46.9888" lon="2.46503">
        <ele>153</ele>
        <time>2021-08-13T12:40:40Z</time>
      </trkpt>
      <trkpt lat="46.98858" lon="2.46538">
        <ele>154</ele>
        <time>2021-08-13T12:40:40Z</time>
      </trkpt>
      <trkpt lat="46.98844" lon="2.46566">
        <ele>153</ele>
        <time>2021-08-13T12:40:40Z</time>
      </trkpt>
      <trkpt lat="46.9884" lon="2.46574">
        <ele>153</ele>
        <time>2021-08-13T12:40:40Z</time>
      </trkpt>
      <trkpt lat="46.98822" lon="2.46612">
        <ele>153</ele>
        <time>2021-08-13T12:40:40Z</time>
      </trkpt>
      <trkpt lat="46.98806" lon="2.4665">
        <ele>153</ele>
        <time>2021-08-13T12:40:40Z</time>
      </trkpt>
      <trkpt lat="46.98792" lon="2.46688">
        <ele>153</ele>
        <time>2021-08-13T12:40:40Z</time>
      </trkpt>
      <trkpt lat="46.98776" lon="2.46726">
        <ele>155</ele>
        <time>2021-08-13T12:40:40Z</time>
      </trkpt>
      <trkpt lat="46.9876" lon="2.46765">
        <ele>154</ele>
        <time>2021-08-13T12:40:40Z</time>
      </trkpt>
      <trkpt lat="46.98748" lon="2.46795">
        <ele>154</ele>
        <time>2021-08-13T12:40:40Z</time>
      </trkpt>
      <trkpt lat="46.98744" lon="2.46804">
        <ele>154</ele>
        <time>2021-08-13T12:40:40Z</time>
      </trkpt>
      <trkpt lat="46.98741" lon="2.46812">
        <ele>154</ele>
        <time>2021-08-13T12:40:40Z</time>
      </trkpt>
      <trkpt lat="46.98738" lon="2.4682">
        <ele>154</ele>
        <time>2021-08-13T12:40:40Z</time>
      </trkpt>
      <trkpt lat="46.98736" lon="2.46827">
        <ele>154</ele>
        <time>2021-08-13T12:40:40Z</time>
      </trkpt>
      <trkpt lat="46.98732" lon="2.46835">
        <ele>154</ele>
        <time>2021-08-13T12:40:40Z</time>
      </trkpt>
      <trkpt lat="46.98729" lon="2.46844">
        <ele>154</ele>
        <time>2021-08-13T12:40:40Z</time>
      </trkpt>
      <trkpt lat="46.98726" lon="2.46852">
        <ele>154</ele>
        <time>2021-08-13T12:40:40Z</time>
      </trkpt>
      <trkpt lat="46.98722" lon="2.4686">
        <ele>154</ele>
        <time>2021-08-13T12:40:40Z</time>
      </trkpt>
      <trkpt lat="46.98719" lon="2.46868">
        <ele>154</ele>
        <time>2021-08-13T12:40:40Z</time>
      </trkpt>
      <trkpt lat="46.98715" lon="2.46876">
        <ele>154</ele>
        <time>2021-08-13T12:40:40Z</time>
      </trkpt>
      <trkpt lat="46.98712" lon="2.46885">
        <ele>154</ele>
        <time>2021-08-13T12:40:40Z</time>
      </trkpt>
      <trkpt lat="46.98708" lon="2.46893">
        <ele>154</ele>
        <time>2021-08-13T12:40:40Z</time>
      </trkpt>
      <trkpt lat="46.98705" lon="2.46901">
        <ele>154</ele>
        <time>2021-08-13T12:40:40Z</time>
      </trkpt>
      <trkpt lat="46.98702" lon="2.4691">
        <ele>154</ele>
        <time>2021-08-13T12:40:40Z</time>
      </trkpt>
      <trkpt lat="46.98699" lon="2.46918">
        <ele>154</ele>
        <time>2021-08-13T12:40:40Z</time>
      </trkpt>
      <trkpt lat="46.98695" lon="2.46926">
        <ele>154</ele>
        <time>2021-08-13T12:40:40Z</time>
      </trkpt>
      <trkpt lat="46.98691" lon="2.46935">
        <ele>154</ele>
        <time>2021-08-13T12:40:40Z</time>
      </trkpt>
      <trkpt lat="46.98688" lon="2.46944">
        <ele>154</ele>
        <time>2021-08-13T12:40:40Z</time>
      </trkpt>
      <trkpt lat="46.98684" lon="2.46952">
        <ele>153</ele>
        <time>2021-08-13T12:40:40Z</time>
      </trkpt>
      <trkpt lat="46.9868" lon="2.46961">
        <ele>153</ele>
        <time>2021-08-13T12:40:40Z</time>
      </trkpt>
      <trkpt lat="46.98676" lon="2.4697">
        <ele>153</ele>
        <time>2021-08-13T12:40:40Z</time>
      </trkpt>
      <trkpt lat="46.98673" lon="2.4698">
        <ele>153</ele>
        <time>2021-08-13T12:40:40Z</time>
      </trkpt>
      <trkpt lat="46.98669" lon="2.46989">
        <ele>153</ele>
        <time>2021-08-13T12:40:40Z</time>
      </trkpt>
      <trkpt lat="46.98665" lon="2.46999">
        <ele>152</ele>
        <time>2021-08-13T12:40:40Z</time>
      </trkpt>
      <trkpt lat="46.98661" lon="2.47008">
        <ele>152</ele>
        <time>2021-08-13T12:40:40Z</time>
      </trkpt>
      <trkpt lat="46.98657" lon="2.47018">
        <ele>152</ele>
        <time>2021-08-13T12:40:40Z</time>
      </trkpt>
      <trkpt lat="46.98654" lon="2.47028">
        <ele>152</ele>
        <time>2021-08-13T12:40:40Z</time>
      </trkpt>
      <trkpt lat="46.98649" lon="2.47038">
        <ele>152</ele>
        <time>2021-08-13T12:40:40Z</time>
      </trkpt>
      <trkpt lat="46.98645" lon="2.47048">
        <ele>152</ele>
        <time>2021-08-13T12:40:40Z</time>
      </trkpt>
      <trkpt lat="46.98641" lon="2.47058">
        <ele>151</ele>
        <time>2021-08-13T12:40:40Z</time>
      </trkpt>
      <trkpt lat="46.98637" lon="2.47068">
        <ele>151</ele>
        <time>2021-08-13T12:40:40Z</time>
      </trkpt>
      <trkpt lat="46.98633" lon="2.47078">
        <ele>150</ele>
        <time>2021-08-13T12:40:40Z</time>
      </trkpt>
      <trkpt lat="46.98628" lon="2.47088">
        <ele>149</ele>
        <time>2021-08-13T12:40:40Z</time>
      </trkpt>
      <trkpt lat="46.98624" lon="2.47098">
        <ele>149</ele>
        <time>2021-08-13T12:40:40Z</time>
      </trkpt>
      <trkpt lat="46.9862" lon="2.47109">
        <ele>149</ele>
        <time>2021-08-13T12:40:40Z</time>
      </trkpt>
      <trkpt lat="46.98616" lon="2.47119">
        <ele>148</ele>
        <time>2021-08-13T12:40:40Z</time>
      </trkpt>
      <trkpt lat="46.98611" lon="2.4713">
        <ele>146</ele>
        <time>2021-08-13T12:40:40Z</time>
      </trkpt>
      <trkpt lat="46.98607" lon="2.47141">
        <ele>146</ele>
        <time>2021-08-13T12:40:40Z</time>
      </trkpt>
      <trkpt lat="46.98603" lon="2.47151">
        <ele>145</ele>
        <time>2021-08-13T12:40:40Z</time>
      </trkpt>
      <trkpt lat="46.98598" lon="2.47162">
        <ele>145</ele>
        <time>2021-08-13T12:40:40Z</time>
      </trkpt>
      <trkpt lat="46.98594" lon="2.47173">
        <ele>144</ele>
        <time>2021-08-13T12:40:40Z</time>
      </trkpt>
      <trkpt lat="46.98589" lon="2.47184">
        <ele>144</ele>
        <time>2021-08-13T12:40:40Z</time>
      </trkpt>
      <trkpt lat="46.98585" lon="2.47194">
        <ele>144</ele>
        <time>2021-08-13T12:40:40Z</time>
      </trkpt>
      <trkpt lat="46.98581" lon="2.47204">
        <ele>143</ele>
        <time>2021-08-13T12:40:40Z</time>
      </trkpt>
      <trkpt lat="46.98577" lon="2.47214">
        <ele>143</ele>
        <time>2021-08-13T12:40:40Z</time>
      </trkpt>
      <trkpt lat="46.98573" lon="2.47223">
        <ele>143</ele>
        <time>2021-08-13T12:40:40Z</time>
      </trkpt>
      <trkpt lat="46.98569" lon="2.47232">
        <ele>143</ele>
        <time>2021-08-13T12:40:40Z</time>
      </trkpt>
      <trkpt lat="46.98566" lon="2.47241">
        <ele>143</ele>
        <time>2021-08-13T12:40:40Z</time>
      </trkpt>
      <trkpt lat="46.98563" lon="2.4725">
        <ele>143</ele>
        <time>2021-08-13T12:40:40Z</time>
      </trkpt>
      <trkpt lat="46.98559" lon="2.47258">
        <ele>144</ele>
        <time>2021-08-13T12:40:40Z</time>
      </trkpt>
      <trkpt lat="46.98556" lon="2.47266">
        <ele>144</ele>
        <time>2021-08-13T12:40:40Z</time>
      </trkpt>
      <trkpt lat="46.98553" lon="2.47274">
        <ele>144</ele>
        <time>2021-08-13T12:40:40Z</time>
      </trkpt>
      <trkpt lat="46.9855" lon="2.47281">
        <ele>145</ele>
        <time>2021-08-13T12:40:40Z</time>
      </trkpt>
      <trkpt lat="46.98546" lon="2.47288">
        <ele>145</ele>
        <time>2021-08-13T12:40:40Z</time>
      </trkpt>
      <trkpt lat="46.9854" lon="2.47303">
        <ele>146</ele>
        <time>2021-08-13T12:40:40Z</time>
      </trkpt>
      <trkpt lat="46.98534" lon="2.47318">
        <ele>147</ele>
        <time>2021-08-13T12:40:40Z</time>
      </trkpt>
      <trkpt lat="46.98531" lon="2.47325">
        <ele>147</ele>
        <time>2021-08-13T12:40:40Z</time>
      </trkpt>
      <trkpt lat="46.98528" lon="2.47332">
        <ele>147</ele>
        <time>2021-08-13T12:40:40Z</time>
      </trkpt>
      <trkpt lat="46.98526" lon="2.4734">
        <ele>148</ele>
        <time>2021-08-13T12:40:40Z</time>
      </trkpt>
      <trkpt lat="46.98522" lon="2.47347">
        <ele>149</ele>
        <time>2021-08-13T12:40:40Z</time>
      </trkpt>
      <trkpt lat="46.98504" lon="2.47392">
        <ele>151</ele>
        <time>2021-08-13T12:40:40Z</time>
      </trkpt>
      <trkpt lat="46.98486" lon="2.47437">
        <ele>152</ele>
        <time>2021-08-13T12:40:40Z</time>
      </trkpt>
      <trkpt lat="46.98471" lon="2.47474">
        <ele>152</ele>
        <time>2021-08-13T12:40:40Z</time>
      </trkpt>
      <trkpt lat="46.98456" lon="2.47511">
        <ele>152</ele>
        <time>2021-08-13T12:40:40Z</time>
      </trkpt>
      <trkpt lat="46.98439" lon="2.47555">
        <ele>154</ele>
        <time>2021-08-13T12:40:40Z</time>
      </trkpt>
      <trkpt lat="46.98423" lon="2.47592">
        <ele>155</ele>
        <time>2021-08-13T12:40:40Z</time>
      </trkpt>
      <trkpt lat="46.9842" lon="2.476">
        <ele>155</ele>
        <time>2021-08-13T12:40:40Z</time>
      </trkpt>
      <trkpt lat="46.98405" lon="2.47638">
        <ele>155</ele>
        <time>2021-08-13T12:40:40Z</time>
      </trkpt>
      <trkpt lat="46.98389" lon="2.47675">
        <ele>156</ele>
        <time>2021-08-13T12:40:40Z</time>
      </trkpt>
      <trkpt lat="46.98374" lon="2.47712">
        <ele>157</ele>
        <time>2021-08-13T12:40:40Z</time>
      </trkpt>
      <trkpt lat="46.9836" lon="2.47749">
        <ele>158</ele>
        <time>2021-08-13T12:40:40Z</time>
      </trkpt>
      <trkpt lat="46.98345" lon="2.47786">
        <ele>158</ele>
        <time>2021-08-13T12:40:40Z</time>
      </trkpt>
      <trkpt lat="46.98332" lon="2.47816">
        <ele>160</ele>
        <time>2021-08-13T12:40:40Z</time>
      </trkpt>
      <trkpt lat="46.98329" lon="2.47823">
        <ele>160</ele>
        <time>2021-08-13T12:40:40Z</time>
      </trkpt>
      <trkpt lat="46.98312" lon="2.47869">
        <ele>161</ele>
        <time>2021-08-13T12:40:40Z</time>
      </trkpt>
      <trkpt lat="46.98297" lon="2.47905">
        <ele>162</ele>
        <time>2021-08-13T12:40:40Z</time>
      </trkpt>
      <trkpt lat="46.98282" lon="2.47942">
        <ele>162</ele>
        <time>2021-08-13T12:40:40Z</time>
      </trkpt>
      <trkpt lat="46.98266" lon="2.47979">
        <ele>164</ele>
        <time>2021-08-13T12:40:40Z</time>
      </trkpt>
      <trkpt lat="46.98251" lon="2.48016">
        <ele>165</ele>
        <time>2021-08-13T12:40:40Z</time>
      </trkpt>
      <trkpt lat="46.98239" lon="2.48046">
        <ele>165</ele>
        <time>2021-08-13T12:40:40Z</time>
      </trkpt>
      <trkpt lat="46.98236" lon="2.48053">
        <ele>165</ele>
        <time>2021-08-13T12:40:40Z</time>
      </trkpt>
      <trkpt lat="46.98233" lon="2.4806">
        <ele>165</ele>
        <time>2021-08-13T12:40:40Z</time>
      </trkpt>
      <trkpt lat="46.9823" lon="2.48068">
        <ele>165</ele>
        <time>2021-08-13T12:40:40Z</time>
      </trkpt>
      <trkpt lat="46.98227" lon="2.48076">
        <ele>165</ele>
        <time>2021-08-13T12:40:40Z</time>
      </trkpt>
      <trkpt lat="46.98225" lon="2.48083">
        <ele>165</ele>
        <time>2021-08-13T12:40:40Z</time>
      </trkpt>
      <trkpt lat="46.98222" lon="2.48091">
        <ele>166</ele>
        <time>2021-08-13T12:40:40Z</time>
      </trkpt>
      <trkpt lat="46.98218" lon="2.48098">
        <ele>166</ele>
        <time>2021-08-13T12:40:40Z</time>
      </trkpt>
      <trkpt lat="46.98215" lon="2.48105">
        <ele>166</ele>
        <time>2021-08-13T12:40:40Z</time>
      </trkpt>
      <trkpt lat="46.98212" lon="2.48113">
        <ele>167</ele>
        <time>2021-08-13T12:40:40Z</time>
      </trkpt>
      <trkpt lat="46.98209" lon="2.48121">
        <ele>167</ele>
        <time>2021-08-13T12:40:40Z</time>
      </trkpt>
      <trkpt lat="46.98206" lon="2.48128">
        <ele>167</ele>
        <time>2021-08-13T12:40:40Z</time>
      </trkpt>
      <trkpt lat="46.98202" lon="2.48136">
        <ele>167</ele>
        <time>2021-08-13T12:40:40Z</time>
      </trkpt>
      <trkpt lat="46.98199" lon="2.48144">
        <ele>167</ele>
        <time>2021-08-13T12:40:40Z</time>
      </trkpt>
      <trkpt lat="46.98196" lon="2.48152">
        <ele>167</ele>
        <time>2021-08-13T12:40:40Z</time>
      </trkpt>
      <trkpt lat="46.98193" lon="2.4816">
        <ele>168</ele>
        <time>2021-08-13T12:40:40Z</time>
      </trkpt>
      <trkpt lat="46.98189" lon="2.48168">
        <ele>168</ele>
        <time>2021-08-13T12:40:40Z</time>
      </trkpt>
      <trkpt lat="46.98186" lon="2.48176">
        <ele>168</ele>
        <time>2021-08-13T12:40:40Z</time>
      </trkpt>
      <trkpt lat="46.98183" lon="2.48183">
        <ele>168</ele>
        <time>2021-08-13T12:40:40Z</time>
      </trkpt>
      <trkpt lat="46.9818" lon="2.48191">
        <ele>168</ele>
        <time>2021-08-13T12:40:40Z</time>
      </trkpt>
      <trkpt lat="46.98177" lon="2.48199">
        <ele>168</ele>
        <time>2021-08-13T12:40:40Z</time>
      </trkpt>
      <trkpt lat="46.98174" lon="2.48206">
        <ele>168</ele>
        <time>2021-08-13T12:40:40Z</time>
      </trkpt>
      <trkpt lat="46.9817" lon="2.48213">
        <ele>168</ele>
        <time>2021-08-13T12:40:40Z</time>
      </trkpt>
      <trkpt lat="46.98167" lon="2.48221">
        <ele>168</ele>
        <time>2021-08-13T12:40:40Z</time>
      </trkpt>
      <trkpt lat="46.98164" lon="2.48228">
        <ele>167</ele>
        <time>2021-08-13T12:40:40Z</time>
      </trkpt>
      <trkpt lat="46.98161" lon="2.48236">
        <ele>167</ele>
        <time>2021-08-13T12:40:40Z</time>
      </trkpt>
      <trkpt lat="46.98159" lon="2.48243">
        <ele>167</ele>
        <time>2021-08-13T12:40:40Z</time>
      </trkpt>
      <trkpt lat="46.98155" lon="2.48251">
        <ele>167</ele>
        <time>2021-08-13T12:40:40Z</time>
      </trkpt>
      <trkpt lat="46.98152" lon="2.48258">
        <ele>167</ele>
        <time>2021-08-13T12:40:40Z</time>
      </trkpt>
      <trkpt lat="46.98148" lon="2.48265">
        <ele>167</ele>
        <time>2021-08-13T12:40:40Z</time>
      </trkpt>
      <trkpt lat="46.98146" lon="2.48273">
        <ele>167</ele>
        <time>2021-08-13T12:40:40Z</time>
      </trkpt>
      <trkpt lat="46.98142" lon="2.48281">
        <ele>167</ele>
        <time>2021-08-13T12:40:40Z</time>
      </trkpt>
      <trkpt lat="46.9814" lon="2.48288">
        <ele>167</ele>
        <time>2021-08-13T12:40:40Z</time>
      </trkpt>
      <trkpt lat="46.98137" lon="2.48296">
        <ele>166</ele>
        <time>2021-08-13T12:40:40Z</time>
      </trkpt>
      <trkpt lat="46.98134" lon="2.48303">
        <ele>166</ele>
        <time>2021-08-13T12:40:40Z</time>
      </trkpt>
      <trkpt lat="46.98131" lon="2.48311">
        <ele>166</ele>
        <time>2021-08-13T12:40:40Z</time>
      </trkpt>
      <trkpt lat="46.98127" lon="2.48318">
        <ele>167</ele>
        <time>2021-08-13T12:40:40Z</time>
      </trkpt>
      <trkpt lat="46.98124" lon="2.48326">
        <ele>167</ele>
        <time>2021-08-13T12:40:40Z</time>
      </trkpt>
      <trkpt lat="46.98122" lon="2.48333">
        <ele>167</ele>
        <time>2021-08-13T12:40:40Z</time>
      </trkpt>
      <trkpt lat="46.98118" lon="2.4834">
        <ele>167</ele>
        <time>2021-08-13T12:40:40Z</time>
      </trkpt>
      <trkpt lat="46.98115" lon="2.48348">
        <ele>167</ele>
        <time>2021-08-13T12:40:40Z</time>
      </trkpt>
      <trkpt lat="46.98112" lon="2.48355">
        <ele>167</ele>
        <time>2021-08-13T12:40:40Z</time>
      </trkpt>
      <trkpt lat="46.98109" lon="2.48363">
        <ele>167</ele>
        <time>2021-08-13T12:40:40Z</time>
      </trkpt>
      <trkpt lat="46.98106" lon="2.4837">
        <ele>167</ele>
        <time>2021-08-13T12:40:40Z</time>
      </trkpt>
      <trkpt lat="46.98103" lon="2.48378">
        <ele>167</ele>
        <time>2021-08-13T12:40:40Z</time>
      </trkpt>
      <trkpt lat="46.981" lon="2.48385">
        <ele>167</ele>
        <time>2021-08-13T12:40:40Z</time>
      </trkpt>
      <trkpt lat="46.98097" lon="2.48393">
        <ele>167</ele>
        <time>2021-08-13T12:40:40Z</time>
      </trkpt>
      <trkpt lat="46.98094" lon="2.48401">
        <ele>167</ele>
        <time>2021-08-13T12:40:40Z</time>
      </trkpt>
      <trkpt lat="46.98091" lon="2.48409">
        <ele>167</ele>
        <time>2021-08-13T12:40:40Z</time>
      </trkpt>
      <trkpt lat="46.98088" lon="2.48417">
        <ele>167</ele>
        <time>2021-08-13T12:40:40Z</time>
      </trkpt>
      <trkpt lat="46.98086" lon="2.48425">
        <ele>167</ele>
        <time>2021-08-13T12:40:40Z</time>
      </trkpt>
      <trkpt lat="46.98082" lon="2.48432">
        <ele>167</ele>
        <time>2021-08-13T12:40:40Z</time>
      </trkpt>
      <trkpt lat="46.98079" lon="2.48439">
        <ele>167</ele>
        <time>2021-08-13T12:40:40Z</time>
      </trkpt>
      <trkpt lat="46.98076" lon="2.48447">
        <ele>167</ele>
        <time>2021-08-13T12:40:40Z</time>
      </trkpt>
      <trkpt lat="46.98073" lon="2.48454">
        <ele>167</ele>
        <time>2021-08-13T12:40:40Z</time>
      </trkpt>
      <trkpt lat="46.98069" lon="2.48462">
        <ele>167</ele>
        <time>2021-08-13T12:40:40Z</time>
      </trkpt>
      <trkpt lat="46.98066" lon="2.48469">
        <ele>167</ele>
        <time>2021-08-13T12:40:40Z</time>
      </trkpt>
      <trkpt lat="46.98063" lon="2.48476">
        <ele>166</ele>
        <time>2021-08-13T12:40:40Z</time>
      </trkpt>
      <trkpt lat="46.9806" lon="2.48484">
        <ele>166</ele>
        <time>2021-08-13T12:40:40Z</time>
      </trkpt>
      <trkpt lat="46.98057" lon="2.48492">
        <ele>166</ele>
        <time>2021-08-13T12:40:40Z</time>
      </trkpt>
      <trkpt lat="46.98054" lon="2.48499">
        <ele>167</ele>
        <time>2021-08-13T12:40:40Z</time>
      </trkpt>
      <trkpt lat="46.98052" lon="2.48506">
        <ele>167</ele>
        <time>2021-08-13T12:40:40Z</time>
      </trkpt>
      <trkpt lat="46.98049" lon="2.48514">
        <ele>167</ele>
        <time>2021-08-13T12:40:40Z</time>
      </trkpt>
      <trkpt lat="46.98034" lon="2.4855">
        <ele>168</ele>
        <time>2021-08-13T12:40:40Z</time>
      </trkpt>
      <trkpt lat="46.9802" lon="2.48585">
        <ele>168</ele>
        <time>2021-08-13T12:40:40Z</time>
      </trkpt>
      <trkpt lat="46.98005" lon="2.48619">
        <ele>168</ele>
        <time>2021-08-13T12:40:40Z</time>
      </trkpt>
      <trkpt lat="46.97991" lon="2.48656">
        <ele>168</ele>
        <time>2021-08-13T12:40:40Z</time>
      </trkpt>
      <trkpt lat="46.97976" lon="2.48692">
        <ele>168</ele>
        <time>2021-08-13T12:40:40Z</time>
      </trkpt>
      <trkpt lat="46.97965" lon="2.48721">
        <ele>168</ele>
        <time>2021-08-13T12:40:40Z</time>
      </trkpt>
      <trkpt lat="46.97962" lon="2.48728">
        <ele>167</ele>
        <time>2021-08-13T12:40:40Z</time>
      </trkpt>
      <trkpt lat="46.97947" lon="2.48765">
        <ele>167</ele>
        <time>2021-08-13T12:40:40Z</time>
      </trkpt>
      <trkpt lat="46.97933" lon="2.48801">
        <ele>168</ele>
        <time>2021-08-13T12:40:40Z</time>
      </trkpt>
      <trkpt lat="46.97931" lon="2.48808">
        <ele>168</ele>
        <time>2021-08-13T12:40:40Z</time>
      </trkpt>
      <trkpt lat="46.97929" lon="2.48814">
        <ele>168</ele>
        <time>2021-08-13T12:40:40Z</time>
      </trkpt>
      <trkpt lat="46.97927" lon="2.48821">
        <ele>168</ele>
        <time>2021-08-13T12:40:40Z</time>
      </trkpt>
      <trkpt lat="46.97925" lon="2.48827">
        <ele>168</ele>
        <time>2021-08-13T12:40:40Z</time>
      </trkpt>
      <trkpt lat="46.97924" lon="2.48834">
        <ele>168</ele>
        <time>2021-08-13T12:40:40Z</time>
      </trkpt>
      <trkpt lat="46.97924" lon="2.48841">
        <ele>169</ele>
        <time>2021-08-13T12:40:40Z</time>
      </trkpt>
      <trkpt lat="46.97927" lon="2.48848">
        <ele>169</ele>
        <time>2021-08-13T12:40:40Z</time>
      </trkpt>
      <trkpt lat="46.97952" lon="2.48863">
        <ele>168</ele>
        <time>2021-08-13T12:40:40Z</time>
      </trkpt>
      <trkpt lat="46.97978" lon="2.48877">
        <ele>167</ele>
        <time>2021-08-13T12:40:40Z</time>
      </trkpt>
      <trkpt lat="46.98007" lon="2.4889">
        <ele>166</ele>
        <time>2021-08-13T12:40:40Z</time>
      </trkpt>
      <trkpt lat="46.98037" lon="2.48903">
        <ele>166</ele>
        <time>2021-08-13T12:40:40Z</time>
      </trkpt>
      <trkpt lat="46.98069" lon="2.48911">
        <ele>166</ele>
        <time>2021-08-13T12:40:40Z</time>
      </trkpt>
      <trkpt lat="46.98094" lon="2.48917">
        <ele>165</ele>
        <time>2021-08-13T12:40:40Z</time>
      </trkpt>
      <trkpt lat="46.98101" lon="2.48918">
        <ele>164</ele>
        <time>2021-08-13T12:40:40Z</time>
      </trkpt>
      <trkpt lat="46.98107" lon="2.48918">
        <ele>164</ele>
        <time>2021-08-13T12:40:40Z</time>
      </trkpt>
      <trkpt lat="46.98114" lon="2.4892">
        <ele>164</ele>
        <time>2021-08-13T12:40:40Z</time>
      </trkpt>
      <trkpt lat="46.98121" lon="2.48922">
        <ele>164</ele>
        <time>2021-08-13T12:40:40Z</time>
      </trkpt>
      <trkpt lat="46.98128" lon="2.48923">
        <ele>164</ele>
        <time>2021-08-13T12:40:40Z</time>
      </trkpt>
      <trkpt lat="46.98135" lon="2.48925">
        <ele>164</ele>
        <time>2021-08-13T12:40:40Z</time>
      </trkpt>
      <trkpt lat="46.98142" lon="2.48926">
        <ele>163</ele>
        <time>2021-08-13T12:40:40Z</time>
      </trkpt>
      <trkpt lat="46.98149" lon="2.48929">
        <ele>163</ele>
        <time>2021-08-13T12:40:40Z</time>
      </trkpt>
      <trkpt lat="46.98157" lon="2.48931">
        <ele>163</ele>
        <time>2021-08-13T12:40:40Z</time>
      </trkpt>
      <trkpt lat="46.98165" lon="2.48935">
        <ele>163</ele>
        <time>2021-08-13T12:40:40Z</time>
      </trkpt>
      <trkpt lat="46.98172" lon="2.48937">
        <ele>162</ele>
        <time>2021-08-13T12:40:40Z</time>
      </trkpt>
      <trkpt lat="46.98179" lon="2.48941">
        <ele>162</ele>
        <time>2021-08-13T12:40:40Z</time>
      </trkpt>
      <trkpt lat="46.98186" lon="2.48945">
        <ele>161</ele>
        <time>2021-08-13T12:40:40Z</time>
      </trkpt>
      <trkpt lat="46.98192" lon="2.48949">
        <ele>161</ele>
        <time>2021-08-13T12:40:40Z</time>
      </trkpt>
      <trkpt lat="46.98199" lon="2.48952">
        <ele>160</ele>
        <time>2021-08-13T12:40:40Z</time>
      </trkpt>
      <trkpt lat="46.98206" lon="2.48956">
        <ele>160</ele>
        <time>2021-08-13T12:40:40Z</time>
      </trkpt>
      <trkpt lat="46.98214" lon="2.4896">
        <ele>160</ele>
        <time>2021-08-13T12:40:40Z</time>
      </trkpt>
      <trkpt lat="46.98221" lon="2.48963">
        <ele>159</ele>
        <time>2021-08-13T12:40:40Z</time>
      </trkpt>
      <trkpt lat="46.98228" lon="2.48966">
        <ele>159</ele>
        <time>2021-08-13T12:40:40Z</time>
      </trkpt>
      <trkpt lat="46.98235" lon="2.48969">
        <ele>159</ele>
        <time>2021-08-13T12:40:40Z</time>
      </trkpt>
      <trkpt lat="46.98242" lon="2.48972">
        <ele>158</ele>
        <time>2021-08-13T12:40:40Z</time>
      </trkpt>
      <trkpt lat="46.98248" lon="2.48974">
        <ele>158</ele>
        <time>2021-08-13T12:40:40Z</time>
      </trkpt>
      <trkpt lat="46.98256" lon="2.48977">
        <ele>157</ele>
        <time>2021-08-13T12:40:40Z</time>
      </trkpt>
      <trkpt lat="46.98263" lon="2.48979">
        <ele>157</ele>
        <time>2021-08-13T12:40:40Z</time>
      </trkpt>
      <trkpt lat="46.98269" lon="2.48982">
        <ele>156</ele>
        <time>2021-08-13T12:40:40Z</time>
      </trkpt>
      <trkpt lat="46.98276" lon="2.48985">
        <ele>156</ele>
        <time>2021-08-13T12:40:40Z</time>
      </trkpt>
      <trkpt lat="46.98283" lon="2.48989">
        <ele>156</ele>
        <time>2021-08-13T12:40:40Z</time>
      </trkpt>
      <trkpt lat="46.98288" lon="2.48992">
        <ele>156</ele>
        <time>2021-08-13T12:40:40Z</time>
      </trkpt>
      <trkpt lat="46.98295" lon="2.48995">
        <ele>155</ele>
        <time>2021-08-13T12:40:40Z</time>
      </trkpt>
      <trkpt lat="46.98301" lon="2.48999">
        <ele>155</ele>
        <time>2021-08-13T12:40:40Z</time>
      </trkpt>
      <trkpt lat="46.98308" lon="2.49002">
        <ele>154</ele>
        <time>2021-08-13T12:40:40Z</time>
      </trkpt>
      <trkpt lat="46.98313" lon="2.49007">
        <ele>154</ele>
        <time>2021-08-13T12:40:40Z</time>
      </trkpt>
      <trkpt lat="46.98319" lon="2.49011">
        <ele>154</ele>
        <time>2021-08-13T12:40:40Z</time>
      </trkpt>
      <trkpt lat="46.98323" lon="2.49018">
        <ele>153</ele>
        <time>2021-08-13T12:40:40Z</time>
      </trkpt>
      <trkpt lat="46.98324" lon="2.49026">
        <ele>153</ele>
        <time>2021-08-13T12:40:40Z</time>
      </trkpt>
      <trkpt lat="46.98324" lon="2.49033">
        <ele>153</ele>
        <time>2021-08-13T12:40:40Z</time>
      </trkpt>
      <trkpt lat="46.98322" lon="2.49041">
        <ele>153</ele>
        <time>2021-08-13T12:40:40Z</time>
      </trkpt>
      <trkpt lat="46.98321" lon="2.4905">
        <ele>153</ele>
        <time>2021-08-13T12:40:40Z</time>
      </trkpt>
      <trkpt lat="46.98319" lon="2.49059">
        <ele>153</ele>
        <time>2021-08-13T12:40:40Z</time>
      </trkpt>
      <trkpt lat="46.98318" lon="2.49067">
        <ele>153</ele>
        <time>2021-08-13T12:40:40Z</time>
      </trkpt>
      <trkpt lat="46.98317" lon="2.49075">
        <ele>153</ele>
        <time>2021-08-13T12:40:40Z</time>
      </trkpt>
      <trkpt lat="46.98316" lon="2.49084">
        <ele>152</ele>
        <time>2021-08-13T12:40:40Z</time>
      </trkpt>
      <trkpt lat="46.98315" lon="2.49092">
        <ele>152</ele>
        <time>2021-08-13T12:40:40Z</time>
      </trkpt>
      <trkpt lat="46.98313" lon="2.49101">
        <ele>152</ele>
        <time>2021-08-13T12:40:40Z</time>
      </trkpt>
      <trkpt lat="46.98311" lon="2.4911">
        <ele>152</ele>
        <time>2021-08-13T12:40:40Z</time>
      </trkpt>
      <trkpt lat="46.9831" lon="2.49119">
        <ele>152</ele>
        <time>2021-08-13T12:40:40Z</time>
      </trkpt>
      <trkpt lat="46.98308" lon="2.49127">
        <ele>153</ele>
        <time>2021-08-13T12:40:40Z</time>
      </trkpt>
      <trkpt lat="46.98306" lon="2.49137">
        <ele>153</ele>
        <time>2021-08-13T12:40:40Z</time>
      </trkpt>
      <trkpt lat="46.98304" lon="2.49145">
        <ele>154</ele>
        <time>2021-08-13T12:40:40Z</time>
      </trkpt>
      <trkpt lat="46.98302" lon="2.49154">
        <ele>154</ele>
        <time>2021-08-13T12:40:40Z</time>
      </trkpt>
      <trkpt lat="46.983" lon="2.49163">
        <ele>155</ele>
        <time>2021-08-13T12:40:40Z</time>
      </trkpt>
      <trkpt lat="46.98292" lon="2.49207">
        <ele>154</ele>
        <time>2021-08-13T12:40:40Z</time>
      </trkpt>
      <trkpt lat="46.98288" lon="2.49251">
        <ele>155</ele>
        <time>2021-08-13T12:40:40Z</time>
      </trkpt>
      <trkpt lat="46.98284" lon="2.49298">
        <ele>157</ele>
        <time>2021-08-13T12:40:40Z</time>
      </trkpt>
      <trkpt lat="46.98281" lon="2.49342">
        <ele>159</ele>
        <time>2021-08-13T12:40:40Z</time>
      </trkpt>
      <trkpt lat="46.98277" lon="2.49385">
        <ele>158</ele>
        <time>2021-08-13T12:40:40Z</time>
      </trkpt>
      <trkpt lat="46.98275" lon="2.49414">
        <ele>158</ele>
        <time>2021-08-13T12:40:40Z</time>
      </trkpt>
      <trkpt lat="46.98275" lon="2.49421">
        <ele>158</ele>
        <time>2021-08-13T12:40:40Z</time>
      </trkpt>
      <trkpt lat="46.98274" lon="2.49458">
        <ele>158</ele>
        <time>2021-08-13T12:40:40Z</time>
      </trkpt>
      <trkpt lat="46.98276" lon="2.49486">
        <ele>158</ele>
        <time>2021-08-13T12:40:40Z</time>
      </trkpt>
      <trkpt lat="46.98285" lon="2.49522">
        <ele>158</ele>
        <time>2021-08-13T12:40:40Z</time>
      </trkpt>
      <trkpt lat="46.98299" lon="2.49562">
        <ele>157</ele>
        <time>2021-08-13T12:40:40Z</time>
      </trkpt>
      <trkpt lat="46.98314" lon="2.49605">
        <ele>157</ele>
        <time>2021-08-13T12:40:40Z</time>
      </trkpt>
      <trkpt lat="46.98327" lon="2.49641">
        <ele>156</ele>
        <time>2021-08-13T12:40:40Z</time>
      </trkpt>
      <trkpt lat="46.9833" lon="2.49651">
        <ele>156</ele>
        <time>2021-08-13T12:40:40Z</time>
      </trkpt>
      <trkpt lat="46.98346" lon="2.49698">
        <ele>153</ele>
        <time>2021-08-13T12:40:40Z</time>
      </trkpt>
      <trkpt lat="46.98363" lon="2.49748">
        <ele>151</ele>
        <time>2021-08-13T12:40:40Z</time>
      </trkpt>
      <trkpt lat="46.9838" lon="2.49799">
        <ele>151</ele>
        <time>2021-08-13T12:40:40Z</time>
      </trkpt>
      <trkpt lat="46.98397" lon="2.4985">
        <ele>151</ele>
        <time>2021-08-13T12:40:40Z</time>
      </trkpt>
      <trkpt lat="46.98414" lon="2.49902">
        <ele>150</ele>
        <time>2021-08-13T12:40:40Z</time>
      </trkpt>
      <trkpt lat="46.98429" lon="2.49945">
        <ele>150</ele>
        <time>2021-08-13T12:40:40Z</time>
      </trkpt>
      <trkpt lat="46.98432" lon="2.49956">
        <ele>149</ele>
        <time>2021-08-13T12:40:40Z</time>
      </trkpt>
      <trkpt lat="46.98436" lon="2.49966">
        <ele>149</ele>
        <time>2021-08-13T12:40:40Z</time>
      </trkpt>
      <trkpt lat="46.9844" lon="2.49977">
        <ele>148</ele>
        <time>2021-08-13T12:40:40Z</time>
      </trkpt>
      <trkpt lat="46.98444" lon="2.49988">
        <ele>148</ele>
        <time>2021-08-13T12:40:40Z</time>
      </trkpt>
      <trkpt lat="46.98448" lon="2.49998">
        <ele>147</ele>
        <time>2021-08-13T12:40:40Z</time>
      </trkpt>
      <trkpt lat="46.98451" lon="2.50008">
        <ele>147</ele>
        <time>2021-08-13T12:40:40Z</time>
      </trkpt>
      <trkpt lat="46.98453" lon="2.50018">
        <ele>147</ele>
        <time>2021-08-13T12:40:40Z</time>
      </trkpt>
      <trkpt lat="46.98457" lon="2.50028">
        <ele>147</ele>
        <time>2021-08-13T12:40:40Z</time>
      </trkpt>
      <trkpt lat="46.9846" lon="2.50037">
        <ele>148</ele>
        <time>2021-08-13T12:40:40Z</time>
      </trkpt>
      <trkpt lat="46.98463" lon="2.50047">
        <ele>148</ele>
        <time>2021-08-13T12:40:40Z</time>
      </trkpt>
      <trkpt lat="46.98467" lon="2.50057">
        <ele>149</ele>
        <time>2021-08-13T12:40:40Z</time>
      </trkpt>
      <trkpt lat="46.9847" lon="2.50066">
        <ele>149</ele>
        <time>2021-08-13T12:40:40Z</time>
      </trkpt>
      <trkpt lat="46.98473" lon="2.50075">
        <ele>149</ele>
        <time>2021-08-13T12:40:40Z</time>
      </trkpt>
      <trkpt lat="46.98477" lon="2.50084">
        <ele>149</ele>
        <time>2021-08-13T12:40:40Z</time>
      </trkpt>
      <trkpt lat="46.9848" lon="2.50093">
        <ele>149</ele>
        <time>2021-08-13T12:40:40Z</time>
      </trkpt>
      <trkpt lat="46.98482" lon="2.50103">
        <ele>149</ele>
        <time>2021-08-13T12:40:40Z</time>
      </trkpt>
      <trkpt lat="46.98486" lon="2.50112">
        <ele>149</ele>
        <time>2021-08-13T12:40:40Z</time>
      </trkpt>
      <trkpt lat="46.98489" lon="2.50121">
        <ele>149</ele>
        <time>2021-08-13T12:40:40Z</time>
      </trkpt>
      <trkpt lat="46.98492" lon="2.50129">
        <ele>149</ele>
        <time>2021-08-13T12:40:40Z</time>
      </trkpt>
      <trkpt lat="46.98495" lon="2.50138">
        <ele>149</ele>
        <time>2021-08-13T12:40:40Z</time>
      </trkpt>
      <trkpt lat="46.98498" lon="2.50147">
        <ele>149</ele>
        <time>2021-08-13T12:40:40Z</time>
      </trkpt>
      <trkpt lat="46.98501" lon="2.50156">
        <ele>148</ele>
        <time>2021-08-13T12:40:40Z</time>
      </trkpt>
      <trkpt lat="46.98504" lon="2.50166">
        <ele>148</ele>
        <time>2021-08-13T12:40:40Z</time>
      </trkpt>
      <trkpt lat="46.98507" lon="2.50175">
        <ele>148</ele>
        <time>2021-08-13T12:40:40Z</time>
      </trkpt>
      <trkpt lat="46.9851" lon="2.50184">
        <ele>148</ele>
        <time>2021-08-13T12:40:40Z</time>
      </trkpt>
      <trkpt lat="46.98513" lon="2.50192">
        <ele>148</ele>
        <time>2021-08-13T12:40:40Z</time>
      </trkpt>
      <trkpt lat="46.98516" lon="2.50201">
        <ele>148</ele>
        <time>2021-08-13T12:40:40Z</time>
      </trkpt>
      <trkpt lat="46.98519" lon="2.50209">
        <ele>148</ele>
        <time>2021-08-13T12:40:40Z</time>
      </trkpt>
      <trkpt lat="46.98523" lon="2.50217">
        <ele>148</ele>
        <time>2021-08-13T12:40:40Z</time>
      </trkpt>
      <trkpt lat="46.98525" lon="2.50226">
        <ele>149</ele>
        <time>2021-08-13T12:40:40Z</time>
      </trkpt>
      <trkpt lat="46.98528" lon="2.50235">
        <ele>149</ele>
        <time>2021-08-13T12:40:40Z</time>
      </trkpt>
      <trkpt lat="46.98531" lon="2.50244">
        <ele>149</ele>
        <time>2021-08-13T12:40:40Z</time>
      </trkpt>
      <trkpt lat="46.98534" lon="2.50252">
        <ele>149</ele>
        <time>2021-08-13T12:40:40Z</time>
      </trkpt>
      <trkpt lat="46.98537" lon="2.50261">
        <ele>149</ele>
        <time>2021-08-13T12:40:40Z</time>
      </trkpt>
      <trkpt lat="46.9854" lon="2.50271">
        <ele>149</ele>
        <time>2021-08-13T12:40:40Z</time>
      </trkpt>
      <trkpt lat="46.98543" lon="2.50279">
        <ele>149</ele>
        <time>2021-08-13T12:40:40Z</time>
      </trkpt>
      <trkpt lat="46.98546" lon="2.50289">
        <ele>149</ele>
        <time>2021-08-13T12:40:40Z</time>
      </trkpt>
      <trkpt lat="46.98549" lon="2.50297">
        <ele>149</ele>
        <time>2021-08-13T12:40:40Z</time>
      </trkpt>
      <trkpt lat="46.98552" lon="2.50306">
        <ele>149</ele>
        <time>2021-08-13T12:40:40Z</time>
      </trkpt>
      <trkpt lat="46.98555" lon="2.50314">
        <ele>148</ele>
        <time>2021-08-13T12:40:40Z</time>
      </trkpt>
      <trkpt lat="46.98558" lon="2.50323">
        <ele>148</ele>
        <time>2021-08-13T12:40:40Z</time>
      </trkpt>
      <trkpt lat="46.98561" lon="2.50331">
        <ele>148</ele>
        <time>2021-08-13T12:40:40Z</time>
      </trkpt>
      <trkpt lat="46.98563" lon="2.5034">
        <ele>147</ele>
        <time>2021-08-13T12:40:40Z</time>
      </trkpt>
      <trkpt lat="46.98566" lon="2.50349">
        <ele>147</ele>
        <time>2021-08-13T12:40:40Z</time>
      </trkpt>
      <trkpt lat="46.98569" lon="2.50357">
        <ele>147</ele>
        <time>2021-08-13T12:40:40Z</time>
      </trkpt>
      <trkpt lat="46.98572" lon="2.50367">
        <ele>147</ele>
        <time>2021-08-13T12:40:40Z</time>
      </trkpt>
      <trkpt lat="46.98575" lon="2.50375">
        <ele>147</ele>
        <time>2021-08-13T12:40:40Z</time>
      </trkpt>
      <trkpt lat="46.98578" lon="2.50384">
        <ele>147</ele>
        <time>2021-08-13T12:40:40Z</time>
      </trkpt>
      <trkpt lat="46.9858" lon="2.50392">
        <ele>147</ele>
        <time>2021-08-13T12:40:40Z</time>
      </trkpt>
      <trkpt lat="46.98583" lon="2.504">
        <ele>147</ele>
        <time>2021-08-13T12:40:40Z</time>
      </trkpt>
      <trkpt lat="46.98586" lon="2.50408">
        <ele>146</ele>
        <time>2021-08-13T12:40:40Z</time>
      </trkpt>
      <trkpt lat="46.98589" lon="2.50416">
        <ele>146</ele>
        <time>2021-08-13T12:40:40Z</time>
      </trkpt>
      <trkpt lat="46.98592" lon="2.50424">
        <ele>146</ele>
        <time>2021-08-13T12:40:40Z</time>
      </trkpt>
      <trkpt lat="46.98594" lon="2.50432">
        <ele>146</ele>
        <time>2021-08-13T12:40:40Z</time>
      </trkpt>
      <trkpt lat="46.98597" lon="2.50441">
        <ele>146</ele>
        <time>2021-08-13T12:40:40Z</time>
      </trkpt>
      <trkpt lat="46.986" lon="2.50449">
        <ele>146</ele>
        <time>2021-08-13T12:40:40Z</time>
      </trkpt>
      <trkpt lat="46.98603" lon="2.50458">
        <ele>146</ele>
        <time>2021-08-13T12:40:40Z</time>
      </trkpt>
      <trkpt lat="46.98619" lon="2.50501">
        <ele>146</ele>
        <time>2021-08-13T12:40:40Z</time>
      </trkpt>
      <trkpt lat="46.98634" lon="2.50545">
        <ele>146</ele>
        <time>2021-08-13T12:40:40Z</time>
      </trkpt>
      <trkpt lat="46.9865" lon="2.50589">
        <ele>145</ele>
        <time>2021-08-13T12:40:40Z</time>
      </trkpt>
      <trkpt lat="46.98666" lon="2.50635">
        <ele>145</ele>
        <time>2021-08-13T12:40:40Z</time>
      </trkpt>
      <trkpt lat="46.98681" lon="2.50681">
        <ele>146</ele>
        <time>2021-08-13T12:40:40Z</time>
      </trkpt>
      <trkpt lat="46.98693" lon="2.50718">
        <ele>145</ele>
        <time>2021-08-13T12:40:40Z</time>
      </trkpt>
      <trkpt lat="46.98696" lon="2.50727">
        <ele>145</ele>
        <time>2021-08-13T12:40:40Z</time>
      </trkpt>
      <trkpt lat="46.9871" lon="2.50773">
        <ele>144</ele>
        <time>2021-08-13T12:40:40Z</time>
      </trkpt>
      <trkpt lat="46.98724" lon="2.5082">
        <ele>145</ele>
        <time>2021-08-13T12:40:40Z</time>
      </trkpt>
      <trkpt lat="46.98742" lon="2.50858">
        <ele>145</ele>
        <time>2021-08-13T12:40:40Z</time>
      </trkpt>
      <trkpt lat="46.98759" lon="2.50879">
        <ele>145</ele>
        <time>2021-08-13T12:40:40Z</time>
      </trkpt>
      <trkpt lat="46.98754" lon="2.5092">
        <ele>144</ele>
        <time>2021-08-13T12:40:40Z</time>
      </trkpt>
      <trkpt lat="46.98751" lon="2.50959">
        <ele>143</ele>
        <time>2021-08-13T12:40:40Z</time>
      </trkpt>
      <trkpt lat="46.98751" lon="2.50968">
        <ele>143</ele>
        <time>2021-08-13T12:40:40Z</time>
      </trkpt>
      <trkpt lat="46.98746" lon="2.5102">
        <ele>141</ele>
        <time>2021-08-13T12:40:40Z</time>
      </trkpt>
      <trkpt lat="46.98743" lon="2.51073">
        <ele>141</ele>
        <time>2021-08-13T12:40:40Z</time>
      </trkpt>
      <trkpt lat="46.9876" lon="2.51113">
        <ele>141</ele>
        <time>2021-08-13T12:40:40Z</time>
      </trkpt>
      <trkpt lat="46.9879" lon="2.51131">
        <ele>141</ele>
        <time>2021-08-13T12:40:40Z</time>
      </trkpt>
      <trkpt lat="46.98821" lon="2.51142">
        <ele>141</ele>
        <time>2021-08-13T12:40:40Z</time>
      </trkpt>
      <trkpt lat="46.98845" lon="2.51144">
        <ele>141</ele>
        <time>2021-08-13T12:40:40Z</time>
      </trkpt>
      <trkpt lat="46.98851" lon="2.51144">
        <ele>141</ele>
        <time>2021-08-13T12:40:40Z</time>
      </trkpt>
      <trkpt lat="46.98858" lon="2.51143">
        <ele>141</ele>
        <time>2021-08-13T12:40:40Z</time>
      </trkpt>
      <trkpt lat="46.98864" lon="2.51142">
        <ele>141</ele>
        <time>2021-08-13T12:40:40Z</time>
      </trkpt>
      <trkpt lat="46.9887" lon="2.5114">
        <ele>141</ele>
        <time>2021-08-13T12:40:40Z</time>
      </trkpt>
      <trkpt lat="46.98876" lon="2.51139">
        <ele>142</ele>
        <time>2021-08-13T12:40:40Z</time>
      </trkpt>
      <trkpt lat="46.98883" lon="2.51138">
        <ele>142</ele>
        <time>2021-08-13T12:40:40Z</time>
      </trkpt>
      <trkpt lat="46.98889" lon="2.51137">
        <ele>143</ele>
        <time>2021-08-13T12:40:40Z</time>
      </trkpt>
      <trkpt lat="46.98895" lon="2.51136">
        <ele>143</ele>
        <time>2021-08-13T12:40:40Z</time>
      </trkpt>
      <trkpt lat="46.98901" lon="2.51135">
        <ele>143</ele>
        <time>2021-08-13T12:40:40Z</time>
      </trkpt>
      <trkpt lat="46.98907" lon="2.51133">
        <ele>143</ele>
        <time>2021-08-13T12:40:40Z</time>
      </trkpt>
      <trkpt lat="46.98913" lon="2.51133">
        <ele>143</ele>
        <time>2021-08-13T12:40:40Z</time>
      </trkpt>
      <trkpt lat="46.9892" lon="2.51132">
        <ele>142</ele>
        <time>2021-08-13T12:40:40Z</time>
      </trkpt>
      <trkpt lat="46.98926" lon="2.51132">
        <ele>142</ele>
        <time>2021-08-13T12:40:40Z</time>
      </trkpt>
      <trkpt lat="46.98932" lon="2.51131">
        <ele>142</ele>
        <time>2021-08-13T12:40:40Z</time>
      </trkpt>
      <trkpt lat="46.98938" lon="2.5113">
        <ele>142</ele>
        <time>2021-08-13T12:40:40Z</time>
      </trkpt>
      <trkpt lat="46.98944" lon="2.5113">
        <ele>142</ele>
        <time>2021-08-13T12:40:40Z</time>
      </trkpt>
      <trkpt lat="46.98951" lon="2.51129">
        <ele>142</ele>
        <time>2021-08-13T12:40:40Z</time>
      </trkpt>
      <trkpt lat="46.98957" lon="2.51128">
        <ele>142</ele>
        <time>2021-08-13T12:40:40Z</time>
      </trkpt>
      <trkpt lat="46.98964" lon="2.51126">
        <ele>142</ele>
        <time>2021-08-13T12:40:40Z</time>
      </trkpt>
      <trkpt lat="46.9897" lon="2.51124">
        <ele>142</ele>
        <time>2021-08-13T12:40:40Z</time>
      </trkpt>
      <trkpt lat="46.98976" lon="2.51122">
        <ele>143</ele>
        <time>2021-08-13T12:40:40Z</time>
      </trkpt>
      <trkpt lat="46.98982" lon="2.51121">
        <ele>143</ele>
        <time>2021-08-13T12:40:40Z</time>
      </trkpt>
      <trkpt lat="46.98989" lon="2.51119">
        <ele>143</ele>
        <time>2021-08-13T12:40:40Z</time>
      </trkpt>
      <trkpt lat="46.98995" lon="2.51116">
        <ele>144</ele>
        <time>2021-08-13T12:40:40Z</time>
      </trkpt>
      <trkpt lat="46.99001" lon="2.51114">
        <ele>144</ele>
        <time>2021-08-13T12:40:40Z</time>
      </trkpt>
      <trkpt lat="46.99007" lon="2.51111">
        <ele>144</ele>
        <time>2021-08-13T12:40:40Z</time>
      </trkpt>
      <trkpt lat="46.99013" lon="2.51109">
        <ele>144</ele>
        <time>2021-08-13T12:40:40Z</time>
      </trkpt>
      <trkpt lat="46.99019" lon="2.51105">
        <ele>144</ele>
        <time>2021-08-13T12:40:40Z</time>
      </trkpt>
      <trkpt lat="46.99024" lon="2.51102">
        <ele>144</ele>
        <time>2021-08-13T12:40:40Z</time>
      </trkpt>
      <trkpt lat="46.9903" lon="2.51097">
        <ele>143</ele>
        <time>2021-08-13T12:40:40Z</time>
      </trkpt>
      <trkpt lat="46.99035" lon="2.51093">
        <ele>143</ele>
        <time>2021-08-13T12:40:40Z</time>
      </trkpt>
      <trkpt lat="46.99041" lon="2.51087">
        <ele>143</ele>
        <time>2021-08-13T12:40:40Z</time>
      </trkpt>
      <trkpt lat="46.99046" lon="2.51082">
        <ele>143</ele>
        <time>2021-08-13T12:40:40Z</time>
      </trkpt>
      <trkpt lat="46.99051" lon="2.51076">
        <ele>143</ele>
        <time>2021-08-13T12:40:40Z</time>
      </trkpt>
      <trkpt lat="46.99057" lon="2.5107">
        <ele>143</ele>
        <time>2021-08-13T12:40:40Z</time>
      </trkpt>
      <trkpt lat="46.99061" lon="2.51064">
        <ele>143</ele>
        <time>2021-08-13T12:40:40Z</time>
      </trkpt>
      <trkpt lat="46.99067" lon="2.51058">
        <ele>143</ele>
        <time>2021-08-13T12:40:40Z</time>
      </trkpt>
      <trkpt lat="46.99072" lon="2.51052">
        <ele>143</ele>
        <time>2021-08-13T12:40:40Z</time>
      </trkpt>
      <trkpt lat="46.99077" lon="2.51046">
        <ele>143</ele>
        <time>2021-08-13T12:40:40Z</time>
      </trkpt>
      <trkpt lat="46.99083" lon="2.51038">
        <ele>143</ele>
        <time>2021-08-13T12:40:40Z</time>
      </trkpt>
      <trkpt lat="46.99088" lon="2.51031">
        <ele>144</ele>
        <time>2021-08-13T12:40:40Z</time>
      </trkpt>
      <trkpt lat="46.99093" lon="2.51024">
        <ele>144</ele>
        <time>2021-08-13T12:40:40Z</time>
      </trkpt>
      <trkpt lat="46.99098" lon="2.51017">
        <ele>144</ele>
        <time>2021-08-13T12:40:40Z</time>
      </trkpt>
      <trkpt lat="46.99103" lon="2.5101">
        <ele>144</ele>
        <time>2021-08-13T12:40:40Z</time>
      </trkpt>
      <trkpt lat="46.99108" lon="2.51003">
        <ele>144</ele>
        <time>2021-08-13T12:40:40Z</time>
      </trkpt>
      <trkpt lat="46.99113" lon="2.50997">
        <ele>144</ele>
        <time>2021-08-13T12:40:40Z</time>
      </trkpt>
      <trkpt lat="46.99118" lon="2.50991">
        <ele>144</ele>
        <time>2021-08-13T12:40:40Z</time>
      </trkpt>
      <trkpt lat="46.99123" lon="2.50985">
        <ele>144</ele>
        <time>2021-08-13T12:40:40Z</time>
      </trkpt>
      <trkpt lat="46.99128" lon="2.5098">
        <ele>144</ele>
        <time>2021-08-13T12:40:40Z</time>
      </trkpt>
      <trkpt lat="46.99133" lon="2.50974">
        <ele>144</ele>
        <time>2021-08-13T12:40:40Z</time>
      </trkpt>
      <trkpt lat="46.99138" lon="2.5097">
        <ele>143</ele>
        <time>2021-08-13T12:40:40Z</time>
      </trkpt>
      <trkpt lat="46.99143" lon="2.50965">
        <ele>144</ele>
        <time>2021-08-13T12:40:40Z</time>
      </trkpt>
      <trkpt lat="46.99148" lon="2.50961">
        <ele>144</ele>
        <time>2021-08-13T12:40:40Z</time>
      </trkpt>
      <trkpt lat="46.99153" lon="2.50957">
        <ele>144</ele>
        <time>2021-08-13T12:40:40Z</time>
      </trkpt>
      <trkpt lat="46.99158" lon="2.50954">
        <ele>144</ele>
        <time>2021-08-13T12:40:40Z</time>
      </trkpt>
      <trkpt lat="46.99164" lon="2.50952">
        <ele>145</ele>
        <time>2021-08-13T12:40:40Z</time>
      </trkpt>
      <trkpt lat="46.99169" lon="2.50949">
        <ele>145</ele>
        <time>2021-08-13T12:40:40Z</time>
      </trkpt>
      <trkpt lat="46.99175" lon="2.50947">
        <ele>145</ele>
        <time>2021-08-13T12:40:40Z</time>
      </trkpt>
      <trkpt lat="46.9918" lon="2.50945">
        <ele>145</ele>
        <time>2021-08-13T12:40:40Z</time>
      </trkpt>
      <trkpt lat="46.99184" lon="2.50942">
        <ele>146</ele>
        <time>2021-08-13T12:40:40Z</time>
      </trkpt>
      <trkpt lat="46.99189" lon="2.50939">
        <ele>146</ele>
        <time>2021-08-13T12:40:40Z</time>
      </trkpt>
      <trkpt lat="46.99193" lon="2.50937">
        <ele>146</ele>
        <time>2021-08-13T12:40:40Z</time>
      </trkpt>
      <trkpt lat="46.99209" lon="2.50915">
        <ele>146</ele>
        <time>2021-08-13T12:40:40Z</time>
      </trkpt>
      <trkpt lat="46.99221" lon="2.50879">
        <ele>146</ele>
        <time>2021-08-13T12:40:40Z</time>
      </trkpt>
      <trkpt lat="46.99234" lon="2.50843">
        <ele>147</ele>
        <time>2021-08-13T12:40:40Z</time>
      </trkpt>
      <trkpt lat="46.99246" lon="2.50807">
        <ele>147</ele>
        <time>2021-08-13T12:40:40Z</time>
      </trkpt>
      <trkpt lat="46.99258" lon="2.5078">
        <ele>148</ele>
        <time>2021-08-13T12:40:40Z</time>
      </trkpt>
      <trkpt lat="46.99249" lon="2.50762">
        <ele>147</ele>
        <time>2021-08-13T12:40:40Z</time>
      </trkpt>
      <trkpt lat="46.99244" lon="2.50756">
        <ele>147</ele>
        <time>2021-08-13T12:40:40Z</time>
      </trkpt>
      <trkpt lat="46.99215" lon="2.50723">
        <ele>145</ele>
        <time>2021-08-13T12:40:40Z</time>
      </trkpt>
      <trkpt lat="46.99184" lon="2.50685">
        <ele>144</ele>
        <time>2021-08-13T12:40:40Z</time>
      </trkpt>
      <trkpt lat="46.99168" lon="2.5063">
        <ele>142</ele>
        <time>2021-08-13T12:40:40Z</time>
      </trkpt>
      <trkpt lat="46.99167" lon="2.50577">
        <ele>143</ele>
        <time>2021-08-13T12:40:40Z</time>
      </trkpt>
      <trkpt lat="46.99177" lon="2.50524">
        <ele>143</ele>
        <time>2021-08-13T12:40:40Z</time>
      </trkpt>
      <trkpt lat="46.99186" lon="2.50483">
        <ele>144</ele>
        <time>2021-08-13T12:40:40Z</time>
      </trkpt>
      <trkpt lat="46.99187" lon="2.50473">
        <ele>144</ele>
        <time>2021-08-13T12:40:40Z</time>
      </trkpt>
      <trkpt lat="46.99195" lon="2.50423">
        <ele>144</ele>
        <time>2021-08-13T12:40:40Z</time>
      </trkpt>
      <trkpt lat="46.99193" lon="2.50371">
        <ele>144</ele>
        <time>2021-08-13T12:40:40Z</time>
      </trkpt>
      <trkpt lat="46.99185" lon="2.5032">
        <ele>146</ele>
        <time>2021-08-13T12:40:40Z</time>
      </trkpt>
      <trkpt lat="46.99167" lon="2.50275">
        <ele>147</ele>
        <time>2021-08-13T12:40:40Z</time>
      </trkpt>
      <trkpt lat="46.99141" lon="2.50211">
        <ele>148</ele>
        <time>2021-08-13T12:40:40Z</time>
      </trkpt>
      <trkpt lat="46.99115" lon="2.50147">
        <ele>147</ele>
        <time>2021-08-13T12:40:40Z</time>
      </trkpt>
      <trkpt lat="46.99111" lon="2.50137">
        <ele>147</ele>
        <time>2021-08-13T12:40:40Z</time>
      </trkpt>
      <trkpt lat="46.99108" lon="2.50128">
        <ele>146</ele>
        <time>2021-08-13T12:40:40Z</time>
      </trkpt>
      <trkpt lat="46.99105" lon="2.50118">
        <ele>146</ele>
        <time>2021-08-13T12:40:40Z</time>
      </trkpt>
      <trkpt lat="46.99098" lon="2.50101">
        <ele>145</ele>
        <time>2021-08-13T12:40:40Z</time>
      </trkpt>
      <trkpt lat="46.99094" lon="2.50092">
        <ele>145</ele>
        <time>2021-08-13T12:40:40Z</time>
      </trkpt>
      <trkpt lat="46.9909" lon="2.50085">
        <ele>144</ele>
        <time>2021-08-13T12:40:40Z</time>
      </trkpt>
      <trkpt lat="46.99085" lon="2.50077">
        <ele>144</ele>
        <time>2021-08-13T12:40:40Z</time>
      </trkpt>
      <trkpt lat="46.9908" lon="2.50069">
        <ele>144</ele>
        <time>2021-08-13T12:40:40Z</time>
      </trkpt>
      <trkpt lat="46.99071" lon="2.50054">
        <ele>145</ele>
        <time>2021-08-13T12:40:40Z</time>
      </trkpt>
      <trkpt lat="46.99066" lon="2.50047">
        <ele>145</ele>
        <time>2021-08-13T12:40:40Z</time>
      </trkpt>
      <trkpt lat="46.99062" lon="2.50038">
        <ele>146</ele>
        <time>2021-08-13T12:40:40Z</time>
      </trkpt>
      <trkpt lat="46.99057" lon="2.5003">
        <ele>146</ele>
        <time>2021-08-13T12:40:40Z</time>
      </trkpt>
      <trkpt lat="46.99051" lon="2.50023">
        <ele>147</ele>
        <time>2021-08-13T12:40:40Z</time>
      </trkpt>
      <trkpt lat="46.9904" lon="2.50009">
        <ele>147</ele>
        <time>2021-08-13T12:40:40Z</time>
      </trkpt>
      <trkpt lat="46.99034" lon="2.50002">
        <ele>147</ele>
        <time>2021-08-13T12:40:40Z</time>
      </trkpt>
      <trkpt lat="46.99027" lon="2.49995">
        <ele>147</ele>
        <time>2021-08-13T12:40:40Z</time>
      </trkpt>
      <trkpt lat="46.99021" lon="2.49989">
        <ele>146</ele>
        <time>2021-08-13T12:40:40Z</time>
      </trkpt>
      <trkpt lat="46.99015" lon="2.49982">
        <ele>146</ele>
        <time>2021-08-13T12:40:40Z</time>
      </trkpt>
      <trkpt lat="46.99003" lon="2.49971">
        <ele>146</ele>
        <time>2021-08-13T12:40:40Z</time>
      </trkpt>
      <trkpt lat="46.98996" lon="2.49965">
        <ele>145</ele>
        <time>2021-08-13T12:40:40Z</time>
      </trkpt>
      <trkpt lat="46.98989" lon="2.49958">
        <ele>145</ele>
        <time>2021-08-13T12:40:40Z</time>
      </trkpt>
      <trkpt lat="46.98983" lon="2.49952">
        <ele>145</ele>
        <time>2021-08-13T12:40:40Z</time>
      </trkpt>
      <trkpt lat="46.98976" lon="2.49945">
        <ele>144</ele>
        <time>2021-08-13T12:40:40Z</time>
      </trkpt>
      <trkpt lat="46.98965" lon="2.49932">
        <ele>144</ele>
        <time>2021-08-13T12:40:40Z</time>
      </trkpt>
      <trkpt lat="46.98958" lon="2.49925">
        <ele>143</ele>
        <time>2021-08-13T12:40:40Z</time>
      </trkpt>
      <trkpt lat="46.98952" lon="2.49919">
        <ele>143</ele>
        <time>2021-08-13T12:40:40Z</time>
      </trkpt>
      <trkpt lat="46.98945" lon="2.49913">
        <ele>143</ele>
        <time>2021-08-13T12:40:40Z</time>
      </trkpt>
      <trkpt lat="46.9894" lon="2.49907">
        <ele>143</ele>
        <time>2021-08-13T12:40:40Z</time>
      </trkpt>
      <trkpt lat="46.98934" lon="2.49899">
        <ele>144</ele>
        <time>2021-08-13T12:40:40Z</time>
      </trkpt>
      <trkpt lat="46.98928" lon="2.49892">
        <ele>144</ele>
        <time>2021-08-13T12:40:40Z</time>
      </trkpt>
      <trkpt lat="46.98922" lon="2.49887">
        <ele>144</ele>
        <time>2021-08-13T12:40:40Z</time>
      </trkpt>
      <trkpt lat="46.98916" lon="2.49881">
        <ele>145</ele>
        <time>2021-08-13T12:40:40Z</time>
      </trkpt>
      <trkpt lat="46.9891" lon="2.49875">
        <ele>145</ele>
        <time>2021-08-13T12:40:40Z</time>
      </trkpt>
      <trkpt lat="46.98897" lon="2.49864">
        <ele>145</ele>
        <time>2021-08-13T12:40:40Z</time>
      </trkpt>
      <trkpt lat="46.98891" lon="2.49858">
        <ele>145</ele>
        <time>2021-08-13T12:40:40Z</time>
      </trkpt>
      <trkpt lat="46.98884" lon="2.49855">
        <ele>145</ele>
        <time>2021-08-13T12:40:40Z</time>
      </trkpt>
      <trkpt lat="46.98878" lon="2.49851">
        <ele>145</ele>
        <time>2021-08-13T12:40:40Z</time>
      </trkpt>
      <trkpt lat="46.98872" lon="2.49846">
        <ele>144</ele>
        <time>2021-08-13T12:40:40Z</time>
      </trkpt>
      <trkpt lat="46.98865" lon="2.49841">
        <ele>144</ele>
        <time>2021-08-13T12:40:40Z</time>
      </trkpt>
      <trkpt lat="46.98858" lon="2.49836">
        <ele>143</ele>
        <time>2021-08-13T12:40:40Z</time>
      </trkpt>
      <trkpt lat="46.98852" lon="2.49831">
        <ele>143</ele>
        <time>2021-08-13T12:40:40Z</time>
      </trkpt>
      <trkpt lat="46.98845" lon="2.49825">
        <ele>143</ele>
        <time>2021-08-13T12:40:40Z</time>
      </trkpt>
      <trkpt lat="46.98839" lon="2.4982">
        <ele>143</ele>
        <time>2021-08-13T12:40:40Z</time>
      </trkpt>
      <trkpt lat="46.98826" lon="2.49809">
        <ele>143</ele>
        <time>2021-08-13T12:40:40Z</time>
      </trkpt>
      <trkpt lat="46.98821" lon="2.49804">
        <ele>144</ele>
        <time>2021-08-13T12:40:40Z</time>
      </trkpt>
      <trkpt lat="46.98815" lon="2.498">
        <ele>144</ele>
        <time>2021-08-13T12:40:40Z</time>
      </trkpt>
      <trkpt lat="46.9881" lon="2.49794">
        <ele>144</ele>
        <time>2021-08-13T12:40:40Z</time>
      </trkpt>
      <trkpt lat="46.98804" lon="2.49788">
        <ele>144</ele>
        <time>2021-08-13T12:40:40Z</time>
      </trkpt>
      <trkpt lat="46.98798" lon="2.49782">
        <ele>144</ele>
        <time>2021-08-13T12:40:40Z</time>
      </trkpt>
      <trkpt lat="46.98792" lon="2.49777">
        <ele>143</ele>
        <time>2021-08-13T12:40:40Z</time>
      </trkpt>
      <trkpt lat="46.98787" lon="2.49771">
        <ele>143</ele>
        <time>2021-08-13T12:40:40Z</time>
      </trkpt>
      <trkpt lat="46.98782" lon="2.49765">
        <ele>142</ele>
        <time>2021-08-13T12:40:40Z</time>
      </trkpt>
      <trkpt lat="46.98777" lon="2.49758">
        <ele>142</ele>
        <time>2021-08-13T12:40:40Z</time>
      </trkpt>
      <trkpt lat="46.98771" lon="2.4975">
        <ele>141</ele>
        <time>2021-08-13T12:40:40Z</time>
      </trkpt>
      <trkpt lat="46.98767" lon="2.49744">
        <ele>141</ele>
        <time>2021-08-13T12:40:40Z</time>
      </trkpt>
      <trkpt lat="46.98746" lon="2.49708">
        <ele>140</ele>
        <time>2021-08-13T12:40:40Z</time>
      </trkpt>
      <trkpt lat="46.98727" lon="2.49667">
        <ele>141</ele>
        <time>2021-08-13T12:40:40Z</time>
      </trkpt>
      <trkpt lat="46.98709" lon="2.49624">
        <ele>142</ele>
        <time>2021-08-13T12:40:40Z</time>
      </trkpt>
      <trkpt lat="46.98693" lon="2.49582">
        <ele>142</ele>
        <time>2021-08-13T12:40:40Z</time>
      </trkpt>
      <trkpt lat="46.98675" lon="2.49539">
        <ele>142</ele>
        <time>2021-08-13T12:40:40Z</time>
      </trkpt>
      <trkpt lat="46.98663" lon="2.49503">
        <ele>142</ele>
        <time>2021-08-13T12:40:40Z</time>
      </trkpt>
      <trkpt lat="46.9866" lon="2.49493">
        <ele>142</ele>
        <time>2021-08-13T12:40:40Z</time>
      </trkpt>
      <trkpt lat="46.9865" lon="2.49435">
        <ele>142</ele>
        <time>2021-08-13T12:40:40Z</time>
      </trkpt>
      <trkpt lat="46.9864" lon="2.49374">
        <ele>142</ele>
        <time>2021-08-13T12:40:40Z</time>
      </trkpt>
      <trkpt lat="46.98639" lon="2.49363">
        <ele>142</ele>
        <time>2021-08-13T12:40:40Z</time>
      </trkpt>
      <trkpt lat="46.98637" lon="2.49353">
        <ele>141</ele>
        <time>2021-08-13T12:40:40Z</time>
      </trkpt>
      <trkpt lat="46.98635" lon="2.49343">
        <ele>141</ele>
        <time>2021-08-13T12:40:40Z</time>
      </trkpt>
      <trkpt lat="46.98632" lon="2.49334">
        <ele>141</ele>
        <time>2021-08-13T12:40:40Z</time>
      </trkpt>
      <trkpt lat="46.98629" lon="2.49324">
        <ele>141</ele>
        <time>2021-08-13T12:40:40Z</time>
      </trkpt>
      <trkpt lat="46.98626" lon="2.49316">
        <ele>140</ele>
        <time>2021-08-13T12:40:40Z</time>
      </trkpt>
      <trkpt lat="46.98622" lon="2.49307">
        <ele>140</ele>
        <time>2021-08-13T12:40:40Z</time>
      </trkpt>
      <trkpt lat="46.98619" lon="2.49299">
        <ele>140</ele>
        <time>2021-08-13T12:40:40Z</time>
      </trkpt>
      <trkpt lat="46.98607" lon="2.4925">
        <ele>139</ele>
        <time>2021-08-13T12:40:40Z</time>
      </trkpt>
      <trkpt lat="46.98608" lon="2.49198">
        <ele>138</ele>
        <time>2021-08-13T12:40:40Z</time>
      </trkpt>
      <trkpt lat="46.9858" lon="2.49171">
        <ele>138</ele>
        <time>2021-08-13T12:40:40Z</time>
      </trkpt>
      <trkpt lat="46.98552" lon="2.49142">
        <ele>139</ele>
        <time>2021-08-13T12:40:40Z</time>
      </trkpt>
      <trkpt lat="46.98535" lon="2.49098">
        <ele>140</ele>
        <time>2021-08-13T12:40:40Z</time>
      </trkpt>
      <trkpt lat="46.98534" lon="2.49055">
        <ele>140</ele>
        <time>2021-08-13T12:40:40Z</time>
      </trkpt>
      <trkpt lat="46.98534" lon="2.49046">
        <ele>140</ele>
        <time>2021-08-13T12:40:40Z</time>
      </trkpt>
      <trkpt lat="46.98535" lon="2.48996">
        <ele>140</ele>
        <time>2021-08-13T12:40:40Z</time>
      </trkpt>
      <trkpt lat="46.98536" lon="2.48944">
        <ele>139</ele>
        <time>2021-08-13T12:40:40Z</time>
      </trkpt>
      <trkpt lat="46.98523" lon="2.48897">
        <ele>140</ele>
        <time>2021-08-13T12:40:40Z</time>
      </trkpt>
      <trkpt lat="46.98498" lon="2.48874">
        <ele>141</ele>
        <time>2021-08-13T12:40:40Z</time>
      </trkpt>
      <trkpt lat="46.9849" lon="2.48867">
        <ele>142</ele>
        <time>2021-08-13T12:40:40Z</time>
      </trkpt>
      <trkpt lat="46.98489" lon="2.48865">
        <ele>142</ele>
        <time>2021-08-13T12:40:40Z</time>
      </trkpt>
      <trkpt lat="46.98486" lon="2.48864">
        <ele>142</ele>
        <time>2021-08-13T12:40:40Z</time>
      </trkpt>
      <trkpt lat="46.98484" lon="2.48862">
        <ele>142</ele>
        <time>2021-08-13T12:40:40Z</time>
      </trkpt>
      <trkpt lat="46.98481" lon="2.4886">
        <ele>142</ele>
        <time>2021-08-13T12:40:40Z</time>
      </trkpt>
      <trkpt lat="46.98478" lon="2.48858">
        <ele>142</ele>
        <time>2021-08-13T12:40:40Z</time>
      </trkpt>
      <trkpt lat="46.98475" lon="2.48854">
        <ele>142</ele>
        <time>2021-08-13T12:40:40Z</time>
      </trkpt>
      <trkpt lat="46.98471" lon="2.48851">
        <ele>143</ele>
        <time>2021-08-13T12:40:40Z</time>
      </trkpt>
      <trkpt lat="46.98444" lon="2.48829">
        <ele>147</ele>
        <time>2021-08-13T12:40:40Z</time>
      </trkpt>
      <trkpt lat="46.98424" lon="2.48858">
        <ele>148</ele>
        <time>2021-08-13T12:40:40Z</time>
      </trkpt>
      <trkpt lat="46.98407" lon="2.48883">
        <ele>149</ele>
        <time>2021-08-13T12:40:40Z</time>
      </trkpt>
      <trkpt lat="46.98387" lon="2.4891">
        <ele>148</ele>
        <time>2021-08-13T12:40:40Z</time>
      </trkpt>
      <trkpt lat="46.98367" lon="2.48938">
        <ele>148</ele>
        <time>2021-08-13T12:40:40Z</time>
      </trkpt>
      <trkpt lat="46.98354" lon="2.48962">
        <ele>150</ele>
        <time>2021-08-13T12:40:40Z</time>
      </trkpt>
      <trkpt lat="46.98351" lon="2.48968">
        <ele>150</ele>
        <time>2021-08-13T12:40:40Z</time>
      </trkpt>
      <trkpt lat="46.98334" lon="2.48999">
        <ele>152</ele>
        <time>2021-08-13T12:40:40Z</time>
      </trkpt>
      <trkpt lat="46.9831" lon="2.49003">
        <ele>154</ele>
        <time>2021-08-13T12:40:40Z</time>
      </trkpt>
      <trkpt lat="46.98288" lon="2.48991">
        <ele>156</ele>
        <time>2021-08-13T12:40:40Z</time>
      </trkpt>
      <trkpt lat="46.98265" lon="2.48978">
        <ele>157</ele>
        <time>2021-08-13T12:40:40Z</time>
      </trkpt>
      <trkpt lat="46.98242" lon="2.48966">
        <ele>158</ele>
        <time>2021-08-13T12:40:40Z</time>
      </trkpt>
      <trkpt lat="46.98224" lon="2.48958">
        <ele>159</ele>
        <time>2021-08-13T12:40:40Z</time>
      </trkpt>
      <trkpt lat="46.98219" lon="2.48956">
        <ele>159</ele>
        <time>2021-08-13T12:40:40Z</time>
      </trkpt>
      <trkpt lat="46.98196" lon="2.48943">
        <ele>160</ele>
        <time>2021-08-13T12:40:40Z</time>
      </trkpt>
      <trkpt lat="46.98186" lon="2.48939">
        <ele>161</ele>
        <time>2021-08-13T12:40:40Z</time>
      </trkpt>
      <trkpt lat="46.98181" lon="2.48936">
        <ele>161</ele>
        <time>2021-08-13T12:40:40Z</time>
      </trkpt>
      <trkpt lat="46.98177" lon="2.48934">
        <ele>162</ele>
        <time>2021-08-13T12:40:40Z</time>
      </trkpt>
      <trkpt lat="46.98172" lon="2.48932">
        <ele>162</ele>
        <time>2021-08-13T12:40:40Z</time>
      </trkpt>
      <trkpt lat="46.98167" lon="2.4893">
        <ele>163</ele>
        <time>2021-08-13T12:40:40Z</time>
      </trkpt>
      <trkpt lat="46.98162" lon="2.48928">
        <ele>163</ele>
        <time>2021-08-13T12:40:40Z</time>
      </trkpt>
      <trkpt lat="46.98158" lon="2.48927">
        <ele>163</ele>
        <time>2021-08-13T12:40:40Z</time>
      </trkpt>
      <trkpt lat="46.98153" lon="2.48926">
        <ele>163</ele>
        <time>2021-08-13T12:40:40Z</time>
      </trkpt>
      <trkpt lat="46.98148" lon="2.48924">
        <ele>163</ele>
        <time>2021-08-13T12:40:40Z</time>
      </trkpt>
      <trkpt lat="46.98124" lon="2.48919">
        <ele>164</ele>
        <time>2021-08-13T12:40:40Z</time>
      </trkpt>
      <trkpt lat="46.981" lon="2.48914">
        <ele>164</ele>
        <time>2021-08-13T12:40:40Z</time>
      </trkpt>
      <trkpt lat="46.98075" lon="2.48909">
        <ele>166</ele>
        <time>2021-08-13T12:40:40Z</time>
      </trkpt>
      <trkpt lat="46.98051" lon="2.48904">
        <ele>166</ele>
        <time>2021-08-13T12:40:40Z</time>
      </trkpt>
      <trkpt lat="46.98026" lon="2.48895">
        <ele>166</ele>
        <time>2021-08-13T12:40:40Z</time>
      </trkpt>
      <trkpt lat="46.98006" lon="2.48886">
        <ele>166</ele>
        <time>2021-08-13T12:40:40Z</time>
      </trkpt>
      <trkpt lat="46.98001" lon="2.48883">
        <ele>166</ele>
        <time>2021-08-13T12:40:40Z</time>
      </trkpt>
      <trkpt lat="46.97996" lon="2.48881">
        <ele>167</ele>
        <time>2021-08-13T12:40:40Z</time>
      </trkpt>
      <trkpt lat="46.9799" lon="2.48878">
        <ele>167</ele>
        <time>2021-08-13T12:40:40Z</time>
      </trkpt>
      <trkpt lat="46.97984" lon="2.48875">
        <ele>167</ele>
        <time>2021-08-13T12:40:40Z</time>
      </trkpt>
      <trkpt lat="46.97979" lon="2.48873">
        <ele>167</ele>
        <time>2021-08-13T12:40:40Z</time>
      </trkpt>
      <trkpt lat="46.97974" lon="2.4887">
        <ele>167</ele>
        <time>2021-08-13T12:40:40Z</time>
      </trkpt>
      <trkpt lat="46.97969" lon="2.48868">
        <ele>168</ele>
        <time>2021-08-13T12:40:40Z</time>
      </trkpt>
      <trkpt lat="46.97963" lon="2.48865">
        <ele>168</ele>
        <time>2021-08-13T12:40:40Z</time>
      </trkpt>
      <trkpt lat="46.97958" lon="2.48863">
        <ele>168</ele>
        <time>2021-08-13T12:40:40Z</time>
      </trkpt>
      <trkpt lat="46.97953" lon="2.4886">
        <ele>168</ele>
        <time>2021-08-13T12:40:40Z</time>
      </trkpt>
      <trkpt lat="46.97948" lon="2.48858">
        <ele>168</ele>
        <time>2021-08-13T12:40:40Z</time>
      </trkpt>
      <trkpt lat="46.97943" lon="2.48856">
        <ele>168</ele>
        <time>2021-08-13T12:40:40Z</time>
      </trkpt>
      <trkpt lat="46.97939" lon="2.48854">
        <ele>168</ele>
        <time>2021-08-13T12:40:40Z</time>
      </trkpt>
      <trkpt lat="46.97934" lon="2.48852">
        <ele>169</ele>
        <time>2021-08-13T12:40:40Z</time>
      </trkpt>
      <trkpt lat="46.97929" lon="2.48849">
        <ele>169</ele>
        <time>2021-08-13T12:40:40Z</time>
      </trkpt>
      <trkpt lat="46.97925" lon="2.48845">
        <ele>169</ele>
        <time>2021-08-13T12:40:40Z</time>
      </trkpt>
      <trkpt lat="46.97922" lon="2.48838">
        <ele>168</ele>
        <time>2021-08-13T12:40:40Z</time>
      </trkpt>
      <trkpt lat="46.97923" lon="2.48832">
        <ele>168</ele>
        <time>2021-08-13T12:40:40Z</time>
      </trkpt>
      <trkpt lat="46.97924" lon="2.48824">
        <ele>168</ele>
        <time>2021-08-13T12:40:40Z</time>
      </trkpt>
      <trkpt lat="46.97927" lon="2.48817">
        <ele>168</ele>
        <time>2021-08-13T12:40:40Z</time>
      </trkpt>
      <trkpt lat="46.9793" lon="2.4881">
        <ele>168</ele>
        <time>2021-08-13T12:40:40Z</time>
      </trkpt>
      <trkpt lat="46.97933" lon="2.48802">
        <ele>168</ele>
        <time>2021-08-13T12:40:40Z</time>
      </trkpt>
      <trkpt lat="46.97937" lon="2.48795">
        <ele>168</ele>
        <time>2021-08-13T12:40:40Z</time>
      </trkpt>
      <trkpt lat="46.97939" lon="2.48787">
        <ele>168</ele>
        <time>2021-08-13T12:40:40Z</time>
      </trkpt>
      <trkpt lat="46.97943" lon="2.48779">
        <ele>168</ele>
        <time>2021-08-13T12:40:40Z</time>
      </trkpt>
      <trkpt lat="46.97946" lon="2.48771">
        <ele>167</ele>
        <time>2021-08-13T12:40:40Z</time>
      </trkpt>
      <trkpt lat="46.97949" lon="2.48763">
        <ele>167</ele>
        <time>2021-08-13T12:40:40Z</time>
      </trkpt>
      <trkpt lat="46.97953" lon="2.48755">
        <ele>167</ele>
        <time>2021-08-13T12:40:40Z</time>
      </trkpt>
      <trkpt lat="46.97956" lon="2.48747">
        <ele>167</ele>
        <time>2021-08-13T12:40:40Z</time>
      </trkpt>
      <trkpt lat="46.9796" lon="2.48739">
        <ele>167</ele>
        <time>2021-08-13T12:40:40Z</time>
      </trkpt>
      <trkpt lat="46.97964" lon="2.4873">
        <ele>167</ele>
        <time>2021-08-13T12:40:40Z</time>
      </trkpt>
      <trkpt lat="46.97967" lon="2.48721">
        <ele>168</ele>
        <time>2021-08-13T12:40:40Z</time>
      </trkpt>
      <trkpt lat="46.97971" lon="2.48713">
        <ele>168</ele>
        <time>2021-08-13T12:40:40Z</time>
      </trkpt>
      <trkpt lat="46.97974" lon="2.48704">
        <ele>168</ele>
        <time>2021-08-13T12:40:40Z</time>
      </trkpt>
      <trkpt lat="46.97977" lon="2.48696">
        <ele>168</ele>
        <time>2021-08-13T12:40:40Z</time>
      </trkpt>
      <trkpt lat="46.97981" lon="2.48687">
        <ele>168</ele>
        <time>2021-08-13T12:40:40Z</time>
      </trkpt>
      <trkpt lat="46.97985" lon="2.48677">
        <ele>168</ele>
        <time>2021-08-13T12:40:40Z</time>
      </trkpt>
      <trkpt lat="46.97989" lon="2.48669">
        <ele>168</ele>
        <time>2021-08-13T12:40:40Z</time>
      </trkpt>
      <trkpt lat="46.97992" lon="2.4866">
        <ele>168</ele>
        <time>2021-08-13T12:40:40Z</time>
      </trkpt>
      <trkpt lat="46.97996" lon="2.48651">
        <ele>168</ele>
        <time>2021-08-13T12:40:40Z</time>
      </trkpt>
      <trkpt lat="46.97999" lon="2.48642">
        <ele>168</ele>
        <time>2021-08-13T12:40:40Z</time>
      </trkpt>
      <trkpt lat="46.98003" lon="2.48633">
        <ele>168</ele>
        <time>2021-08-13T12:40:40Z</time>
      </trkpt>
      <trkpt lat="46.98006" lon="2.48624">
        <ele>168</ele>
        <time>2021-08-13T12:40:40Z</time>
      </trkpt>
      <trkpt lat="46.9801" lon="2.48615">
        <ele>168</ele>
        <time>2021-08-13T12:40:40Z</time>
      </trkpt>
      <trkpt lat="46.98014" lon="2.48606">
        <ele>168</ele>
        <time>2021-08-13T12:40:40Z</time>
      </trkpt>
      <trkpt lat="46.98018" lon="2.48597">
        <ele>168</ele>
        <time>2021-08-13T12:40:40Z</time>
      </trkpt>
      <trkpt lat="46.98022" lon="2.48588">
        <ele>168</ele>
        <time>2021-08-13T12:40:40Z</time>
      </trkpt>
      <trkpt lat="46.98026" lon="2.48579">
        <ele>168</ele>
        <time>2021-08-13T12:40:40Z</time>
      </trkpt>
      <trkpt lat="46.98029" lon="2.4857">
        <ele>168</ele>
        <time>2021-08-13T12:40:40Z</time>
      </trkpt>
      <trkpt lat="46.98033" lon="2.48561">
        <ele>168</ele>
        <time>2021-08-13T12:40:40Z</time>
      </trkpt>
      <trkpt lat="46.98036" lon="2.48552">
        <ele>168</ele>
        <time>2021-08-13T12:40:40Z</time>
      </trkpt>
      <trkpt lat="46.9804" lon="2.48543">
        <ele>168</ele>
        <time>2021-08-13T12:40:40Z</time>
      </trkpt>
      <trkpt lat="46.98044" lon="2.48534">
        <ele>168</ele>
        <time>2021-08-13T12:40:40Z</time>
      </trkpt>
      <trkpt lat="46.98048" lon="2.48525">
        <ele>167</ele>
        <time>2021-08-13T12:40:40Z</time>
      </trkpt>
      <trkpt lat="46.98052" lon="2.48516">
        <ele>167</ele>
        <time>2021-08-13T12:40:40Z</time>
      </trkpt>
      <trkpt lat="46.98056" lon="2.48507">
        <ele>167</ele>
        <time>2021-08-13T12:40:40Z</time>
      </trkpt>
      <trkpt lat="46.98059" lon="2.48497">
        <ele>166</ele>
        <time>2021-08-13T12:40:40Z</time>
      </trkpt>
      <trkpt lat="46.98063" lon="2.48488">
        <ele>166</ele>
        <time>2021-08-13T12:40:40Z</time>
      </trkpt>
      <trkpt lat="46.98067" lon="2.48479">
        <ele>166</ele>
        <time>2021-08-13T12:40:40Z</time>
      </trkpt>
      <trkpt lat="46.98071" lon="2.48471">
        <ele>167</ele>
        <time>2021-08-13T12:40:40Z</time>
      </trkpt>
      <trkpt lat="46.98074" lon="2.48462">
        <ele>167</ele>
        <time>2021-08-13T12:40:40Z</time>
      </trkpt>
      <trkpt lat="46.98078" lon="2.48452">
        <ele>167</ele>
        <time>2021-08-13T12:40:40Z</time>
      </trkpt>
      <trkpt lat="46.98081" lon="2.48443">
        <ele>167</ele>
        <time>2021-08-13T12:40:40Z</time>
      </trkpt>
      <trkpt lat="46.981" lon="2.484">
        <ele>167</ele>
        <time>2021-08-13T12:40:40Z</time>
      </trkpt>
      <trkpt lat="46.98117" lon="2.48357">
        <ele>168</ele>
        <time>2021-08-13T12:40:40Z</time>
      </trkpt>
      <trkpt lat="46.98135" lon="2.48313">
        <ele>167</ele>
        <time>2021-08-13T12:40:40Z</time>
      </trkpt>
      <trkpt lat="46.98138" lon="2.48306">
        <ele>166</ele>
        <time>2021-08-13T12:40:40Z</time>
      </trkpt>
      <trkpt lat="46.98141" lon="2.48297">
        <ele>167</ele>
        <time>2021-08-13T12:40:40Z</time>
      </trkpt>
      <trkpt lat="46.98144" lon="2.4829">
        <ele>167</ele>
        <time>2021-08-13T12:40:40Z</time>
      </trkpt>
      <trkpt lat="46.98147" lon="2.48282">
        <ele>167</ele>
        <time>2021-08-13T12:40:40Z</time>
      </trkpt>
      <trkpt lat="46.9815" lon="2.48273">
        <ele>167</ele>
        <time>2021-08-13T12:40:40Z</time>
      </trkpt>
      <trkpt lat="46.98154" lon="2.48265">
        <ele>167</ele>
        <time>2021-08-13T12:40:40Z</time>
      </trkpt>
      <trkpt lat="46.98157" lon="2.48256">
        <ele>167</ele>
        <time>2021-08-13T12:40:40Z</time>
      </trkpt>
      <trkpt lat="46.98174" lon="2.48215">
        <ele>167</ele>
        <time>2021-08-13T12:40:40Z</time>
      </trkpt>
      <trkpt lat="46.98192" lon="2.48172">
        <ele>168</ele>
        <time>2021-08-13T12:40:40Z</time>
      </trkpt>
      <trkpt lat="46.98209" lon="2.48129">
        <ele>167</ele>
        <time>2021-08-13T12:40:40Z</time>
      </trkpt>
      <trkpt lat="46.98226" lon="2.48086">
        <ele>166</ele>
        <time>2021-08-13T12:40:40Z</time>
      </trkpt>
      <trkpt lat="46.98244" lon="2.48041">
        <ele>165</ele>
        <time>2021-08-13T12:40:40Z</time>
      </trkpt>
      <trkpt lat="46.98259" lon="2.48004">
        <ele>165</ele>
        <time>2021-08-13T12:40:40Z</time>
      </trkpt>
      <trkpt lat="46.98262" lon="2.47995">
        <ele>164</ele>
        <time>2021-08-13T12:40:40Z</time>
      </trkpt>
      <trkpt lat="46.98281" lon="2.47949">
        <ele>163</ele>
        <time>2021-08-13T12:40:40Z</time>
      </trkpt>
      <trkpt lat="46.98302" lon="2.47901">
        <ele>162</ele>
        <time>2021-08-13T12:40:40Z</time>
      </trkpt>
      <trkpt lat="46.98324" lon="2.47849">
        <ele>161</ele>
        <time>2021-08-13T12:40:40Z</time>
      </trkpt>
      <trkpt lat="46.98345" lon="2.47796">
        <ele>159</ele>
        <time>2021-08-13T12:40:40Z</time>
      </trkpt>
      <trkpt lat="46.98367" lon="2.47742">
        <ele>158</ele>
        <time>2021-08-13T12:40:40Z</time>
      </trkpt>
      <trkpt lat="46.98385" lon="2.47699">
        <ele>157</ele>
        <time>2021-08-13T12:40:40Z</time>
      </trkpt>
      <trkpt lat="46.98389" lon="2.47688">
        <ele>156</ele>
        <time>2021-08-13T12:40:40Z</time>
      </trkpt>
      <trkpt lat="46.98394" lon="2.47677">
        <ele>156</ele>
        <time>2021-08-13T12:40:40Z</time>
      </trkpt>
      <trkpt lat="46.98399" lon="2.47666">
        <ele>156</ele>
        <time>2021-08-13T12:40:40Z</time>
      </trkpt>
      <trkpt lat="46.98403" lon="2.47654">
        <ele>156</ele>
        <time>2021-08-13T12:40:40Z</time>
      </trkpt>
      <trkpt lat="46.98407" lon="2.47643">
        <ele>155</ele>
        <time>2021-08-13T12:40:40Z</time>
      </trkpt>
      <trkpt lat="46.98412" lon="2.47633">
        <ele>155</ele>
        <time>2021-08-13T12:40:40Z</time>
      </trkpt>
      <trkpt lat="46.98416" lon="2.47621">
        <ele>155</ele>
        <time>2021-08-13T12:40:40Z</time>
      </trkpt>
      <trkpt lat="46.98421" lon="2.4761">
        <ele>155</ele>
        <time>2021-08-13T12:40:40Z</time>
      </trkpt>
      <trkpt lat="46.98426" lon="2.47599">
        <ele>155</ele>
        <time>2021-08-13T12:40:40Z</time>
      </trkpt>
      <trkpt lat="46.9843" lon="2.47587">
        <ele>155</ele>
        <time>2021-08-13T12:40:40Z</time>
      </trkpt>
      <trkpt lat="46.98434" lon="2.47576">
        <ele>155</ele>
        <time>2021-08-13T12:40:40Z</time>
      </trkpt>
      <trkpt lat="46.98439" lon="2.47565">
        <ele>155</ele>
        <time>2021-08-13T12:40:40Z</time>
      </trkpt>
      <trkpt lat="46.98444" lon="2.47553">
        <ele>154</ele>
        <time>2021-08-13T12:40:40Z</time>
      </trkpt>
      <trkpt lat="46.98448" lon="2.47542">
        <ele>154</ele>
        <time>2021-08-13T12:40:40Z</time>
      </trkpt>
      <trkpt lat="46.98453" lon="2.4753">
        <ele>153</ele>
        <time>2021-08-13T12:40:40Z</time>
      </trkpt>
      <trkpt lat="46.98458" lon="2.47519">
        <ele>153</ele>
        <time>2021-08-13T12:40:40Z</time>
      </trkpt>
      <trkpt lat="46.98462" lon="2.47508">
        <ele>152</ele>
        <time>2021-08-13T12:40:40Z</time>
      </trkpt>
      <trkpt lat="46.98467" lon="2.47497">
        <ele>152</ele>
        <time>2021-08-13T12:40:40Z</time>
      </trkpt>
      <trkpt lat="46.98472" lon="2.47485">
        <ele>152</ele>
        <time>2021-08-13T12:40:40Z</time>
      </trkpt>
      <trkpt lat="46.98477" lon="2.47473">
        <ele>152</ele>
        <time>2021-08-13T12:40:40Z</time>
      </trkpt>
      <trkpt lat="46.98481" lon="2.47461">
        <ele>152</ele>
        <time>2021-08-13T12:40:40Z</time>
      </trkpt>
      <trkpt lat="46.98487" lon="2.4745">
        <ele>152</ele>
        <time>2021-08-13T12:40:40Z</time>
      </trkpt>
      <trkpt lat="46.98491" lon="2.47438">
        <ele>152</ele>
        <time>2021-08-13T12:40:40Z</time>
      </trkpt>
      <trkpt lat="46.98496" lon="2.47427">
        <ele>152</ele>
        <time>2021-08-13T12:40:40Z</time>
      </trkpt>
      <trkpt lat="46.985" lon="2.47416">
        <ele>151</ele>
        <time>2021-08-13T12:40:40Z</time>
      </trkpt>
      <trkpt lat="46.98505" lon="2.47405">
        <ele>151</ele>
        <time>2021-08-13T12:40:40Z</time>
      </trkpt>
      <trkpt lat="46.9851" lon="2.47394">
        <ele>151</ele>
        <time>2021-08-13T12:40:40Z</time>
      </trkpt>
      <trkpt lat="46.98514" lon="2.47382">
        <ele>151</ele>
        <time>2021-08-13T12:40:40Z</time>
      </trkpt>
      <trkpt lat="46.98518" lon="2.4737">
        <ele>150</ele>
        <time>2021-08-13T12:40:40Z</time>
      </trkpt>
      <trkpt lat="46.98523" lon="2.47359">
        <ele>150</ele>
        <time>2021-08-13T12:40:40Z</time>
      </trkpt>
      <trkpt lat="46.98527" lon="2.47348">
        <ele>149</ele>
        <time>2021-08-13T12:40:40Z</time>
      </trkpt>
      <trkpt lat="46.98532" lon="2.47336">
        <ele>148</ele>
        <time>2021-08-13T12:40:40Z</time>
      </trkpt>
      <trkpt lat="46.98536" lon="2.47324">
        <ele>147</ele>
        <time>2021-08-13T12:40:40Z</time>
      </trkpt>
      <trkpt lat="46.98541" lon="2.47313">
        <ele>146</ele>
        <time>2021-08-13T12:40:40Z</time>
      </trkpt>
      <trkpt lat="46.98546" lon="2.47302">
        <ele>146</ele>
        <time>2021-08-13T12:40:40Z</time>
      </trkpt>
      <trkpt lat="46.98551" lon="2.4729">
        <ele>145</ele>
        <time>2021-08-13T12:40:40Z</time>
      </trkpt>
      <trkpt lat="46.98554" lon="2.47279">
        <ele>145</ele>
        <time>2021-08-13T12:40:40Z</time>
      </trkpt>
      <trkpt lat="46.98559" lon="2.47267">
        <ele>144</ele>
        <time>2021-08-13T12:40:40Z</time>
      </trkpt>
      <trkpt lat="46.98564" lon="2.47255">
        <ele>144</ele>
        <time>2021-08-13T12:40:40Z</time>
      </trkpt>
      <trkpt lat="46.98568" lon="2.47244">
        <ele>143</ele>
        <time>2021-08-13T12:40:40Z</time>
      </trkpt>
      <trkpt lat="46.98573" lon="2.47233">
        <ele>143</ele>
        <time>2021-08-13T12:40:40Z</time>
      </trkpt>
      <trkpt lat="46.98577" lon="2.47221">
        <ele>143</ele>
        <time>2021-08-13T12:40:40Z</time>
      </trkpt>
      <trkpt lat="46.98582" lon="2.47211">
        <ele>143</ele>
        <time>2021-08-13T12:40:40Z</time>
      </trkpt>
      <trkpt lat="46.98587" lon="2.472">
        <ele>143</ele>
        <time>2021-08-13T12:40:40Z</time>
      </trkpt>
      <trkpt lat="46.9859" lon="2.4719">
        <ele>144</ele>
        <time>2021-08-13T12:40:40Z</time>
      </trkpt>
      <trkpt lat="46.98594" lon="2.47181">
        <ele>144</ele>
        <time>2021-08-13T12:40:40Z</time>
      </trkpt>
      <trkpt lat="46.98598" lon="2.47173">
        <ele>144</ele>
        <time>2021-08-13T12:40:40Z</time>
      </trkpt>
      <trkpt lat="46.986" lon="2.47165">
        <ele>145</ele>
        <time>2021-08-13T12:40:40Z</time>
      </trkpt>
      <trkpt lat="46.98604" lon="2.47158">
        <ele>145</ele>
        <time>2021-08-13T12:40:40Z</time>
      </trkpt>
      <trkpt lat="46.98607" lon="2.4715">
        <ele>145</ele>
        <time>2021-08-13T12:40:40Z</time>
      </trkpt>
      <trkpt lat="46.9861" lon="2.47142">
        <ele>145</ele>
        <time>2021-08-13T12:40:40Z</time>
      </trkpt>
      <trkpt lat="46.98613" lon="2.47135">
        <ele>146</ele>
        <time>2021-08-13T12:40:40Z</time>
      </trkpt>
      <trkpt lat="46.98617" lon="2.47128">
        <ele>147</ele>
        <time>2021-08-13T12:40:40Z</time>
      </trkpt>
      <trkpt lat="46.9862" lon="2.4712">
        <ele>148</ele>
        <time>2021-08-13T12:40:40Z</time>
      </trkpt>
      <trkpt lat="46.98623" lon="2.47112">
        <ele>148</ele>
        <time>2021-08-13T12:40:40Z</time>
      </trkpt>
      <trkpt lat="46.98626" lon="2.47104">
        <ele>149</ele>
        <time>2021-08-13T12:40:40Z</time>
      </trkpt>
      <trkpt lat="46.98629" lon="2.47097">
        <ele>149</ele>
        <time>2021-08-13T12:40:40Z</time>
      </trkpt>
      <trkpt lat="46.98633" lon="2.4709">
        <ele>149</ele>
        <time>2021-08-13T12:40:40Z</time>
      </trkpt>
      <trkpt lat="46.98636" lon="2.47083">
        <ele>150</ele>
        <time>2021-08-13T12:40:40Z</time>
      </trkpt>
      <trkpt lat="46.98638" lon="2.47075">
        <ele>150</ele>
        <time>2021-08-13T12:40:40Z</time>
      </trkpt>
      <trkpt lat="46.98641" lon="2.47067">
        <ele>151</ele>
        <time>2021-08-13T12:40:40Z</time>
      </trkpt>
      <trkpt lat="46.98644" lon="2.4706">
        <ele>151</ele>
        <time>2021-08-13T12:40:40Z</time>
      </trkpt>
      <trkpt lat="46.98659" lon="2.47023">
        <ele>152</ele>
        <time>2021-08-13T12:40:40Z</time>
      </trkpt>
      <trkpt lat="46.98675" lon="2.46985">
        <ele>153</ele>
        <time>2021-08-13T12:40:40Z</time>
      </trkpt>
      <trkpt lat="46.9869" lon="2.46948">
        <ele>153</ele>
        <time>2021-08-13T12:40:40Z</time>
      </trkpt>
      <trkpt lat="46.98706" lon="2.46909">
        <ele>154</ele>
        <time>2021-08-13T12:40:40Z</time>
      </trkpt>
      <trkpt lat="46.98721" lon="2.46871">
        <ele>154</ele>
        <time>2021-08-13T12:40:40Z</time>
      </trkpt>
      <trkpt lat="46.98733" lon="2.4684">
        <ele>154</ele>
        <time>2021-08-13T12:40:40Z</time>
      </trkpt>
      <trkpt lat="46.98736" lon="2.46833">
        <ele>154</ele>
        <time>2021-08-13T12:40:40Z</time>
      </trkpt>
      <trkpt lat="46.98753" lon="2.46794">
        <ele>153</ele>
        <time>2021-08-13T12:40:40Z</time>
      </trkpt>
      <trkpt lat="46.9877" lon="2.46752">
        <ele>154</ele>
        <time>2021-08-13T12:40:40Z</time>
      </trkpt>
      <trkpt lat="46.9878" lon="2.46726">
        <ele>154</ele>
        <time>2021-08-13T12:40:40Z</time>
      </trkpt>
      <trkpt lat="46.98784" lon="2.46717">
        <ele>154</ele>
        <time>2021-08-13T12:40:40Z</time>
      </trkpt>
      <trkpt lat="46.98787" lon="2.4671">
        <ele>154</ele>
        <time>2021-08-13T12:40:40Z</time>
      </trkpt>
      <trkpt lat="46.98791" lon="2.46701">
        <ele>153</ele>
        <time>2021-08-13T12:40:40Z</time>
      </trkpt>
      <trkpt lat="46.98795" lon="2.46692">
        <ele>153</ele>
        <time>2021-08-13T12:40:40Z</time>
      </trkpt>
      <trkpt lat="46.98798" lon="2.46684">
        <ele>153</ele>
        <time>2021-08-13T12:40:40Z</time>
      </trkpt>
      <trkpt lat="46.98802" lon="2.46676">
        <ele>153</ele>
        <time>2021-08-13T12:40:40Z</time>
      </trkpt>
      <trkpt lat="46.98805" lon="2.46667">
        <ele>153</ele>
        <time>2021-08-13T12:40:40Z</time>
      </trkpt>
      <trkpt lat="46.98823" lon="2.46622">
        <ele>153</ele>
        <time>2021-08-13T12:40:40Z</time>
      </trkpt>
      <trkpt lat="46.98843" lon="2.46576">
        <ele>153</ele>
        <time>2021-08-13T12:40:40Z</time>
      </trkpt>
      <trkpt lat="46.98865" lon="2.46532">
        <ele>153</ele>
        <time>2021-08-13T12:40:40Z</time>
      </trkpt>
      <trkpt lat="46.9889" lon="2.46491">
        <ele>152</ele>
        <time>2021-08-13T12:40:40Z</time>
      </trkpt>
      <trkpt lat="46.98914" lon="2.46452">
        <ele>152</ele>
        <time>2021-08-13T12:40:40Z</time>
      </trkpt>
      <trkpt lat="46.98933" lon="2.4642">
        <ele>152</ele>
        <time>2021-08-13T12:40:40Z</time>
      </trkpt>
      <trkpt lat="46.98938" lon="2.46414">
        <ele>152</ele>
        <time>2021-08-13T12:40:40Z</time>
      </trkpt>
      <trkpt lat="46.98959" lon="2.46379">
        <ele>152</ele>
        <time>2021-08-13T12:40:40Z</time>
      </trkpt>
      <trkpt lat="46.9898" lon="2.46346">
        <ele>152</ele>
        <time>2021-08-13T12:40:40Z</time>
      </trkpt>
      <trkpt lat="46.99001" lon="2.46312">
        <ele>153</ele>
        <time>2021-08-13T12:40:40Z</time>
      </trkpt>
      <trkpt lat="46.99023" lon="2.46278">
        <ele>154</ele>
        <time>2021-08-13T12:40:40Z</time>
      </trkpt>
      <trkpt lat="46.99044" lon="2.46244">
        <ele>154</ele>
        <time>2021-08-13T12:40:40Z</time>
      </trkpt>
      <trkpt lat="46.99061" lon="2.46216">
        <ele>154</ele>
        <time>2021-08-13T12:40:40Z</time>
      </trkpt>
      <trkpt lat="46.99065" lon="2.4621">
        <ele>154</ele>
        <time>2021-08-13T12:40:40Z</time>
      </trkpt>
      <trkpt lat="46.99086" lon="2.46175">
        <ele>156</ele>
        <time>2021-08-13T12:40:40Z</time>
      </trkpt>
      <trkpt lat="46.99108" lon="2.4614">
        <ele>156</ele>
        <time>2021-08-13T12:40:40Z</time>
      </trkpt>
      <trkpt lat="46.99128" lon="2.46104">
        <ele>156</ele>
        <time>2021-08-13T12:40:40Z</time>
      </trkpt>
      <trkpt lat="46.9915" lon="2.46071">
        <ele>156</ele>
        <time>2021-08-13T12:40:40Z</time>
      </trkpt>
      <trkpt lat="46.99171" lon="2.46036">
        <ele>155</ele>
        <time>2021-08-13T12:40:40Z</time>
      </trkpt>
      <trkpt lat="46.99189" lon="2.46008">
        <ele>156</ele>
        <time>2021-08-13T12:40:40Z</time>
      </trkpt>
      <trkpt lat="46.99193" lon="2.46001">
        <ele>156</ele>
        <time>2021-08-13T12:40:40Z</time>
      </trkpt>
      <trkpt lat="46.99215" lon="2.45965">
        <ele>156</ele>
        <time>2021-08-13T12:40:40Z</time>
      </trkpt>
      <trkpt lat="46.99238" lon="2.45929">
        <ele>155</ele>
        <time>2021-08-13T12:40:40Z</time>
      </trkpt>
      <trkpt lat="46.99261" lon="2.45893">
        <ele>155</ele>
        <time>2021-08-13T12:40:40Z</time>
      </trkpt>
      <trkpt lat="46.99282" lon="2.45858">
        <ele>154</ele>
        <time>2021-08-13T12:40:40Z</time>
      </trkpt>
      <trkpt lat="46.99302" lon="2.45825">
        <ele>154</ele>
        <time>2021-08-13T12:40:40Z</time>
      </trkpt>
      <trkpt lat="46.99319" lon="2.45799">
        <ele>154</ele>
        <time>2021-08-13T12:40:40Z</time>
      </trkpt>
      <trkpt lat="46.99323" lon="2.45792">
        <ele>154</ele>
        <time>2021-08-13T12:40:40Z</time>
      </trkpt>
      <trkpt lat="46.99327" lon="2.45786">
        <ele>154</ele>
        <time>2021-08-13T12:40:40Z</time>
      </trkpt>
      <trkpt lat="46.99331" lon="2.45779">
        <ele>154</ele>
        <time>2021-08-13T12:40:40Z</time>
      </trkpt>
      <trkpt lat="46.99336" lon="2.45772">
        <ele>154</ele>
        <time>2021-08-13T12:40:40Z</time>
      </trkpt>
      <trkpt lat="46.9934" lon="2.45765">
        <ele>154</ele>
        <time>2021-08-13T12:40:40Z</time>
      </trkpt>
      <trkpt lat="46.99345" lon="2.45759">
        <ele>154</ele>
        <time>2021-08-13T12:40:40Z</time>
      </trkpt>
      <trkpt lat="46.99349" lon="2.45752">
        <ele>153</ele>
        <time>2021-08-13T12:40:40Z</time>
      </trkpt>
      <trkpt lat="46.99354" lon="2.45746">
        <ele>153</ele>
        <time>2021-08-13T12:40:40Z</time>
      </trkpt>
      <trkpt lat="46.9936" lon="2.45739">
        <ele>153</ele>
        <time>2021-08-13T12:40:40Z</time>
      </trkpt>
      <trkpt lat="46.99365" lon="2.45733">
        <ele>152</ele>
        <time>2021-08-13T12:40:40Z</time>
      </trkpt>
      <trkpt lat="46.9937" lon="2.45726">
        <ele>152</ele>
        <time>2021-08-13T12:40:40Z</time>
      </trkpt>
      <trkpt lat="46.99375" lon="2.45721">
        <ele>153</ele>
        <time>2021-08-13T12:40:40Z</time>
      </trkpt>
      <trkpt lat="46.99381" lon="2.45717">
        <ele>153</ele>
        <time>2021-08-13T12:40:40Z</time>
      </trkpt>
      <trkpt lat="46.99388" lon="2.45713">
        <ele>153</ele>
        <time>2021-08-13T12:40:40Z</time>
      </trkpt>
      <trkpt lat="46.99393" lon="2.45707">
        <ele>153</ele>
        <time>2021-08-13T12:40:40Z</time>
      </trkpt>
      <trkpt lat="46.99397" lon="2.45698">
        <ele>153</ele>
        <time>2021-08-13T12:40:40Z</time>
      </trkpt>
      <trkpt lat="46.99399" lon="2.4569">
        <ele>153</ele>
        <time>2021-08-13T12:40:40Z</time>
      </trkpt>
      <trkpt lat="46.99404" lon="2.45683">
        <ele>154</ele>
        <time>2021-08-13T12:40:40Z</time>
      </trkpt>
      <trkpt lat="46.99407" lon="2.45676">
        <ele>154</ele>
        <time>2021-08-13T12:40:40Z</time>
      </trkpt>
      <trkpt lat="46.99412" lon="2.45669">
        <ele>154</ele>
        <time>2021-08-13T12:40:40Z</time>
      </trkpt>
      <trkpt lat="46.99417" lon="2.45663">
        <ele>155</ele>
        <time>2021-08-13T12:40:40Z</time>
      </trkpt>
      <trkpt lat="46.99422" lon="2.45658">
        <ele>155</ele>
        <time>2021-08-13T12:40:40Z</time>
      </trkpt>
      <trkpt lat="46.99427" lon="2.45653">
        <ele>155</ele>
        <time>2021-08-13T12:40:40Z</time>
      </trkpt>
      <trkpt lat="46.99432" lon="2.45648">
        <ele>155</ele>
        <time>2021-08-13T12:40:40Z</time>
      </trkpt>
      <trkpt lat="46.99437" lon="2.45643">
        <ele>155</ele>
        <time>2021-08-13T12:40:40Z</time>
      </trkpt>
      <trkpt lat="46.99443" lon="2.45638">
        <ele>156</ele>
        <time>2021-08-13T12:40:40Z</time>
      </trkpt>
      <trkpt lat="46.99448" lon="2.45633">
        <ele>156</ele>
        <time>2021-08-13T12:40:40Z</time>
      </trkpt>
      <trkpt lat="46.99453" lon="2.45628">
        <ele>156</ele>
        <time>2021-08-13T12:40:40Z</time>
      </trkpt>
      <trkpt lat="46.99458" lon="2.45623">
        <ele>156</ele>
        <time>2021-08-13T12:40:40Z</time>
      </trkpt>
      <trkpt lat="46.99463" lon="2.45619">
        <ele>156</ele>
        <time>2021-08-13T12:40:40Z</time>
      </trkpt>
      <trkpt lat="46.99468" lon="2.45614">
        <ele>156</ele>
        <time>2021-08-13T12:40:40Z</time>
      </trkpt>
      <trkpt lat="46.99473" lon="2.45609">
        <ele>157</ele>
        <time>2021-08-13T12:40:40Z</time>
      </trkpt>
      <trkpt lat="46.99479" lon="2.45605">
        <ele>157</ele>
        <time>2021-08-13T12:40:40Z</time>
      </trkpt>
      <trkpt lat="46.99484" lon="2.45599">
        <ele>157</ele>
        <time>2021-08-13T12:40:40Z</time>
      </trkpt>
      <trkpt lat="46.9949" lon="2.45595">
        <ele>157</ele>
        <time>2021-08-13T12:40:40Z</time>
      </trkpt>
      <trkpt lat="46.99495" lon="2.4559">
        <ele>157</ele>
        <time>2021-08-13T12:40:40Z</time>
      </trkpt>
      <trkpt lat="46.995" lon="2.45585">
        <ele>157</ele>
        <time>2021-08-13T12:40:40Z</time>
      </trkpt>
      <trkpt lat="46.99505" lon="2.45581">
        <ele>158</ele>
        <time>2021-08-13T12:40:40Z</time>
      </trkpt>
      <trkpt lat="46.9951" lon="2.45576">
        <ele>158</ele>
        <time>2021-08-13T12:40:40Z</time>
      </trkpt>
      <trkpt lat="46.99515" lon="2.45571">
        <ele>158</ele>
        <time>2021-08-13T12:40:40Z</time>
      </trkpt>
      <trkpt lat="46.99521" lon="2.45567">
        <ele>158</ele>
        <time>2021-08-13T12:40:40Z</time>
      </trkpt>
      <trkpt lat="46.99526" lon="2.45562">
        <ele>158</ele>
        <time>2021-08-13T12:40:40Z</time>
      </trkpt>
      <trkpt lat="46.99531" lon="2.45557">
        <ele>157</ele>
        <time>2021-08-13T12:40:40Z</time>
      </trkpt>
      <trkpt lat="46.99536" lon="2.45553">
        <ele>158</ele>
        <time>2021-08-13T12:40:40Z</time>
      </trkpt>
      <trkpt lat="46.99542" lon="2.45549">
        <ele>158</ele>
        <time>2021-08-13T12:40:40Z</time>
      </trkpt>
      <trkpt lat="46.99547" lon="2.45544">
        <ele>158</ele>
        <time>2021-08-13T12:40:40Z</time>
      </trkpt>
      <trkpt lat="46.99553" lon="2.4554">
        <ele>158</ele>
        <time>2021-08-13T12:40:40Z</time>
      </trkpt>
      <trkpt lat="46.99559" lon="2.45536">
        <ele>158</ele>
        <time>2021-08-13T12:40:40Z</time>
      </trkpt>
      <trkpt lat="46.99565" lon="2.45532">
        <ele>158</ele>
        <time>2021-08-13T12:40:40Z</time>
      </trkpt>
      <trkpt lat="46.99571" lon="2.45528">
        <ele>158</ele>
        <time>2021-08-13T12:40:40Z</time>
      </trkpt>
      <trkpt lat="46.99577" lon="2.45525">
        <ele>158</ele>
        <time>2021-08-13T12:40:40Z</time>
      </trkpt>
      <trkpt lat="46.99582" lon="2.45522">
        <ele>158</ele>
        <time>2021-08-13T12:40:40Z</time>
      </trkpt>
      <trkpt lat="46.99589" lon="2.45518">
        <ele>157</ele>
        <time>2021-08-13T12:40:40Z</time>
      </trkpt>
      <trkpt lat="46.99595" lon="2.45515">
        <ele>157</ele>
        <time>2021-08-13T12:40:40Z</time>
      </trkpt>
      <trkpt lat="46.99601" lon="2.45511">
        <ele>157</ele>
        <time>2021-08-13T12:40:40Z</time>
      </trkpt>
      <trkpt lat="46.99606" lon="2.45508">
        <ele>156</ele>
        <time>2021-08-13T12:40:40Z</time>
      </trkpt>
      <trkpt lat="46.99618" lon="2.45501">
        <ele>156</ele>
        <time>2021-08-13T12:40:40Z</time>
      </trkpt>
      <trkpt lat="46.99624" lon="2.45497">
        <ele>156</ele>
        <time>2021-08-13T12:40:40Z</time>
      </trkpt>
      <trkpt lat="46.99636" lon="2.4549">
        <ele>156</ele>
        <time>2021-08-13T12:40:40Z</time>
      </trkpt>
      <trkpt lat="46.99642" lon="2.45487">
        <ele>156</ele>
        <time>2021-08-13T12:40:40Z</time>
      </trkpt>
      <trkpt lat="46.99654" lon="2.4548">
        <ele>156</ele>
        <time>2021-08-13T12:40:40Z</time>
      </trkpt>
      <trkpt lat="46.99683" lon="2.45462">
        <ele>156</ele>
        <time>2021-08-13T12:40:40Z</time>
      </trkpt>
      <trkpt lat="46.99726" lon="2.45438">
        <ele>155</ele>
        <time>2021-08-13T12:40:40Z</time>
      </trkpt>
      <trkpt lat="46.99758" lon="2.45421">
        <ele>154</ele>
        <time>2021-08-13T12:40:40Z</time>
      </trkpt>
      <trkpt lat="46.99796" lon="2.45427">
        <ele>154</ele>
        <time>2021-08-13T12:40:40Z</time>
      </trkpt>
      <trkpt lat="46.99835" lon="2.4543">
        <ele>151</ele>
        <time>2021-08-13T12:40:40Z</time>
      </trkpt>
      <trkpt lat="46.99859" lon="2.45464">
        <ele>149</ele>
        <time>2021-08-13T12:40:40Z</time>
      </trkpt>
      <trkpt lat="46.99861" lon="2.45474">
        <ele>149</ele>
        <time>2021-08-13T12:40:40Z</time>
      </trkpt>
      <trkpt lat="46.99865" lon="2.45541">
        <ele>146</ele>
        <time>2021-08-13T12:40:40Z</time>
      </trkpt>
      <trkpt lat="46.99867" lon="2.45551">
        <ele>145</ele>
        <time>2021-08-13T12:40:40Z</time>
      </trkpt>
      <trkpt lat="46.99868" lon="2.4556">
        <ele>145</ele>
        <time>2021-08-13T12:40:40Z</time>
      </trkpt>
      <trkpt lat="46.99871" lon="2.45569">
        <ele>144</ele>
        <time>2021-08-13T12:40:40Z</time>
      </trkpt>
      <trkpt lat="46.99876" lon="2.45576">
        <ele>144</ele>
        <time>2021-08-13T12:40:40Z</time>
      </trkpt>
      <trkpt lat="46.99881" lon="2.45581">
        <ele>143</ele>
        <time>2021-08-13T12:40:40Z</time>
      </trkpt>
      <trkpt lat="46.99889" lon="2.45583">
        <ele>143</ele>
        <time>2021-08-13T12:40:40Z</time>
      </trkpt>
      <trkpt lat="46.99896" lon="2.45584">
        <ele>142</ele>
        <time>2021-08-13T12:40:40Z</time>
      </trkpt>
      <trkpt lat="46.99945" lon="2.45578">
        <ele>141</ele>
        <time>2021-08-13T12:40:40Z</time>
      </trkpt>
      <trkpt lat="46.99985" lon="2.45575">
        <ele>139</ele>
        <time>2021-08-13T12:40:40Z</time>
      </trkpt>
      <trkpt lat="47.00008" lon="2.45599">
        <ele>139</ele>
        <time>2021-08-13T12:40:40Z</time>
      </trkpt>
      <trkpt lat="47.00023" lon="2.45621">
        <ele>142</ele>
        <time>2021-08-13T12:40:40Z</time>
      </trkpt>
      <trkpt lat="47.00027" lon="2.45621">
        <ele>142</ele>
        <time>2021-08-13T12:40:40Z</time>
      </trkpt>
      <trkpt lat="47.00027" lon="2.4562">
        <ele>142</ele>
        <time>2021-08-13T12:40:40Z</time>
      </trkpt>
      <trkpt lat="47.00027" lon="2.45621">
        <ele>142</ele>
        <time>2021-08-13T12:40:40Z</time>
      </trkpt>
      <trkpt lat="47.00027" lon="2.45621">
        <ele>142</ele>
        <time>2021-08-13T12:40:40Z</time>
      </trkpt>
      <trkpt lat="47.00027" lon="2.45622">
        <ele>142</ele>
        <time>2021-08-13T12:40:40Z</time>
      </trkpt>
      <trkpt lat="47.00027" lon="2.45622">
        <ele>142</ele>
        <time>2021-08-13T12:40:40Z</time>
      </trkpt>
      <trkpt lat="47.00027" lon="2.45622">
        <ele>142</ele>
        <time>2021-08-13T12:40:40Z</time>
      </trkpt>
      <trkpt lat="47.00027" lon="2.45622">
        <ele>142</ele>
        <time>2021-08-13T12:40:40Z</time>
      </trkpt>
      <trkpt lat="47.00027" lon="2.45622">
        <ele>142</ele>
        <time>2021-08-13T12:40:40Z</time>
      </trkpt>
      <trkpt lat="47.00027" lon="2.45622">
        <ele>142</ele>
        <time>2021-08-13T12:40:40Z</time>
      </trkpt>
      <trkpt lat="47.00027" lon="2.45622">
        <ele>142</ele>
        <time>2021-08-13T12:40:40Z</time>
      </trkpt>
      <trkpt lat="47.00027" lon="2.45622">
        <ele>142</ele>
        <time>2021-08-13T12:40:40Z</time>
      </trkpt>
      <trkpt lat="47.00027" lon="2.45622">
        <ele>142</ele>
        <time>2021-08-13T12:40:40Z</time>
      </trkpt>
      <trkpt lat="47.00027" lon="2.45622">
        <ele>142</ele>
        <time>2021-08-13T12:40:40Z</time>
      </trkpt>
      <trkpt lat="47.00027" lon="2.45622">
        <ele>142</ele>
        <time>2021-08-13T12:40:40Z</time>
      </trkpt>
      <trkpt lat="47.00028" lon="2.45622">
        <ele>142</ele>
        <time>2021-08-13T12:40:40Z</time>
      </trkpt>
      <trkpt lat="47.00032" lon="2.45618">
        <ele>142</ele>
        <time>2021-08-13T12:40:40Z</time>
      </trkpt>
      <trkpt lat="47.00051" lon="2.45607">
        <ele>144</ele>
        <time>2021-08-13T12:40:40Z</time>
      </trkpt>
      <trkpt lat="47.00078" lon="2.45588">
        <ele>144</ele>
        <time>2021-08-13T12:40:40Z</time>
      </trkpt>
      <trkpt lat="47.00112" lon="2.45561">
        <ele>142</ele>
        <time>2021-08-13T12:40:40Z</time>
      </trkpt>
      <trkpt lat="47.0014" lon="2.45538">
        <ele>140</ele>
        <time>2021-08-13T12:40:40Z</time>
      </trkpt>
      <trkpt lat="47.00145" lon="2.45533">
        <ele>140</ele>
        <time>2021-08-13T12:40:40Z</time>
      </trkpt>
      <trkpt lat="47.00151" lon="2.45529">
        <ele>140</ele>
        <time>2021-08-13T12:40:40Z</time>
      </trkpt>
      <trkpt lat="47.00157" lon="2.45525">
        <ele>141</ele>
        <time>2021-08-13T12:40:40Z</time>
      </trkpt>
      <trkpt lat="47.00163" lon="2.45522">
        <ele>141</ele>
        <time>2021-08-13T12:40:40Z</time>
      </trkpt>
      <trkpt lat="47.00169" lon="2.45518">
        <ele>141</ele>
        <time>2021-08-13T12:40:40Z</time>
      </trkpt>
      <trkpt lat="47.00176" lon="2.45515">
        <ele>140</ele>
        <time>2021-08-13T12:40:40Z</time>
      </trkpt>
      <trkpt lat="47.00182" lon="2.45513">
        <ele>140</ele>
        <time>2021-08-13T12:40:40Z</time>
      </trkpt>
      <trkpt lat="47.00189" lon="2.4551">
        <ele>140</ele>
        <time>2021-08-13T12:40:40Z</time>
      </trkpt>
      <trkpt lat="47.00221" lon="2.45502">
        <ele>140</ele>
        <time>2021-08-13T12:40:40Z</time>
      </trkpt>
      <trkpt lat="47.00254" lon="2.455">
        <ele>137</ele>
        <time>2021-08-13T12:40:40Z</time>
      </trkpt>
      <trkpt lat="47.0029" lon="2.45503">
        <ele>135</ele>
        <time>2021-08-13T12:40:40Z</time>
      </trkpt>
      <trkpt lat="47.00324" lon="2.45516">
        <ele>137</ele>
        <time>2021-08-13T12:40:40Z</time>
      </trkpt>
      <trkpt lat="47.00354" lon="2.45535">
        <ele>138</ele>
        <time>2021-08-13T12:40:40Z</time>
      </trkpt>
      <trkpt lat="47.00378" lon="2.45552">
        <ele>139</ele>
        <time>2021-08-13T12:40:40Z</time>
      </trkpt>
      <trkpt lat="47.00384" lon="2.45556">
        <ele>139</ele>
        <time>2021-08-13T12:40:40Z</time>
      </trkpt>
      <trkpt lat="47.00415" lon="2.45576">
        <ele>140</ele>
        <time>2021-08-13T12:40:40Z</time>
      </trkpt>
      <trkpt lat="47.00445" lon="2.45595">
        <ele>140</ele>
        <time>2021-08-13T12:40:40Z</time>
      </trkpt>
      <trkpt lat="47.00474" lon="2.45614">
        <ele>140</ele>
        <time>2021-08-13T12:40:40Z</time>
      </trkpt>
      <trkpt lat="47.00504" lon="2.45635">
        <ele>140</ele>
        <time>2021-08-13T12:40:40Z</time>
      </trkpt>
      <trkpt lat="47.00534" lon="2.45655">
        <ele>139</ele>
        <time>2021-08-13T12:40:40Z</time>
      </trkpt>
      <trkpt lat="47.00558" lon="2.45671">
        <ele>139</ele>
        <time>2021-08-13T12:40:40Z</time>
      </trkpt>
      <trkpt lat="47.00564" lon="2.45674">
        <ele>139</ele>
        <time>2021-08-13T12:40:40Z</time>
      </trkpt>
      <trkpt lat="47.00594" lon="2.45695">
        <ele>139</ele>
        <time>2021-08-13T12:40:40Z</time>
      </trkpt>
      <trkpt lat="47.00623" lon="2.45714">
        <ele>139</ele>
        <time>2021-08-13T12:40:40Z</time>
      </trkpt>
      <trkpt lat="47.00653" lon="2.45734">
        <ele>139</ele>
        <time>2021-08-13T12:40:40Z</time>
      </trkpt>
      <trkpt lat="47.00682" lon="2.45752">
        <ele>138</ele>
        <time>2021-08-13T12:40:40Z</time>
      </trkpt>
      <trkpt lat="47.00711" lon="2.45771">
        <ele>136</ele>
        <time>2021-08-13T12:40:40Z</time>
      </trkpt>
      <trkpt lat="47.00735" lon="2.45785">
        <ele>136</ele>
        <time>2021-08-13T12:40:40Z</time>
      </trkpt>
      <trkpt lat="47.0074" lon="2.45789">
        <ele>136</ele>
        <time>2021-08-13T12:40:40Z</time>
      </trkpt>
      <trkpt lat="47.00768" lon="2.45809">
        <ele>139</ele>
        <time>2021-08-13T12:40:40Z</time>
      </trkpt>
      <trkpt lat="47.00798" lon="2.45828">
        <ele>140</ele>
        <time>2021-08-13T12:40:40Z</time>
      </trkpt>
      <trkpt lat="47.00827" lon="2.45848">
        <ele>144</ele>
        <time>2021-08-13T12:40:40Z</time>
      </trkpt>
      <trkpt lat="47.00857" lon="2.45869">
        <ele>142</ele>
        <time>2021-08-13T12:40:40Z</time>
      </trkpt>
      <trkpt lat="47.00863" lon="2.45873">
        <ele>142</ele>
        <time>2021-08-13T12:40:40Z</time>
      </trkpt>
      <trkpt lat="47.00869" lon="2.45877">
        <ele>141</ele>
        <time>2021-08-13T12:40:40Z</time>
      </trkpt>
      <trkpt lat="47.00874" lon="2.4588">
        <ele>141</ele>
        <time>2021-08-13T12:40:40Z</time>
      </trkpt>
      <trkpt lat="47.0088" lon="2.45884">
        <ele>141</ele>
        <time>2021-08-13T12:40:40Z</time>
      </trkpt>
      <trkpt lat="47.00886" lon="2.45888">
        <ele>141</ele>
        <time>2021-08-13T12:40:40Z</time>
      </trkpt>
      <trkpt lat="47.00892" lon="2.45893">
        <ele>140</ele>
        <time>2021-08-13T12:40:40Z</time>
      </trkpt>
      <trkpt lat="47.00898" lon="2.45897">
        <ele>140</ele>
        <time>2021-08-13T12:40:40Z</time>
      </trkpt>
      <trkpt lat="47.00904" lon="2.45901">
        <ele>140</ele>
        <time>2021-08-13T12:40:40Z</time>
      </trkpt>
      <trkpt lat="47.0091" lon="2.45904">
        <ele>140</ele>
        <time>2021-08-13T12:40:40Z</time>
      </trkpt>
      <trkpt lat="47.00939" lon="2.45924">
        <ele>139</ele>
        <time>2021-08-13T12:40:40Z</time>
      </trkpt>
      <trkpt lat="47.00968" lon="2.45943">
        <ele>140</ele>
        <time>2021-08-13T12:40:40Z</time>
      </trkpt>
      <trkpt lat="47.00997" lon="2.45961">
        <ele>142</ele>
        <time>2021-08-13T12:40:40Z</time>
      </trkpt>
      <trkpt lat="47.01025" lon="2.4598">
        <ele>140</ele>
        <time>2021-08-13T12:40:40Z</time>
      </trkpt>
      <trkpt lat="47.01054" lon="2.45999">
        <ele>138</ele>
        <time>2021-08-13T12:40:40Z</time>
      </trkpt>
      <trkpt lat="47.01078" lon="2.46015">
        <ele>137</ele>
        <time>2021-08-13T12:40:40Z</time>
      </trkpt>
      <trkpt lat="47.01084" lon="2.46019">
        <ele>137</ele>
        <time>2021-08-13T12:40:40Z</time>
      </trkpt>
      <trkpt lat="47.01113" lon="2.46037">
        <ele>138</ele>
        <time>2021-08-13T12:40:40Z</time>
      </trkpt>
      <trkpt lat="47.01143" lon="2.4605">
        <ele>139</ele>
        <time>2021-08-13T12:40:40Z</time>
      </trkpt>
      <trkpt lat="47.01174" lon="2.46052">
        <ele>138</ele>
        <time>2021-08-13T12:40:40Z</time>
      </trkpt>
      <trkpt lat="47.01202" lon="2.46048">
        <ele>138</ele>
        <time>2021-08-13T12:40:40Z</time>
      </trkpt>
      <trkpt lat="47.01231" lon="2.46034">
        <ele>138</ele>
        <time>2021-08-13T12:40:40Z</time>
      </trkpt>
      <trkpt lat="47.01254" lon="2.4602">
        <ele>138</ele>
        <time>2021-08-13T12:40:40Z</time>
      </trkpt>
      <trkpt lat="47.0126" lon="2.46016">
        <ele>138</ele>
        <time>2021-08-13T12:40:40Z</time>
      </trkpt>
      <trkpt lat="47.01288" lon="2.45997">
        <ele>137</ele>
        <time>2021-08-13T12:40:40Z</time>
      </trkpt>
      <trkpt lat="47.01321" lon="2.45977">
        <ele>137</ele>
        <time>2021-08-13T12:40:40Z</time>
      </trkpt>
      <trkpt lat="47.0135" lon="2.45958">
        <ele>137</ele>
        <time>2021-08-13T12:40:40Z</time>
      </trkpt>
      <trkpt lat="47.01378" lon="2.45937">
        <ele>137</ele>
        <time>2021-08-13T12:40:40Z</time>
      </trkpt>
      <trkpt lat="47.01404" lon="2.45909">
        <ele>136</ele>
        <time>2021-08-13T12:40:40Z</time>
      </trkpt>
      <trkpt lat="47.01422" lon="2.45883">
        <ele>136</ele>
        <time>2021-08-13T12:40:40Z</time>
      </trkpt>
      <trkpt lat="47.01426" lon="2.45875">
        <ele>136</ele>
        <time>2021-08-13T12:40:40Z</time>
      </trkpt>
      <trkpt lat="47.01442" lon="2.45836">
        <ele>136</ele>
        <time>2021-08-13T12:40:40Z</time>
      </trkpt>
      <trkpt lat="47.01455" lon="2.45793">
        <ele>137</ele>
        <time>2021-08-13T12:40:40Z</time>
      </trkpt>
      <trkpt lat="47.01463" lon="2.45748">
        <ele>138</ele>
        <time>2021-08-13T12:40:40Z</time>
      </trkpt>
      <trkpt lat="47.01471" lon="2.45704">
        <ele>139</ele>
        <time>2021-08-13T12:40:40Z</time>
      </trkpt>
      <trkpt lat="47.01477" lon="2.45668">
        <ele>138</ele>
        <time>2021-08-13T12:40:40Z</time>
      </trkpt>
      <trkpt lat="47.01488" lon="2.45659">
        <ele>138</ele>
        <time>2021-08-13T12:40:40Z</time>
      </trkpt>
      <trkpt lat="47.01491" lon="2.45658">
        <ele>138</ele>
        <time>2021-08-13T12:40:40Z</time>
      </trkpt>
      <trkpt lat="47.01498" lon="2.4562">
        <ele>137</ele>
        <time>2021-08-13T12:40:40Z</time>
      </trkpt>
      <trkpt lat="47.01505" lon="2.45569">
        <ele>137</ele>
        <time>2021-08-13T12:40:40Z</time>
      </trkpt>
      <trkpt lat="47.01512" lon="2.4552">
        <ele>137</ele>
        <time>2021-08-13T12:40:40Z</time>
      </trkpt>
      <trkpt lat="47.01519" lon="2.45474">
        <ele>138</ele>
        <time>2021-08-13T12:40:40Z</time>
      </trkpt>
      <trkpt lat="47.01526" lon="2.45427">
        <ele>138</ele>
        <time>2021-08-13T12:40:40Z</time>
      </trkpt>
      <trkpt lat="47.01533" lon="2.45389">
        <ele>137</ele>
        <time>2021-08-13T12:40:40Z</time>
      </trkpt>
      <trkpt lat="47.01534" lon="2.45379">
        <ele>137</ele>
        <time>2021-08-13T12:40:40Z</time>
      </trkpt>
      <trkpt lat="47.01535" lon="2.4537">
        <ele>137</ele>
        <time>2021-08-13T12:40:40Z</time>
      </trkpt>
      <trkpt lat="47.01536" lon="2.45359">
        <ele>137</ele>
        <time>2021-08-13T12:40:40Z</time>
      </trkpt>
      <trkpt lat="47.01538" lon="2.4535">
        <ele>137</ele>
        <time>2021-08-13T12:40:40Z</time>
      </trkpt>
      <trkpt lat="47.0154" lon="2.4534">
        <ele>136</ele>
        <time>2021-08-13T12:40:40Z</time>
      </trkpt>
      <trkpt lat="47.01541" lon="2.45331">
        <ele>136</ele>
        <time>2021-08-13T12:40:40Z</time>
      </trkpt>
      <trkpt lat="47.01543" lon="2.4532">
        <ele>136</ele>
        <time>2021-08-13T12:40:40Z</time>
      </trkpt>
      <trkpt lat="47.01545" lon="2.45312">
        <ele>135</ele>
        <time>2021-08-13T12:40:40Z</time>
      </trkpt>
      <trkpt lat="47.01548" lon="2.45304">
        <ele>135</ele>
        <time>2021-08-13T12:40:40Z</time>
      </trkpt>
      <trkpt lat="47.01549" lon="2.45294">
        <ele>135</ele>
        <time>2021-08-13T12:40:40Z</time>
      </trkpt>
      <trkpt lat="47.01551" lon="2.45285">
        <ele>135</ele>
        <time>2021-08-13T12:40:40Z</time>
      </trkpt>
      <trkpt lat="47.01554" lon="2.45276">
        <ele>135</ele>
        <time>2021-08-13T12:40:40Z</time>
      </trkpt>
      <trkpt lat="47.01557" lon="2.45267">
        <ele>134</ele>
        <time>2021-08-13T12:40:40Z</time>
      </trkpt>
      <trkpt lat="47.01559" lon="2.45257">
        <ele>134</ele>
        <time>2021-08-13T12:40:40Z</time>
      </trkpt>
      <trkpt lat="47.01562" lon="2.45248">
        <ele>134</ele>
        <time>2021-08-13T12:40:40Z</time>
      </trkpt>
      <trkpt lat="47.01564" lon="2.45239">
        <ele>134</ele>
        <time>2021-08-13T12:40:40Z</time>
      </trkpt>
      <trkpt lat="47.01567" lon="2.4523">
        <ele>134</ele>
        <time>2021-08-13T12:40:40Z</time>
      </trkpt>
      <trkpt lat="47.0157" lon="2.4522">
        <ele>134</ele>
        <time>2021-08-13T12:40:40Z</time>
      </trkpt>
      <trkpt lat="47.01572" lon="2.45211">
        <ele>134</ele>
        <time>2021-08-13T12:40:40Z</time>
      </trkpt>
      <trkpt lat="47.01575" lon="2.45202">
        <ele>134</ele>
        <time>2021-08-13T12:40:40Z</time>
      </trkpt>
      <trkpt lat="47.01578" lon="2.45193">
        <ele>134</ele>
        <time>2021-08-13T12:40:40Z</time>
      </trkpt>
      <trkpt lat="47.01581" lon="2.45184">
        <ele>134</ele>
        <time>2021-08-13T12:40:40Z</time>
      </trkpt>
      <trkpt lat="47.01583" lon="2.45176">
        <ele>134</ele>
        <time>2021-08-13T12:40:40Z</time>
      </trkpt>
      <trkpt lat="47.01586" lon="2.45167">
        <ele>134</ele>
        <time>2021-08-13T12:40:40Z</time>
      </trkpt>
      <trkpt lat="47.01591" lon="2.45159">
        <ele>134</ele>
        <time>2021-08-13T12:40:40Z</time>
      </trkpt>
      <trkpt lat="47.01595" lon="2.4515">
        <ele>134</ele>
        <time>2021-08-13T12:40:40Z</time>
      </trkpt>
      <trkpt lat="47.01598" lon="2.45141">
        <ele>134</ele>
        <time>2021-08-13T12:40:40Z</time>
      </trkpt>
      <trkpt lat="47.01601" lon="2.45133">
        <ele>134</ele>
        <time>2021-08-13T12:40:40Z</time>
      </trkpt>
      <trkpt lat="47.01604" lon="2.45124">
        <ele>134</ele>
        <time>2021-08-13T12:40:40Z</time>
      </trkpt>
      <trkpt lat="47.01608" lon="2.45118">
        <ele>134</ele>
        <time>2021-08-13T12:40:40Z</time>
      </trkpt>
      <trkpt lat="47.01611" lon="2.4511">
        <ele>134</ele>
        <time>2021-08-13T12:40:40Z</time>
      </trkpt>
      <trkpt lat="47.01615" lon="2.45101">
        <ele>134</ele>
        <time>2021-08-13T12:40:40Z</time>
      </trkpt>
      <trkpt lat="47.01618" lon="2.45094">
        <ele>134</ele>
        <time>2021-08-13T12:40:40Z</time>
      </trkpt>
      <trkpt lat="47.01622" lon="2.45086">
        <ele>134</ele>
        <time>2021-08-13T12:40:40Z</time>
      </trkpt>
      <trkpt lat="47.01625" lon="2.45078">
        <ele>134</ele>
        <time>2021-08-13T12:40:40Z</time>
      </trkpt>
      <trkpt lat="47.0163" lon="2.45072">
        <ele>134</ele>
        <time>2021-08-13T12:40:40Z</time>
      </trkpt>
      <trkpt lat="47.01634" lon="2.45064">
        <ele>134</ele>
        <time>2021-08-13T12:40:40Z</time>
      </trkpt>
      <trkpt lat="47.01638" lon="2.45057">
        <ele>134</ele>
        <time>2021-08-13T12:40:40Z</time>
      </trkpt>
      <trkpt lat="47.01642" lon="2.4505">
        <ele>134</ele>
        <time>2021-08-13T12:40:40Z</time>
      </trkpt>
      <trkpt lat="47.01647" lon="2.45043">
        <ele>134</ele>
        <time>2021-08-13T12:40:40Z</time>
      </trkpt>
      <trkpt lat="47.0165" lon="2.45036">
        <ele>134</ele>
        <time>2021-08-13T12:40:40Z</time>
      </trkpt>
      <trkpt lat="47.01654" lon="2.45028">
        <ele>134</ele>
        <time>2021-08-13T12:40:40Z</time>
      </trkpt>
      <trkpt lat="47.01658" lon="2.4502">
        <ele>134</ele>
        <time>2021-08-13T12:40:40Z</time>
      </trkpt>
      <trkpt lat="47.01662" lon="2.45013">
        <ele>134</ele>
        <time>2021-08-13T12:40:40Z</time>
      </trkpt>
      <trkpt lat="47.01666" lon="2.45006">
        <ele>134</ele>
        <time>2021-08-13T12:40:40Z</time>
      </trkpt>
      <trkpt lat="47.0167" lon="2.44999">
        <ele>134</ele>
        <time>2021-08-13T12:40:40Z</time>
      </trkpt>
      <trkpt lat="47.01674" lon="2.44993">
        <ele>134</ele>
        <time>2021-08-13T12:40:40Z</time>
      </trkpt>
      <trkpt lat="47.01678" lon="2.44986">
        <ele>134</ele>
        <time>2021-08-13T12:40:40Z</time>
      </trkpt>
      <trkpt lat="47.01683" lon="2.4498">
        <ele>134</ele>
        <time>2021-08-13T12:40:40Z</time>
      </trkpt>
      <trkpt lat="47.01688" lon="2.44974">
        <ele>134</ele>
        <time>2021-08-13T12:40:40Z</time>
      </trkpt>
      <trkpt lat="47.01692" lon="2.44967">
        <ele>134</ele>
        <time>2021-08-13T12:40:40Z</time>
      </trkpt>
      <trkpt lat="47.01697" lon="2.44961">
        <ele>134</ele>
        <time>2021-08-13T12:40:40Z</time>
      </trkpt>
      <trkpt lat="47.01701" lon="2.44955">
        <ele>134</ele>
        <time>2021-08-13T12:40:40Z</time>
      </trkpt>
      <trkpt lat="47.01706" lon="2.44949">
        <ele>134</ele>
        <time>2021-08-13T12:40:40Z</time>
      </trkpt>
      <trkpt lat="47.01711" lon="2.44943">
        <ele>134</ele>
        <time>2021-08-13T12:40:40Z</time>
      </trkpt>
      <trkpt lat="47.01715" lon="2.44937">
        <ele>134</ele>
        <time>2021-08-13T12:40:40Z</time>
      </trkpt>
      <trkpt lat="47.0172" lon="2.4493">
        <ele>134</ele>
        <time>2021-08-13T12:40:40Z</time>
      </trkpt>
      <trkpt lat="47.01724" lon="2.44924">
        <ele>134</ele>
        <time>2021-08-13T12:40:40Z</time>
      </trkpt>
      <trkpt lat="47.01729" lon="2.44918">
        <ele>134</ele>
        <time>2021-08-13T12:40:40Z</time>
      </trkpt>
      <trkpt lat="47.01733" lon="2.44911">
        <ele>135</ele>
        <time>2021-08-13T12:40:40Z</time>
      </trkpt>
      <trkpt lat="47.01739" lon="2.44905">
        <ele>135</ele>
        <time>2021-08-13T12:40:40Z</time>
      </trkpt>
      <trkpt lat="47.01743" lon="2.44898">
        <ele>135</ele>
        <time>2021-08-13T12:40:40Z</time>
      </trkpt>
      <trkpt lat="47.01766" lon="2.44869">
        <ele>134</ele>
        <time>2021-08-13T12:40:40Z</time>
      </trkpt>
      <trkpt lat="47.01787" lon="2.4484">
        <ele>134</ele>
        <time>2021-08-13T12:40:40Z</time>
      </trkpt>
      <trkpt lat="47.0181" lon="2.4481">
        <ele>135</ele>
        <time>2021-08-13T12:40:40Z</time>
      </trkpt>
      <trkpt lat="47.01834" lon="2.44774">
        <ele>135</ele>
        <time>2021-08-13T12:40:40Z</time>
      </trkpt>
      <trkpt lat="47.01858" lon="2.4474">
        <ele>135</ele>
        <time>2021-08-13T12:40:40Z</time>
      </trkpt>
      <trkpt lat="47.01877" lon="2.44713">
        <ele>135</ele>
        <time>2021-08-13T12:40:40Z</time>
      </trkpt>
      <trkpt lat="47.01882" lon="2.44707">
        <ele>135</ele>
        <time>2021-08-13T12:40:40Z</time>
      </trkpt>
      <trkpt lat="47.01905" lon="2.44674">
        <ele>134</ele>
        <time>2021-08-13T12:40:40Z</time>
      </trkpt>
      <trkpt lat="47.01931" lon="2.44645">
        <ele>133</ele>
        <time>2021-08-13T12:40:40Z</time>
      </trkpt>
      <trkpt lat="47.01959" lon="2.44622">
        <ele>133</ele>
        <time>2021-08-13T12:40:40Z</time>
      </trkpt>
      <trkpt lat="47.01988" lon="2.446">
        <ele>134</ele>
        <time>2021-08-13T12:40:40Z</time>
      </trkpt>
      <trkpt lat="47.02017" lon="2.44582">
        <ele>135</ele>
        <time>2021-08-13T12:40:40Z</time>
      </trkpt>
      <trkpt lat="47.0204" lon="2.44563">
        <ele>134</ele>
        <time>2021-08-13T12:40:40Z</time>
      </trkpt>
      <trkpt lat="47.02046" lon="2.44559">
        <ele>134</ele>
        <time>2021-08-13T12:40:40Z</time>
      </trkpt>
      <trkpt lat="47.02078" lon="2.44538">
        <ele>133</ele>
        <time>2021-08-13T12:40:40Z</time>
      </trkpt>
      <trkpt lat="47.02108" lon="2.44518">
        <ele>133</ele>
        <time>2021-08-13T12:40:40Z</time>
      </trkpt>
      <trkpt lat="47.02138" lon="2.44498">
        <ele>133</ele>
        <time>2021-08-13T12:40:40Z</time>
      </trkpt>
      <trkpt lat="47.02167" lon="2.44478">
        <ele>132</ele>
        <time>2021-08-13T12:40:40Z</time>
      </trkpt>
      <trkpt lat="47.02198" lon="2.4446">
        <ele>132</ele>
        <time>2021-08-13T12:40:40Z</time>
      </trkpt>
      <trkpt lat="47.02222" lon="2.44449">
        <ele>133</ele>
        <time>2021-08-13T12:40:40Z</time>
      </trkpt>
      <trkpt lat="47.02228" lon="2.44447">
        <ele>133</ele>
        <time>2021-08-13T12:40:40Z</time>
      </trkpt>
      <trkpt lat="47.02235" lon="2.44445">
        <ele>134</ele>
        <time>2021-08-13T12:40:40Z</time>
      </trkpt>
      <trkpt lat="47.02241" lon="2.44443">
        <ele>134</ele>
        <time>2021-08-13T12:40:40Z</time>
      </trkpt>
      <trkpt lat="47.02248" lon="2.44441">
        <ele>135</ele>
        <time>2021-08-13T12:40:40Z</time>
      </trkpt>
      <trkpt lat="47.02254" lon="2.44441">
        <ele>136</ele>
        <time>2021-08-13T12:40:40Z</time>
      </trkpt>
      <trkpt lat="47.02261" lon="2.4444">
        <ele>136</ele>
        <time>2021-08-13T12:40:40Z</time>
      </trkpt>
      <trkpt lat="47.02268" lon="2.44442">
        <ele>137</ele>
        <time>2021-08-13T12:40:40Z</time>
      </trkpt>
      <trkpt lat="47.02274" lon="2.44442">
        <ele>137</ele>
        <time>2021-08-13T12:40:40Z</time>
      </trkpt>
      <trkpt lat="47.02282" lon="2.44443">
        <ele>137</ele>
        <time>2021-08-13T12:40:40Z</time>
      </trkpt>
      <trkpt lat="47.02288" lon="2.44444">
        <ele>137</ele>
        <time>2021-08-13T12:40:40Z</time>
      </trkpt>
      <trkpt lat="47.02294" lon="2.44445">
        <ele>138</ele>
        <time>2021-08-13T12:40:40Z</time>
      </trkpt>
      <trkpt lat="47.02301" lon="2.44446">
        <ele>138</ele>
        <time>2021-08-13T12:40:40Z</time>
      </trkpt>
      <trkpt lat="47.02308" lon="2.44448">
        <ele>138</ele>
        <time>2021-08-13T12:40:40Z</time>
      </trkpt>
      <trkpt lat="47.02316" lon="2.4445">
        <ele>138</ele>
        <time>2021-08-13T12:40:40Z</time>
      </trkpt>
      <trkpt lat="47.02322" lon="2.44452">
        <ele>137</ele>
        <time>2021-08-13T12:40:40Z</time>
      </trkpt>
      <trkpt lat="47.02328" lon="2.44455">
        <ele>137</ele>
        <time>2021-08-13T12:40:40Z</time>
      </trkpt>
      <trkpt lat="47.02335" lon="2.44459">
        <ele>137</ele>
        <time>2021-08-13T12:40:40Z</time>
      </trkpt>
      <trkpt lat="47.02342" lon="2.44462">
        <ele>137</ele>
        <time>2021-08-13T12:40:40Z</time>
      </trkpt>
      <trkpt lat="47.02347" lon="2.44463">
        <ele>136</ele>
        <time>2021-08-13T12:40:40Z</time>
      </trkpt>
      <trkpt lat="47.02353" lon="2.44466">
        <ele>136</ele>
        <time>2021-08-13T12:40:40Z</time>
      </trkpt>
      <trkpt lat="47.0236" lon="2.44469">
        <ele>135</ele>
        <time>2021-08-13T12:40:40Z</time>
      </trkpt>
      <trkpt lat="47.02366" lon="2.44472">
        <ele>135</ele>
        <time>2021-08-13T12:40:40Z</time>
      </trkpt>
      <trkpt lat="47.02372" lon="2.44474">
        <ele>135</ele>
        <time>2021-08-13T12:40:40Z</time>
      </trkpt>
      <trkpt lat="47.02378" lon="2.44477">
        <ele>135</ele>
        <time>2021-08-13T12:40:40Z</time>
      </trkpt>
      <trkpt lat="47.02384" lon="2.4448">
        <ele>134</ele>
        <time>2021-08-13T12:40:40Z</time>
      </trkpt>
      <trkpt lat="47.02391" lon="2.44482">
        <ele>134</ele>
        <time>2021-08-13T12:40:40Z</time>
      </trkpt>
      <trkpt lat="47.02397" lon="2.44484">
        <ele>134</ele>
        <time>2021-08-13T12:40:40Z</time>
      </trkpt>
      <trkpt lat="47.02404" lon="2.44486">
        <ele>134</ele>
        <time>2021-08-13T12:40:40Z</time>
      </trkpt>
      <trkpt lat="47.0241" lon="2.44489">
        <ele>134</ele>
        <time>2021-08-13T12:40:40Z</time>
      </trkpt>
      <trkpt lat="47.02416" lon="2.4449">
        <ele>134</ele>
        <time>2021-08-13T12:40:40Z</time>
      </trkpt>
      <trkpt lat="47.02422" lon="2.44493">
        <ele>134</ele>
        <time>2021-08-13T12:40:40Z</time>
      </trkpt>
      <trkpt lat="47.02428" lon="2.44496">
        <ele>133</ele>
        <time>2021-08-13T12:40:40Z</time>
      </trkpt>
      <trkpt lat="47.02434" lon="2.44498">
        <ele>133</ele>
        <time>2021-08-13T12:40:40Z</time>
      </trkpt>
      <trkpt lat="47.02441" lon="2.445">
        <ele>133</ele>
        <time>2021-08-13T12:40:40Z</time>
      </trkpt>
      <trkpt lat="47.02447" lon="2.44503">
        <ele>132</ele>
        <time>2021-08-13T12:40:40Z</time>
      </trkpt>
      <trkpt lat="47.02453" lon="2.44504">
        <ele>132</ele>
        <time>2021-08-13T12:40:40Z</time>
      </trkpt>
      <trkpt lat="47.02459" lon="2.44507">
        <ele>132</ele>
        <time>2021-08-13T12:40:40Z</time>
      </trkpt>
      <trkpt lat="47.02466" lon="2.4451">
        <ele>131</ele>
        <time>2021-08-13T12:40:40Z</time>
      </trkpt>
      <trkpt lat="47.02472" lon="2.44513">
        <ele>131</ele>
        <time>2021-08-13T12:40:40Z</time>
      </trkpt>
      <trkpt lat="47.02478" lon="2.44516">
        <ele>131</ele>
        <time>2021-08-13T12:40:40Z</time>
      </trkpt>
      <trkpt lat="47.02485" lon="2.4452">
        <ele>131</ele>
        <time>2021-08-13T12:40:40Z</time>
      </trkpt>
      <trkpt lat="47.02492" lon="2.44523">
        <ele>131</ele>
        <time>2021-08-13T12:40:40Z</time>
      </trkpt>
      <trkpt lat="47.02498" lon="2.44525">
        <ele>131</ele>
        <time>2021-08-13T12:40:40Z</time>
      </trkpt>
      <trkpt lat="47.02505" lon="2.44528">
        <ele>132</ele>
        <time>2021-08-13T12:40:40Z</time>
      </trkpt>
      <trkpt lat="47.02511" lon="2.4453">
        <ele>132</ele>
        <time>2021-08-13T12:40:40Z</time>
      </trkpt>
      <trkpt lat="47.02517" lon="2.44533">
        <ele>132</ele>
        <time>2021-08-13T12:40:40Z</time>
      </trkpt>
      <trkpt lat="47.02523" lon="2.44536">
        <ele>132</ele>
        <time>2021-08-13T12:40:40Z</time>
      </trkpt>
      <trkpt lat="47.0253" lon="2.44539">
        <ele>132</ele>
        <time>2021-08-13T12:40:40Z</time>
      </trkpt>
      <trkpt lat="47.02536" lon="2.44541">
        <ele>132</ele>
        <time>2021-08-13T12:40:40Z</time>
      </trkpt>
      <trkpt lat="47.02543" lon="2.44544">
        <ele>132</ele>
        <time>2021-08-13T12:40:40Z</time>
      </trkpt>
      <trkpt lat="47.02549" lon="2.44546">
        <ele>132</ele>
        <time>2021-08-13T12:40:40Z</time>
      </trkpt>
      <trkpt lat="47.02555" lon="2.44549">
        <ele>132</ele>
        <time>2021-08-13T12:40:40Z</time>
      </trkpt>
      <trkpt lat="47.02561" lon="2.44551">
        <ele>131</ele>
        <time>2021-08-13T12:40:40Z</time>
      </trkpt>
      <trkpt lat="47.02567" lon="2.44554">
        <ele>131</ele>
        <time>2021-08-13T12:40:40Z</time>
      </trkpt>
      <trkpt lat="47.02573" lon="2.44557">
        <ele>132</ele>
        <time>2021-08-13T12:40:40Z</time>
      </trkpt>
      <trkpt lat="47.0258" lon="2.4456">
        <ele>132</ele>
        <time>2021-08-13T12:40:40Z</time>
      </trkpt>
      <trkpt lat="47.02586" lon="2.44562">
        <ele>132</ele>
        <time>2021-08-13T12:40:40Z</time>
      </trkpt>
      <trkpt lat="47.02592" lon="2.44565">
        <ele>132</ele>
        <time>2021-08-13T12:40:40Z</time>
      </trkpt>
      <trkpt lat="47.02598" lon="2.44567">
        <ele>132</ele>
        <time>2021-08-13T12:40:40Z</time>
      </trkpt>
      <trkpt lat="47.02604" lon="2.44569">
        <ele>132</ele>
        <time>2021-08-13T12:40:40Z</time>
      </trkpt>
      <trkpt lat="47.0261" lon="2.44571">
        <ele>132</ele>
        <time>2021-08-13T12:40:40Z</time>
      </trkpt>
      <trkpt lat="47.02616" lon="2.44574">
        <ele>133</ele>
        <time>2021-08-13T12:40:40Z</time>
      </trkpt>
      <trkpt lat="47.02647" lon="2.44588">
        <ele>132</ele>
        <time>2021-08-13T12:40:40Z</time>
      </trkpt>
      <trkpt lat="47.02678" lon="2.44601">
        <ele>132</ele>
        <time>2021-08-13T12:40:40Z</time>
      </trkpt>
      <trkpt lat="47.02708" lon="2.44612">
        <ele>133</ele>
        <time>2021-08-13T12:40:40Z</time>
      </trkpt>
      <trkpt lat="47.02738" lon="2.44625">
        <ele>133</ele>
        <time>2021-08-13T12:40:40Z</time>
      </trkpt>
      <trkpt lat="47.0277" lon="2.44641">
        <ele>134</ele>
        <time>2021-08-13T12:40:40Z</time>
      </trkpt>
      <trkpt lat="47.02797" lon="2.44655">
        <ele>134</ele>
        <time>2021-08-13T12:40:40Z</time>
      </trkpt>
      <trkpt lat="47.02804" lon="2.44656">
        <ele>134</ele>
        <time>2021-08-13T12:40:40Z</time>
      </trkpt>
      <trkpt lat="47.02837" lon="2.44671">
        <ele>135</ele>
        <time>2021-08-13T12:40:40Z</time>
      </trkpt>
      <trkpt lat="47.02869" lon="2.44688">
        <ele>135</ele>
        <time>2021-08-13T12:40:40Z</time>
      </trkpt>
      <trkpt lat="47.02899" lon="2.44702">
        <ele>135</ele>
        <time>2021-08-13T12:40:40Z</time>
      </trkpt>
      <trkpt lat="47.0293" lon="2.44714">
        <ele>134</ele>
        <time>2021-08-13T12:40:40Z</time>
      </trkpt>
      <trkpt lat="47.02958" lon="2.44725">
        <ele>133</ele>
        <time>2021-08-13T12:40:40Z</time>
      </trkpt>
      <trkpt lat="47.02983" lon="2.44734">
        <ele>132</ele>
        <time>2021-08-13T12:40:40Z</time>
      </trkpt>
      <trkpt lat="47.02989" lon="2.44736">
        <ele>132</ele>
        <time>2021-08-13T12:40:40Z</time>
      </trkpt>
      <trkpt lat="47.02996" lon="2.44739">
        <ele>132</ele>
        <time>2021-08-13T12:40:40Z</time>
      </trkpt>
      <trkpt lat="47.0301" lon="2.44744">
        <ele>132</ele>
        <time>2021-08-13T12:40:40Z</time>
      </trkpt>
      <trkpt lat="47.03021" lon="2.44749">
        <ele>132</ele>
        <time>2021-08-13T12:40:40Z</time>
      </trkpt>
      <trkpt lat="47.03029" lon="2.44753">
        <ele>133</ele>
        <time>2021-08-13T12:40:40Z</time>
      </trkpt>
      <trkpt lat="47.03034" lon="2.44754">
        <ele>133</ele>
        <time>2021-08-13T12:40:40Z</time>
      </trkpt>
      <trkpt lat="47.03045" lon="2.44758">
        <ele>133</ele>
        <time>2021-08-13T12:40:40Z</time>
      </trkpt>
      <trkpt lat="47.0306" lon="2.44765">
        <ele>134</ele>
        <time>2021-08-13T12:40:40Z</time>
      </trkpt>
      <trkpt lat="47.03066" lon="2.44767">
        <ele>134</ele>
        <time>2021-08-13T12:40:40Z</time>
      </trkpt>
      <trkpt lat="47.03073" lon="2.44772">
        <ele>135</ele>
        <time>2021-08-13T12:40:40Z</time>
      </trkpt>
      <trkpt lat="47.03079" lon="2.44775">
        <ele>136</ele>
        <time>2021-08-13T12:40:40Z</time>
      </trkpt>
      <trkpt lat="47.03084" lon="2.44778">
        <ele>136</ele>
        <time>2021-08-13T12:40:40Z</time>
      </trkpt>
      <trkpt lat="47.03096" lon="2.44783">
        <ele>136</ele>
        <time>2021-08-13T12:40:40Z</time>
      </trkpt>
      <trkpt lat="47.03103" lon="2.44784">
        <ele>136</ele>
        <time>2021-08-13T12:40:40Z</time>
      </trkpt>
      <trkpt lat="47.03114" lon="2.44786">
        <ele>136</ele>
        <time>2021-08-13T12:40:40Z</time>
      </trkpt>
      <trkpt lat="47.0312" lon="2.44789">
        <ele>136</ele>
        <time>2021-08-13T12:40:40Z</time>
      </trkpt>
      <trkpt lat="47.03134" lon="2.44792">
        <ele>136</ele>
        <time>2021-08-13T12:40:40Z</time>
      </trkpt>
      <trkpt lat="47.03141" lon="2.44793">
        <ele>135</ele>
        <time>2021-08-13T12:40:40Z</time>
      </trkpt>
      <trkpt lat="47.03147" lon="2.44794">
        <ele>135</ele>
        <time>2021-08-13T12:40:40Z</time>
      </trkpt>
      <trkpt lat="47.03154" lon="2.44795">
        <ele>135</ele>
        <time>2021-08-13T12:40:40Z</time>
      </trkpt>
      <trkpt lat="47.0316" lon="2.44794">
        <ele>135</ele>
        <time>2021-08-13T12:40:40Z</time>
      </trkpt>
      <trkpt lat="47.03173" lon="2.44795">
        <ele>135</ele>
        <time>2021-08-13T12:40:40Z</time>
      </trkpt>
      <trkpt lat="47.03179" lon="2.44794">
        <ele>134</ele>
        <time>2021-08-13T12:40:40Z</time>
      </trkpt>
      <trkpt lat="47.03186" lon="2.44795">
        <ele>134</ele>
        <time>2021-08-13T12:40:40Z</time>
      </trkpt>
      <trkpt lat="47.03192" lon="2.44794">
        <ele>133</ele>
        <time>2021-08-13T12:40:40Z</time>
      </trkpt>
      <trkpt lat="47.03198" lon="2.44792">
        <ele>133</ele>
        <time>2021-08-13T12:40:40Z</time>
      </trkpt>
      <trkpt lat="47.03211" lon="2.44789">
        <ele>132</ele>
        <time>2021-08-13T12:40:40Z</time>
      </trkpt>
      <trkpt lat="47.03217" lon="2.44786">
        <ele>132</ele>
        <time>2021-08-13T12:40:40Z</time>
      </trkpt>
      <trkpt lat="47.03224" lon="2.44783">
        <ele>131</ele>
        <time>2021-08-13T12:40:40Z</time>
      </trkpt>
      <trkpt lat="47.0323" lon="2.44781">
        <ele>131</ele>
        <time>2021-08-13T12:40:40Z</time>
      </trkpt>
      <trkpt lat="47.03236" lon="2.44777">
        <ele>131</ele>
        <time>2021-08-13T12:40:40Z</time>
      </trkpt>
      <trkpt lat="47.03248" lon="2.44768">
        <ele>131</ele>
        <time>2021-08-13T12:40:40Z</time>
      </trkpt>
      <trkpt lat="47.03254" lon="2.44764">
        <ele>131</ele>
        <time>2021-08-13T12:40:40Z</time>
      </trkpt>
      <trkpt lat="47.03258" lon="2.44759">
        <ele>131</ele>
        <time>2021-08-13T12:40:40Z</time>
      </trkpt>
      <trkpt lat="47.03264" lon="2.44755">
        <ele>131</ele>
        <time>2021-08-13T12:40:40Z</time>
      </trkpt>
      <trkpt lat="47.03269" lon="2.4475">
        <ele>131</ele>
        <time>2021-08-13T12:40:40Z</time>
      </trkpt>
      <trkpt lat="47.0328" lon="2.44739">
        <ele>131</ele>
        <time>2021-08-13T12:40:40Z</time>
      </trkpt>
      <trkpt lat="47.03285" lon="2.44733">
        <ele>131</ele>
        <time>2021-08-13T12:40:40Z</time>
      </trkpt>
      <trkpt lat="47.0329" lon="2.44726">
        <ele>131</ele>
        <time>2021-08-13T12:40:40Z</time>
      </trkpt>
      <trkpt lat="47.03294" lon="2.4472">
        <ele>132</ele>
        <time>2021-08-13T12:40:40Z</time>
      </trkpt>
      <trkpt lat="47.03299" lon="2.44714">
        <ele>132</ele>
        <time>2021-08-13T12:40:40Z</time>
      </trkpt>
      <trkpt lat="47.03304" lon="2.44708">
        <ele>132</ele>
        <time>2021-08-13T12:40:40Z</time>
      </trkpt>
      <trkpt lat="47.03309" lon="2.447">
        <ele>132</ele>
        <time>2021-08-13T12:40:40Z</time>
      </trkpt>
      <trkpt lat="47.03314" lon="2.44693">
        <ele>132</ele>
        <time>2021-08-13T12:40:40Z</time>
      </trkpt>
      <trkpt lat="47.03318" lon="2.44686">
        <ele>132</ele>
        <time>2021-08-13T12:40:40Z</time>
      </trkpt>
      <trkpt lat="47.03322" lon="2.4468">
        <ele>132</ele>
        <time>2021-08-13T12:40:40Z</time>
      </trkpt>
      <trkpt lat="47.03327" lon="2.44672">
        <ele>132</ele>
        <time>2021-08-13T12:40:40Z</time>
      </trkpt>
      <trkpt lat="47.0333" lon="2.44664">
        <ele>132</ele>
        <time>2021-08-13T12:40:40Z</time>
      </trkpt>
      <trkpt lat="47.03334" lon="2.44656">
        <ele>132</ele>
        <time>2021-08-13T12:40:40Z</time>
      </trkpt>
      <trkpt lat="47.03338" lon="2.44649">
        <ele>132</ele>
        <time>2021-08-13T12:40:40Z</time>
      </trkpt>
      <trkpt lat="47.03341" lon="2.4464">
        <ele>132</ele>
        <time>2021-08-13T12:40:40Z</time>
      </trkpt>
      <trkpt lat="47.03345" lon="2.44632">
        <ele>132</ele>
        <time>2021-08-13T12:40:40Z</time>
      </trkpt>
      <trkpt lat="47.03356" lon="2.44588">
        <ele>132</ele>
        <time>2021-08-13T12:40:40Z</time>
      </trkpt>
      <trkpt lat="47.03369" lon="2.44543">
        <ele>131</ele>
        <time>2021-08-13T12:40:40Z</time>
      </trkpt>
      <trkpt lat="47.03382" lon="2.44498">
        <ele>131</ele>
        <time>2021-08-13T12:40:40Z</time>
      </trkpt>
      <trkpt lat="47.03395" lon="2.44456">
        <ele>132</ele>
        <time>2021-08-13T12:40:40Z</time>
      </trkpt>
      <trkpt lat="47.03409" lon="2.44415">
        <ele>131</ele>
        <time>2021-08-13T12:40:40Z</time>
      </trkpt>
      <trkpt lat="47.03418" lon="2.44381">
        <ele>130</ele>
        <time>2021-08-13T12:40:40Z</time>
      </trkpt>
      <trkpt lat="47.0342" lon="2.44371">
        <ele>130</ele>
        <time>2021-08-13T12:40:40Z</time>
      </trkpt>
      <trkpt lat="47.03433" lon="2.44326">
        <ele>130</ele>
        <time>2021-08-13T12:40:40Z</time>
      </trkpt>
      <trkpt lat="47.03445" lon="2.44281">
        <ele>132</ele>
        <time>2021-08-13T12:40:40Z</time>
      </trkpt>
      <trkpt lat="47.03457" lon="2.44235">
        <ele>132</ele>
        <time>2021-08-13T12:40:40Z</time>
      </trkpt>
      <trkpt lat="47.03459" lon="2.44227">
        <ele>132</ele>
        <time>2021-08-13T12:40:40Z</time>
      </trkpt>
      <trkpt lat="47.03461" lon="2.44219">
        <ele>132</ele>
        <time>2021-08-13T12:40:40Z</time>
      </trkpt>
      <trkpt lat="47.03463" lon="2.44211">
        <ele>132</ele>
        <time>2021-08-13T12:40:40Z</time>
      </trkpt>
      <trkpt lat="47.03466" lon="2.44205">
        <ele>132</ele>
        <time>2021-08-13T12:40:40Z</time>
      </trkpt>
      <trkpt lat="47.03468" lon="2.44197">
        <ele>132</ele>
        <time>2021-08-13T12:40:40Z</time>
      </trkpt>
      <trkpt lat="47.0347" lon="2.4419">
        <ele>132</ele>
        <time>2021-08-13T12:40:40Z</time>
      </trkpt>
      <trkpt lat="47.03471" lon="2.44182">
        <ele>132</ele>
        <time>2021-08-13T12:40:40Z</time>
      </trkpt>
      <trkpt lat="47.03481" lon="2.44141">
        <ele>132</ele>
        <time>2021-08-13T12:40:40Z</time>
      </trkpt>
      <trkpt lat="47.03493" lon="2.44102">
        <ele>131</ele>
        <time>2021-08-13T12:40:40Z</time>
      </trkpt>
      <trkpt lat="47.03506" lon="2.44057">
        <ele>131</ele>
        <time>2021-08-13T12:40:40Z</time>
      </trkpt>
      <trkpt lat="47.0352" lon="2.44012">
        <ele>131</ele>
        <time>2021-08-13T12:40:40Z</time>
      </trkpt>
      <trkpt lat="47.03526" lon="2.43964">
        <ele>131</ele>
        <time>2021-08-13T12:40:40Z</time>
      </trkpt>
      <trkpt lat="47.03536" lon="2.43927">
        <ele>131</ele>
        <time>2021-08-13T12:40:40Z</time>
      </trkpt>
      <trkpt lat="47.03538" lon="2.43918">
        <ele>131</ele>
        <time>2021-08-13T12:40:40Z</time>
      </trkpt>
      <trkpt lat="47.03541" lon="2.4391">
        <ele>131</ele>
        <time>2021-08-13T12:40:40Z</time>
      </trkpt>
      <trkpt lat="47.03543" lon="2.439">
        <ele>131</ele>
        <time>2021-08-13T12:40:40Z</time>
      </trkpt>
      <trkpt lat="47.03546" lon="2.43892">
        <ele>131</ele>
        <time>2021-08-13T12:40:40Z</time>
      </trkpt>
      <trkpt lat="47.03548" lon="2.43883">
        <ele>131</ele>
        <time>2021-08-13T12:40:40Z</time>
      </trkpt>
      <trkpt lat="47.03551" lon="2.43874">
        <ele>131</ele>
        <time>2021-08-13T12:40:40Z</time>
      </trkpt>
      <trkpt lat="47.03553" lon="2.43865">
        <ele>131</ele>
        <time>2021-08-13T12:40:40Z</time>
      </trkpt>
      <trkpt lat="47.03556" lon="2.43857">
        <ele>131</ele>
        <time>2021-08-13T12:40:40Z</time>
      </trkpt>
      <trkpt lat="47.03559" lon="2.43848">
        <ele>131</ele>
        <time>2021-08-13T12:40:40Z</time>
      </trkpt>
      <trkpt lat="47.03561" lon="2.4384">
        <ele>131</ele>
        <time>2021-08-13T12:40:40Z</time>
      </trkpt>
      <trkpt lat="47.03563" lon="2.43831">
        <ele>131</ele>
        <time>2021-08-13T12:40:40Z</time>
      </trkpt>
      <trkpt lat="47.03566" lon="2.43822">
        <ele>131</ele>
        <time>2021-08-13T12:40:40Z</time>
      </trkpt>
      <trkpt lat="47.03569" lon="2.43813">
        <ele>131</ele>
        <time>2021-08-13T12:40:40Z</time>
      </trkpt>
      <trkpt lat="47.03571" lon="2.43803">
        <ele>131</ele>
        <time>2021-08-13T12:40:40Z</time>
      </trkpt>
      <trkpt lat="47.03573" lon="2.43794">
        <ele>131</ele>
        <time>2021-08-13T12:40:40Z</time>
      </trkpt>
      <trkpt lat="47.03577" lon="2.43786">
        <ele>131</ele>
        <time>2021-08-13T12:40:40Z</time>
      </trkpt>
      <trkpt lat="47.03579" lon="2.43777">
        <ele>131</ele>
        <time>2021-08-13T12:40:40Z</time>
      </trkpt>
      <trkpt lat="47.03581" lon="2.43767">
        <ele>131</ele>
        <time>2021-08-13T12:40:40Z</time>
      </trkpt>
      <trkpt lat="47.03584" lon="2.43758">
        <ele>131</ele>
        <time>2021-08-13T12:40:40Z</time>
      </trkpt>
      <trkpt lat="47.03586" lon="2.43749">
        <ele>131</ele>
        <time>2021-08-13T12:40:40Z</time>
      </trkpt>
      <trkpt lat="47.03587" lon="2.4374">
        <ele>131</ele>
        <time>2021-08-13T12:40:40Z</time>
      </trkpt>
      <trkpt lat="47.0359" lon="2.43731">
        <ele>131</ele>
        <time>2021-08-13T12:40:40Z</time>
      </trkpt>
      <trkpt lat="47.03592" lon="2.43722">
        <ele>131</ele>
        <time>2021-08-13T12:40:40Z</time>
      </trkpt>
      <trkpt lat="47.03595" lon="2.43713">
        <ele>131</ele>
        <time>2021-08-13T12:40:40Z</time>
      </trkpt>
      <trkpt lat="47.03597" lon="2.43704">
        <ele>131</ele>
        <time>2021-08-13T12:40:40Z</time>
      </trkpt>
      <trkpt lat="47.036" lon="2.43696">
        <ele>132</ele>
        <time>2021-08-13T12:40:40Z</time>
      </trkpt>
      <trkpt lat="47.03603" lon="2.43687">
        <ele>132</ele>
        <time>2021-08-13T12:40:40Z</time>
      </trkpt>
      <trkpt lat="47.03606" lon="2.43678">
        <ele>133</ele>
        <time>2021-08-13T12:40:40Z</time>
      </trkpt>
      <trkpt lat="47.03609" lon="2.43669">
        <ele>133</ele>
        <time>2021-08-13T12:40:40Z</time>
      </trkpt>
      <trkpt lat="47.03612" lon="2.43659">
        <ele>134</ele>
        <time>2021-08-13T12:40:40Z</time>
      </trkpt>
      <trkpt lat="47.03614" lon="2.43651">
        <ele>134</ele>
        <time>2021-08-13T12:40:40Z</time>
      </trkpt>
      <trkpt lat="47.03616" lon="2.43642">
        <ele>135</ele>
        <time>2021-08-13T12:40:40Z</time>
      </trkpt>
      <trkpt lat="47.03618" lon="2.43633">
        <ele>135</ele>
        <time>2021-08-13T12:40:40Z</time>
      </trkpt>
      <trkpt lat="47.03622" lon="2.43624">
        <ele>135</ele>
        <time>2021-08-13T12:40:40Z</time>
      </trkpt>
      <trkpt lat="47.03624" lon="2.43615">
        <ele>135</ele>
        <time>2021-08-13T12:40:40Z</time>
      </trkpt>
      <trkpt lat="47.03626" lon="2.43606">
        <ele>135</ele>
        <time>2021-08-13T12:40:40Z</time>
      </trkpt>
      <trkpt lat="47.03629" lon="2.43597">
        <ele>135</ele>
        <time>2021-08-13T12:40:40Z</time>
      </trkpt>
      <trkpt lat="47.03631" lon="2.43587">
        <ele>134</ele>
        <time>2021-08-13T12:40:40Z</time>
      </trkpt>
      <trkpt lat="47.03634" lon="2.4358">
        <ele>134</ele>
        <time>2021-08-13T12:40:40Z</time>
      </trkpt>
      <trkpt lat="47.03638" lon="2.43572">
        <ele>134</ele>
        <time>2021-08-13T12:40:40Z</time>
      </trkpt>
      <trkpt lat="47.03641" lon="2.43564">
        <ele>134</ele>
        <time>2021-08-13T12:40:40Z</time>
      </trkpt>
      <trkpt lat="47.03643" lon="2.43554">
        <ele>134</ele>
        <time>2021-08-13T12:40:40Z</time>
      </trkpt>
      <trkpt lat="47.03644" lon="2.43545">
        <ele>134</ele>
        <time>2021-08-13T12:40:40Z</time>
      </trkpt>
      <trkpt lat="47.03644" lon="2.43535">
        <ele>134</ele>
        <time>2021-08-13T12:40:40Z</time>
      </trkpt>
      <trkpt lat="47.03644" lon="2.43525">
        <ele>134</ele>
        <time>2021-08-13T12:40:40Z</time>
      </trkpt>
      <trkpt lat="47.03645" lon="2.43516">
        <ele>134</ele>
        <time>2021-08-13T12:40:40Z</time>
      </trkpt>
      <trkpt lat="47.03648" lon="2.43506">
        <ele>134</ele>
        <time>2021-08-13T12:40:40Z</time>
      </trkpt>
      <trkpt lat="47.03651" lon="2.43497">
        <ele>134</ele>
        <time>2021-08-13T12:40:40Z</time>
      </trkpt>
      <trkpt lat="47.03654" lon="2.43489">
        <ele>134</ele>
        <time>2021-08-13T12:40:40Z</time>
      </trkpt>
      <trkpt lat="47.03659" lon="2.43484">
        <ele>134</ele>
        <time>2021-08-13T12:40:40Z</time>
      </trkpt>
      <trkpt lat="47.03663" lon="2.43477">
        <ele>134</ele>
        <time>2021-08-13T12:40:40Z</time>
      </trkpt>
      <trkpt lat="47.03667" lon="2.43469">
        <ele>133</ele>
        <time>2021-08-13T12:40:40Z</time>
      </trkpt>
      <trkpt lat="47.03671" lon="2.4346">
        <ele>133</ele>
        <time>2021-08-13T12:40:40Z</time>
      </trkpt>
      <trkpt lat="47.03674" lon="2.43451">
        <ele>133</ele>
        <time>2021-08-13T12:40:40Z</time>
      </trkpt>
      <trkpt lat="47.03676" lon="2.43441">
        <ele>132</ele>
        <time>2021-08-13T12:40:40Z</time>
      </trkpt>
      <trkpt lat="47.03679" lon="2.43431">
        <ele>132</ele>
        <time>2021-08-13T12:40:40Z</time>
      </trkpt>
      <trkpt lat="47.03681" lon="2.43423">
        <ele>131</ele>
        <time>2021-08-13T12:40:40Z</time>
      </trkpt>
      <trkpt lat="47.03684" lon="2.43413">
        <ele>131</ele>
        <time>2021-08-13T12:40:40Z</time>
      </trkpt>
      <trkpt lat="47.03682" lon="2.43403">
        <ele>132</ele>
        <time>2021-08-13T12:40:40Z</time>
      </trkpt>
      <trkpt lat="47.03683" lon="2.43395">
        <ele>132</ele>
        <time>2021-08-13T12:40:40Z</time>
      </trkpt>
      <trkpt lat="47.03684" lon="2.43387">
        <ele>132</ele>
        <time>2021-08-13T12:40:40Z</time>
      </trkpt>
      <trkpt lat="47.03684" lon="2.43378">
        <ele>133</ele>
        <time>2021-08-13T12:40:40Z</time>
      </trkpt>
      <trkpt lat="47.03686" lon="2.43369">
        <ele>133</ele>
        <time>2021-08-13T12:40:40Z</time>
      </trkpt>
      <trkpt lat="47.03698" lon="2.43326">
        <ele>132</ele>
        <time>2021-08-13T12:40:40Z</time>
      </trkpt>
      <trkpt lat="47.03711" lon="2.43281">
        <ele>131</ele>
        <time>2021-08-13T12:40:40Z</time>
      </trkpt>
      <trkpt lat="47.03726" lon="2.43235">
        <ele>129</ele>
        <time>2021-08-13T12:40:40Z</time>
      </trkpt>
      <trkpt lat="47.03738" lon="2.43192">
        <ele>129</ele>
        <time>2021-08-13T12:40:40Z</time>
      </trkpt>
      <trkpt lat="47.03751" lon="2.43146">
        <ele>129</ele>
        <time>2021-08-13T12:40:40Z</time>
      </trkpt>
      <trkpt lat="47.03757" lon="2.4313">
        <ele>130</ele>
        <time>2021-08-13T12:40:40Z</time>
      </trkpt>
      <trkpt lat="47.03759" lon="2.43122">
        <ele>130</ele>
        <time>2021-08-13T12:40:40Z</time>
      </trkpt>
      <trkpt lat="47.03761" lon="2.43115">
        <ele>131</ele>
        <time>2021-08-13T12:40:40Z</time>
      </trkpt>
      <trkpt lat="47.03763" lon="2.43107">
        <ele>131</ele>
        <time>2021-08-13T12:40:40Z</time>
      </trkpt>
      <trkpt lat="47.03765" lon="2.43099">
        <ele>131</ele>
        <time>2021-08-13T12:40:40Z</time>
      </trkpt>
      <trkpt lat="47.03768" lon="2.43091">
        <ele>131</ele>
        <time>2021-08-13T12:40:40Z</time>
      </trkpt>
      <trkpt lat="47.0377" lon="2.43081">
        <ele>131</ele>
        <time>2021-08-13T12:40:40Z</time>
      </trkpt>
      <trkpt lat="47.03771" lon="2.43073">
        <ele>131</ele>
        <time>2021-08-13T12:40:40Z</time>
      </trkpt>
      <trkpt lat="47.03774" lon="2.43065">
        <ele>131</ele>
        <time>2021-08-13T12:40:40Z</time>
      </trkpt>
      <trkpt lat="47.03793" lon="2.43028">
        <ele>130</ele>
        <time>2021-08-13T12:40:40Z</time>
      </trkpt>
      <trkpt lat="47.03807" lon="2.42983">
        <ele>130</ele>
        <time>2021-08-13T12:40:40Z</time>
      </trkpt>
      <trkpt lat="47.0382" lon="2.42937">
        <ele>129</ele>
        <time>2021-08-13T12:40:40Z</time>
      </trkpt>
      <trkpt lat="47.03831" lon="2.42896">
        <ele>129</ele>
        <time>2021-08-13T12:40:40Z</time>
      </trkpt>
      <trkpt lat="47.03843" lon="2.42851">
        <ele>131</ele>
        <time>2021-08-13T12:40:40Z</time>
      </trkpt>
      <trkpt lat="47.03853" lon="2.42815">
        <ele>131</ele>
        <time>2021-08-13T12:40:40Z</time>
      </trkpt>
      <trkpt lat="47.03856" lon="2.42806">
        <ele>131</ele>
        <time>2021-08-13T12:40:40Z</time>
      </trkpt>
      <trkpt lat="47.03861" lon="2.42791">
        <ele>131</ele>
        <time>2021-08-13T12:40:40Z</time>
      </trkpt>
      <trkpt lat="47.03864" lon="2.42782">
        <ele>131</ele>
        <time>2021-08-13T12:40:40Z</time>
      </trkpt>
      <trkpt lat="47.03866" lon="2.42774">
        <ele>131</ele>
        <time>2021-08-13T12:40:40Z</time>
      </trkpt>
      <trkpt lat="47.03869" lon="2.42765">
        <ele>131</ele>
        <time>2021-08-13T12:40:40Z</time>
      </trkpt>
      <trkpt lat="47.03871" lon="2.42757">
        <ele>131</ele>
        <time>2021-08-13T12:40:40Z</time>
      </trkpt>
      <trkpt lat="47.03873" lon="2.42748">
        <ele>132</ele>
        <time>2021-08-13T12:40:40Z</time>
      </trkpt>
      <trkpt lat="47.03875" lon="2.42739">
        <ele>132</ele>
        <time>2021-08-13T12:40:40Z</time>
      </trkpt>
      <trkpt lat="47.03878" lon="2.42729">
        <ele>132</ele>
        <time>2021-08-13T12:40:40Z</time>
      </trkpt>
      <trkpt lat="47.03881" lon="2.42721">
        <ele>132</ele>
        <time>2021-08-13T12:40:40Z</time>
      </trkpt>
      <trkpt lat="47.03883" lon="2.42712">
        <ele>131</ele>
        <time>2021-08-13T12:40:40Z</time>
      </trkpt>
      <trkpt lat="47.03886" lon="2.42704">
        <ele>131</ele>
        <time>2021-08-13T12:40:40Z</time>
      </trkpt>
      <trkpt lat="47.03889" lon="2.42695">
        <ele>130</ele>
        <time>2021-08-13T12:40:40Z</time>
      </trkpt>
      <trkpt lat="47.03892" lon="2.42686">
        <ele>131</ele>
        <time>2021-08-13T12:40:40Z</time>
      </trkpt>
      <trkpt lat="47.03894" lon="2.42678">
        <ele>131</ele>
        <time>2021-08-13T12:40:40Z</time>
      </trkpt>
      <trkpt lat="47.03896" lon="2.42669">
        <ele>131</ele>
        <time>2021-08-13T12:40:40Z</time>
      </trkpt>
      <trkpt lat="47.03899" lon="2.4266">
        <ele>131</ele>
        <time>2021-08-13T12:40:40Z</time>
      </trkpt>
      <trkpt lat="47.039" lon="2.42651">
        <ele>131</ele>
        <time>2021-08-13T12:40:40Z</time>
      </trkpt>
      <trkpt lat="47.03901" lon="2.42642">
        <ele>132</ele>
        <time>2021-08-13T12:40:40Z</time>
      </trkpt>
      <trkpt lat="47.03901" lon="2.42633">
        <ele>132</ele>
        <time>2021-08-13T12:40:40Z</time>
      </trkpt>
      <trkpt lat="47.03902" lon="2.42624">
        <ele>133</ele>
        <time>2021-08-13T12:40:40Z</time>
      </trkpt>
      <trkpt lat="47.03902" lon="2.42614">
        <ele>133</ele>
        <time>2021-08-13T12:40:40Z</time>
      </trkpt>
      <trkpt lat="47.03905" lon="2.42605">
        <ele>133</ele>
        <time>2021-08-13T12:40:40Z</time>
      </trkpt>
      <trkpt lat="47.03908" lon="2.42596">
        <ele>133</ele>
        <time>2021-08-13T12:40:40Z</time>
      </trkpt>
      <trkpt lat="47.0391" lon="2.42587">
        <ele>133</ele>
        <time>2021-08-13T12:40:40Z</time>
      </trkpt>
      <trkpt lat="47.03913" lon="2.42578">
        <ele>133</ele>
        <time>2021-08-13T12:40:40Z</time>
      </trkpt>
      <trkpt lat="47.03916" lon="2.42569">
        <ele>133</ele>
        <time>2021-08-13T12:40:40Z</time>
      </trkpt>
      <trkpt lat="47.03919" lon="2.42561">
        <ele>132</ele>
        <time>2021-08-13T12:40:40Z</time>
      </trkpt>
      <trkpt lat="47.03923" lon="2.42553">
        <ele>132</ele>
        <time>2021-08-13T12:40:40Z</time>
      </trkpt>
      <trkpt lat="47.03926" lon="2.42546">
        <ele>132</ele>
        <time>2021-08-13T12:40:40Z</time>
      </trkpt>
      <trkpt lat="47.0393" lon="2.42539">
        <ele>131</ele>
        <time>2021-08-13T12:40:40Z</time>
      </trkpt>
      <trkpt lat="47.03934" lon="2.42531">
        <ele>131</ele>
        <time>2021-08-13T12:40:40Z</time>
      </trkpt>
      <trkpt lat="47.03937" lon="2.42523">
        <ele>130</ele>
        <time>2021-08-13T12:40:40Z</time>
      </trkpt>
      <trkpt lat="47.0394" lon="2.42515">
        <ele>130</ele>
        <time>2021-08-13T12:40:40Z</time>
      </trkpt>
      <trkpt lat="47.03944" lon="2.42508">
        <ele>130</ele>
        <time>2021-08-13T12:40:40Z</time>
      </trkpt>
      <trkpt lat="47.03948" lon="2.425">
        <ele>129</ele>
        <time>2021-08-13T12:40:40Z</time>
      </trkpt>
      <trkpt lat="47.03952" lon="2.42493">
        <ele>129</ele>
        <time>2021-08-13T12:40:40Z</time>
      </trkpt>
      <trkpt lat="47.03955" lon="2.42485">
        <ele>129</ele>
        <time>2021-08-13T12:40:40Z</time>
      </trkpt>
      <trkpt lat="47.03959" lon="2.42476">
        <ele>129</ele>
        <time>2021-08-13T12:40:40Z</time>
      </trkpt>
      <trkpt lat="47.03963" lon="2.42469">
        <ele>129</ele>
        <time>2021-08-13T12:40:40Z</time>
      </trkpt>
      <trkpt lat="47.03966" lon="2.42461">
        <ele>129</ele>
        <time>2021-08-13T12:40:40Z</time>
      </trkpt>
      <trkpt lat="47.0397" lon="2.42454">
        <ele>129</ele>
        <time>2021-08-13T12:40:40Z</time>
      </trkpt>
      <trkpt lat="47.03973" lon="2.42447">
        <ele>129</ele>
        <time>2021-08-13T12:40:40Z</time>
      </trkpt>
      <trkpt lat="47.03976" lon="2.42439">
        <ele>130</ele>
        <time>2021-08-13T12:40:40Z</time>
      </trkpt>
      <trkpt lat="47.03981" lon="2.42432">
        <ele>130</ele>
        <time>2021-08-13T12:40:40Z</time>
      </trkpt>
      <trkpt lat="47.03984" lon="2.42424">
        <ele>130</ele>
        <time>2021-08-13T12:40:40Z</time>
      </trkpt>
      <trkpt lat="47.03988" lon="2.42417">
        <ele>130</ele>
        <time>2021-08-13T12:40:40Z</time>
      </trkpt>
      <trkpt lat="47.03991" lon="2.42409">
        <ele>130</ele>
        <time>2021-08-13T12:40:40Z</time>
      </trkpt>
      <trkpt lat="47.03995" lon="2.42401">
        <ele>130</ele>
        <time>2021-08-13T12:40:40Z</time>
      </trkpt>
      <trkpt lat="47.03999" lon="2.42393">
        <ele>130</ele>
        <time>2021-08-13T12:40:40Z</time>
      </trkpt>
      <trkpt lat="47.04004" lon="2.42386">
        <ele>130</ele>
        <time>2021-08-13T12:40:40Z</time>
      </trkpt>
      <trkpt lat="47.04008" lon="2.42378">
        <ele>130</ele>
        <time>2021-08-13T12:40:40Z</time>
      </trkpt>
      <trkpt lat="47.04012" lon="2.42369">
        <ele>130</ele>
        <time>2021-08-13T12:40:40Z</time>
      </trkpt>
      <trkpt lat="47.04016" lon="2.42361">
        <ele>131</ele>
        <time>2021-08-13T12:40:40Z</time>
      </trkpt>
      <trkpt lat="47.0402" lon="2.42353">
        <ele>131</ele>
        <time>2021-08-13T12:40:40Z</time>
      </trkpt>
      <trkpt lat="47.04023" lon="2.42346">
        <ele>131</ele>
        <time>2021-08-13T12:40:40Z</time>
      </trkpt>
      <trkpt lat="47.04027" lon="2.42338">
        <ele>131</ele>
        <time>2021-08-13T12:40:40Z</time>
      </trkpt>
      <trkpt lat="47.04031" lon="2.4233">
        <ele>132</ele>
        <time>2021-08-13T12:40:40Z</time>
      </trkpt>
      <trkpt lat="47.04035" lon="2.42322">
        <ele>132</ele>
        <time>2021-08-13T12:40:40Z</time>
      </trkpt>
      <trkpt lat="47.04038" lon="2.42315">
        <ele>132</ele>
        <time>2021-08-13T12:40:40Z</time>
      </trkpt>
      <trkpt lat="47.04042" lon="2.42306">
        <ele>132</ele>
        <time>2021-08-13T12:40:40Z</time>
      </trkpt>
      <trkpt lat="47.04046" lon="2.42298">
        <ele>131</ele>
        <time>2021-08-13T12:40:40Z</time>
      </trkpt>
      <trkpt lat="47.04064" lon="2.4226">
        <ele>133</ele>
        <time>2021-08-13T12:40:40Z</time>
      </trkpt>
      <trkpt lat="47.0408" lon="2.42225">
        <ele>134</ele>
        <time>2021-08-13T12:40:40Z</time>
      </trkpt>
      <trkpt lat="47.04098" lon="2.42187">
        <ele>135</ele>
        <time>2021-08-13T12:40:40Z</time>
      </trkpt>
      <trkpt lat="47.04117" lon="2.42152">
        <ele>135</ele>
        <time>2021-08-13T12:40:40Z</time>
      </trkpt>
      <trkpt lat="47.04136" lon="2.42114">
        <ele>134</ele>
        <time>2021-08-13T12:40:40Z</time>
      </trkpt>
      <trkpt lat="47.04151" lon="2.42083">
        <ele>135</ele>
        <time>2021-08-13T12:40:40Z</time>
      </trkpt>
      <trkpt lat="47.04155" lon="2.42075">
        <ele>135</ele>
        <time>2021-08-13T12:40:40Z</time>
      </trkpt>
      <trkpt lat="47.04174" lon="2.42035">
        <ele>134</ele>
        <time>2021-08-13T12:40:40Z</time>
      </trkpt>
      <trkpt lat="47.04191" lon="2.41991">
        <ele>134</ele>
        <time>2021-08-13T12:40:40Z</time>
      </trkpt>
      <trkpt lat="47.0421" lon="2.41954">
        <ele>134</ele>
        <time>2021-08-13T12:40:40Z</time>
      </trkpt>
      <trkpt lat="47.04228" lon="2.41915">
        <ele>134</ele>
        <time>2021-08-13T12:40:40Z</time>
      </trkpt>
      <trkpt lat="47.04245" lon="2.41873">
        <ele>134</ele>
        <time>2021-08-13T12:40:40Z</time>
      </trkpt>
      <trkpt lat="47.04267" lon="2.41854">
        <ele>133</ele>
        <time>2021-08-13T12:40:40Z</time>
      </trkpt>
      <trkpt lat="47.04272" lon="2.4185">
        <ele>133</ele>
        <time>2021-08-13T12:40:40Z</time>
      </trkpt>
      <trkpt lat="47.04287" lon="2.41818">
        <ele>133</ele>
        <time>2021-08-13T12:40:40Z</time>
      </trkpt>
      <trkpt lat="47.04288" lon="2.41777">
        <ele>133</ele>
        <time>2021-08-13T12:40:40Z</time>
      </trkpt>
      <trkpt lat="47.04303" lon="2.41738">
        <ele>134</ele>
        <time>2021-08-13T12:40:40Z</time>
      </trkpt>
      <trkpt lat="47.04325" lon="2.417">
        <ele>136</ele>
        <time>2021-08-13T12:40:40Z</time>
      </trkpt>
      <trkpt lat="47.04343" lon="2.41668">
        <ele>135</ele>
        <time>2021-08-13T12:40:40Z</time>
      </trkpt>
      <trkpt lat="47.04354" lon="2.41638">
        <ele>134</ele>
        <time>2021-08-13T12:40:40Z</time>
      </trkpt>
      <trkpt lat="47.04354" lon="2.41628">
        <ele>134</ele>
        <time>2021-08-13T12:40:40Z</time>
      </trkpt>
      <trkpt lat="47.04357" lon="2.41607">
        <ele>133</ele>
        <time>2021-08-13T12:40:40Z</time>
      </trkpt>
      <trkpt lat="47.04359" lon="2.41599">
        <ele>133</ele>
        <time>2021-08-13T12:40:40Z</time>
      </trkpt>
      <trkpt lat="47.04363" lon="2.41591">
        <ele>134</ele>
        <time>2021-08-13T12:40:40Z</time>
      </trkpt>
      <trkpt lat="47.04365" lon="2.41582">
        <ele>134</ele>
        <time>2021-08-13T12:40:40Z</time>
      </trkpt>
      <trkpt lat="47.04369" lon="2.41573">
        <ele>134</ele>
        <time>2021-08-13T12:40:40Z</time>
      </trkpt>
      <trkpt lat="47.04372" lon="2.41566">
        <ele>134</ele>
        <time>2021-08-13T12:40:40Z</time>
      </trkpt>
      <trkpt lat="47.04374" lon="2.41556">
        <ele>133</ele>
        <time>2021-08-13T12:40:40Z</time>
      </trkpt>
      <trkpt lat="47.04377" lon="2.41548">
        <ele>134</ele>
        <time>2021-08-13T12:40:40Z</time>
      </trkpt>
      <trkpt lat="47.0438" lon="2.4154">
        <ele>134</ele>
        <time>2021-08-13T12:40:40Z</time>
      </trkpt>
      <trkpt lat="47.04383" lon="2.41531">
        <ele>134</ele>
        <time>2021-08-13T12:40:40Z</time>
      </trkpt>
      <trkpt lat="47.04387" lon="2.41526">
        <ele>134</ele>
        <time>2021-08-13T12:40:40Z</time>
      </trkpt>
      <trkpt lat="47.04395" lon="2.41523">
        <ele>135</ele>
        <time>2021-08-13T12:40:40Z</time>
      </trkpt>
      <trkpt lat="47.04398" lon="2.41516">
        <ele>135</ele>
        <time>2021-08-13T12:40:40Z</time>
      </trkpt>
      <trkpt lat="47.04404" lon="2.4151">
        <ele>135</ele>
        <time>2021-08-13T12:40:40Z</time>
      </trkpt>
      <trkpt lat="47.04405" lon="2.41501">
        <ele>135</ele>
        <time>2021-08-13T12:40:40Z</time>
      </trkpt>
      <trkpt lat="47.04408" lon="2.41493">
        <ele>134</ele>
        <time>2021-08-13T12:40:40Z</time>
      </trkpt>
      <trkpt lat="47.0441" lon="2.41484">
        <ele>134</ele>
        <time>2021-08-13T12:40:40Z</time>
      </trkpt>
      <trkpt lat="47.04411" lon="2.41475">
        <ele>133</ele>
        <time>2021-08-13T12:40:40Z</time>
      </trkpt>
      <trkpt lat="47.04413" lon="2.41466">
        <ele>133</ele>
        <time>2021-08-13T12:40:40Z</time>
      </trkpt>
      <trkpt lat="47.04417" lon="2.41457">
        <ele>133</ele>
        <time>2021-08-13T12:40:40Z</time>
      </trkpt>
      <trkpt lat="47.04417" lon="2.41449">
        <ele>133</ele>
        <time>2021-08-13T12:40:40Z</time>
      </trkpt>
      <trkpt lat="47.0442" lon="2.41441">
        <ele>133</ele>
        <time>2021-08-13T12:40:40Z</time>
      </trkpt>
      <trkpt lat="47.04422" lon="2.41433">
        <ele>132</ele>
        <time>2021-08-13T12:40:40Z</time>
      </trkpt>
      <trkpt lat="47.04424" lon="2.41424">
        <ele>132</ele>
        <time>2021-08-13T12:40:40Z</time>
      </trkpt>
      <trkpt lat="47.04425" lon="2.41416">
        <ele>132</ele>
        <time>2021-08-13T12:40:40Z</time>
      </trkpt>
      <trkpt lat="47.04426" lon="2.41404">
        <ele>132</ele>
        <time>2021-08-13T12:40:40Z</time>
      </trkpt>
      <trkpt lat="47.04429" lon="2.41396">
        <ele>131</ele>
        <time>2021-08-13T12:40:40Z</time>
      </trkpt>
      <trkpt lat="47.0443" lon="2.41386">
        <ele>131</ele>
        <time>2021-08-13T12:40:40Z</time>
      </trkpt>
      <trkpt lat="47.04432" lon="2.41377">
        <ele>132</ele>
        <time>2021-08-13T12:40:40Z</time>
      </trkpt>
      <trkpt lat="47.04433" lon="2.41367">
        <ele>132</ele>
        <time>2021-08-13T12:40:40Z</time>
      </trkpt>
      <trkpt lat="47.04435" lon="2.41359">
        <ele>132</ele>
        <time>2021-08-13T12:40:40Z</time>
      </trkpt>
      <trkpt lat="47.04438" lon="2.41351">
        <ele>132</ele>
        <time>2021-08-13T12:40:40Z</time>
      </trkpt>
      <trkpt lat="47.0444" lon="2.41342">
        <ele>132</ele>
        <time>2021-08-13T12:40:40Z</time>
      </trkpt>
      <trkpt lat="47.04442" lon="2.41333">
        <ele>132</ele>
        <time>2021-08-13T12:40:40Z</time>
      </trkpt>
      <trkpt lat="47.04444" lon="2.41324">
        <ele>132</ele>
        <time>2021-08-13T12:40:40Z</time>
      </trkpt>
      <trkpt lat="47.04445" lon="2.41317">
        <ele>133</ele>
        <time>2021-08-13T12:40:40Z</time>
      </trkpt>
      <trkpt lat="47.04448" lon="2.41308">
        <ele>133</ele>
        <time>2021-08-13T12:40:40Z</time>
      </trkpt>
      <trkpt lat="47.04449" lon="2.413">
        <ele>132</ele>
        <time>2021-08-13T12:40:40Z</time>
      </trkpt>
      <trkpt lat="47.0445" lon="2.4129">
        <ele>132</ele>
        <time>2021-08-13T12:40:40Z</time>
      </trkpt>
      <trkpt lat="47.04452" lon="2.41283">
        <ele>132</ele>
        <time>2021-08-13T12:40:40Z</time>
      </trkpt>
      <trkpt lat="47.04454" lon="2.41275">
        <ele>132</ele>
        <time>2021-08-13T12:40:40Z</time>
      </trkpt>
      <trkpt lat="47.04456" lon="2.41266">
        <ele>131</ele>
        <time>2021-08-13T12:40:40Z</time>
      </trkpt>
      <trkpt lat="47.04456" lon="2.41259">
        <ele>131</ele>
        <time>2021-08-13T12:40:40Z</time>
      </trkpt>
      <trkpt lat="47.04458" lon="2.41253">
        <ele>131</ele>
        <time>2021-08-13T12:40:40Z</time>
      </trkpt>
      <trkpt lat="47.0446" lon="2.41246">
        <ele>131</ele>
        <time>2021-08-13T12:40:40Z</time>
      </trkpt>
      <trkpt lat="47.04461" lon="2.41237">
        <ele>131</ele>
        <time>2021-08-13T12:40:40Z</time>
      </trkpt>
      <trkpt lat="47.04464" lon="2.41227">
        <ele>131</ele>
        <time>2021-08-13T12:40:40Z</time>
      </trkpt>
      <trkpt lat="47.04466" lon="2.41219">
        <ele>131</ele>
        <time>2021-08-13T12:40:40Z</time>
      </trkpt>
      <trkpt lat="47.04468" lon="2.41211">
        <ele>131</ele>
        <time>2021-08-13T12:40:40Z</time>
      </trkpt>
      <trkpt lat="47.04477" lon="2.41169">
        <ele>132</ele>
        <time>2021-08-13T12:40:40Z</time>
      </trkpt>
      <trkpt lat="47.04476" lon="2.41137">
        <ele>132</ele>
        <time>2021-08-13T12:40:40Z</time>
      </trkpt>
      <trkpt lat="47.04484" lon="2.41105">
        <ele>132</ele>
        <time>2021-08-13T12:40:40Z</time>
      </trkpt>
      <trkpt lat="47.04494" lon="2.41072">
        <ele>131</ele>
        <time>2021-08-13T12:40:40Z</time>
      </trkpt>
      <trkpt lat="47.04498" lon="2.4105">
        <ele>131</ele>
        <time>2021-08-13T12:40:40Z</time>
      </trkpt>
      <trkpt lat="47.04497" lon="2.41045">
        <ele>131</ele>
        <time>2021-08-13T12:40:40Z</time>
      </trkpt>
      <trkpt lat="47.04497" lon="2.41046">
        <ele>131</ele>
        <time>2021-08-13T12:40:40Z</time>
      </trkpt>
      <trkpt lat="47.04498" lon="2.41047">
        <ele>131</ele>
        <time>2021-08-13T12:40:40Z</time>
      </trkpt>
      <trkpt lat="47.04499" lon="2.41047">
        <ele>131</ele>
        <time>2021-08-13T12:40:40Z</time>
      </trkpt>
      <trkpt lat="47.04499" lon="2.41047">
        <ele>131</ele>
        <time>2021-08-13T12:40:40Z</time>
      </trkpt>
      <trkpt lat="47.04499" lon="2.41047">
        <ele>131</ele>
        <time>2021-08-13T12:40:40Z</time>
      </trkpt>
      <trkpt lat="47.04499" lon="2.41047">
        <ele>131</ele>
        <time>2021-08-13T12:40:40Z</time>
      </trkpt>
      <trkpt lat="47.04499" lon="2.41047">
        <ele>131</ele>
        <time>2021-08-13T12:40:40Z</time>
      </trkpt>
      <trkpt lat="47.04499" lon="2.41047">
        <ele>131</ele>
        <time>2021-08-13T12:40:40Z</time>
      </trkpt>
      <trkpt lat="47.04499" lon="2.41047">
        <ele>131</ele>
        <time>2021-08-13T12:40:40Z</time>
      </trkpt>
      <trkpt lat="47.04499" lon="2.41047">
        <ele>131</ele>
        <time>2021-08-13T12:40:40Z</time>
      </trkpt>
      <trkpt lat="47.04499" lon="2.41047">
        <ele>131</ele>
        <time>2021-08-13T12:40:40Z</time>
      </trkpt>
      <trkpt lat="47.04499" lon="2.41047">
        <ele>131</ele>
        <time>2021-08-13T12:40:40Z</time>
      </trkpt>
      <trkpt lat="47.04499" lon="2.41047">
        <ele>131</ele>
        <time>2021-08-13T12:40:40Z</time>
      </trkpt>
      <trkpt lat="47.04499" lon="2.41047">
        <ele>131</ele>
        <time>2021-08-13T12:40:40Z</time>
      </trkpt>
      <trkpt lat="47.04499" lon="2.41046">
        <ele>131</ele>
        <time>2021-08-13T12:40:40Z</time>
      </trkpt>
      <trkpt lat="47.04499" lon="2.41044">
        <ele>131</ele>
        <time>2021-08-13T12:40:40Z</time>
      </trkpt>
      <trkpt lat="47.045" lon="2.41041">
        <ele>131</ele>
        <time>2021-08-13T12:40:40Z</time>
      </trkpt>
      <trkpt lat="47.045" lon="2.41037">
        <ele>131</ele>
        <time>2021-08-13T12:40:40Z</time>
      </trkpt>
      <trkpt lat="47.04502" lon="2.41032">
        <ele>131</ele>
        <time>2021-08-13T12:40:40Z</time>
      </trkpt>
      <trkpt lat="47.04505" lon="2.41028">
        <ele>131</ele>
        <time>2021-08-13T12:40:40Z</time>
      </trkpt>
      <trkpt lat="47.04508" lon="2.41022">
        <ele>131</ele>
        <time>2021-08-13T12:40:40Z</time>
      </trkpt>
      <trkpt lat="47.04521" lon="2.40986">
        <ele>131</ele>
        <time>2021-08-13T12:40:40Z</time>
      </trkpt>
      <trkpt lat="47.04532" lon="2.40946">
        <ele>132</ele>
        <time>2021-08-13T12:40:40Z</time>
      </trkpt>
      <trkpt lat="47.04546" lon="2.40905">
        <ele>132</ele>
        <time>2021-08-13T12:40:40Z</time>
      </trkpt>
      <trkpt lat="47.04557" lon="2.40861">
        <ele>131</ele>
        <time>2021-08-13T12:40:40Z</time>
      </trkpt>
      <trkpt lat="47.04542" lon="2.40816">
        <ele>129</ele>
        <time>2021-08-13T12:40:40Z</time>
      </trkpt>
      <trkpt lat="47.04529" lon="2.40789">
        <ele>133</ele>
        <time>2021-08-13T12:40:40Z</time>
      </trkpt>
      <trkpt lat="47.04527" lon="2.40784">
        <ele>134</ele>
        <time>2021-08-13T12:40:40Z</time>
      </trkpt>
      <trkpt lat="47.04523" lon="2.40776">
        <ele>134</ele>
        <time>2021-08-13T12:40:40Z</time>
      </trkpt>
      <trkpt lat="47.0452" lon="2.40765">
        <ele>134</ele>
        <time>2021-08-13T12:40:40Z</time>
      </trkpt>
      <trkpt lat="47.04515" lon="2.40756">
        <ele>135</ele>
        <time>2021-08-13T12:40:40Z</time>
      </trkpt>
      <trkpt lat="47.04512" lon="2.40747">
        <ele>135</ele>
        <time>2021-08-13T12:40:40Z</time>
      </trkpt>
      <trkpt lat="47.04509" lon="2.4074">
        <ele>135</ele>
        <time>2021-08-13T12:40:40Z</time>
      </trkpt>
      <trkpt lat="47.04505" lon="2.40731">
        <ele>135</ele>
        <time>2021-08-13T12:40:40Z</time>
      </trkpt>
      <trkpt lat="47.04485" lon="2.40693">
        <ele>134</ele>
        <time>2021-08-13T12:40:40Z</time>
      </trkpt>
      <trkpt lat="47.04459" lon="2.40667">
        <ele>130</ele>
        <time>2021-08-13T12:40:40Z</time>
      </trkpt>
      <trkpt lat="47.04432" lon="2.40687">
        <ele>128</ele>
        <time>2021-08-13T12:40:40Z</time>
      </trkpt>
      <trkpt lat="47.04408" lon="2.40713">
        <ele>128</ele>
        <time>2021-08-13T12:40:40Z</time>
      </trkpt>
      <trkpt lat="47.04381" lon="2.40735">
        <ele>129</ele>
        <time>2021-08-13T12:40:40Z</time>
      </trkpt>
      <trkpt lat="47.04356" lon="2.4074">
        <ele>130</ele>
        <time>2021-08-13T12:40:40Z</time>
      </trkpt>
      <trkpt lat="47.0435" lon="2.40741">
        <ele>130</ele>
        <time>2021-08-13T12:40:40Z</time>
      </trkpt>
      <trkpt lat="47.04343" lon="2.40741">
        <ele>130</ele>
        <time>2021-08-13T12:40:40Z</time>
      </trkpt>
      <trkpt lat="47.04337" lon="2.40742">
        <ele>130</ele>
        <time>2021-08-13T12:40:40Z</time>
      </trkpt>
      <trkpt lat="47.0433" lon="2.40743">
        <ele>130</ele>
        <time>2021-08-13T12:40:40Z</time>
      </trkpt>
      <trkpt lat="47.04324" lon="2.40742">
        <ele>130</ele>
        <time>2021-08-13T12:40:40Z</time>
      </trkpt>
      <trkpt lat="47.04317" lon="2.40741">
        <ele>130</ele>
        <time>2021-08-13T12:40:40Z</time>
      </trkpt>
      <trkpt lat="47.04311" lon="2.40738">
        <ele>129</ele>
        <time>2021-08-13T12:40:40Z</time>
      </trkpt>
      <trkpt lat="47.04304" lon="2.40733">
        <ele>128</ele>
        <time>2021-08-13T12:40:40Z</time>
      </trkpt>
      <trkpt lat="47.04298" lon="2.40728">
        <ele>126</ele>
        <time>2021-08-13T12:40:40Z</time>
      </trkpt>
      <trkpt lat="47.04292" lon="2.40722">
        <ele>126</ele>
        <time>2021-08-13T12:40:40Z</time>
      </trkpt>
      <trkpt lat="47.04286" lon="2.40717">
        <ele>126</ele>
        <time>2021-08-13T12:40:40Z</time>
      </trkpt>
      <trkpt lat="47.0428" lon="2.40711">
        <ele>126</ele>
        <time>2021-08-13T12:40:40Z</time>
      </trkpt>
      <trkpt lat="47.04273" lon="2.40705">
        <ele>126</ele>
        <time>2021-08-13T12:40:40Z</time>
      </trkpt>
      <trkpt lat="47.04261" lon="2.40695">
        <ele>126</ele>
        <time>2021-08-13T12:40:40Z</time>
      </trkpt>
      <trkpt lat="47.04255" lon="2.40689">
        <ele>126</ele>
        <time>2021-08-13T12:40:40Z</time>
      </trkpt>
      <trkpt lat="47.04249" lon="2.40685">
        <ele>126</ele>
        <time>2021-08-13T12:40:40Z</time>
      </trkpt>
      <trkpt lat="47.04243" lon="2.4068">
        <ele>126</ele>
        <time>2021-08-13T12:40:40Z</time>
      </trkpt>
      <trkpt lat="47.04237" lon="2.40675">
        <ele>126</ele>
        <time>2021-08-13T12:40:40Z</time>
      </trkpt>
      <trkpt lat="47.04231" lon="2.4067">
        <ele>126</ele>
        <time>2021-08-13T12:40:40Z</time>
      </trkpt>
      <trkpt lat="47.04225" lon="2.40665">
        <ele>126</ele>
        <time>2021-08-13T12:40:40Z</time>
      </trkpt>
      <trkpt lat="47.04219" lon="2.40659">
        <ele>126</ele>
        <time>2021-08-13T12:40:40Z</time>
      </trkpt>
      <trkpt lat="47.0421" lon="2.40645">
        <ele>126</ele>
        <time>2021-08-13T12:40:40Z</time>
      </trkpt>
      <trkpt lat="47.04207" lon="2.40636">
        <ele>126</ele>
        <time>2021-08-13T12:40:40Z</time>
      </trkpt>
      <trkpt lat="47.04205" lon="2.40626">
        <ele>126</ele>
        <time>2021-08-13T12:40:40Z</time>
      </trkpt>
      <trkpt lat="47.04205" lon="2.40616">
        <ele>126</ele>
        <time>2021-08-13T12:40:40Z</time>
      </trkpt>
      <trkpt lat="47.04205" lon="2.40596">
        <ele>126</ele>
        <time>2021-08-13T12:40:40Z</time>
      </trkpt>
      <trkpt lat="47.04206" lon="2.40576">
        <ele>126</ele>
        <time>2021-08-13T12:40:40Z</time>
      </trkpt>
      <trkpt lat="47.04206" lon="2.40567">
        <ele>126</ele>
        <time>2021-08-13T12:40:40Z</time>
      </trkpt>
      <trkpt lat="47.04207" lon="2.40556">
        <ele>126</ele>
        <time>2021-08-13T12:40:40Z</time>
      </trkpt>
      <trkpt lat="47.04209" lon="2.40536">
        <ele>127</ele>
        <time>2021-08-13T12:40:40Z</time>
      </trkpt>
      <trkpt lat="47.04209" lon="2.40526">
        <ele>127</ele>
        <time>2021-08-13T12:40:40Z</time>
      </trkpt>
      <trkpt lat="47.0421" lon="2.40516">
        <ele>127</ele>
        <time>2021-08-13T12:40:40Z</time>
      </trkpt>
      <trkpt lat="47.04211" lon="2.40506">
        <ele>127</ele>
        <time>2021-08-13T12:40:40Z</time>
      </trkpt>
      <trkpt lat="47.04212" lon="2.40497">
        <ele>127</ele>
        <time>2021-08-13T12:40:40Z</time>
      </trkpt>
      <trkpt lat="47.04214" lon="2.40478">
        <ele>128</ele>
        <time>2021-08-13T12:40:40Z</time>
      </trkpt>
      <trkpt lat="47.04216" lon="2.40468">
        <ele>128</ele>
        <time>2021-08-13T12:40:40Z</time>
      </trkpt>
      <trkpt lat="47.04218" lon="2.40459">
        <ele>128</ele>
        <time>2021-08-13T12:40:40Z</time>
      </trkpt>
      <trkpt lat="47.0422" lon="2.4045">
        <ele>128</ele>
        <time>2021-08-13T12:40:40Z</time>
      </trkpt>
      <trkpt lat="47.04222" lon="2.40442">
        <ele>129</ele>
        <time>2021-08-13T12:40:40Z</time>
      </trkpt>
      <trkpt lat="47.04224" lon="2.40434">
        <ele>129</ele>
        <time>2021-08-13T12:40:40Z</time>
      </trkpt>
      <trkpt lat="47.04226" lon="2.40426">
        <ele>129</ele>
        <time>2021-08-13T12:40:40Z</time>
      </trkpt>
      <trkpt lat="47.04227" lon="2.40418">
        <ele>129</ele>
        <time>2021-08-13T12:40:40Z</time>
      </trkpt>
      <trkpt lat="47.04229" lon="2.4041">
        <ele>129</ele>
        <time>2021-08-13T12:40:40Z</time>
      </trkpt>
      <trkpt lat="47.04229" lon="2.40402">
        <ele>130</ele>
        <time>2021-08-13T12:40:40Z</time>
      </trkpt>
      <trkpt lat="47.0423" lon="2.40394">
        <ele>130</ele>
        <time>2021-08-13T12:40:40Z</time>
      </trkpt>
      <trkpt lat="47.04231" lon="2.40387">
        <ele>130</ele>
        <time>2021-08-13T12:40:40Z</time>
      </trkpt>
      <trkpt lat="47.04233" lon="2.40383">
        <ele>130</ele>
        <time>2021-08-13T12:40:40Z</time>
      </trkpt>
      <trkpt lat="47.04236" lon="2.4038">
        <ele>130</ele>
        <time>2021-08-13T12:40:40Z</time>
      </trkpt>
      <trkpt lat="47.04239" lon="2.40379">
        <ele>130</ele>
        <time>2021-08-13T12:40:40Z</time>
      </trkpt>
      <trkpt lat="47.04242" lon="2.40378">
        <ele>130</ele>
        <time>2021-08-13T12:40:40Z</time>
      </trkpt>
      <trkpt lat="47.04245" lon="2.40378">
        <ele>130</ele>
        <time>2021-08-13T12:40:40Z</time>
      </trkpt>
      <trkpt lat="47.04247" lon="2.40377">
        <ele>130</ele>
        <time>2021-08-13T12:40:40Z</time>
      </trkpt>
      <trkpt lat="47.04249" lon="2.40377">
        <ele>130</ele>
        <time>2021-08-13T12:40:40Z</time>
      </trkpt>
      <trkpt lat="47.04252" lon="2.40376">
        <ele>130</ele>
        <time>2021-08-13T12:40:40Z</time>
      </trkpt>
      <trkpt lat="47.04255" lon="2.40376">
        <ele>130</ele>
        <time>2021-08-13T12:40:40Z</time>
      </trkpt>
      <trkpt lat="47.04258" lon="2.40374">
        <ele>130</ele>
        <time>2021-08-13T12:40:40Z</time>
      </trkpt>
      <trkpt lat="47.04266" lon="2.40369">
        <ele>129</ele>
        <time>2021-08-13T12:40:40Z</time>
      </trkpt>
      <trkpt lat="47.04288" lon="2.40347">
        <ele>128</ele>
        <time>2021-08-13T12:40:40Z</time>
      </trkpt>
      <trkpt lat="47.04318" lon="2.40316">
        <ele>127</ele>
        <time>2021-08-13T12:40:40Z</time>
      </trkpt>
      <trkpt lat="47.04345" lon="2.40292">
        <ele>126</ele>
        <time>2021-08-13T12:40:40Z</time>
      </trkpt>
      <trkpt lat="47.04377" lon="2.40261">
        <ele>126</ele>
        <time>2021-08-13T12:40:40Z</time>
      </trkpt>
      <trkpt lat="47.04411" lon="2.40231">
        <ele>129</ele>
        <time>2021-08-13T12:40:40Z</time>
      </trkpt>
      <trkpt lat="47.04444" lon="2.40227">
        <ele>133</ele>
        <time>2021-08-13T12:40:40Z</time>
      </trkpt>
      <trkpt lat="47.0445" lon="2.4023">
        <ele>133</ele>
        <time>2021-08-13T12:40:40Z</time>
      </trkpt>
      <trkpt lat="47.0448" lon="2.4025">
        <ele>133</ele>
        <time>2021-08-13T12:40:40Z</time>
      </trkpt>
      <trkpt lat="47.04507" lon="2.40273">
        <ele>126</ele>
        <time>2021-08-13T12:40:40Z</time>
      </trkpt>
      <trkpt lat="47.04536" lon="2.40285">
        <ele>126</ele>
        <time>2021-08-13T12:40:40Z</time>
      </trkpt>
      <trkpt lat="47.04569" lon="2.40292">
        <ele>127</ele>
        <time>2021-08-13T12:40:40Z</time>
      </trkpt>
      <trkpt lat="47.04598" lon="2.40292">
        <ele>128</ele>
        <time>2021-08-13T12:40:40Z</time>
      </trkpt>
      <trkpt lat="47.04624" lon="2.40285">
        <ele>128</ele>
        <time>2021-08-13T12:40:40Z</time>
      </trkpt>
      <trkpt lat="47.04631" lon="2.40285">
        <ele>127</ele>
        <time>2021-08-13T12:40:40Z</time>
      </trkpt>
      <trkpt lat="47.04664" lon="2.40274">
        <ele>126</ele>
        <time>2021-08-13T12:40:40Z</time>
      </trkpt>
      <trkpt lat="47.04688" lon="2.40238">
        <ele>129</ele>
        <time>2021-08-13T12:40:40Z</time>
      </trkpt>
      <trkpt lat="47.04713" lon="2.40208">
        <ele>130</ele>
        <time>2021-08-13T12:40:40Z</time>
      </trkpt>
      <trkpt lat="47.04736" lon="2.40177">
        <ele>130</ele>
        <time>2021-08-13T12:40:40Z</time>
      </trkpt>
      <trkpt lat="47.04759" lon="2.40144">
        <ele>131</ele>
        <time>2021-08-13T12:40:40Z</time>
      </trkpt>
      <trkpt lat="47.04777" lon="2.4012">
        <ele>133</ele>
        <time>2021-08-13T12:40:40Z</time>
      </trkpt>
      <trkpt lat="47.04782" lon="2.40114">
        <ele>133</ele>
        <time>2021-08-13T12:40:40Z</time>
      </trkpt>
      <trkpt lat="47.04791" lon="2.40103">
        <ele>133</ele>
        <time>2021-08-13T12:40:40Z</time>
      </trkpt>
      <trkpt lat="47.04796" lon="2.40097">
        <ele>132</ele>
        <time>2021-08-13T12:40:40Z</time>
      </trkpt>
      <trkpt lat="47.04801" lon="2.40091">
        <ele>132</ele>
        <time>2021-08-13T12:40:40Z</time>
      </trkpt>
      <trkpt lat="47.04806" lon="2.40085">
        <ele>131</ele>
        <time>2021-08-13T12:40:40Z</time>
      </trkpt>
      <trkpt lat="47.04811" lon="2.40078">
        <ele>131</ele>
        <time>2021-08-13T12:40:40Z</time>
      </trkpt>
      <trkpt lat="47.04816" lon="2.40071">
        <ele>130</ele>
        <time>2021-08-13T12:40:40Z</time>
      </trkpt>
      <trkpt lat="47.0482" lon="2.40065">
        <ele>129</ele>
        <time>2021-08-13T12:40:40Z</time>
      </trkpt>
      <trkpt lat="47.04824" lon="2.40058">
        <ele>129</ele>
        <time>2021-08-13T12:40:40Z</time>
      </trkpt>
      <trkpt lat="47.04829" lon="2.40051">
        <ele>128</ele>
        <time>2021-08-13T12:40:40Z</time>
      </trkpt>
      <trkpt lat="47.04834" lon="2.40045">
        <ele>128</ele>
        <time>2021-08-13T12:40:40Z</time>
      </trkpt>
      <trkpt lat="47.04839" lon="2.40039">
        <ele>128</ele>
        <time>2021-08-13T12:40:40Z</time>
      </trkpt>
      <trkpt lat="47.04843" lon="2.40032">
        <ele>128</ele>
        <time>2021-08-13T12:40:40Z</time>
      </trkpt>
      <trkpt lat="47.04848" lon="2.40026">
        <ele>128</ele>
        <time>2021-08-13T12:40:40Z</time>
      </trkpt>
      <trkpt lat="47.04853" lon="2.4002">
        <ele>128</ele>
        <time>2021-08-13T12:40:40Z</time>
      </trkpt>
      <trkpt lat="47.04857" lon="2.40013">
        <ele>128</ele>
        <time>2021-08-13T12:40:40Z</time>
      </trkpt>
      <trkpt lat="47.04862" lon="2.40007">
        <ele>127</ele>
        <time>2021-08-13T12:40:40Z</time>
      </trkpt>
      <trkpt lat="47.04867" lon="2.40001">
        <ele>127</ele>
        <time>2021-08-13T12:40:40Z</time>
      </trkpt>
      <trkpt lat="47.04871" lon="2.39994">
        <ele>127</ele>
        <time>2021-08-13T12:40:40Z</time>
      </trkpt>
      <trkpt lat="47.04875" lon="2.39988">
        <ele>127</ele>
        <time>2021-08-13T12:40:40Z</time>
      </trkpt>
      <trkpt lat="47.0488" lon="2.39983">
        <ele>127</ele>
        <time>2021-08-13T12:40:40Z</time>
      </trkpt>
      <trkpt lat="47.04884" lon="2.3998">
        <ele>127</ele>
        <time>2021-08-13T12:40:40Z</time>
      </trkpt>
      <trkpt lat="47.0489" lon="2.39981">
        <ele>127</ele>
        <time>2021-08-13T12:40:40Z</time>
      </trkpt>
      <trkpt lat="47.04894" lon="2.39986">
        <ele>127</ele>
        <time>2021-08-13T12:40:40Z</time>
      </trkpt>
      <trkpt lat="47.04898" lon="2.39991">
        <ele>127</ele>
        <time>2021-08-13T12:40:40Z</time>
      </trkpt>
      <trkpt lat="47.04904" lon="2.39995">
        <ele>127</ele>
        <time>2021-08-13T12:40:40Z</time>
      </trkpt>
      <trkpt lat="47.04909" lon="2.39995">
        <ele>127</ele>
        <time>2021-08-13T12:40:40Z</time>
      </trkpt>
      <trkpt lat="47.04915" lon="2.39995">
        <ele>127</ele>
        <time>2021-08-13T12:40:40Z</time>
      </trkpt>
      <trkpt lat="47.04921" lon="2.39995">
        <ele>127</ele>
        <time>2021-08-13T12:40:40Z</time>
      </trkpt>
      <trkpt lat="47.04927" lon="2.39996">
        <ele>128</ele>
        <time>2021-08-13T12:40:40Z</time>
      </trkpt>
      <trkpt lat="47.04933" lon="2.39997">
        <ele>128</ele>
        <time>2021-08-13T12:40:40Z</time>
      </trkpt>
      <trkpt lat="47.04939" lon="2.39997">
        <ele>128</ele>
        <time>2021-08-13T12:40:40Z</time>
      </trkpt>
      <trkpt lat="47.04945" lon="2.39997">
        <ele>128</ele>
        <time>2021-08-13T12:40:40Z</time>
      </trkpt>
      <trkpt lat="47.04951" lon="2.39998">
        <ele>129</ele>
        <time>2021-08-13T12:40:40Z</time>
      </trkpt>
      <trkpt lat="47.04957" lon="2.39997">
        <ele>129</ele>
        <time>2021-08-13T12:40:40Z</time>
      </trkpt>
      <trkpt lat="47.04963" lon="2.39996">
        <ele>129</ele>
        <time>2021-08-13T12:40:40Z</time>
      </trkpt>
      <trkpt lat="47.04969" lon="2.39993">
        <ele>129</ele>
        <time>2021-08-13T12:40:40Z</time>
      </trkpt>
      <trkpt lat="47.04974" lon="2.39989">
        <ele>129</ele>
        <time>2021-08-13T12:40:40Z</time>
      </trkpt>
      <trkpt lat="47.04978" lon="2.39983">
        <ele>129</ele>
        <time>2021-08-13T12:40:40Z</time>
      </trkpt>
      <trkpt lat="47.04984" lon="2.39979">
        <ele>129</ele>
        <time>2021-08-13T12:40:40Z</time>
      </trkpt>
      <trkpt lat="47.04992" lon="2.39974">
        <ele>129</ele>
        <time>2021-08-13T12:40:40Z</time>
      </trkpt>
      <trkpt lat="47.04997" lon="2.39969">
        <ele>129</ele>
        <time>2021-08-13T12:40:40Z</time>
      </trkpt>
      <trkpt lat="47.05003" lon="2.39963">
        <ele>128</ele>
        <time>2021-08-13T12:40:40Z</time>
      </trkpt>
      <trkpt lat="47.05008" lon="2.39958">
        <ele>128</ele>
        <time>2021-08-13T12:40:40Z</time>
      </trkpt>
      <trkpt lat="47.05014" lon="2.39953">
        <ele>128</ele>
        <time>2021-08-13T12:40:40Z</time>
      </trkpt>
      <trkpt lat="47.05019" lon="2.39948">
        <ele>128</ele>
        <time>2021-08-13T12:40:40Z</time>
      </trkpt>
      <trkpt lat="47.05024" lon="2.39946">
        <ele>128</ele>
        <time>2021-08-13T12:40:40Z</time>
      </trkpt>
      <trkpt lat="47.0503" lon="2.39943">
        <ele>128</ele>
        <time>2021-08-13T12:40:40Z</time>
      </trkpt>
      <trkpt lat="47.05036" lon="2.39939">
        <ele>128</ele>
        <time>2021-08-13T12:40:40Z</time>
      </trkpt>
      <trkpt lat="47.05042" lon="2.39937">
        <ele>129</ele>
        <time>2021-08-13T12:40:40Z</time>
      </trkpt>
      <trkpt lat="47.05048" lon="2.39934">
        <ele>129</ele>
        <time>2021-08-13T12:40:40Z</time>
      </trkpt>
      <trkpt lat="47.05055" lon="2.39931">
        <ele>129</ele>
        <time>2021-08-13T12:40:40Z</time>
      </trkpt>
      <trkpt lat="47.0506" lon="2.39928">
        <ele>130</ele>
        <time>2021-08-13T12:40:40Z</time>
      </trkpt>
      <trkpt lat="47.05067" lon="2.39926">
        <ele>130</ele>
        <time>2021-08-13T12:40:40Z</time>
      </trkpt>
      <trkpt lat="47.05073" lon="2.39923">
        <ele>130</ele>
        <time>2021-08-13T12:40:40Z</time>
      </trkpt>
      <trkpt lat="47.05079" lon="2.39921">
        <ele>130</ele>
        <time>2021-08-13T12:40:40Z</time>
      </trkpt>
      <trkpt lat="47.05085" lon="2.39919">
        <ele>131</ele>
        <time>2021-08-13T12:40:40Z</time>
      </trkpt>
      <trkpt lat="47.05092" lon="2.39914">
        <ele>131</ele>
        <time>2021-08-13T12:40:40Z</time>
      </trkpt>
      <trkpt lat="47.05097" lon="2.39913">
        <ele>131</ele>
        <time>2021-08-13T12:40:40Z</time>
      </trkpt>
      <trkpt lat="47.05103" lon="2.39911">
        <ele>131</ele>
        <time>2021-08-13T12:40:40Z</time>
      </trkpt>
      <trkpt lat="47.05109" lon="2.3991">
        <ele>131</ele>
        <time>2021-08-13T12:40:40Z</time>
      </trkpt>
      <trkpt lat="47.05115" lon="2.39907">
        <ele>131</ele>
        <time>2021-08-13T12:40:40Z</time>
      </trkpt>
      <trkpt lat="47.05145" lon="2.39892">
        <ele>130</ele>
        <time>2021-08-13T12:40:40Z</time>
      </trkpt>
      <trkpt lat="47.05176" lon="2.39874">
        <ele>127</ele>
        <time>2021-08-13T12:40:40Z</time>
      </trkpt>
      <trkpt lat="47.05206" lon="2.39866">
        <ele>126</ele>
        <time>2021-08-13T12:40:40Z</time>
      </trkpt>
      <trkpt lat="47.05237" lon="2.39857">
        <ele>126</ele>
        <time>2021-08-13T12:40:40Z</time>
      </trkpt>
      <trkpt lat="47.05267" lon="2.39848">
        <ele>126</ele>
        <time>2021-08-13T12:40:40Z</time>
      </trkpt>
      <trkpt lat="47.05292" lon="2.39839">
        <ele>126</ele>
        <time>2021-08-13T12:40:40Z</time>
      </trkpt>
      <trkpt lat="47.05299" lon="2.39839">
        <ele>126</ele>
        <time>2021-08-13T12:40:40Z</time>
      </trkpt>
      <trkpt lat="47.05328" lon="2.39833">
        <ele>126</ele>
        <time>2021-08-13T12:40:40Z</time>
      </trkpt>
      <trkpt lat="47.05359" lon="2.39823">
        <ele>126</ele>
        <time>2021-08-13T12:40:40Z</time>
      </trkpt>
      <trkpt lat="47.05385" lon="2.39797">
        <ele>126</ele>
        <time>2021-08-13T12:40:40Z</time>
      </trkpt>
      <trkpt lat="47.05398" lon="2.39755">
        <ele>126</ele>
        <time>2021-08-13T12:40:40Z</time>
      </trkpt>
      <trkpt lat="47.05414" lon="2.39717">
        <ele>126</ele>
        <time>2021-08-13T12:40:40Z</time>
      </trkpt>
      <trkpt lat="47.05432" lon="2.39691">
        <ele>126</ele>
        <time>2021-08-13T12:40:40Z</time>
      </trkpt>
      <trkpt lat="47.05437" lon="2.39686">
        <ele>126</ele>
        <time>2021-08-13T12:40:40Z</time>
      </trkpt>
      <trkpt lat="47.05465" lon="2.3967">
        <ele>126</ele>
        <time>2021-08-13T12:40:40Z</time>
      </trkpt>
      <trkpt lat="47.05495" lon="2.39662">
        <ele>126</ele>
        <time>2021-08-13T12:40:40Z</time>
      </trkpt>
      <trkpt lat="47.05522" lon="2.39643">
        <ele>126</ele>
        <time>2021-08-13T12:40:40Z</time>
      </trkpt>
      <trkpt lat="47.05549" lon="2.39633">
        <ele>133</ele>
        <time>2021-08-13T12:40:40Z</time>
      </trkpt>
      <trkpt lat="47.05578" lon="2.39629">
        <ele>135</ele>
        <time>2021-08-13T12:40:40Z</time>
      </trkpt>
      <trkpt lat="47.05604" lon="2.39627">
        <ele>133</ele>
        <time>2021-08-13T12:40:40Z</time>
      </trkpt>
      <trkpt lat="47.0561" lon="2.39627">
        <ele>133</ele>
        <time>2021-08-13T12:40:40Z</time>
      </trkpt>
      <trkpt lat="47.05617" lon="2.39626">
        <ele>133</ele>
        <time>2021-08-13T12:40:40Z</time>
      </trkpt>
      <trkpt lat="47.05623" lon="2.39625">
        <ele>133</ele>
        <time>2021-08-13T12:40:40Z</time>
      </trkpt>
      <trkpt lat="47.05629" lon="2.39624">
        <ele>132</ele>
        <time>2021-08-13T12:40:40Z</time>
      </trkpt>
      <trkpt lat="47.05635" lon="2.39623">
        <ele>132</ele>
        <time>2021-08-13T12:40:40Z</time>
      </trkpt>
      <trkpt lat="47.05642" lon="2.39621">
        <ele>132</ele>
        <time>2021-08-13T12:40:40Z</time>
      </trkpt>
      <trkpt lat="47.05648" lon="2.39618">
        <ele>132</ele>
        <time>2021-08-13T12:40:40Z</time>
      </trkpt>
      <trkpt lat="47.05653" lon="2.39614">
        <ele>132</ele>
        <time>2021-08-13T12:40:40Z</time>
      </trkpt>
      <trkpt lat="47.05659" lon="2.39611">
        <ele>132</ele>
        <time>2021-08-13T12:40:40Z</time>
      </trkpt>
      <trkpt lat="47.05664" lon="2.39606">
        <ele>132</ele>
        <time>2021-08-13T12:40:40Z</time>
      </trkpt>
      <trkpt lat="47.05669" lon="2.39601">
        <ele>132</ele>
        <time>2021-08-13T12:40:40Z</time>
      </trkpt>
      <trkpt lat="47.05674" lon="2.39596">
        <ele>132</ele>
        <time>2021-08-13T12:40:40Z</time>
      </trkpt>
      <trkpt lat="47.05678" lon="2.39593">
        <ele>133</ele>
        <time>2021-08-13T12:40:40Z</time>
      </trkpt>
      <trkpt lat="47.05683" lon="2.3959">
        <ele>133</ele>
        <time>2021-08-13T12:40:40Z</time>
      </trkpt>
      <trkpt lat="47.05688" lon="2.39589">
        <ele>132</ele>
        <time>2021-08-13T12:40:40Z</time>
      </trkpt>
      <trkpt lat="47.05692" lon="2.39588">
        <ele>132</ele>
        <time>2021-08-13T12:40:40Z</time>
      </trkpt>
      <trkpt lat="47.05695" lon="2.39587">
        <ele>132</ele>
        <time>2021-08-13T12:40:40Z</time>
      </trkpt>
      <trkpt lat="47.05697" lon="2.39585">
        <ele>132</ele>
        <time>2021-08-13T12:40:40Z</time>
      </trkpt>
      <trkpt lat="47.057" lon="2.39584">
        <ele>132</ele>
        <time>2021-08-13T12:40:40Z</time>
      </trkpt>
      <trkpt lat="47.05701" lon="2.39583">
        <ele>133</ele>
        <time>2021-08-13T12:40:40Z</time>
      </trkpt>
      <trkpt lat="47.05702" lon="2.39583">
        <ele>132</ele>
        <time>2021-08-13T12:40:40Z</time>
      </trkpt>
      <trkpt lat="47.05704" lon="2.39583">
        <ele>133</ele>
        <time>2021-08-13T12:40:40Z</time>
      </trkpt>
      <trkpt lat="47.05706" lon="2.39583">
        <ele>133</ele>
        <time>2021-08-13T12:40:40Z</time>
      </trkpt>
      <trkpt lat="47.05708" lon="2.39583">
        <ele>133</ele>
        <time>2021-08-13T12:40:40Z</time>
      </trkpt>
      <trkpt lat="47.0571" lon="2.39582">
        <ele>133</ele>
        <time>2021-08-13T12:40:40Z</time>
      </trkpt>
      <trkpt lat="47.05713" lon="2.39582">
        <ele>133</ele>
        <time>2021-08-13T12:40:40Z</time>
      </trkpt>
      <trkpt lat="47.05716" lon="2.39581">
        <ele>133</ele>
        <time>2021-08-13T12:40:40Z</time>
      </trkpt>
      <trkpt lat="47.0572" lon="2.39579">
        <ele>133</ele>
        <time>2021-08-13T12:40:40Z</time>
      </trkpt>
      <trkpt lat="47.05724" lon="2.39576">
        <ele>132</ele>
        <time>2021-08-13T12:40:40Z</time>
      </trkpt>
      <trkpt lat="47.05729" lon="2.39572">
        <ele>132</ele>
        <time>2021-08-13T12:40:40Z</time>
      </trkpt>
      <trkpt lat="47.05734" lon="2.39572">
        <ele>132</ele>
        <time>2021-08-13T12:40:40Z</time>
      </trkpt>
      <trkpt lat="47.05739" lon="2.3957">
        <ele>131</ele>
        <time>2021-08-13T12:40:40Z</time>
      </trkpt>
      <trkpt lat="47.05744" lon="2.39568">
        <ele>131</ele>
        <time>2021-08-13T12:40:40Z</time>
      </trkpt>
      <trkpt lat="47.05748" lon="2.39567">
        <ele>131</ele>
        <time>2021-08-13T12:40:40Z</time>
      </trkpt>
      <trkpt lat="47.05754" lon="2.39566">
        <ele>131</ele>
        <time>2021-08-13T12:40:40Z</time>
      </trkpt>
      <trkpt lat="47.05759" lon="2.39564">
        <ele>131</ele>
        <time>2021-08-13T12:40:40Z</time>
      </trkpt>
      <trkpt lat="47.05765" lon="2.39563">
        <ele>131</ele>
        <time>2021-08-13T12:40:40Z</time>
      </trkpt>
      <trkpt lat="47.05772" lon="2.39561">
        <ele>131</ele>
        <time>2021-08-13T12:40:40Z</time>
      </trkpt>
      <trkpt lat="47.05779" lon="2.3956">
        <ele>131</ele>
        <time>2021-08-13T12:40:40Z</time>
      </trkpt>
      <trkpt lat="47.05787" lon="2.39558">
        <ele>131</ele>
        <time>2021-08-13T12:40:40Z</time>
      </trkpt>
      <trkpt lat="47.05794" lon="2.39557">
        <ele>131</ele>
        <time>2021-08-13T12:40:40Z</time>
      </trkpt>
      <trkpt lat="47.05801" lon="2.39556">
        <ele>131</ele>
        <time>2021-08-13T12:40:40Z</time>
      </trkpt>
      <trkpt lat="47.05808" lon="2.39555">
        <ele>130</ele>
        <time>2021-08-13T12:40:40Z</time>
      </trkpt>
      <trkpt lat="47.05814" lon="2.39554">
        <ele>130</ele>
        <time>2021-08-13T12:40:40Z</time>
      </trkpt>
      <trkpt lat="47.05821" lon="2.39555">
        <ele>129</ele>
        <time>2021-08-13T12:40:40Z</time>
      </trkpt>
      <trkpt lat="47.05828" lon="2.39555">
        <ele>129</ele>
        <time>2021-08-13T12:40:40Z</time>
      </trkpt>
      <trkpt lat="47.05835" lon="2.39556">
        <ele>128</ele>
        <time>2021-08-13T12:40:40Z</time>
      </trkpt>
      <trkpt lat="47.05842" lon="2.39558">
        <ele>127</ele>
        <time>2021-08-13T12:40:40Z</time>
      </trkpt>
      <trkpt lat="47.05849" lon="2.3956">
        <ele>126</ele>
        <time>2021-08-13T12:40:40Z</time>
      </trkpt>
      <trkpt lat="47.05856" lon="2.39562">
        <ele>125</ele>
        <time>2021-08-13T12:40:40Z</time>
      </trkpt>
      <trkpt lat="47.05862" lon="2.39564">
        <ele>124</ele>
        <time>2021-08-13T12:40:40Z</time>
      </trkpt>
      <trkpt lat="47.05869" lon="2.39567">
        <ele>124</ele>
        <time>2021-08-13T12:40:40Z</time>
      </trkpt>
      <trkpt lat="47.05875" lon="2.39571">
        <ele>124</ele>
        <time>2021-08-13T12:40:40Z</time>
      </trkpt>
      <trkpt lat="47.05881" lon="2.39574">
        <ele>124</ele>
        <time>2021-08-13T12:40:40Z</time>
      </trkpt>
      <trkpt lat="47.05887" lon="2.39579">
        <ele>124</ele>
        <time>2021-08-13T12:40:40Z</time>
      </trkpt>
      <trkpt lat="47.05893" lon="2.39584">
        <ele>125</ele>
        <time>2021-08-13T12:40:40Z</time>
      </trkpt>
      <trkpt lat="47.05898" lon="2.3959">
        <ele>125</ele>
        <time>2021-08-13T12:40:40Z</time>
      </trkpt>
      <trkpt lat="47.05904" lon="2.39595">
        <ele>125</ele>
        <time>2021-08-13T12:40:40Z</time>
      </trkpt>
      <trkpt lat="47.05908" lon="2.39603">
        <ele>126</ele>
        <time>2021-08-13T12:40:40Z</time>
      </trkpt>
      <trkpt lat="47.05912" lon="2.3961">
        <ele>126</ele>
        <time>2021-08-13T12:40:40Z</time>
      </trkpt>
      <trkpt lat="47.05916" lon="2.39618">
        <ele>127</ele>
        <time>2021-08-13T12:40:40Z</time>
      </trkpt>
      <trkpt lat="47.0592" lon="2.39626">
        <ele>127</ele>
        <time>2021-08-13T12:40:40Z</time>
      </trkpt>
      <trkpt lat="47.05942" lon="2.39656">
        <ele>127</ele>
        <time>2021-08-13T12:40:40Z</time>
      </trkpt>
      <trkpt lat="47.0597" lon="2.39678">
        <ele>126</ele>
        <time>2021-08-13T12:40:40Z</time>
      </trkpt>
      <trkpt lat="47.05997" lon="2.397">
        <ele>126</ele>
        <time>2021-08-13T12:40:40Z</time>
      </trkpt>
      <trkpt lat="47.06026" lon="2.39711">
        <ele>126</ele>
        <time>2021-08-13T12:40:40Z</time>
      </trkpt>
      <trkpt lat="47.06056" lon="2.39702">
        <ele>126</ele>
        <time>2021-08-13T12:40:40Z</time>
      </trkpt>
      <trkpt lat="47.06079" lon="2.39692">
        <ele>128</ele>
        <time>2021-08-13T12:40:40Z</time>
      </trkpt>
      <trkpt lat="47.06085" lon="2.39689">
        <ele>129</ele>
        <time>2021-08-13T12:40:40Z</time>
      </trkpt>
      <trkpt lat="47.06114" lon="2.39679">
        <ele>129</ele>
        <time>2021-08-13T12:40:40Z</time>
      </trkpt>
      <trkpt lat="47.06145" lon="2.39666">
        <ele>126</ele>
        <time>2021-08-13T12:40:40Z</time>
      </trkpt>
      <trkpt lat="47.06175" lon="2.39655">
        <ele>126</ele>
        <time>2021-08-13T12:40:40Z</time>
      </trkpt>
      <trkpt lat="47.06198" lon="2.39645">
        <ele>127</ele>
        <time>2021-08-13T12:40:40Z</time>
      </trkpt>
      <trkpt lat="47.06204" lon="2.39642">
        <ele>126</ele>
        <time>2021-08-13T12:40:40Z</time>
      </trkpt>
      <trkpt lat="47.06209" lon="2.39643">
        <ele>126</ele>
        <time>2021-08-13T12:40:40Z</time>
      </trkpt>
      <trkpt lat="47.06213" lon="2.39649">
        <ele>126</ele>
        <time>2021-08-13T12:40:40Z</time>
      </trkpt>
      <trkpt lat="47.06215" lon="2.39655">
        <ele>126</ele>
        <time>2021-08-13T12:40:40Z</time>
      </trkpt>
      <trkpt lat="47.06216" lon="2.39662">
        <ele>126</ele>
        <time>2021-08-13T12:40:40Z</time>
      </trkpt>
      <trkpt lat="47.06217" lon="2.39669">
        <ele>126</ele>
        <time>2021-08-13T12:40:40Z</time>
      </trkpt>
      <trkpt lat="47.06218" lon="2.39676">
        <ele>125</ele>
        <time>2021-08-13T12:40:40Z</time>
      </trkpt>
      <trkpt lat="47.06225" lon="2.39712">
        <ele>125</ele>
        <time>2021-08-13T12:40:40Z</time>
      </trkpt>
      <trkpt lat="47.06238" lon="2.3975">
        <ele>127</ele>
        <time>2021-08-13T12:40:40Z</time>
      </trkpt>
      <trkpt lat="47.06256" lon="2.39785">
        <ele>130</ele>
        <time>2021-08-13T12:40:40Z</time>
      </trkpt>
      <trkpt lat="47.06273" lon="2.39818">
        <ele>131</ele>
        <time>2021-08-13T12:40:40Z</time>
      </trkpt>
      <trkpt lat="47.06288" lon="2.39845">
        <ele>131</ele>
        <time>2021-08-13T12:40:40Z</time>
      </trkpt>
      <trkpt lat="47.06305" lon="2.39848">
        <ele>130</ele>
        <time>2021-08-13T12:40:40Z</time>
      </trkpt>
      <trkpt lat="47.06308" lon="2.3985">
        <ele>130</ele>
        <time>2021-08-13T12:40:40Z</time>
      </trkpt>
      <trkpt lat="47.06313" lon="2.39861">
        <ele>130</ele>
        <time>2021-08-13T12:40:40Z</time>
      </trkpt>
      <trkpt lat="47.06314" lon="2.39865">
        <ele>130</ele>
        <time>2021-08-13T12:40:40Z</time>
      </trkpt>
      <trkpt lat="47.06314" lon="2.39869">
        <ele>130</ele>
        <time>2021-08-13T12:40:40Z</time>
      </trkpt>
      <trkpt lat="47.06315" lon="2.39873">
        <ele>130</ele>
        <time>2021-08-13T12:40:40Z</time>
      </trkpt>
      <trkpt lat="47.06316" lon="2.39878">
        <ele>130</ele>
        <time>2021-08-13T12:40:40Z</time>
      </trkpt>
      <trkpt lat="47.06317" lon="2.39882">
        <ele>129</ele>
        <time>2021-08-13T12:40:40Z</time>
      </trkpt>
      <trkpt lat="47.06317" lon="2.39887">
        <ele>129</ele>
        <time>2021-08-13T12:40:40Z</time>
      </trkpt>
      <trkpt lat="47.06317" lon="2.39892">
        <ele>129</ele>
        <time>2021-08-13T12:40:40Z</time>
      </trkpt>
      <trkpt lat="47.06316" lon="2.39896">
        <ele>129</ele>
        <time>2021-08-13T12:40:40Z</time>
      </trkpt>
      <trkpt lat="47.06316" lon="2.39899">
        <ele>129</ele>
        <time>2021-08-13T12:40:40Z</time>
      </trkpt>
      <trkpt lat="47.06315" lon="2.39901">
        <ele>129</ele>
        <time>2021-08-13T12:40:40Z</time>
      </trkpt>
      <trkpt lat="47.06315" lon="2.39903">
        <ele>129</ele>
        <time>2021-08-13T12:40:40Z</time>
      </trkpt>
      <trkpt lat="47.06315" lon="2.39905">
        <ele>129</ele>
        <time>2021-08-13T12:40:40Z</time>
      </trkpt>
      <trkpt lat="47.06315" lon="2.39907">
        <ele>129</ele>
        <time>2021-08-13T12:40:40Z</time>
      </trkpt>
      <trkpt lat="47.06314" lon="2.39909">
        <ele>129</ele>
        <time>2021-08-13T12:40:40Z</time>
      </trkpt>
      <trkpt lat="47.06313" lon="2.39911">
        <ele>129</ele>
        <time>2021-08-13T12:40:40Z</time>
      </trkpt>
      <trkpt lat="47.06313" lon="2.39914">
        <ele>129</ele>
        <time>2021-08-13T12:40:40Z</time>
      </trkpt>
      <trkpt lat="47.06314" lon="2.39917">
        <ele>129</ele>
        <time>2021-08-13T12:40:40Z</time>
      </trkpt>
      <trkpt lat="47.06315" lon="2.3992">
        <ele>129</ele>
        <time>2021-08-13T12:40:40Z</time>
      </trkpt>
      <trkpt lat="47.06317" lon="2.39924">
        <ele>129</ele>
        <time>2021-08-13T12:40:40Z</time>
      </trkpt>
      <trkpt lat="47.06318" lon="2.39929">
        <ele>129</ele>
        <time>2021-08-13T12:40:40Z</time>
      </trkpt>
      <trkpt lat="47.06318" lon="2.39935">
        <ele>129</ele>
        <time>2021-08-13T12:40:40Z</time>
      </trkpt>
      <trkpt lat="47.06316" lon="2.3994">
        <ele>129</ele>
        <time>2021-08-13T12:40:40Z</time>
      </trkpt>
      <trkpt lat="47.06314" lon="2.39946">
        <ele>129</ele>
        <time>2021-08-13T12:40:40Z</time>
      </trkpt>
      <trkpt lat="47.06313" lon="2.39952">
        <ele>129</ele>
        <time>2021-08-13T12:40:40Z</time>
      </trkpt>
      <trkpt lat="47.06315" lon="2.39959">
        <ele>129</ele>
        <time>2021-08-13T12:40:40Z</time>
      </trkpt>
      <trkpt lat="47.06316" lon="2.39965">
        <ele>129</ele>
        <time>2021-08-13T12:40:40Z</time>
      </trkpt>
      <trkpt lat="47.06317" lon="2.39972">
        <ele>129</ele>
        <time>2021-08-13T12:40:40Z</time>
      </trkpt>
      <trkpt lat="47.06318" lon="2.39978">
        <ele>130</ele>
        <time>2021-08-13T12:40:40Z</time>
      </trkpt>
      <trkpt lat="47.0632" lon="2.39985">
        <ele>130</ele>
        <time>2021-08-13T12:40:40Z</time>
      </trkpt>
      <trkpt lat="47.06321" lon="2.39991">
        <ele>130</ele>
        <time>2021-08-13T12:40:40Z</time>
      </trkpt>
      <trkpt lat="47.06322" lon="2.39996">
        <ele>130</ele>
        <time>2021-08-13T12:40:40Z</time>
      </trkpt>
      <trkpt lat="47.06323" lon="2.40002">
        <ele>131</ele>
        <time>2021-08-13T12:40:40Z</time>
      </trkpt>
      <trkpt lat="47.06325" lon="2.40005">
        <ele>131</ele>
        <time>2021-08-13T12:40:40Z</time>
      </trkpt>
      <trkpt lat="47.06327" lon="2.40008">
        <ele>131</ele>
        <time>2021-08-13T12:40:40Z</time>
      </trkpt>
      <trkpt lat="47.0633" lon="2.40011">
        <ele>131</ele>
        <time>2021-08-13T12:40:40Z</time>
      </trkpt>
      <trkpt lat="47.06334" lon="2.40013">
        <ele>131</ele>
        <time>2021-08-13T12:40:40Z</time>
      </trkpt>
      <trkpt lat="47.06339" lon="2.40012">
        <ele>131</ele>
        <time>2021-08-13T12:40:40Z</time>
      </trkpt>
      <trkpt lat="47.06344" lon="2.4001">
        <ele>131</ele>
        <time>2021-08-13T12:40:40Z</time>
      </trkpt>
      <trkpt lat="47.06349" lon="2.40009">
        <ele>131</ele>
        <time>2021-08-13T12:40:40Z</time>
      </trkpt>
      <trkpt lat="47.06355" lon="2.40006">
        <ele>131</ele>
        <time>2021-08-13T12:40:40Z</time>
      </trkpt>
      <trkpt lat="47.0636" lon="2.40004">
        <ele>131</ele>
        <time>2021-08-13T12:40:40Z</time>
      </trkpt>
      <trkpt lat="47.06366" lon="2.40001">
        <ele>131</ele>
        <time>2021-08-13T12:40:40Z</time>
      </trkpt>
      <trkpt lat="47.06371" lon="2.39999">
        <ele>131</ele>
        <time>2021-08-13T12:40:40Z</time>
      </trkpt>
      <trkpt lat="47.06376" lon="2.39996">
        <ele>131</ele>
        <time>2021-08-13T12:40:40Z</time>
      </trkpt>
      <trkpt lat="47.06382" lon="2.39994">
        <ele>131</ele>
        <time>2021-08-13T12:40:40Z</time>
      </trkpt>
      <trkpt lat="47.06387" lon="2.39991">
        <ele>131</ele>
        <time>2021-08-13T12:40:40Z</time>
      </trkpt>
      <trkpt lat="47.06392" lon="2.39989">
        <ele>131</ele>
        <time>2021-08-13T12:40:40Z</time>
      </trkpt>
      <trkpt lat="47.06398" lon="2.39986">
        <ele>131</ele>
        <time>2021-08-13T12:40:40Z</time>
      </trkpt>
      <trkpt lat="47.06403" lon="2.39983">
        <ele>131</ele>
        <time>2021-08-13T12:40:40Z</time>
      </trkpt>
      <trkpt lat="47.06408" lon="2.39981">
        <ele>131</ele>
        <time>2021-08-13T12:40:40Z</time>
      </trkpt>
      <trkpt lat="47.06413" lon="2.39978">
        <ele>131</ele>
        <time>2021-08-13T12:40:40Z</time>
      </trkpt>
      <trkpt lat="47.06419" lon="2.39975">
        <ele>131</ele>
        <time>2021-08-13T12:40:40Z</time>
      </trkpt>
      <trkpt lat="47.06424" lon="2.39973">
        <ele>131</ele>
        <time>2021-08-13T12:40:40Z</time>
      </trkpt>
      <trkpt lat="47.06429" lon="2.39971">
        <ele>131</ele>
        <time>2021-08-13T12:40:40Z</time>
      </trkpt>
      <trkpt lat="47.06435" lon="2.39968">
        <ele>132</ele>
        <time>2021-08-13T12:40:40Z</time>
      </trkpt>
      <trkpt lat="47.0644" lon="2.39966">
        <ele>132</ele>
        <time>2021-08-13T12:40:40Z</time>
      </trkpt>
      <trkpt lat="47.06446" lon="2.39964">
        <ele>132</ele>
        <time>2021-08-13T12:40:40Z</time>
      </trkpt>
      <trkpt lat="47.06451" lon="2.39961">
        <ele>133</ele>
        <time>2021-08-13T12:40:40Z</time>
      </trkpt>
      <trkpt lat="47.06457" lon="2.39959">
        <ele>133</ele>
        <time>2021-08-13T12:40:40Z</time>
      </trkpt>
      <trkpt lat="47.06462" lon="2.39957">
        <ele>134</ele>
        <time>2021-08-13T12:40:40Z</time>
      </trkpt>
      <trkpt lat="47.06492" lon="2.39952">
        <ele>135</ele>
        <time>2021-08-13T12:40:40Z</time>
      </trkpt>
      <trkpt lat="47.06522" lon="2.39949">
        <ele>134</ele>
        <time>2021-08-13T12:40:40Z</time>
      </trkpt>
      <trkpt lat="47.06547" lon="2.39945">
        <ele>134</ele>
        <time>2021-08-13T12:40:40Z</time>
      </trkpt>
      <trkpt lat="47.06553" lon="2.39944">
        <ele>133</ele>
        <time>2021-08-13T12:40:40Z</time>
      </trkpt>
      <trkpt lat="47.0656" lon="2.39943">
        <ele>133</ele>
        <time>2021-08-13T12:40:40Z</time>
      </trkpt>
      <trkpt lat="47.06565" lon="2.39942">
        <ele>133</ele>
        <time>2021-08-13T12:40:40Z</time>
      </trkpt>
      <trkpt lat="47.06572" lon="2.39941">
        <ele>133</ele>
        <time>2021-08-13T12:40:40Z</time>
      </trkpt>
      <trkpt lat="47.06579" lon="2.39941">
        <ele>133</ele>
        <time>2021-08-13T12:40:40Z</time>
      </trkpt>
      <trkpt lat="47.06585" lon="2.3994">
        <ele>132</ele>
        <time>2021-08-13T12:40:40Z</time>
      </trkpt>
      <trkpt lat="47.06591" lon="2.39938">
        <ele>132</ele>
        <time>2021-08-13T12:40:40Z</time>
      </trkpt>
      <trkpt lat="47.06624" lon="2.39929">
        <ele>131</ele>
        <time>2021-08-13T12:40:40Z</time>
      </trkpt>
      <trkpt lat="47.06654" lon="2.39916">
        <ele>130</ele>
        <time>2021-08-13T12:40:40Z</time>
      </trkpt>
      <trkpt lat="47.06688" lon="2.39902">
        <ele>131</ele>
        <time>2021-08-13T12:40:40Z</time>
      </trkpt>
      <trkpt lat="47.06722" lon="2.39896">
        <ele>129</ele>
        <time>2021-08-13T12:40:40Z</time>
      </trkpt>
      <trkpt lat="47.06756" lon="2.399">
        <ele>129</ele>
        <time>2021-08-13T12:40:40Z</time>
      </trkpt>
      <trkpt lat="47.06783" lon="2.39901">
        <ele>130</ele>
        <time>2021-08-13T12:40:40Z</time>
      </trkpt>
      <trkpt lat="47.0679" lon="2.399">
        <ele>130</ele>
        <time>2021-08-13T12:40:40Z</time>
      </trkpt>
      <trkpt lat="47.06823" lon="2.39896">
        <ele>130</ele>
        <time>2021-08-13T12:40:40Z</time>
      </trkpt>
      <trkpt lat="47.06852" lon="2.39891">
        <ele>131</ele>
        <time>2021-08-13T12:40:40Z</time>
      </trkpt>
      <trkpt lat="47.06882" lon="2.39886">
        <ele>132</ele>
        <time>2021-08-13T12:40:40Z</time>
      </trkpt>
      <trkpt lat="47.06913" lon="2.39883">
        <ele>133</ele>
        <time>2021-08-13T12:40:40Z</time>
      </trkpt>
      <trkpt lat="47.06942" lon="2.39882">
        <ele>133</ele>
        <time>2021-08-13T12:40:40Z</time>
      </trkpt>
      <trkpt lat="47.06966" lon="2.39881">
        <ele>135</ele>
        <time>2021-08-13T12:40:40Z</time>
      </trkpt>
      <trkpt lat="47.06972" lon="2.39882">
        <ele>135</ele>
        <time>2021-08-13T12:40:40Z</time>
      </trkpt>
      <trkpt lat="47.07003" lon="2.39886">
        <ele>135</ele>
        <time>2021-08-13T12:40:40Z</time>
      </trkpt>
      <trkpt lat="47.07029" lon="2.39892">
        <ele>135</ele>
        <time>2021-08-13T12:40:40Z</time>
      </trkpt>
      <trkpt lat="47.07053" lon="2.39897">
        <ele>135</ele>
        <time>2021-08-13T12:40:40Z</time>
      </trkpt>
      <trkpt lat="47.07067" lon="2.39909">
        <ele>135</ele>
        <time>2021-08-13T12:40:40Z</time>
      </trkpt>
      <trkpt lat="47.07058" lon="2.39939">
        <ele>135</ele>
        <time>2021-08-13T12:40:40Z</time>
      </trkpt>
      <trkpt lat="47.07052" lon="2.39964">
        <ele>135</ele>
        <time>2021-08-13T12:40:40Z</time>
      </trkpt>
      <trkpt lat="47.0705" lon="2.3997">
        <ele>135</ele>
        <time>2021-08-13T12:40:40Z</time>
      </trkpt>
      <trkpt lat="47.07045" lon="2.39988">
        <ele>136</ele>
        <time>2021-08-13T12:40:40Z</time>
      </trkpt>
      <trkpt lat="47.07044" lon="2.39994">
        <ele>136</ele>
        <time>2021-08-13T12:40:40Z</time>
      </trkpt>
      <trkpt lat="47.07043" lon="2.4">
        <ele>137</ele>
        <time>2021-08-13T12:40:40Z</time>
      </trkpt>
      <trkpt lat="47.07043" lon="2.40008">
        <ele>137</ele>
        <time>2021-08-13T12:40:40Z</time>
      </trkpt>
      <trkpt lat="47.07043" lon="2.40015">
        <ele>137</ele>
        <time>2021-08-13T12:40:40Z</time>
      </trkpt>
      <trkpt lat="47.07043" lon="2.40022">
        <ele>138</ele>
        <time>2021-08-13T12:40:40Z</time>
      </trkpt>
      <trkpt lat="47.07043" lon="2.40027">
        <ele>138</ele>
        <time>2021-08-13T12:40:40Z</time>
      </trkpt>
      <trkpt lat="47.07044" lon="2.40035">
        <ele>138</ele>
        <time>2021-08-13T12:40:40Z</time>
      </trkpt>
      <trkpt lat="47.07045" lon="2.40042">
        <ele>139</ele>
        <time>2021-08-13T12:40:40Z</time>
      </trkpt>
      <trkpt lat="47.07047" lon="2.40049">
        <ele>139</ele>
        <time>2021-08-13T12:40:40Z</time>
      </trkpt>
      <trkpt lat="47.07048" lon="2.40056">
        <ele>140</ele>
        <time>2021-08-13T12:40:40Z</time>
      </trkpt>
      <trkpt lat="47.0705" lon="2.40062">
        <ele>140</ele>
        <time>2021-08-13T12:40:40Z</time>
      </trkpt>
      <trkpt lat="47.07052" lon="2.40069">
        <ele>140</ele>
        <time>2021-08-13T12:40:40Z</time>
      </trkpt>
      <trkpt lat="47.07053" lon="2.40075">
        <ele>141</ele>
        <time>2021-08-13T12:40:40Z</time>
      </trkpt>
      <trkpt lat="47.07055" lon="2.4008">
        <ele>141</ele>
        <time>2021-08-13T12:40:40Z</time>
      </trkpt>
      <trkpt lat="47.07057" lon="2.40087">
        <ele>142</ele>
        <time>2021-08-13T12:40:40Z</time>
      </trkpt>
      <trkpt lat="47.07058" lon="2.40094">
        <ele>142</ele>
        <time>2021-08-13T12:40:40Z</time>
      </trkpt>
      <trkpt lat="47.07059" lon="2.401">
        <ele>143</ele>
        <time>2021-08-13T12:40:40Z</time>
      </trkpt>
      <trkpt lat="47.07061" lon="2.40107">
        <ele>143</ele>
        <time>2021-08-13T12:40:40Z</time>
      </trkpt>
      <trkpt lat="47.07062" lon="2.40114">
        <ele>144</ele>
        <time>2021-08-13T12:40:40Z</time>
      </trkpt>
      <trkpt lat="47.07064" lon="2.40122">
        <ele>144</ele>
        <time>2021-08-13T12:40:40Z</time>
      </trkpt>
      <trkpt lat="47.07066" lon="2.40128">
        <ele>145</ele>
        <time>2021-08-13T12:40:40Z</time>
      </trkpt>
      <trkpt lat="47.07068" lon="2.40135">
        <ele>145</ele>
        <time>2021-08-13T12:40:40Z</time>
      </trkpt>
      <trkpt lat="47.07069" lon="2.40142">
        <ele>146</ele>
        <time>2021-08-13T12:40:40Z</time>
      </trkpt>
      <trkpt lat="47.07071" lon="2.40148">
        <ele>146</ele>
        <time>2021-08-13T12:40:40Z</time>
      </trkpt>
      <trkpt lat="47.07073" lon="2.40155">
        <ele>146</ele>
        <time>2021-08-13T12:40:40Z</time>
      </trkpt>
      <trkpt lat="47.07075" lon="2.40163">
        <ele>147</ele>
        <time>2021-08-13T12:40:40Z</time>
      </trkpt>
      <trkpt lat="47.07077" lon="2.40169">
        <ele>147</ele>
        <time>2021-08-13T12:40:40Z</time>
      </trkpt>
      <trkpt lat="47.07079" lon="2.40176">
        <ele>147</ele>
        <time>2021-08-13T12:40:40Z</time>
      </trkpt>
      <trkpt lat="47.07081" lon="2.40182">
        <ele>147</ele>
        <time>2021-08-13T12:40:40Z</time>
      </trkpt>
      <trkpt lat="47.07083" lon="2.40188">
        <ele>147</ele>
        <time>2021-08-13T12:40:40Z</time>
      </trkpt>
      <trkpt lat="47.07085" lon="2.40194">
        <ele>148</ele>
        <time>2021-08-13T12:40:40Z</time>
      </trkpt>
      <trkpt lat="47.07088" lon="2.40198">
        <ele>148</ele>
        <time>2021-08-13T12:40:40Z</time>
      </trkpt>
      <trkpt lat="47.0709" lon="2.40202">
        <ele>148</ele>
        <time>2021-08-13T12:40:40Z</time>
      </trkpt>
      <trkpt lat="47.07091" lon="2.40207">
        <ele>148</ele>
        <time>2021-08-13T12:40:40Z</time>
      </trkpt>
      <trkpt lat="47.0709" lon="2.40211">
        <ele>148</ele>
        <time>2021-08-13T12:40:40Z</time>
      </trkpt>
      <trkpt lat="47.07088" lon="2.40213">
        <ele>148</ele>
        <time>2021-08-13T12:40:40Z</time>
      </trkpt>
      <trkpt lat="47.07084" lon="2.40215">
        <ele>148</ele>
        <time>2021-08-13T12:40:40Z</time>
      </trkpt>
      <trkpt lat="47.0708" lon="2.40217">
        <ele>148</ele>
        <time>2021-08-13T12:40:40Z</time>
      </trkpt>
      <trkpt lat="47.07076" lon="2.40219">
        <ele>148</ele>
        <time>2021-08-13T12:40:40Z</time>
      </trkpt>
      <trkpt lat="47.0705" lon="2.4023">
        <ele>147</ele>
        <time>2021-08-13T12:40:40Z</time>
      </trkpt>
      <trkpt lat="47.0702" lon="2.40248">
        <ele>144</ele>
        <time>2021-08-13T12:40:40Z</time>
      </trkpt>
      <trkpt lat="47.06987" lon="2.40267">
        <ele>143</ele>
        <time>2021-08-13T12:40:40Z</time>
      </trkpt>
      <trkpt lat="47.06956" lon="2.40287">
        <ele>141</ele>
        <time>2021-08-13T12:40:40Z</time>
      </trkpt>
      <trkpt lat="47.06946" lon="2.40316">
        <ele>140</ele>
        <time>2021-08-13T12:40:40Z</time>
      </trkpt>
      <trkpt lat="47.06959" lon="2.40345">
        <ele>141</ele>
        <time>2021-08-13T12:40:40Z</time>
      </trkpt>
      <trkpt lat="47.06963" lon="2.40352">
        <ele>141</ele>
        <time>2021-08-13T12:40:40Z</time>
      </trkpt>
      <trkpt lat="47.06983" lon="2.40385">
        <ele>141</ele>
        <time>2021-08-13T12:40:40Z</time>
      </trkpt>
      <trkpt lat="47.07003" lon="2.40435">
        <ele>142</ele>
        <time>2021-08-13T12:40:40Z</time>
      </trkpt>
      <trkpt lat="47.07015" lon="2.40487">
        <ele>142</ele>
        <time>2021-08-13T12:40:40Z</time>
      </trkpt>
      <trkpt lat="47.07009" lon="2.40527">
        <ele>142</ele>
        <time>2021-08-13T12:40:40Z</time>
      </trkpt>
      <trkpt lat="47.06975" lon="2.40541">
        <ele>142</ele>
        <time>2021-08-13T12:40:40Z</time>
      </trkpt>
      <trkpt lat="47.06969" lon="2.40543">
        <ele>142</ele>
        <time>2021-08-13T12:40:40Z</time>
      </trkpt>
      <trkpt lat="47.06964" lon="2.40544">
        <ele>143</ele>
        <time>2021-08-13T12:40:40Z</time>
      </trkpt>
      <trkpt lat="47.06958" lon="2.40546">
        <ele>143</ele>
        <time>2021-08-13T12:40:40Z</time>
      </trkpt>
      <trkpt lat="47.06946" lon="2.40548">
        <ele>143</ele>
        <time>2021-08-13T12:40:40Z</time>
      </trkpt>
      <trkpt lat="47.0694" lon="2.4055">
        <ele>144</ele>
        <time>2021-08-13T12:40:40Z</time>
      </trkpt>
      <trkpt lat="47.06934" lon="2.40552">
        <ele>144</ele>
        <time>2021-08-13T12:40:40Z</time>
      </trkpt>
      <trkpt lat="47.06898" lon="2.40562">
        <ele>145</ele>
        <time>2021-08-13T12:40:40Z</time>
      </trkpt>
      <trkpt lat="47.06871" lon="2.40573">
        <ele>146</ele>
        <time>2021-08-13T12:40:40Z</time>
      </trkpt>
      <trkpt lat="47.06863" lon="2.40613">
        <ele>146</ele>
        <time>2021-08-13T12:40:40Z</time>
      </trkpt>
      <trkpt lat="47.0684" lon="2.40626">
        <ele>146</ele>
        <time>2021-08-13T12:40:40Z</time>
      </trkpt>
      <trkpt lat="47.06811" lon="2.40639">
        <ele>148</ele>
        <time>2021-08-13T12:40:40Z</time>
      </trkpt>
      <trkpt lat="47.06788" lon="2.40651">
        <ele>149</ele>
        <time>2021-08-13T12:40:40Z</time>
      </trkpt>
      <trkpt lat="47.06783" lon="2.40653">
        <ele>149</ele>
        <time>2021-08-13T12:40:40Z</time>
      </trkpt>
      <trkpt lat="47.06754" lon="2.40669">
        <ele>149</ele>
        <time>2021-08-13T12:40:40Z</time>
      </trkpt>
      <trkpt lat="47.06736" lon="2.40685">
        <ele>149</ele>
        <time>2021-08-13T12:40:40Z</time>
      </trkpt>
      <trkpt lat="47.06732" lon="2.40687">
        <ele>149</ele>
        <time>2021-08-13T12:40:40Z</time>
      </trkpt>
      <trkpt lat="47.06732" lon="2.40687">
        <ele>149</ele>
        <time>2021-08-13T12:40:40Z</time>
      </trkpt>
    </trkseg>
  </trk>
</gpx>